<?xml version="1.0" encoding="UTF-8" standalone="no" ?>
<gpx xmlns="http://www.topografix.com/GPX/1/1" xmlns:xsi="http://www.w3.org/2001/XMLSchema-instance" xsi:schemaLocation="http://www.topografix.com/GPX/1/1 http://www.topografix.com/GPX/1/1/gpx.xsd" version="1.1" creator="VisuGPX - https://www.visugpx.com">
  <metadata>
    <name>Les falaises d orival et single robert le diable</name>
  </metadata>
  <trk>
    <name><![CDATA[Les falaises d orival et single robert le diable_1]]></name>
    <trkseg>
      <trkpt lat="49.33891" lon="1.08964">
        <ele>7.4</ele>
        <time>2021-04-03T12:33:41Z</time>
      </trkpt>
      <trkpt lat="49.33886" lon="1.0894">
        <ele>7.4</ele>
        <time>2021-04-03T12:33:48Z</time>
      </trkpt>
      <trkpt lat="49.33878" lon="1.08913">
        <ele>7.6</ele>
        <time>2021-04-03T12:33:54Z</time>
      </trkpt>
      <trkpt lat="49.33868" lon="1.08869">
        <ele>7.8</ele>
        <time>2021-04-03T12:34:02Z</time>
      </trkpt>
      <trkpt lat="49.33859" lon="1.08828">
        <ele>8</ele>
        <time>2021-04-03T12:34:09Z</time>
      </trkpt>
      <trkpt lat="49.33847" lon="1.08778">
        <ele>8.4</ele>
        <time>2021-04-03T12:34:17Z</time>
      </trkpt>
      <trkpt lat="49.33836" lon="1.08735">
        <ele>8.6</ele>
        <time>2021-04-03T12:34:24Z</time>
      </trkpt>
      <trkpt lat="49.33829" lon="1.08697">
        <ele>9</ele>
        <time>2021-04-03T12:34:30Z</time>
      </trkpt>
      <trkpt lat="49.33828" lon="1.0869">
        <ele>9</ele>
        <time>2021-04-03T12:34:31Z</time>
      </trkpt>
      <trkpt lat="49.33824" lon="1.08665">
        <ele>9.2</ele>
        <time>2021-04-03T12:34:35Z</time>
      </trkpt>
      <trkpt lat="49.33818" lon="1.08636">
        <ele>10</ele>
        <time>2021-04-03T12:34:40Z</time>
      </trkpt>
      <trkpt lat="49.33818" lon="1.0863">
        <ele>10.2</ele>
        <time>2021-04-03T12:34:41Z</time>
      </trkpt>
      <trkpt lat="49.33819" lon="1.08606">
        <ele>11.4</ele>
        <time>2021-04-03T12:34:46Z</time>
      </trkpt>
      <trkpt lat="49.33819" lon="1.08601">
        <ele>11.4</ele>
        <time>2021-04-03T12:34:47Z</time>
      </trkpt>
      <trkpt lat="49.33821" lon="1.08566">
        <ele>12</ele>
        <time>2021-04-03T12:34:55Z</time>
      </trkpt>
      <trkpt lat="49.33821" lon="1.08557">
        <ele>13</ele>
        <time>2021-04-03T12:34:58Z</time>
      </trkpt>
      <trkpt lat="49.33821" lon="1.0855">
        <ele>13.6</ele>
        <time>2021-04-03T12:35:00Z</time>
      </trkpt>
      <trkpt lat="49.33821" lon="1.08538">
        <ele>14</ele>
        <time>2021-04-03T12:35:03Z</time>
      </trkpt>
      <trkpt lat="49.3382" lon="1.08522">
        <ele>14.6</ele>
        <time>2021-04-03T12:35:07Z</time>
      </trkpt>
      <trkpt lat="49.33818" lon="1.08511">
        <ele>15</ele>
        <time>2021-04-03T12:35:10Z</time>
      </trkpt>
      <trkpt lat="49.33815" lon="1.08489">
        <ele>16.2</ele>
        <time>2021-04-03T12:35:15Z</time>
      </trkpt>
      <trkpt lat="49.33815" lon="1.08484">
        <ele>16.2</ele>
        <time>2021-04-03T12:35:16Z</time>
      </trkpt>
      <trkpt lat="49.33812" lon="1.08454">
        <ele>16.6</ele>
        <time>2021-04-03T12:35:22Z</time>
      </trkpt>
      <trkpt lat="49.33809" lon="1.08421">
        <ele>17.6</ele>
        <time>2021-04-03T12:35:28Z</time>
      </trkpt>
      <trkpt lat="49.33808" lon="1.08402">
        <ele>17.8</ele>
        <time>2021-04-03T12:35:31Z</time>
      </trkpt>
      <trkpt lat="49.33803" lon="1.08343">
        <ele>18.4</ele>
        <time>2021-04-03T12:35:40Z</time>
      </trkpt>
      <trkpt lat="49.33804" lon="1.08336">
        <ele>18.4</ele>
        <time>2021-04-03T12:35:41Z</time>
      </trkpt>
      <trkpt lat="49.33808" lon="1.08318">
        <ele>18.4</ele>
        <time>2021-04-03T12:35:44Z</time>
      </trkpt>
      <trkpt lat="49.33807" lon="1.083">
        <ele>18.8</ele>
        <time>2021-04-03T12:35:47Z</time>
      </trkpt>
      <trkpt lat="49.33804" lon="1.08295">
        <ele>19</ele>
        <time>2021-04-03T12:35:48Z</time>
      </trkpt>
      <trkpt lat="49.338" lon="1.08291">
        <ele>19</ele>
        <time>2021-04-03T12:35:49Z</time>
      </trkpt>
      <trkpt lat="49.33796" lon="1.08286">
        <ele>19.2</ele>
        <time>2021-04-03T12:35:50Z</time>
      </trkpt>
      <trkpt lat="49.33792" lon="1.08279">
        <ele>19.2</ele>
        <time>2021-04-03T12:35:51Z</time>
      </trkpt>
      <trkpt lat="49.33771" lon="1.08222">
        <ele>19.4</ele>
        <time>2021-04-03T12:35:59Z</time>
      </trkpt>
      <trkpt lat="49.33768" lon="1.08215">
        <ele>19.2</ele>
        <time>2021-04-03T12:36:00Z</time>
      </trkpt>
      <trkpt lat="49.33746" lon="1.08154">
        <ele>19</ele>
        <time>2021-04-03T12:36:08Z</time>
      </trkpt>
      <trkpt lat="49.33725" lon="1.08096">
        <ele>18.6</ele>
        <time>2021-04-03T12:36:15Z</time>
      </trkpt>
      <trkpt lat="49.33717" lon="1.08069">
        <ele>18.4</ele>
        <time>2021-04-03T12:36:18Z</time>
      </trkpt>
      <trkpt lat="49.33697" lon="1.08011">
        <ele>17.4</ele>
        <time>2021-04-03T12:36:24Z</time>
      </trkpt>
      <trkpt lat="49.33694" lon="1.08001">
        <ele>17.4</ele>
        <time>2021-04-03T12:36:25Z</time>
      </trkpt>
      <trkpt lat="49.3368" lon="1.07959">
        <ele>16.4</ele>
        <time>2021-04-03T12:36:29Z</time>
      </trkpt>
      <trkpt lat="49.33673" lon="1.07938">
        <ele>16</ele>
        <time>2021-04-03T12:36:31Z</time>
      </trkpt>
      <trkpt lat="49.33666" lon="1.07917">
        <ele>15.4</ele>
        <time>2021-04-03T12:36:33Z</time>
      </trkpt>
      <trkpt lat="49.33652" lon="1.07874">
        <ele>14.2</ele>
        <time>2021-04-03T12:36:37Z</time>
      </trkpt>
      <trkpt lat="49.33637" lon="1.0783">
        <ele>13.4</ele>
        <time>2021-04-03T12:36:41Z</time>
      </trkpt>
      <trkpt lat="49.33634" lon="1.07819">
        <ele>13.4</ele>
        <time>2021-04-03T12:36:42Z</time>
      </trkpt>
      <trkpt lat="49.33616" lon="1.07764">
        <ele>11.8</ele>
        <time>2021-04-03T12:36:47Z</time>
      </trkpt>
      <trkpt lat="49.33609" lon="1.07742">
        <ele>10.8</ele>
        <time>2021-04-03T12:36:49Z</time>
      </trkpt>
      <trkpt lat="49.33602" lon="1.07719">
        <ele>10.4</ele>
        <time>2021-04-03T12:36:51Z</time>
      </trkpt>
      <trkpt lat="49.33592" lon="1.07685">
        <ele>9.8</ele>
        <time>2021-04-03T12:36:54Z</time>
      </trkpt>
      <trkpt lat="49.33576" lon="1.07639">
        <ele>8.4</ele>
        <time>2021-04-03T12:36:58Z</time>
      </trkpt>
      <trkpt lat="49.33573" lon="1.07627">
        <ele>8.4</ele>
        <time>2021-04-03T12:36:59Z</time>
      </trkpt>
      <trkpt lat="49.33564" lon="1.07603">
        <ele>7.6</ele>
        <time>2021-04-03T12:37:01Z</time>
      </trkpt>
      <trkpt lat="49.33552" lon="1.0757">
        <ele>6.4</ele>
        <time>2021-04-03T12:37:04Z</time>
      </trkpt>
      <trkpt lat="49.33549" lon="1.0756">
        <ele>5.8</ele>
        <time>2021-04-03T12:37:05Z</time>
      </trkpt>
      <trkpt lat="49.33546" lon="1.0755">
        <ele>5.4</ele>
        <time>2021-04-03T12:37:06Z</time>
      </trkpt>
      <trkpt lat="49.33545" lon="1.07541">
        <ele>4.8</ele>
        <time>2021-04-03T12:37:07Z</time>
      </trkpt>
      <trkpt lat="49.33547" lon="1.07533">
        <ele>4.6</ele>
        <time>2021-04-03T12:37:08Z</time>
      </trkpt>
      <trkpt lat="49.33556" lon="1.07515">
        <ele>4.2</ele>
        <time>2021-04-03T12:37:11Z</time>
      </trkpt>
      <trkpt lat="49.33559" lon="1.07509">
        <ele>4.2</ele>
        <time>2021-04-03T12:37:12Z</time>
      </trkpt>
      <trkpt lat="49.33569" lon="1.07495">
        <ele>4.2</ele>
        <time>2021-04-03T12:37:15Z</time>
      </trkpt>
      <trkpt lat="49.33578" lon="1.07481">
        <ele>4.2</ele>
        <time>2021-04-03T12:37:18Z</time>
      </trkpt>
      <trkpt lat="49.33584" lon="1.07472">
        <ele>4.6</ele>
        <time>2021-04-03T12:37:20Z</time>
      </trkpt>
      <trkpt lat="49.3359" lon="1.07463">
        <ele>6</ele>
        <time>2021-04-03T12:37:22Z</time>
      </trkpt>
      <trkpt lat="49.33597" lon="1.07455">
        <ele>7</ele>
        <time>2021-04-03T12:37:24Z</time>
      </trkpt>
      <trkpt lat="49.33601" lon="1.0745">
        <ele>7.4</ele>
        <time>2021-04-03T12:37:25Z</time>
      </trkpt>
      <trkpt lat="49.33609" lon="1.07439">
        <ele>8.6</ele>
        <time>2021-04-03T12:37:28Z</time>
      </trkpt>
      <trkpt lat="49.33615" lon="1.0743">
        <ele>9.6</ele>
        <time>2021-04-03T12:37:30Z</time>
      </trkpt>
      <trkpt lat="49.33618" lon="1.07426">
        <ele>10.2</ele>
        <time>2021-04-03T12:37:31Z</time>
      </trkpt>
      <trkpt lat="49.33627" lon="1.07415">
        <ele>11.4</ele>
        <time>2021-04-03T12:37:34Z</time>
      </trkpt>
      <trkpt lat="49.33636" lon="1.07402">
        <ele>12.6</ele>
        <time>2021-04-03T12:37:37Z</time>
      </trkpt>
      <trkpt lat="49.33646" lon="1.0739">
        <ele>14</ele>
        <time>2021-04-03T12:37:40Z</time>
      </trkpt>
      <trkpt lat="49.33655" lon="1.07375">
        <ele>15.4</ele>
        <time>2021-04-03T12:37:43Z</time>
      </trkpt>
      <trkpt lat="49.33661" lon="1.07365">
        <ele>16.4</ele>
        <time>2021-04-03T12:37:45Z</time>
      </trkpt>
      <trkpt lat="49.33664" lon="1.07359">
        <ele>16.8</ele>
        <time>2021-04-03T12:37:46Z</time>
      </trkpt>
      <trkpt lat="49.33669" lon="1.07349">
        <ele>18</ele>
        <time>2021-04-03T12:37:48Z</time>
      </trkpt>
      <trkpt lat="49.33675" lon="1.07339">
        <ele>18.8</ele>
        <time>2021-04-03T12:37:50Z</time>
      </trkpt>
      <trkpt lat="49.33678" lon="1.07333">
        <ele>19.2</ele>
        <time>2021-04-03T12:37:51Z</time>
      </trkpt>
      <trkpt lat="49.33684" lon="1.07323">
        <ele>19.8</ele>
        <time>2021-04-03T12:37:53Z</time>
      </trkpt>
      <trkpt lat="49.3369" lon="1.07312">
        <ele>20.2</ele>
        <time>2021-04-03T12:37:55Z</time>
      </trkpt>
      <trkpt lat="49.33701" lon="1.07292">
        <ele>21.2</ele>
        <time>2021-04-03T12:37:59Z</time>
      </trkpt>
      <trkpt lat="49.33707" lon="1.07282">
        <ele>21.8</ele>
        <time>2021-04-03T12:38:01Z</time>
      </trkpt>
      <trkpt lat="49.33713" lon="1.07271">
        <ele>22.4</ele>
        <time>2021-04-03T12:38:03Z</time>
      </trkpt>
      <trkpt lat="49.33725" lon="1.07248">
        <ele>23</ele>
        <time>2021-04-03T12:38:07Z</time>
      </trkpt>
      <trkpt lat="49.33726" lon="1.07241">
        <ele>23</ele>
        <time>2021-04-03T12:38:08Z</time>
      </trkpt>
      <trkpt lat="49.33728" lon="1.0721">
        <ele>23.4</ele>
        <time>2021-04-03T12:38:12Z</time>
      </trkpt>
      <trkpt lat="49.33727" lon="1.07203">
        <ele>23.6</ele>
        <time>2021-04-03T12:38:13Z</time>
      </trkpt>
      <trkpt lat="49.33726" lon="1.07195">
        <ele>23.8</ele>
        <time>2021-04-03T12:38:14Z</time>
      </trkpt>
      <trkpt lat="49.33722" lon="1.07168">
        <ele>24.6</ele>
        <time>2021-04-03T12:38:18Z</time>
      </trkpt>
      <trkpt lat="49.33719" lon="1.07156">
        <ele>24.8</ele>
        <time>2021-04-03T12:38:20Z</time>
      </trkpt>
      <trkpt lat="49.33714" lon="1.07131">
        <ele>26</ele>
        <time>2021-04-03T12:38:24Z</time>
      </trkpt>
      <trkpt lat="49.33711" lon="1.07118">
        <ele>26.4</ele>
        <time>2021-04-03T12:38:26Z</time>
      </trkpt>
      <trkpt lat="49.33711" lon="1.07112">
        <ele>26.6</ele>
        <time>2021-04-03T12:38:27Z</time>
      </trkpt>
      <trkpt lat="49.3371" lon="1.07098">
        <ele>27.4</ele>
        <time>2021-04-03T12:38:29Z</time>
      </trkpt>
      <trkpt lat="49.3371" lon="1.07084">
        <ele>27.8</ele>
        <time>2021-04-03T12:38:31Z</time>
      </trkpt>
      <trkpt lat="49.33712" lon="1.07062">
        <ele>28.6</ele>
        <time>2021-04-03T12:38:34Z</time>
      </trkpt>
      <trkpt lat="49.33715" lon="1.07042">
        <ele>29.2</ele>
        <time>2021-04-03T12:38:37Z</time>
      </trkpt>
      <trkpt lat="49.33715" lon="1.07036">
        <ele>29.6</ele>
        <time>2021-04-03T12:38:38Z</time>
      </trkpt>
      <trkpt lat="49.33715" lon="1.07021">
        <ele>30.4</ele>
        <time>2021-04-03T12:38:42Z</time>
      </trkpt>
      <trkpt lat="49.33715" lon="1.07018">
        <ele>30.8</ele>
        <time>2021-04-03T12:38:44Z</time>
      </trkpt>
      <trkpt lat="49.33714" lon="1.07018">
        <ele>31.2</ele>
        <time>2021-04-03T12:38:45Z</time>
      </trkpt>
      <trkpt lat="49.33721" lon="1.07007">
        <ele>32</ele>
        <time>2021-04-03T12:40:18Z</time>
      </trkpt>
      <trkpt lat="49.33729" lon="1.06992">
        <ele>32</ele>
        <time>2021-04-03T12:40:22Z</time>
      </trkpt>
      <trkpt lat="49.33731" lon="1.06988">
        <ele>32</ele>
        <time>2021-04-03T12:40:23Z</time>
      </trkpt>
      <trkpt lat="49.33751" lon="1.06961">
        <ele>32</ele>
        <time>2021-04-03T12:40:30Z</time>
      </trkpt>
      <trkpt lat="49.33762" lon="1.06938">
        <ele>32.2</ele>
        <time>2021-04-03T12:40:35Z</time>
      </trkpt>
      <trkpt lat="49.33765" lon="1.06921">
        <ele>32.4</ele>
        <time>2021-04-03T12:40:40Z</time>
      </trkpt>
      <trkpt lat="49.33769" lon="1.06892">
        <ele>33</ele>
        <time>2021-04-03T12:40:45Z</time>
      </trkpt>
      <trkpt lat="49.3377" lon="1.06886">
        <ele>33</ele>
        <time>2021-04-03T12:40:46Z</time>
      </trkpt>
      <trkpt lat="49.33776" lon="1.06868">
        <ele>33</ele>
        <time>2021-04-03T12:40:49Z</time>
      </trkpt>
      <trkpt lat="49.33779" lon="1.06861">
        <ele>33</ele>
        <time>2021-04-03T12:40:50Z</time>
      </trkpt>
      <trkpt lat="49.33786" lon="1.0685">
        <ele>33.2</ele>
        <time>2021-04-03T12:40:52Z</time>
      </trkpt>
      <trkpt lat="49.33795" lon="1.06837">
        <ele>33</ele>
        <time>2021-04-03T12:40:55Z</time>
      </trkpt>
      <trkpt lat="49.33803" lon="1.06826">
        <ele>33</ele>
        <time>2021-04-03T12:40:58Z</time>
      </trkpt>
      <trkpt lat="49.33808" lon="1.06822">
        <ele>33</ele>
        <time>2021-04-03T12:41:00Z</time>
      </trkpt>
      <trkpt lat="49.33813" lon="1.06816">
        <ele>32.8</ele>
        <time>2021-04-03T12:41:02Z</time>
      </trkpt>
      <trkpt lat="49.33821" lon="1.06804">
        <ele>32.6</ele>
        <time>2021-04-03T12:41:05Z</time>
      </trkpt>
      <trkpt lat="49.33842" lon="1.06772">
        <ele>32.6</ele>
        <time>2021-04-03T12:41:13Z</time>
      </trkpt>
      <trkpt lat="49.33861" lon="1.06745">
        <ele>33</ele>
        <time>2021-04-03T12:41:19Z</time>
      </trkpt>
      <trkpt lat="49.33878" lon="1.06723">
        <ele>33.8</ele>
        <time>2021-04-03T12:41:24Z</time>
      </trkpt>
      <trkpt lat="49.33904" lon="1.06686">
        <ele>34</ele>
        <time>2021-04-03T12:41:32Z</time>
      </trkpt>
      <trkpt lat="49.33923" lon="1.0666">
        <ele>34.4</ele>
        <time>2021-04-03T12:41:38Z</time>
      </trkpt>
      <trkpt lat="49.33941" lon="1.06635">
        <ele>34.6</ele>
        <time>2021-04-03T12:41:43Z</time>
      </trkpt>
      <trkpt lat="49.33945" lon="1.0663">
        <ele>34.8</ele>
        <time>2021-04-03T12:41:44Z</time>
      </trkpt>
      <trkpt lat="49.33961" lon="1.06612">
        <ele>35</ele>
        <time>2021-04-03T12:41:48Z</time>
      </trkpt>
      <trkpt lat="49.33967" lon="1.06601">
        <ele>35</ele>
        <time>2021-04-03T12:41:50Z</time>
      </trkpt>
      <trkpt lat="49.33993" lon="1.06571">
        <ele>35.4</ele>
        <time>2021-04-03T12:41:57Z</time>
      </trkpt>
      <trkpt lat="49.34006" lon="1.06554">
        <ele>36.4</ele>
        <time>2021-04-03T12:42:01Z</time>
      </trkpt>
      <trkpt lat="49.34013" lon="1.06545">
        <ele>36.4</ele>
        <time>2021-04-03T12:42:03Z</time>
      </trkpt>
      <trkpt lat="49.34025" lon="1.06528">
        <ele>36.8</ele>
        <time>2021-04-03T12:42:08Z</time>
      </trkpt>
      <trkpt lat="49.34036" lon="1.06509">
        <ele>37.4</ele>
        <time>2021-04-03T12:42:14Z</time>
      </trkpt>
      <trkpt lat="49.34038" lon="1.06506">
        <ele>37.6</ele>
        <time>2021-04-03T12:42:15Z</time>
      </trkpt>
      <trkpt lat="49.3405" lon="1.06489">
        <ele>38.2</ele>
        <time>2021-04-03T12:42:21Z</time>
      </trkpt>
      <trkpt lat="49.34059" lon="1.06473">
        <ele>38.6</ele>
        <time>2021-04-03T12:42:25Z</time>
      </trkpt>
      <trkpt lat="49.34065" lon="1.0646">
        <ele>39.2</ele>
        <time>2021-04-03T12:42:28Z</time>
      </trkpt>
      <trkpt lat="49.34088" lon="1.06432">
        <ele>39.8</ele>
        <time>2021-04-03T12:42:36Z</time>
      </trkpt>
      <trkpt lat="49.34092" lon="1.06429">
        <ele>39.8</ele>
        <time>2021-04-03T12:42:37Z</time>
      </trkpt>
      <trkpt lat="49.34103" lon="1.06407">
        <ele>40</ele>
        <time>2021-04-03T12:42:42Z</time>
      </trkpt>
      <trkpt lat="49.34111" lon="1.0639">
        <ele>40.8</ele>
        <time>2021-04-03T12:42:46Z</time>
      </trkpt>
      <trkpt lat="49.34114" lon="1.06382">
        <ele>41</ele>
        <time>2021-04-03T12:42:48Z</time>
      </trkpt>
      <trkpt lat="49.34123" lon="1.06358">
        <ele>41.4</ele>
        <time>2021-04-03T12:42:54Z</time>
      </trkpt>
      <trkpt lat="49.34128" lon="1.06341">
        <ele>42</ele>
        <time>2021-04-03T12:42:58Z</time>
      </trkpt>
      <trkpt lat="49.3413" lon="1.06337">
        <ele>42.2</ele>
        <time>2021-04-03T12:42:59Z</time>
      </trkpt>
      <trkpt lat="49.3414" lon="1.06304">
        <ele>43.2</ele>
        <time>2021-04-03T12:43:05Z</time>
      </trkpt>
      <trkpt lat="49.34144" lon="1.06296">
        <ele>43.6</ele>
        <time>2021-04-03T12:43:07Z</time>
      </trkpt>
      <trkpt lat="49.34156" lon="1.06268">
        <ele>43.8</ele>
        <time>2021-04-03T12:43:12Z</time>
      </trkpt>
      <trkpt lat="49.34166" lon="1.06239">
        <ele>44</ele>
        <time>2021-04-03T12:43:17Z</time>
      </trkpt>
      <trkpt lat="49.34176" lon="1.06199">
        <ele>44.2</ele>
        <time>2021-04-03T12:43:24Z</time>
      </trkpt>
      <trkpt lat="49.34179" lon="1.06187">
        <ele>44.4</ele>
        <time>2021-04-03T12:43:26Z</time>
      </trkpt>
      <trkpt lat="49.34188" lon="1.06161">
        <ele>45.2</ele>
        <time>2021-04-03T12:43:31Z</time>
      </trkpt>
      <trkpt lat="49.34191" lon="1.06135">
        <ele>45.6</ele>
        <time>2021-04-03T12:43:35Z</time>
      </trkpt>
      <trkpt lat="49.34191" lon="1.06128">
        <ele>45.6</ele>
        <time>2021-04-03T12:43:36Z</time>
      </trkpt>
      <trkpt lat="49.34194" lon="1.06085">
        <ele>45.8</ele>
        <time>2021-04-03T12:43:42Z</time>
      </trkpt>
      <trkpt lat="49.34198" lon="1.06051">
        <ele>46.6</ele>
        <time>2021-04-03T12:43:47Z</time>
      </trkpt>
      <trkpt lat="49.342" lon="1.06017">
        <ele>47.4</ele>
        <time>2021-04-03T12:43:53Z</time>
      </trkpt>
      <trkpt lat="49.34202" lon="1.05985">
        <ele>47.6</ele>
        <time>2021-04-03T12:43:58Z</time>
      </trkpt>
      <trkpt lat="49.34201" lon="1.05974">
        <ele>48</ele>
        <time>2021-04-03T12:44:00Z</time>
      </trkpt>
      <trkpt lat="49.34201" lon="1.05961">
        <ele>48.2</ele>
        <time>2021-04-03T12:44:03Z</time>
      </trkpt>
      <trkpt lat="49.34197" lon="1.05936">
        <ele>48.8</ele>
        <time>2021-04-03T12:44:09Z</time>
      </trkpt>
      <trkpt lat="49.34197" lon="1.05925">
        <ele>49</ele>
        <time>2021-04-03T12:44:11Z</time>
      </trkpt>
      <trkpt lat="49.34196" lon="1.05907">
        <ele>49.2</ele>
        <time>2021-04-03T12:44:15Z</time>
      </trkpt>
      <trkpt lat="49.34195" lon="1.05882">
        <ele>49.8</ele>
        <time>2021-04-03T12:44:21Z</time>
      </trkpt>
      <trkpt lat="49.34194" lon="1.05879">
        <ele>49.8</ele>
        <time>2021-04-03T12:44:22Z</time>
      </trkpt>
      <trkpt lat="49.34193" lon="1.05877">
        <ele>50</ele>
        <time>2021-04-03T12:44:23Z</time>
      </trkpt>
      <trkpt lat="49.3419" lon="1.05875">
        <ele>50.2</ele>
        <time>2021-04-03T12:44:25Z</time>
      </trkpt>
      <trkpt lat="49.34188" lon="1.05875">
        <ele>50.2</ele>
        <time>2021-04-03T12:44:27Z</time>
      </trkpt>
      <trkpt lat="49.34181" lon="1.05876">
        <ele>50.6</ele>
        <time>2021-04-03T12:44:34Z</time>
      </trkpt>
      <trkpt lat="49.34172" lon="1.05882">
        <ele>50.6</ele>
        <time>2021-04-03T12:44:38Z</time>
      </trkpt>
      <trkpt lat="49.3417" lon="1.05884">
        <ele>50.4</ele>
        <time>2021-04-03T12:44:39Z</time>
      </trkpt>
      <trkpt lat="49.34161" lon="1.05891">
        <ele>49.4</ele>
        <time>2021-04-03T12:44:44Z</time>
      </trkpt>
      <trkpt lat="49.34156" lon="1.05892">
        <ele>49.2</ele>
        <time>2021-04-03T12:44:46Z</time>
      </trkpt>
      <trkpt lat="49.34147" lon="1.05894">
        <ele>49.2</ele>
        <time>2021-04-03T12:44:49Z</time>
      </trkpt>
      <trkpt lat="49.34128" lon="1.05901">
        <ele>49.8</ele>
        <time>2021-04-03T12:44:55Z</time>
      </trkpt>
      <trkpt lat="49.34119" lon="1.05905">
        <ele>50.6</ele>
        <time>2021-04-03T12:44:58Z</time>
      </trkpt>
      <trkpt lat="49.3411" lon="1.05908">
        <ele>52</ele>
        <time>2021-04-03T12:45:01Z</time>
      </trkpt>
      <trkpt lat="49.341" lon="1.05911">
        <ele>53.4</ele>
        <time>2021-04-03T12:45:04Z</time>
      </trkpt>
      <trkpt lat="49.3409" lon="1.05913">
        <ele>54.6</ele>
        <time>2021-04-03T12:45:07Z</time>
      </trkpt>
      <trkpt lat="49.3408" lon="1.05913">
        <ele>55.8</ele>
        <time>2021-04-03T12:45:11Z</time>
      </trkpt>
      <trkpt lat="49.34077" lon="1.05909">
        <ele>56.8</ele>
        <time>2021-04-03T12:45:13Z</time>
      </trkpt>
      <trkpt lat="49.34076" lon="1.05907">
        <ele>57.2</ele>
        <time>2021-04-03T12:45:14Z</time>
      </trkpt>
      <trkpt lat="49.34072" lon="1.05897">
        <ele>58.6</ele>
        <time>2021-04-03T12:45:17Z</time>
      </trkpt>
      <trkpt lat="49.3407" lon="1.05891">
        <ele>60</ele>
        <time>2021-04-03T12:45:19Z</time>
      </trkpt>
      <trkpt lat="49.34068" lon="1.05884">
        <ele>61</ele>
        <time>2021-04-03T12:45:21Z</time>
      </trkpt>
      <trkpt lat="49.34066" lon="1.0587">
        <ele>62.6</ele>
        <time>2021-04-03T12:45:24Z</time>
      </trkpt>
      <trkpt lat="49.34066" lon="1.05865">
        <ele>62.8</ele>
        <time>2021-04-03T12:45:25Z</time>
      </trkpt>
      <trkpt lat="49.34062" lon="1.05842">
        <ele>63.6</ele>
        <time>2021-04-03T12:45:29Z</time>
      </trkpt>
      <trkpt lat="49.34061" lon="1.05836">
        <ele>64</ele>
        <time>2021-04-03T12:45:30Z</time>
      </trkpt>
      <trkpt lat="49.34058" lon="1.05812">
        <ele>64.4</ele>
        <time>2021-04-03T12:45:35Z</time>
      </trkpt>
      <trkpt lat="49.34057" lon="1.05807">
        <ele>64.8</ele>
        <time>2021-04-03T12:45:36Z</time>
      </trkpt>
      <trkpt lat="49.34055" lon="1.05795">
        <ele>66.2</ele>
        <time>2021-04-03T12:45:39Z</time>
      </trkpt>
      <trkpt lat="49.34054" lon="1.05784">
        <ele>67.8</ele>
        <time>2021-04-03T12:45:41Z</time>
      </trkpt>
      <trkpt lat="49.34053" lon="1.05772">
        <ele>69.6</ele>
        <time>2021-04-03T12:45:43Z</time>
      </trkpt>
      <trkpt lat="49.3405" lon="1.0576">
        <ele>71.2</ele>
        <time>2021-04-03T12:45:45Z</time>
      </trkpt>
      <trkpt lat="49.34049" lon="1.05754">
        <ele>72.8</ele>
        <time>2021-04-03T12:45:46Z</time>
      </trkpt>
      <trkpt lat="49.34046" lon="1.05744">
        <ele>74</ele>
        <time>2021-04-03T12:45:48Z</time>
      </trkpt>
      <trkpt lat="49.34043" lon="1.05725">
        <ele>75.4</ele>
        <time>2021-04-03T12:45:51Z</time>
      </trkpt>
      <trkpt lat="49.34042" lon="1.05718">
        <ele>76</ele>
        <time>2021-04-03T12:45:52Z</time>
      </trkpt>
      <trkpt lat="49.3404" lon="1.0571">
        <ele>76.8</ele>
        <time>2021-04-03T12:45:53Z</time>
      </trkpt>
      <trkpt lat="49.34034" lon="1.05699">
        <ele>77.8</ele>
        <time>2021-04-03T12:45:55Z</time>
      </trkpt>
      <trkpt lat="49.3403" lon="1.05694">
        <ele>78.4</ele>
        <time>2021-04-03T12:45:56Z</time>
      </trkpt>
      <trkpt lat="49.34024" lon="1.05689">
        <ele>79</ele>
        <time>2021-04-03T12:45:58Z</time>
      </trkpt>
      <trkpt lat="49.34023" lon="1.05687">
        <ele>79</ele>
        <time>2021-04-03T12:45:59Z</time>
      </trkpt>
      <trkpt lat="49.34022" lon="1.05685">
        <ele>79.2</ele>
        <time>2021-04-03T12:46:00Z</time>
      </trkpt>
      <trkpt lat="49.3402" lon="1.05683">
        <ele>79.2</ele>
        <time>2021-04-03T12:46:03Z</time>
      </trkpt>
      <trkpt lat="49.34012" lon="1.0567">
        <ele>80.4</ele>
        <time>2021-04-03T12:46:35Z</time>
      </trkpt>
      <trkpt lat="49.3401" lon="1.05669">
        <ele>80.4</ele>
        <time>2021-04-03T12:46:36Z</time>
      </trkpt>
      <trkpt lat="49.33997" lon="1.0566">
        <ele>80.4</ele>
        <time>2021-04-03T12:46:41Z</time>
      </trkpt>
      <trkpt lat="49.33987" lon="1.05663">
        <ele>80.4</ele>
        <time>2021-04-03T12:46:45Z</time>
      </trkpt>
      <trkpt lat="49.33983" lon="1.05666">
        <ele>80.6</ele>
        <time>2021-04-03T12:46:47Z</time>
      </trkpt>
      <trkpt lat="49.33976" lon="1.05667">
        <ele>81.4</ele>
        <time>2021-04-03T12:46:51Z</time>
      </trkpt>
      <trkpt lat="49.33975" lon="1.05667">
        <ele>82</ele>
        <time>2021-04-03T12:46:52Z</time>
      </trkpt>
      <trkpt lat="49.33975" lon="1.05667">
        <ele>82.4</ele>
        <time>2021-04-03T12:46:53Z</time>
      </trkpt>
      <trkpt lat="49.33952" lon="1.05663">
        <ele>85.6</ele>
        <time>2021-04-03T12:47:07Z</time>
      </trkpt>
      <trkpt lat="49.33946" lon="1.05662">
        <ele>85.6</ele>
        <time>2021-04-03T12:47:09Z</time>
      </trkpt>
      <trkpt lat="49.33937" lon="1.05657">
        <ele>85.8</ele>
        <time>2021-04-03T12:47:13Z</time>
      </trkpt>
      <trkpt lat="49.33931" lon="1.05655">
        <ele>85.8</ele>
        <time>2021-04-03T12:47:16Z</time>
      </trkpt>
      <trkpt lat="49.33925" lon="1.05654">
        <ele>85.8</ele>
        <time>2021-04-03T12:47:18Z</time>
      </trkpt>
      <trkpt lat="49.33915" lon="1.05659">
        <ele>87</ele>
        <time>2021-04-03T12:47:21Z</time>
      </trkpt>
      <trkpt lat="49.3391" lon="1.0566">
        <ele>87.6</ele>
        <time>2021-04-03T12:47:23Z</time>
      </trkpt>
      <trkpt lat="49.33897" lon="1.05659">
        <ele>88.2</ele>
        <time>2021-04-03T12:47:27Z</time>
      </trkpt>
      <trkpt lat="49.33894" lon="1.05658">
        <ele>88.4</ele>
        <time>2021-04-03T12:47:28Z</time>
      </trkpt>
      <trkpt lat="49.3389" lon="1.05654">
        <ele>89.2</ele>
        <time>2021-04-03T12:47:29Z</time>
      </trkpt>
      <trkpt lat="49.33883" lon="1.05647">
        <ele>90.4</ele>
        <time>2021-04-03T12:47:31Z</time>
      </trkpt>
      <trkpt lat="49.33881" lon="1.05645">
        <ele>90.8</ele>
        <time>2021-04-03T12:47:32Z</time>
      </trkpt>
      <trkpt lat="49.3387" lon="1.05636">
        <ele>91.4</ele>
        <time>2021-04-03T12:47:36Z</time>
      </trkpt>
      <trkpt lat="49.33868" lon="1.05636">
        <ele>91.4</ele>
        <time>2021-04-03T12:47:37Z</time>
      </trkpt>
      <trkpt lat="49.3386" lon="1.05639">
        <ele>92</ele>
        <time>2021-04-03T12:47:40Z</time>
      </trkpt>
      <trkpt lat="49.33851" lon="1.05629">
        <ele>92.8</ele>
        <time>2021-04-03T12:47:44Z</time>
      </trkpt>
      <trkpt lat="49.33845" lon="1.05625">
        <ele>93.8</ele>
        <time>2021-04-03T12:47:46Z</time>
      </trkpt>
      <trkpt lat="49.33842" lon="1.05622">
        <ele>94</ele>
        <time>2021-04-03T12:47:47Z</time>
      </trkpt>
      <trkpt lat="49.33836" lon="1.0562">
        <ele>94.4</ele>
        <time>2021-04-03T12:47:49Z</time>
      </trkpt>
      <trkpt lat="49.33819" lon="1.05611">
        <ele>94.6</ele>
        <time>2021-04-03T12:47:53Z</time>
      </trkpt>
      <trkpt lat="49.33803" lon="1.05602">
        <ele>95.2</ele>
        <time>2021-04-03T12:47:56Z</time>
      </trkpt>
      <trkpt lat="49.33796" lon="1.05599">
        <ele>95.8</ele>
        <time>2021-04-03T12:47:58Z</time>
      </trkpt>
      <trkpt lat="49.3379" lon="1.05594">
        <ele>96.4</ele>
        <time>2021-04-03T12:48:00Z</time>
      </trkpt>
      <trkpt lat="49.33778" lon="1.05586">
        <ele>97.4</ele>
        <time>2021-04-03T12:48:04Z</time>
      </trkpt>
      <trkpt lat="49.33774" lon="1.05583">
        <ele>98</ele>
        <time>2021-04-03T12:48:05Z</time>
      </trkpt>
      <trkpt lat="49.33771" lon="1.05579">
        <ele>99.8</ele>
        <time>2021-04-03T12:48:06Z</time>
      </trkpt>
      <trkpt lat="49.33762" lon="1.05572">
        <ele>101</ele>
        <time>2021-04-03T12:48:08Z</time>
      </trkpt>
      <trkpt lat="49.3376" lon="1.05568">
        <ele>101.2</ele>
        <time>2021-04-03T12:48:09Z</time>
      </trkpt>
      <trkpt lat="49.33757" lon="1.0554">
        <ele>101.8</ele>
        <time>2021-04-03T12:48:13Z</time>
      </trkpt>
      <trkpt lat="49.33758" lon="1.05533">
        <ele>102</ele>
        <time>2021-04-03T12:48:14Z</time>
      </trkpt>
      <trkpt lat="49.33757" lon="1.05514">
        <ele>102</ele>
        <time>2021-04-03T12:48:17Z</time>
      </trkpt>
      <trkpt lat="49.33747" lon="1.05489">
        <ele>102</ele>
        <time>2021-04-03T12:48:22Z</time>
      </trkpt>
      <trkpt lat="49.33744" lon="1.05476">
        <ele>102.2</ele>
        <time>2021-04-03T12:48:24Z</time>
      </trkpt>
      <trkpt lat="49.33741" lon="1.05453">
        <ele>102.2</ele>
        <time>2021-04-03T12:48:28Z</time>
      </trkpt>
      <trkpt lat="49.33736" lon="1.05436">
        <ele>101.8</ele>
        <time>2021-04-03T12:48:33Z</time>
      </trkpt>
      <trkpt lat="49.33728" lon="1.05428">
        <ele>101.8</ele>
        <time>2021-04-03T12:48:38Z</time>
      </trkpt>
      <trkpt lat="49.33725" lon="1.05422">
        <ele>102</ele>
        <time>2021-04-03T12:48:41Z</time>
      </trkpt>
      <trkpt lat="49.3372" lon="1.05415">
        <ele>102.2</ele>
        <time>2021-04-03T12:48:43Z</time>
      </trkpt>
      <trkpt lat="49.33711" lon="1.05399">
        <ele>102.6</ele>
        <time>2021-04-03T12:48:47Z</time>
      </trkpt>
      <trkpt lat="49.33706" lon="1.05385">
        <ele>102.6</ele>
        <time>2021-04-03T12:48:49Z</time>
      </trkpt>
      <trkpt lat="49.33704" lon="1.05369">
        <ele>102.8</ele>
        <time>2021-04-03T12:48:51Z</time>
      </trkpt>
      <trkpt lat="49.33702" lon="1.05338">
        <ele>103.8</ele>
        <time>2021-04-03T12:48:55Z</time>
      </trkpt>
      <trkpt lat="49.33702" lon="1.05332">
        <ele>104</ele>
        <time>2021-04-03T12:48:56Z</time>
      </trkpt>
      <trkpt lat="49.33697" lon="1.05318">
        <ele>104.2</ele>
        <time>2021-04-03T12:48:59Z</time>
      </trkpt>
      <trkpt lat="49.33696" lon="1.05315">
        <ele>104.4</ele>
        <time>2021-04-03T12:49:00Z</time>
      </trkpt>
      <trkpt lat="49.33694" lon="1.05295">
        <ele>104.8</ele>
        <time>2021-04-03T12:49:04Z</time>
      </trkpt>
      <trkpt lat="49.33685" lon="1.05279">
        <ele>105</ele>
        <time>2021-04-03T12:49:08Z</time>
      </trkpt>
      <trkpt lat="49.33679" lon="1.0526">
        <ele>105.2</ele>
        <time>2021-04-03T12:49:12Z</time>
      </trkpt>
      <trkpt lat="49.3368" lon="1.05235">
        <ele>105.6</ele>
        <time>2021-04-03T12:49:16Z</time>
      </trkpt>
      <trkpt lat="49.3368" lon="1.05229">
        <ele>105.6</ele>
        <time>2021-04-03T12:49:17Z</time>
      </trkpt>
      <trkpt lat="49.33673" lon="1.05208">
        <ele>106</ele>
        <time>2021-04-03T12:49:20Z</time>
      </trkpt>
      <trkpt lat="49.33671" lon="1.05201">
        <ele>106.2</ele>
        <time>2021-04-03T12:49:21Z</time>
      </trkpt>
      <trkpt lat="49.33668" lon="1.05193">
        <ele>106.4</ele>
        <time>2021-04-03T12:49:22Z</time>
      </trkpt>
      <trkpt lat="49.3366" lon="1.0517">
        <ele>106.6</ele>
        <time>2021-04-03T12:49:26Z</time>
      </trkpt>
      <trkpt lat="49.33651" lon="1.05143">
        <ele>107.2</ele>
        <time>2021-04-03T12:49:31Z</time>
      </trkpt>
      <trkpt lat="49.33648" lon="1.05138">
        <ele>107.4</ele>
        <time>2021-04-03T12:49:32Z</time>
      </trkpt>
      <trkpt lat="49.33643" lon="1.0512">
        <ele>108.6</ele>
        <time>2021-04-03T12:49:35Z</time>
      </trkpt>
      <trkpt lat="49.33639" lon="1.05111">
        <ele>108.8</ele>
        <time>2021-04-03T12:49:37Z</time>
      </trkpt>
      <trkpt lat="49.33637" lon="1.05104">
        <ele>109</ele>
        <time>2021-04-03T12:49:38Z</time>
      </trkpt>
      <trkpt lat="49.33631" lon="1.05085">
        <ele>109.4</ele>
        <time>2021-04-03T12:49:41Z</time>
      </trkpt>
      <trkpt lat="49.33628" lon="1.05079">
        <ele>109.6</ele>
        <time>2021-04-03T12:49:42Z</time>
      </trkpt>
      <trkpt lat="49.33615" lon="1.05045">
        <ele>110.4</ele>
        <time>2021-04-03T12:49:47Z</time>
      </trkpt>
      <trkpt lat="49.33609" lon="1.05029">
        <ele>110.8</ele>
        <time>2021-04-03T12:49:50Z</time>
      </trkpt>
      <trkpt lat="49.33607" lon="1.05021">
        <ele>111</ele>
        <time>2021-04-03T12:49:51Z</time>
      </trkpt>
      <trkpt lat="49.33597" lon="1.04985">
        <ele>111.2</ele>
        <time>2021-04-03T12:49:56Z</time>
      </trkpt>
      <trkpt lat="49.33588" lon="1.04956">
        <ele>111.2</ele>
        <time>2021-04-03T12:50:00Z</time>
      </trkpt>
      <trkpt lat="49.33585" lon="1.04949">
        <ele>111.2</ele>
        <time>2021-04-03T12:50:01Z</time>
      </trkpt>
      <trkpt lat="49.33583" lon="1.04941">
        <ele>111</ele>
        <time>2021-04-03T12:50:02Z</time>
      </trkpt>
      <trkpt lat="49.33574" lon="1.0491">
        <ele>110.6</ele>
        <time>2021-04-03T12:50:06Z</time>
      </trkpt>
      <trkpt lat="49.33571" lon="1.04902">
        <ele>110.2</ele>
        <time>2021-04-03T12:50:07Z</time>
      </trkpt>
      <trkpt lat="49.33566" lon="1.04893">
        <ele>109.8</ele>
        <time>2021-04-03T12:50:08Z</time>
      </trkpt>
      <trkpt lat="49.3356" lon="1.04878">
        <ele>109.6</ele>
        <time>2021-04-03T12:50:10Z</time>
      </trkpt>
      <trkpt lat="49.33556" lon="1.0487">
        <ele>109.2</ele>
        <time>2021-04-03T12:50:11Z</time>
      </trkpt>
      <trkpt lat="49.33552" lon="1.04861">
        <ele>109.2</ele>
        <time>2021-04-03T12:50:12Z</time>
      </trkpt>
      <trkpt lat="49.33545" lon="1.04847">
        <ele>108.6</ele>
        <time>2021-04-03T12:50:14Z</time>
      </trkpt>
      <trkpt lat="49.3354" lon="1.04841">
        <ele>108.4</ele>
        <time>2021-04-03T12:50:15Z</time>
      </trkpt>
      <trkpt lat="49.33526" lon="1.04823">
        <ele>108.2</ele>
        <time>2021-04-03T12:50:19Z</time>
      </trkpt>
      <trkpt lat="49.3352" lon="1.048">
        <ele>108.2</ele>
        <time>2021-04-03T12:50:25Z</time>
      </trkpt>
      <trkpt lat="49.33517" lon="1.04795">
        <ele>108.2</ele>
        <time>2021-04-03T12:50:27Z</time>
      </trkpt>
      <trkpt lat="49.33509" lon="1.04775">
        <ele>108.2</ele>
        <time>2021-04-03T12:53:42Z</time>
      </trkpt>
      <trkpt lat="49.33508" lon="1.0477">
        <ele>108.2</ele>
        <time>2021-04-03T12:53:43Z</time>
      </trkpt>
      <trkpt lat="49.33501" lon="1.04743">
        <ele>108</ele>
        <time>2021-04-03T12:53:49Z</time>
      </trkpt>
      <trkpt lat="49.33499" lon="1.04734">
        <ele>107.2</ele>
        <time>2021-04-03T12:53:51Z</time>
      </trkpt>
      <trkpt lat="49.33496" lon="1.04718">
        <ele>106.8</ele>
        <time>2021-04-03T12:53:54Z</time>
      </trkpt>
      <trkpt lat="49.3349" lon="1.04692">
        <ele>106.4</ele>
        <time>2021-04-03T12:53:59Z</time>
      </trkpt>
      <trkpt lat="49.33487" lon="1.04678">
        <ele>106.2</ele>
        <time>2021-04-03T12:54:01Z</time>
      </trkpt>
      <trkpt lat="49.33484" lon="1.04667">
        <ele>105.8</ele>
        <time>2021-04-03T12:54:03Z</time>
      </trkpt>
      <trkpt lat="49.33476" lon="1.04639">
        <ele>105</ele>
        <time>2021-04-03T12:54:08Z</time>
      </trkpt>
      <trkpt lat="49.33471" lon="1.04611">
        <ele>104.2</ele>
        <time>2021-04-03T12:54:13Z</time>
      </trkpt>
      <trkpt lat="49.33467" lon="1.04598">
        <ele>104.2</ele>
        <time>2021-04-03T12:54:15Z</time>
      </trkpt>
      <trkpt lat="49.33464" lon="1.04584">
        <ele>104</ele>
        <time>2021-04-03T12:54:18Z</time>
      </trkpt>
      <trkpt lat="49.33459" lon="1.04563">
        <ele>103.8</ele>
        <time>2021-04-03T12:54:23Z</time>
      </trkpt>
      <trkpt lat="49.33455" lon="1.04553">
        <ele>103.8</ele>
        <time>2021-04-03T12:54:26Z</time>
      </trkpt>
      <trkpt lat="49.33454" lon="1.04548">
        <ele>103.8</ele>
        <time>2021-04-03T12:54:28Z</time>
      </trkpt>
      <trkpt lat="49.3345" lon="1.04525">
        <ele>103.8</ele>
        <time>2021-04-03T12:54:33Z</time>
      </trkpt>
      <trkpt lat="49.33443" lon="1.04499">
        <ele>103.8</ele>
        <time>2021-04-03T12:54:38Z</time>
      </trkpt>
      <trkpt lat="49.33437" lon="1.04468">
        <ele>103.8</ele>
        <time>2021-04-03T12:54:42Z</time>
      </trkpt>
      <trkpt lat="49.33428" lon="1.04434">
        <ele>103.8</ele>
        <time>2021-04-03T12:54:47Z</time>
      </trkpt>
      <trkpt lat="49.33418" lon="1.04389">
        <ele>105.6</ele>
        <time>2021-04-03T12:54:53Z</time>
      </trkpt>
      <trkpt lat="49.33416" lon="1.04381">
        <ele>106.6</ele>
        <time>2021-04-03T12:54:54Z</time>
      </trkpt>
      <trkpt lat="49.33412" lon="1.04365">
        <ele>107.8</ele>
        <time>2021-04-03T12:54:56Z</time>
      </trkpt>
      <trkpt lat="49.33408" lon="1.04351">
        <ele>108.6</ele>
        <time>2021-04-03T12:54:58Z</time>
      </trkpt>
      <trkpt lat="49.33406" lon="1.04342">
        <ele>109</ele>
        <time>2021-04-03T12:54:59Z</time>
      </trkpt>
      <trkpt lat="49.33402" lon="1.04324">
        <ele>110</ele>
        <time>2021-04-03T12:55:01Z</time>
      </trkpt>
      <trkpt lat="49.33398" lon="1.04307">
        <ele>110.8</ele>
        <time>2021-04-03T12:55:03Z</time>
      </trkpt>
      <trkpt lat="49.33396" lon="1.04298">
        <ele>111.4</ele>
        <time>2021-04-03T12:55:04Z</time>
      </trkpt>
      <trkpt lat="49.33386" lon="1.04254">
        <ele>112.6</ele>
        <time>2021-04-03T12:55:09Z</time>
      </trkpt>
      <trkpt lat="49.33378" lon="1.04219">
        <ele>113.8</ele>
        <time>2021-04-03T12:55:13Z</time>
      </trkpt>
      <trkpt lat="49.33376" lon="1.04203">
        <ele>114.2</ele>
        <time>2021-04-03T12:55:15Z</time>
      </trkpt>
      <trkpt lat="49.3337" lon="1.04179">
        <ele>114.8</ele>
        <time>2021-04-03T12:55:18Z</time>
      </trkpt>
      <trkpt lat="49.33366" lon="1.04161">
        <ele>115.2</ele>
        <time>2021-04-03T12:55:20Z</time>
      </trkpt>
      <trkpt lat="49.33348" lon="1.04087">
        <ele>115.2</ele>
        <time>2021-04-03T12:55:28Z</time>
      </trkpt>
      <trkpt lat="49.33346" lon="1.04077">
        <ele>115.2</ele>
        <time>2021-04-03T12:55:29Z</time>
      </trkpt>
      <trkpt lat="49.33338" lon="1.04064">
        <ele>115.2</ele>
        <time>2021-04-03T12:55:31Z</time>
      </trkpt>
      <trkpt lat="49.33329" lon="1.04041">
        <ele>115.2</ele>
        <time>2021-04-03T12:55:34Z</time>
      </trkpt>
      <trkpt lat="49.33318" lon="1.04014">
        <ele>115.2</ele>
        <time>2021-04-03T12:55:38Z</time>
      </trkpt>
      <trkpt lat="49.33306" lon="1.04008">
        <ele>115.4</ele>
        <time>2021-04-03T12:55:41Z</time>
      </trkpt>
      <trkpt lat="49.33298" lon="1.04013">
        <ele>115.8</ele>
        <time>2021-04-03T12:55:43Z</time>
      </trkpt>
      <trkpt lat="49.33288" lon="1.04017">
        <ele>116</ele>
        <time>2021-04-03T12:55:45Z</time>
      </trkpt>
      <trkpt lat="49.33283" lon="1.0402">
        <ele>116</ele>
        <time>2021-04-03T12:55:46Z</time>
      </trkpt>
      <trkpt lat="49.33264" lon="1.04032">
        <ele>117</ele>
        <time>2021-04-03T12:55:50Z</time>
      </trkpt>
      <trkpt lat="49.33259" lon="1.04035">
        <ele>117.2</ele>
        <time>2021-04-03T12:55:51Z</time>
      </trkpt>
      <trkpt lat="49.33247" lon="1.04041">
        <ele>118.4</ele>
        <time>2021-04-03T12:55:54Z</time>
      </trkpt>
      <trkpt lat="49.3324" lon="1.04044">
        <ele>119</ele>
        <time>2021-04-03T12:55:56Z</time>
      </trkpt>
      <trkpt lat="49.33232" lon="1.04049">
        <ele>119.4</ele>
        <time>2021-04-03T12:55:58Z</time>
      </trkpt>
      <trkpt lat="49.33217" lon="1.04056">
        <ele>120</ele>
        <time>2021-04-03T12:56:01Z</time>
      </trkpt>
      <trkpt lat="49.33206" lon="1.04061">
        <ele>120.4</ele>
        <time>2021-04-03T12:56:03Z</time>
      </trkpt>
      <trkpt lat="49.33201" lon="1.04063">
        <ele>120.4</ele>
        <time>2021-04-03T12:56:04Z</time>
      </trkpt>
      <trkpt lat="49.33184" lon="1.04072">
        <ele>120.8</ele>
        <time>2021-04-03T12:56:07Z</time>
      </trkpt>
      <trkpt lat="49.33146" lon="1.04093">
        <ele>121.2</ele>
        <time>2021-04-03T12:56:14Z</time>
      </trkpt>
      <trkpt lat="49.33121" lon="1.04107">
        <ele>121.8</ele>
        <time>2021-04-03T12:56:19Z</time>
      </trkpt>
      <trkpt lat="49.33116" lon="1.0411">
        <ele>121.8</ele>
        <time>2021-04-03T12:56:20Z</time>
      </trkpt>
      <trkpt lat="49.33088" lon="1.04131">
        <ele>122.4</ele>
        <time>2021-04-03T12:56:25Z</time>
      </trkpt>
      <trkpt lat="49.33077" lon="1.04138">
        <ele>122.4</ele>
        <time>2021-04-03T12:56:27Z</time>
      </trkpt>
      <trkpt lat="49.3306" lon="1.04148">
        <ele>122.4</ele>
        <time>2021-04-03T12:56:30Z</time>
      </trkpt>
      <trkpt lat="49.33055" lon="1.04151">
        <ele>122.4</ele>
        <time>2021-04-03T12:56:31Z</time>
      </trkpt>
      <trkpt lat="49.3304" lon="1.04161">
        <ele>122.6</ele>
        <time>2021-04-03T12:56:34Z</time>
      </trkpt>
      <trkpt lat="49.33027" lon="1.04168">
        <ele>122.6</ele>
        <time>2021-04-03T12:56:36Z</time>
      </trkpt>
      <trkpt lat="49.32994" lon="1.04187">
        <ele>122</ele>
        <time>2021-04-03T12:56:42Z</time>
      </trkpt>
      <trkpt lat="49.32951" lon="1.04213">
        <ele>121.8</ele>
        <time>2021-04-03T12:56:49Z</time>
      </trkpt>
      <trkpt lat="49.32915" lon="1.04232">
        <ele>121.8</ele>
        <time>2021-04-03T12:56:55Z</time>
      </trkpt>
      <trkpt lat="49.32909" lon="1.04236">
        <ele>121.8</ele>
        <time>2021-04-03T12:56:56Z</time>
      </trkpt>
      <trkpt lat="49.32891" lon="1.04248">
        <ele>121.6</ele>
        <time>2021-04-03T12:56:59Z</time>
      </trkpt>
      <trkpt lat="49.32867" lon="1.04248">
        <ele>121.4</ele>
        <time>2021-04-03T12:57:03Z</time>
      </trkpt>
      <trkpt lat="49.32854" lon="1.04246">
        <ele>121.2</ele>
        <time>2021-04-03T12:57:05Z</time>
      </trkpt>
      <trkpt lat="49.32841" lon="1.04241">
        <ele>120.8</ele>
        <time>2021-04-03T12:57:07Z</time>
      </trkpt>
      <trkpt lat="49.32832" lon="1.0423">
        <ele>120.8</ele>
        <time>2021-04-03T12:57:10Z</time>
      </trkpt>
      <trkpt lat="49.32819" lon="1.04208">
        <ele>120.4</ele>
        <time>2021-04-03T12:57:16Z</time>
      </trkpt>
      <trkpt lat="49.32819" lon="1.04184">
        <ele>120.2</ele>
        <time>2021-04-03T12:57:19Z</time>
      </trkpt>
      <trkpt lat="49.32819" lon="1.04176">
        <ele>120.2</ele>
        <time>2021-04-03T12:57:20Z</time>
      </trkpt>
      <trkpt lat="49.3282" lon="1.04168">
        <ele>120</ele>
        <time>2021-04-03T12:57:21Z</time>
      </trkpt>
      <trkpt lat="49.32821" lon="1.04162">
        <ele>119.8</ele>
        <time>2021-04-03T12:57:22Z</time>
      </trkpt>
      <trkpt lat="49.32822" lon="1.04158">
        <ele>119</ele>
        <time>2021-04-03T12:57:23Z</time>
      </trkpt>
      <trkpt lat="49.32823" lon="1.04154">
        <ele>118.4</ele>
        <time>2021-04-03T12:57:24Z</time>
      </trkpt>
      <trkpt lat="49.32825" lon="1.04141">
        <ele>117.4</ele>
        <time>2021-04-03T12:57:26Z</time>
      </trkpt>
      <trkpt lat="49.32834" lon="1.04123">
        <ele>116.4</ele>
        <time>2021-04-03T12:57:29Z</time>
      </trkpt>
      <trkpt lat="49.32839" lon="1.04119">
        <ele>116.2</ele>
        <time>2021-04-03T12:57:30Z</time>
      </trkpt>
      <trkpt lat="49.32843" lon="1.04116">
        <ele>116.2</ele>
        <time>2021-04-03T12:57:31Z</time>
      </trkpt>
      <trkpt lat="49.32851" lon="1.04112">
        <ele>116.2</ele>
        <time>2021-04-03T12:57:33Z</time>
      </trkpt>
      <trkpt lat="49.32855" lon="1.0411">
        <ele>116</ele>
        <time>2021-04-03T12:57:34Z</time>
      </trkpt>
      <trkpt lat="49.32864" lon="1.04107">
        <ele>116.6</ele>
        <time>2021-04-03T12:57:36Z</time>
      </trkpt>
      <trkpt lat="49.32875" lon="1.041">
        <ele>117.6</ele>
        <time>2021-04-03T12:57:38Z</time>
      </trkpt>
      <trkpt lat="49.3288" lon="1.04098">
        <ele>117.8</ele>
        <time>2021-04-03T12:57:39Z</time>
      </trkpt>
      <trkpt lat="49.329" lon="1.04088">
        <ele>118.2</ele>
        <time>2021-04-03T12:57:43Z</time>
      </trkpt>
      <trkpt lat="49.32906" lon="1.04086">
        <ele>118.4</ele>
        <time>2021-04-03T12:57:44Z</time>
      </trkpt>
      <trkpt lat="49.32911" lon="1.04085">
        <ele>118.4</ele>
        <time>2021-04-03T12:57:45Z</time>
      </trkpt>
      <trkpt lat="49.32918" lon="1.04081">
        <ele>119.6</ele>
        <time>2021-04-03T12:57:47Z</time>
      </trkpt>
      <trkpt lat="49.3292" lon="1.04079">
        <ele>120.4</ele>
        <time>2021-04-03T12:57:48Z</time>
      </trkpt>
      <trkpt lat="49.32921" lon="1.04077">
        <ele>121.2</ele>
        <time>2021-04-03T12:57:49Z</time>
      </trkpt>
      <trkpt lat="49.32923" lon="1.04075">
        <ele>122.2</ele>
        <time>2021-04-03T12:57:51Z</time>
      </trkpt>
      <trkpt lat="49.32925" lon="1.04073">
        <ele>122.8</ele>
        <time>2021-04-03T12:57:53Z</time>
      </trkpt>
      <trkpt lat="49.32926" lon="1.04072">
        <ele>123</ele>
        <time>2021-04-03T12:57:54Z</time>
      </trkpt>
      <trkpt lat="49.32934" lon="1.0406">
        <ele>124.6</ele>
        <time>2021-04-03T12:58:15Z</time>
      </trkpt>
      <trkpt lat="49.32936" lon="1.04055">
        <ele>124.6</ele>
        <time>2021-04-03T12:58:16Z</time>
      </trkpt>
      <trkpt lat="49.32945" lon="1.04034">
        <ele>124.6</ele>
        <time>2021-04-03T12:58:20Z</time>
      </trkpt>
      <trkpt lat="49.32947" lon="1.04028">
        <ele>124.4</ele>
        <time>2021-04-03T12:58:21Z</time>
      </trkpt>
      <trkpt lat="49.32954" lon="1.04014">
        <ele>124.2</ele>
        <time>2021-04-03T12:58:23Z</time>
      </trkpt>
      <trkpt lat="49.32957" lon="1.04006">
        <ele>124.4</ele>
        <time>2021-04-03T12:58:24Z</time>
      </trkpt>
      <trkpt lat="49.32963" lon="1.03984">
        <ele>124.2</ele>
        <time>2021-04-03T12:58:27Z</time>
      </trkpt>
      <trkpt lat="49.32969" lon="1.03958">
        <ele>123.8</ele>
        <time>2021-04-03T12:58:30Z</time>
      </trkpt>
      <trkpt lat="49.32969" lon="1.03949">
        <ele>123.6</ele>
        <time>2021-04-03T12:58:31Z</time>
      </trkpt>
      <trkpt lat="49.32968" lon="1.0392">
        <ele>123.6</ele>
        <time>2021-04-03T12:58:34Z</time>
      </trkpt>
      <trkpt lat="49.32971" lon="1.03875">
        <ele>123.6</ele>
        <time>2021-04-03T12:58:39Z</time>
      </trkpt>
      <trkpt lat="49.32973" lon="1.03866">
        <ele>123.8</ele>
        <time>2021-04-03T12:58:40Z</time>
      </trkpt>
      <trkpt lat="49.32981" lon="1.03847">
        <ele>124</ele>
        <time>2021-04-03T12:58:43Z</time>
      </trkpt>
      <trkpt lat="49.32982" lon="1.03843">
        <ele>124</ele>
        <time>2021-04-03T12:58:44Z</time>
      </trkpt>
      <trkpt lat="49.32978" lon="1.03836">
        <ele>124.2</ele>
        <time>2021-04-03T12:58:47Z</time>
      </trkpt>
      <trkpt lat="49.32977" lon="1.03833">
        <ele>124.4</ele>
        <time>2021-04-03T12:58:48Z</time>
      </trkpt>
      <trkpt lat="49.32978" lon="1.03819">
        <ele>124.4</ele>
        <time>2021-04-03T12:58:51Z</time>
      </trkpt>
      <trkpt lat="49.32978" lon="1.03803">
        <ele>124.6</ele>
        <time>2021-04-03T12:58:53Z</time>
      </trkpt>
      <trkpt lat="49.32977" lon="1.03784">
        <ele>124.4</ele>
        <time>2021-04-03T12:58:55Z</time>
      </trkpt>
      <trkpt lat="49.32977" lon="1.03766">
        <ele>124.4</ele>
        <time>2021-04-03T12:58:57Z</time>
      </trkpt>
      <trkpt lat="49.32973" lon="1.03739">
        <ele>124.4</ele>
        <time>2021-04-03T12:59:00Z</time>
      </trkpt>
      <trkpt lat="49.32971" lon="1.03731">
        <ele>124.4</ele>
        <time>2021-04-03T12:59:01Z</time>
      </trkpt>
      <trkpt lat="49.32967" lon="1.03703">
        <ele>124.2</ele>
        <time>2021-04-03T12:59:04Z</time>
      </trkpt>
      <trkpt lat="49.32964" lon="1.03685">
        <ele>124</ele>
        <time>2021-04-03T12:59:06Z</time>
      </trkpt>
      <trkpt lat="49.32949" lon="1.03649">
        <ele>124</ele>
        <time>2021-04-03T12:59:11Z</time>
      </trkpt>
      <trkpt lat="49.32934" lon="1.03649">
        <ele>124</ele>
        <time>2021-04-03T12:59:14Z</time>
      </trkpt>
      <trkpt lat="49.3292" lon="1.0364">
        <ele>124</ele>
        <time>2021-04-03T12:59:17Z</time>
      </trkpt>
      <trkpt lat="49.32908" lon="1.03624">
        <ele>124.2</ele>
        <time>2021-04-03T12:59:20Z</time>
      </trkpt>
      <trkpt lat="49.32906" lon="1.0362">
        <ele>124.2</ele>
        <time>2021-04-03T12:59:21Z</time>
      </trkpt>
      <trkpt lat="49.32903" lon="1.03618">
        <ele>124.6</ele>
        <time>2021-04-03T12:59:25Z</time>
      </trkpt>
      <trkpt lat="49.32903" lon="1.03618">
        <ele>124.8</ele>
        <time>2021-04-03T12:59:26Z</time>
      </trkpt>
      <trkpt lat="49.32896" lon="1.03615">
        <ele>125.4</ele>
        <time>2021-04-03T13:00:16Z</time>
      </trkpt>
      <trkpt lat="49.32892" lon="1.03618">
        <ele>125.4</ele>
        <time>2021-04-03T13:00:17Z</time>
      </trkpt>
      <trkpt lat="49.32875" lon="1.03631">
        <ele>125.4</ele>
        <time>2021-04-03T13:00:21Z</time>
      </trkpt>
      <trkpt lat="49.32867" lon="1.03633">
        <ele>124.4</ele>
        <time>2021-04-03T13:00:24Z</time>
      </trkpt>
      <trkpt lat="49.32867" lon="1.03631">
        <ele>123.6</ele>
        <time>2021-04-03T13:00:25Z</time>
      </trkpt>
      <trkpt lat="49.32867" lon="1.03628">
        <ele>122.8</ele>
        <time>2021-04-03T13:00:26Z</time>
      </trkpt>
      <trkpt lat="49.32868" lon="1.03624">
        <ele>121.6</ele>
        <time>2021-04-03T13:00:27Z</time>
      </trkpt>
      <trkpt lat="49.3287" lon="1.03618">
        <ele>120.8</ele>
        <time>2021-04-03T13:00:28Z</time>
      </trkpt>
      <trkpt lat="49.32874" lon="1.03606">
        <ele>119.6</ele>
        <time>2021-04-03T13:00:30Z</time>
      </trkpt>
      <trkpt lat="49.32877" lon="1.03593">
        <ele>118.8</ele>
        <time>2021-04-03T13:00:32Z</time>
      </trkpt>
      <trkpt lat="49.32877" lon="1.03586">
        <ele>118.4</ele>
        <time>2021-04-03T13:00:33Z</time>
      </trkpt>
      <trkpt lat="49.32879" lon="1.03579">
        <ele>118.2</ele>
        <time>2021-04-03T13:00:34Z</time>
      </trkpt>
      <trkpt lat="49.3288" lon="1.03571">
        <ele>117.4</ele>
        <time>2021-04-03T13:00:35Z</time>
      </trkpt>
      <trkpt lat="49.32883" lon="1.03555">
        <ele>115.8</ele>
        <time>2021-04-03T13:00:37Z</time>
      </trkpt>
      <trkpt lat="49.32883" lon="1.03543">
        <ele>114.8</ele>
        <time>2021-04-03T13:00:39Z</time>
      </trkpt>
      <trkpt lat="49.32883" lon="1.03538">
        <ele>114.2</ele>
        <time>2021-04-03T13:00:40Z</time>
      </trkpt>
      <trkpt lat="49.32883" lon="1.03535">
        <ele>113</ele>
        <time>2021-04-03T13:00:41Z</time>
      </trkpt>
      <trkpt lat="49.32881" lon="1.03518">
        <ele>112.6</ele>
        <time>2021-04-03T13:00:46Z</time>
      </trkpt>
      <trkpt lat="49.32874" lon="1.03491">
        <ele>113</ele>
        <time>2021-04-03T13:00:51Z</time>
      </trkpt>
      <trkpt lat="49.32862" lon="1.03453">
        <ele>113.6</ele>
        <time>2021-04-03T13:00:56Z</time>
      </trkpt>
      <trkpt lat="49.32854" lon="1.0343">
        <ele>114.4</ele>
        <time>2021-04-03T13:00:59Z</time>
      </trkpt>
      <trkpt lat="49.3285" lon="1.03412">
        <ele>115.8</ele>
        <time>2021-04-03T13:01:02Z</time>
      </trkpt>
      <trkpt lat="49.32852" lon="1.03391">
        <ele>117</ele>
        <time>2021-04-03T13:01:05Z</time>
      </trkpt>
      <trkpt lat="49.32854" lon="1.03383">
        <ele>117.4</ele>
        <time>2021-04-03T13:01:06Z</time>
      </trkpt>
      <trkpt lat="49.32856" lon="1.03374">
        <ele>118.2</ele>
        <time>2021-04-03T13:01:07Z</time>
      </trkpt>
      <trkpt lat="49.32865" lon="1.03344">
        <ele>119</ele>
        <time>2021-04-03T13:01:11Z</time>
      </trkpt>
      <trkpt lat="49.32873" lon="1.03295">
        <ele>118.8</ele>
        <time>2021-04-03T13:01:17Z</time>
      </trkpt>
      <trkpt lat="49.32874" lon="1.03286">
        <ele>118.8</ele>
        <time>2021-04-03T13:01:18Z</time>
      </trkpt>
      <trkpt lat="49.32873" lon="1.03266">
        <ele>117.8</ele>
        <time>2021-04-03T13:01:21Z</time>
      </trkpt>
      <trkpt lat="49.32872" lon="1.0325">
        <ele>117.6</ele>
        <time>2021-04-03T13:01:23Z</time>
      </trkpt>
      <trkpt lat="49.32873" lon="1.03235">
        <ele>117.2</ele>
        <time>2021-04-03T13:01:26Z</time>
      </trkpt>
      <trkpt lat="49.32868" lon="1.03214">
        <ele>117.2</ele>
        <time>2021-04-03T13:01:30Z</time>
      </trkpt>
      <trkpt lat="49.32853" lon="1.0318">
        <ele>117.2</ele>
        <time>2021-04-03T13:01:34Z</time>
      </trkpt>
      <trkpt lat="49.32847" lon="1.03173">
        <ele>117.4</ele>
        <time>2021-04-03T13:01:35Z</time>
      </trkpt>
      <trkpt lat="49.32826" lon="1.03143">
        <ele>117.8</ele>
        <time>2021-04-03T13:01:40Z</time>
      </trkpt>
      <trkpt lat="49.32816" lon="1.03127">
        <ele>118.2</ele>
        <time>2021-04-03T13:01:42Z</time>
      </trkpt>
      <trkpt lat="49.32809" lon="1.0311">
        <ele>118.6</ele>
        <time>2021-04-03T13:01:45Z</time>
      </trkpt>
      <trkpt lat="49.3281" lon="1.03104">
        <ele>118.6</ele>
        <time>2021-04-03T13:01:46Z</time>
      </trkpt>
      <trkpt lat="49.3281" lon="1.0309">
        <ele>118.6</ele>
        <time>2021-04-03T13:01:48Z</time>
      </trkpt>
      <trkpt lat="49.32812" lon="1.03071">
        <ele>118.6</ele>
        <time>2021-04-03T13:01:50Z</time>
      </trkpt>
      <trkpt lat="49.32812" lon="1.03048">
        <ele>118.8</ele>
        <time>2021-04-03T13:01:52Z</time>
      </trkpt>
      <trkpt lat="49.32809" lon="1.03018">
        <ele>118.4</ele>
        <time>2021-04-03T13:01:55Z</time>
      </trkpt>
      <trkpt lat="49.32808" lon="1.03011">
        <ele>118.2</ele>
        <time>2021-04-03T13:01:56Z</time>
      </trkpt>
      <trkpt lat="49.32807" lon="1.03004">
        <ele>117.2</ele>
        <time>2021-04-03T13:01:57Z</time>
      </trkpt>
      <trkpt lat="49.32806" lon="1.02997">
        <ele>116</ele>
        <time>2021-04-03T13:01:58Z</time>
      </trkpt>
      <trkpt lat="49.32804" lon="1.0299">
        <ele>115</ele>
        <time>2021-04-03T13:01:59Z</time>
      </trkpt>
      <trkpt lat="49.32798" lon="1.02975">
        <ele>113.6</ele>
        <time>2021-04-03T13:02:01Z</time>
      </trkpt>
      <trkpt lat="49.32787" lon="1.02948">
        <ele>112.6</ele>
        <time>2021-04-03T13:02:05Z</time>
      </trkpt>
      <trkpt lat="49.32784" lon="1.02944">
        <ele>112</ele>
        <time>2021-04-03T13:02:06Z</time>
      </trkpt>
      <trkpt lat="49.32782" lon="1.02939">
        <ele>111.6</ele>
        <time>2021-04-03T13:02:07Z</time>
      </trkpt>
      <trkpt lat="49.32778" lon="1.02928">
        <ele>110.4</ele>
        <time>2021-04-03T13:02:09Z</time>
      </trkpt>
      <trkpt lat="49.32772" lon="1.02917">
        <ele>110</ele>
        <time>2021-04-03T13:02:12Z</time>
      </trkpt>
      <trkpt lat="49.32754" lon="1.02887">
        <ele>110.2</ele>
        <time>2021-04-03T13:02:19Z</time>
      </trkpt>
      <trkpt lat="49.3275" lon="1.02878">
        <ele>110.6</ele>
        <time>2021-04-03T13:02:21Z</time>
      </trkpt>
      <trkpt lat="49.32749" lon="1.02869">
        <ele>111.6</ele>
        <time>2021-04-03T13:02:23Z</time>
      </trkpt>
      <trkpt lat="49.3275" lon="1.02859">
        <ele>112.6</ele>
        <time>2021-04-03T13:02:25Z</time>
      </trkpt>
      <trkpt lat="49.32751" lon="1.02853">
        <ele>114.2</ele>
        <time>2021-04-03T13:02:28Z</time>
      </trkpt>
      <trkpt lat="49.3275" lon="1.02852">
        <ele>114.6</ele>
        <time>2021-04-03T13:02:29Z</time>
      </trkpt>
      <trkpt lat="49.32757" lon="1.0284">
        <ele>118.8</ele>
        <time>2021-04-03T13:06:21Z</time>
      </trkpt>
      <trkpt lat="49.3276" lon="1.02839">
        <ele>118.8</ele>
        <time>2021-04-03T13:06:23Z</time>
      </trkpt>
      <trkpt lat="49.32764" lon="1.02841">
        <ele>119.4</ele>
        <time>2021-04-03T13:06:27Z</time>
      </trkpt>
      <trkpt lat="49.32764" lon="1.02843">
        <ele>120</ele>
        <time>2021-04-03T13:06:28Z</time>
      </trkpt>
      <trkpt lat="49.32765" lon="1.02847">
        <ele>121.4</ele>
        <time>2021-04-03T13:06:30Z</time>
      </trkpt>
      <trkpt lat="49.32766" lon="1.02851">
        <ele>122.8</ele>
        <time>2021-04-03T13:06:33Z</time>
      </trkpt>
      <trkpt lat="49.32767" lon="1.02852">
        <ele>123.2</ele>
        <time>2021-04-03T13:06:35Z</time>
      </trkpt>
      <trkpt lat="49.32767" lon="1.02852">
        <ele>123.4</ele>
        <time>2021-04-03T13:06:36Z</time>
      </trkpt>
      <trkpt lat="49.32775" lon="1.02854">
        <ele>124.4</ele>
        <time>2021-04-03T13:06:53Z</time>
      </trkpt>
      <trkpt lat="49.32779" lon="1.02854">
        <ele>124.4</ele>
        <time>2021-04-03T13:06:55Z</time>
      </trkpt>
      <trkpt lat="49.32796" lon="1.02852">
        <ele>124.4</ele>
        <time>2021-04-03T13:07:01Z</time>
      </trkpt>
      <trkpt lat="49.32818" lon="1.02845">
        <ele>124.2</ele>
        <time>2021-04-03T13:07:07Z</time>
      </trkpt>
      <trkpt lat="49.32826" lon="1.02842">
        <ele>124.2</ele>
        <time>2021-04-03T13:07:09Z</time>
      </trkpt>
      <trkpt lat="49.32849" lon="1.02836">
        <ele>123.4</ele>
        <time>2021-04-03T13:07:14Z</time>
      </trkpt>
      <trkpt lat="49.32884" lon="1.02824">
        <ele>122.4</ele>
        <time>2021-04-03T13:07:20Z</time>
      </trkpt>
      <trkpt lat="49.32907" lon="1.02818">
        <ele>121.6</ele>
        <time>2021-04-03T13:07:25Z</time>
      </trkpt>
      <trkpt lat="49.32917" lon="1.02807">
        <ele>121.6</ele>
        <time>2021-04-03T13:07:29Z</time>
      </trkpt>
      <trkpt lat="49.32913" lon="1.02794">
        <ele>121.8</ele>
        <time>2021-04-03T13:07:32Z</time>
      </trkpt>
      <trkpt lat="49.3291" lon="1.0279">
        <ele>122.2</ele>
        <time>2021-04-03T13:07:33Z</time>
      </trkpt>
      <trkpt lat="49.32901" lon="1.02776">
        <ele>123</ele>
        <time>2021-04-03T13:07:36Z</time>
      </trkpt>
      <trkpt lat="49.32894" lon="1.02765">
        <ele>123.6</ele>
        <time>2021-04-03T13:07:38Z</time>
      </trkpt>
      <trkpt lat="49.3289" lon="1.02759">
        <ele>123.8</ele>
        <time>2021-04-03T13:07:39Z</time>
      </trkpt>
      <trkpt lat="49.32874" lon="1.02738">
        <ele>124.2</ele>
        <time>2021-04-03T13:07:44Z</time>
      </trkpt>
      <trkpt lat="49.32871" lon="1.02732">
        <ele>124.2</ele>
        <time>2021-04-03T13:07:45Z</time>
      </trkpt>
      <trkpt lat="49.32867" lon="1.02715">
        <ele>124.2</ele>
        <time>2021-04-03T13:07:47Z</time>
      </trkpt>
      <trkpt lat="49.32862" lon="1.02698">
        <ele>124.2</ele>
        <time>2021-04-03T13:07:49Z</time>
      </trkpt>
      <trkpt lat="49.32854" lon="1.02672">
        <ele>124.4</ele>
        <time>2021-04-03T13:07:52Z</time>
      </trkpt>
      <trkpt lat="49.32847" lon="1.02649">
        <ele>124.6</ele>
        <time>2021-04-03T13:07:55Z</time>
      </trkpt>
      <trkpt lat="49.32843" lon="1.02632">
        <ele>124.6</ele>
        <time>2021-04-03T13:07:57Z</time>
      </trkpt>
      <trkpt lat="49.32836" lon="1.02619">
        <ele>124.6</ele>
        <time>2021-04-03T13:07:59Z</time>
      </trkpt>
      <trkpt lat="49.32829" lon="1.02606">
        <ele>124.8</ele>
        <time>2021-04-03T13:08:01Z</time>
      </trkpt>
      <trkpt lat="49.32826" lon="1.02598">
        <ele>124.8</ele>
        <time>2021-04-03T13:08:02Z</time>
      </trkpt>
      <trkpt lat="49.32818" lon="1.02573">
        <ele>125</ele>
        <time>2021-04-03T13:08:05Z</time>
      </trkpt>
      <trkpt lat="49.32815" lon="1.02565">
        <ele>125.2</ele>
        <time>2021-04-03T13:08:06Z</time>
      </trkpt>
      <trkpt lat="49.32808" lon="1.02551">
        <ele>125.4</ele>
        <time>2021-04-03T13:08:08Z</time>
      </trkpt>
      <trkpt lat="49.32798" lon="1.02542">
        <ele>125.6</ele>
        <time>2021-04-03T13:08:10Z</time>
      </trkpt>
      <trkpt lat="49.32785" lon="1.02528">
        <ele>125.8</ele>
        <time>2021-04-03T13:08:13Z</time>
      </trkpt>
      <trkpt lat="49.32782" lon="1.02521">
        <ele>126</ele>
        <time>2021-04-03T13:08:14Z</time>
      </trkpt>
      <trkpt lat="49.32775" lon="1.02493">
        <ele>126.2</ele>
        <time>2021-04-03T13:08:17Z</time>
      </trkpt>
      <trkpt lat="49.32774" lon="1.02483">
        <ele>126.2</ele>
        <time>2021-04-03T13:08:18Z</time>
      </trkpt>
      <trkpt lat="49.32767" lon="1.02436">
        <ele>126.2</ele>
        <time>2021-04-03T13:08:23Z</time>
      </trkpt>
      <trkpt lat="49.32767" lon="1.02426">
        <ele>126.2</ele>
        <time>2021-04-03T13:08:24Z</time>
      </trkpt>
      <trkpt lat="49.32767" lon="1.02381">
        <ele>126.2</ele>
        <time>2021-04-03T13:08:29Z</time>
      </trkpt>
      <trkpt lat="49.32766" lon="1.02372">
        <ele>126.2</ele>
        <time>2021-04-03T13:08:30Z</time>
      </trkpt>
      <trkpt lat="49.32755" lon="1.02341">
        <ele>126.2</ele>
        <time>2021-04-03T13:08:34Z</time>
      </trkpt>
      <trkpt lat="49.32747" lon="1.02316">
        <ele>126.4</ele>
        <time>2021-04-03T13:08:37Z</time>
      </trkpt>
      <trkpt lat="49.32746" lon="1.02306">
        <ele>126.4</ele>
        <time>2021-04-03T13:08:38Z</time>
      </trkpt>
      <trkpt lat="49.32744" lon="1.02287">
        <ele>126.4</ele>
        <time>2021-04-03T13:08:40Z</time>
      </trkpt>
      <trkpt lat="49.3274" lon="1.0225">
        <ele>126.4</ele>
        <time>2021-04-03T13:08:44Z</time>
      </trkpt>
      <trkpt lat="49.32739" lon="1.02185">
        <ele>126.2</ele>
        <time>2021-04-03T13:08:51Z</time>
      </trkpt>
      <trkpt lat="49.32733" lon="1.02127">
        <ele>126</ele>
        <time>2021-04-03T13:08:58Z</time>
      </trkpt>
      <trkpt lat="49.32723" lon="1.02098">
        <ele>126</ele>
        <time>2021-04-03T13:09:02Z</time>
      </trkpt>
      <trkpt lat="49.32716" lon="1.02087">
        <ele>126</ele>
        <time>2021-04-03T13:09:04Z</time>
      </trkpt>
      <trkpt lat="49.32713" lon="1.02081">
        <ele>126</ele>
        <time>2021-04-03T13:09:05Z</time>
      </trkpt>
      <trkpt lat="49.32707" lon="1.02058">
        <ele>126.4</ele>
        <time>2021-04-03T13:09:08Z</time>
      </trkpt>
      <trkpt lat="49.32702" lon="1.02041">
        <ele>126.4</ele>
        <time>2021-04-03T13:09:10Z</time>
      </trkpt>
      <trkpt lat="49.32694" lon="1.02021">
        <ele>126.4</ele>
        <time>2021-04-03T13:09:13Z</time>
      </trkpt>
      <trkpt lat="49.32683" lon="1.02003">
        <ele>126.2</ele>
        <time>2021-04-03T13:09:16Z</time>
      </trkpt>
      <trkpt lat="49.32677" lon="1.01991">
        <ele>125.8</ele>
        <time>2021-04-03T13:09:18Z</time>
      </trkpt>
      <trkpt lat="49.32666" lon="1.01977">
        <ele>125.8</ele>
        <time>2021-04-03T13:09:22Z</time>
      </trkpt>
      <trkpt lat="49.32664" lon="1.01973">
        <ele>125.8</ele>
        <time>2021-04-03T13:09:24Z</time>
      </trkpt>
      <trkpt lat="49.32646" lon="1.01956">
        <ele>126</ele>
        <time>2021-04-03T13:09:41Z</time>
      </trkpt>
      <trkpt lat="49.32641" lon="1.01952">
        <ele>126</ele>
        <time>2021-04-03T13:09:43Z</time>
      </trkpt>
      <trkpt lat="49.32625" lon="1.01941">
        <ele>125.4</ele>
        <time>2021-04-03T13:09:47Z</time>
      </trkpt>
      <trkpt lat="49.32605" lon="1.0194">
        <ele>125.2</ele>
        <time>2021-04-03T13:09:51Z</time>
      </trkpt>
      <trkpt lat="49.32587" lon="1.01939">
        <ele>124.4</ele>
        <time>2021-04-03T13:09:55Z</time>
      </trkpt>
      <trkpt lat="49.32582" lon="1.01935">
        <ele>123.2</ele>
        <time>2021-04-03T13:09:57Z</time>
      </trkpt>
      <trkpt lat="49.32579" lon="1.01926">
        <ele>122.4</ele>
        <time>2021-04-03T13:09:59Z</time>
      </trkpt>
      <trkpt lat="49.32579" lon="1.01918">
        <ele>121.8</ele>
        <time>2021-04-03T13:10:00Z</time>
      </trkpt>
      <trkpt lat="49.32578" lon="1.0191">
        <ele>121.2</ele>
        <time>2021-04-03T13:10:01Z</time>
      </trkpt>
      <trkpt lat="49.32576" lon="1.01901">
        <ele>120.4</ele>
        <time>2021-04-03T13:10:02Z</time>
      </trkpt>
      <trkpt lat="49.32575" lon="1.01891">
        <ele>120</ele>
        <time>2021-04-03T13:10:03Z</time>
      </trkpt>
      <trkpt lat="49.32573" lon="1.0187">
        <ele>119.2</ele>
        <time>2021-04-03T13:10:05Z</time>
      </trkpt>
      <trkpt lat="49.32572" lon="1.0186">
        <ele>118</ele>
        <time>2021-04-03T13:10:06Z</time>
      </trkpt>
      <trkpt lat="49.32571" lon="1.01842">
        <ele>116.4</ele>
        <time>2021-04-03T13:10:08Z</time>
      </trkpt>
      <trkpt lat="49.32571" lon="1.01834">
        <ele>115</ele>
        <time>2021-04-03T13:10:09Z</time>
      </trkpt>
      <trkpt lat="49.3257" lon="1.01827">
        <ele>113.4</ele>
        <time>2021-04-03T13:10:10Z</time>
      </trkpt>
      <trkpt lat="49.32569" lon="1.01821">
        <ele>111.6</ele>
        <time>2021-04-03T13:10:11Z</time>
      </trkpt>
      <trkpt lat="49.32568" lon="1.01815">
        <ele>110</ele>
        <time>2021-04-03T13:10:12Z</time>
      </trkpt>
      <trkpt lat="49.32566" lon="1.01808">
        <ele>108.6</ele>
        <time>2021-04-03T13:10:13Z</time>
      </trkpt>
      <trkpt lat="49.32563" lon="1.01802">
        <ele>107.4</ele>
        <time>2021-04-03T13:10:14Z</time>
      </trkpt>
      <trkpt lat="49.32559" lon="1.01794">
        <ele>106</ele>
        <time>2021-04-03T13:10:15Z</time>
      </trkpt>
      <trkpt lat="49.32552" lon="1.01781">
        <ele>105</ele>
        <time>2021-04-03T13:10:17Z</time>
      </trkpt>
      <trkpt lat="49.32542" lon="1.01762">
        <ele>104.8</ele>
        <time>2021-04-03T13:10:20Z</time>
      </trkpt>
      <trkpt lat="49.32526" lon="1.0174">
        <ele>104.8</ele>
        <time>2021-04-03T13:10:25Z</time>
      </trkpt>
      <trkpt lat="49.3252" lon="1.01726">
        <ele>106.4</ele>
        <time>2021-04-03T13:10:29Z</time>
      </trkpt>
      <trkpt lat="49.32521" lon="1.01722">
        <ele>107.4</ele>
        <time>2021-04-03T13:10:30Z</time>
      </trkpt>
      <trkpt lat="49.32523" lon="1.01712">
        <ele>109</ele>
        <time>2021-04-03T13:10:32Z</time>
      </trkpt>
      <trkpt lat="49.32526" lon="1.01702">
        <ele>110.6</ele>
        <time>2021-04-03T13:10:34Z</time>
      </trkpt>
      <trkpt lat="49.32528" lon="1.01698">
        <ele>111.4</ele>
        <time>2021-04-03T13:10:35Z</time>
      </trkpt>
      <trkpt lat="49.3253" lon="1.01693">
        <ele>112.2</ele>
        <time>2021-04-03T13:10:36Z</time>
      </trkpt>
      <trkpt lat="49.32532" lon="1.01687">
        <ele>112.8</ele>
        <time>2021-04-03T13:10:37Z</time>
      </trkpt>
      <trkpt lat="49.32533" lon="1.01679">
        <ele>113.4</ele>
        <time>2021-04-03T13:10:38Z</time>
      </trkpt>
      <trkpt lat="49.32535" lon="1.01672">
        <ele>113.6</ele>
        <time>2021-04-03T13:10:39Z</time>
      </trkpt>
      <trkpt lat="49.32537" lon="1.0166">
        <ele>114.8</ele>
        <time>2021-04-03T13:10:41Z</time>
      </trkpt>
      <trkpt lat="49.32536" lon="1.01649">
        <ele>115.2</ele>
        <time>2021-04-03T13:10:43Z</time>
      </trkpt>
      <trkpt lat="49.32535" lon="1.01642">
        <ele>115.4</ele>
        <time>2021-04-03T13:10:44Z</time>
      </trkpt>
      <trkpt lat="49.32531" lon="1.01621">
        <ele>115.8</ele>
        <time>2021-04-03T13:10:47Z</time>
      </trkpt>
      <trkpt lat="49.3253" lon="1.01615">
        <ele>115.8</ele>
        <time>2021-04-03T13:10:48Z</time>
      </trkpt>
      <trkpt lat="49.32525" lon="1.01595">
        <ele>116</ele>
        <time>2021-04-03T13:10:51Z</time>
      </trkpt>
      <trkpt lat="49.3252" lon="1.01579">
        <ele>116.2</ele>
        <time>2021-04-03T13:10:53Z</time>
      </trkpt>
      <trkpt lat="49.32509" lon="1.01558">
        <ele>116.4</ele>
        <time>2021-04-03T13:10:56Z</time>
      </trkpt>
      <trkpt lat="49.32498" lon="1.0155">
        <ele>116.6</ele>
        <time>2021-04-03T13:11:00Z</time>
      </trkpt>
      <trkpt lat="49.32482" lon="1.01543">
        <ele>116.8</ele>
        <time>2021-04-03T13:11:04Z</time>
      </trkpt>
      <trkpt lat="49.32471" lon="1.01538">
        <ele>116.8</ele>
        <time>2021-04-03T13:11:06Z</time>
      </trkpt>
      <trkpt lat="49.32465" lon="1.01536">
        <ele>116.8</ele>
        <time>2021-04-03T13:11:07Z</time>
      </trkpt>
      <trkpt lat="49.32459" lon="1.01535">
        <ele>116.8</ele>
        <time>2021-04-03T13:11:08Z</time>
      </trkpt>
      <trkpt lat="49.32437" lon="1.0153">
        <ele>115.4</ele>
        <time>2021-04-03T13:11:12Z</time>
      </trkpt>
      <trkpt lat="49.32433" lon="1.01527">
        <ele>114.6</ele>
        <time>2021-04-03T13:11:13Z</time>
      </trkpt>
      <trkpt lat="49.32426" lon="1.01526">
        <ele>113</ele>
        <time>2021-04-03T13:11:15Z</time>
      </trkpt>
      <trkpt lat="49.32423" lon="1.01526">
        <ele>111.8</ele>
        <time>2021-04-03T13:11:16Z</time>
      </trkpt>
      <trkpt lat="49.32419" lon="1.01526">
        <ele>110.6</ele>
        <time>2021-04-03T13:11:17Z</time>
      </trkpt>
      <trkpt lat="49.32415" lon="1.01524">
        <ele>109.4</ele>
        <time>2021-04-03T13:11:18Z</time>
      </trkpt>
      <trkpt lat="49.32407" lon="1.01517">
        <ele>108.2</ele>
        <time>2021-04-03T13:11:21Z</time>
      </trkpt>
      <trkpt lat="49.32404" lon="1.01512">
        <ele>108.2</ele>
        <time>2021-04-03T13:11:23Z</time>
      </trkpt>
      <trkpt lat="49.32397" lon="1.01493">
        <ele>108.2</ele>
        <time>2021-04-03T13:11:28Z</time>
      </trkpt>
      <trkpt lat="49.32394" lon="1.01482">
        <ele>109.8</ele>
        <time>2021-04-03T13:11:31Z</time>
      </trkpt>
      <trkpt lat="49.32395" lon="1.01479">
        <ele>110.2</ele>
        <time>2021-04-03T13:11:32Z</time>
      </trkpt>
      <trkpt lat="49.32395" lon="1.01463">
        <ele>110.8</ele>
        <time>2021-04-03T13:11:35Z</time>
      </trkpt>
      <trkpt lat="49.32396" lon="1.01456">
        <ele>110.8</ele>
        <time>2021-04-03T13:11:36Z</time>
      </trkpt>
      <trkpt lat="49.32398" lon="1.01438">
        <ele>111.2</ele>
        <time>2021-04-03T13:11:40Z</time>
      </trkpt>
      <trkpt lat="49.324" lon="1.01414">
        <ele>111.8</ele>
        <time>2021-04-03T13:11:46Z</time>
      </trkpt>
      <trkpt lat="49.32399" lon="1.0141">
        <ele>111.8</ele>
        <time>2021-04-03T13:11:47Z</time>
      </trkpt>
      <trkpt lat="49.32397" lon="1.01408">
        <ele>111.8</ele>
        <time>2021-04-03T13:11:48Z</time>
      </trkpt>
      <trkpt lat="49.32393" lon="1.01403">
        <ele>112</ele>
        <time>2021-04-03T13:11:50Z</time>
      </trkpt>
      <trkpt lat="49.3239" lon="1.01395">
        <ele>113</ele>
        <time>2021-04-03T13:11:52Z</time>
      </trkpt>
      <trkpt lat="49.32389" lon="1.01387">
        <ele>114</ele>
        <time>2021-04-03T13:11:54Z</time>
      </trkpt>
      <trkpt lat="49.32389" lon="1.01383">
        <ele>114.2</ele>
        <time>2021-04-03T13:11:55Z</time>
      </trkpt>
      <trkpt lat="49.32387" lon="1.01377">
        <ele>114.8</ele>
        <time>2021-04-03T13:11:57Z</time>
      </trkpt>
      <trkpt lat="49.32383" lon="1.0137">
        <ele>115.4</ele>
        <time>2021-04-03T13:11:59Z</time>
      </trkpt>
      <trkpt lat="49.32375" lon="1.01355">
        <ele>116.2</ele>
        <time>2021-04-03T13:12:02Z</time>
      </trkpt>
      <trkpt lat="49.32374" lon="1.0135">
        <ele>117</ele>
        <time>2021-04-03T13:12:03Z</time>
      </trkpt>
      <trkpt lat="49.32375" lon="1.01336">
        <ele>118</ele>
        <time>2021-04-03T13:12:06Z</time>
      </trkpt>
      <trkpt lat="49.32377" lon="1.01326">
        <ele>118.2</ele>
        <time>2021-04-03T13:12:08Z</time>
      </trkpt>
      <trkpt lat="49.32378" lon="1.01311">
        <ele>118.2</ele>
        <time>2021-04-03T13:12:10Z</time>
      </trkpt>
      <trkpt lat="49.32381" lon="1.01296">
        <ele>118.2</ele>
        <time>2021-04-03T13:12:12Z</time>
      </trkpt>
      <trkpt lat="49.3238" lon="1.01285">
        <ele>118.2</ele>
        <time>2021-04-03T13:12:15Z</time>
      </trkpt>
      <trkpt lat="49.3237" lon="1.01264">
        <ele>117.6</ele>
        <time>2021-04-03T13:12:19Z</time>
      </trkpt>
      <trkpt lat="49.32368" lon="1.01255">
        <ele>117.4</ele>
        <time>2021-04-03T13:12:20Z</time>
      </trkpt>
      <trkpt lat="49.32356" lon="1.01217">
        <ele>116.8</ele>
        <time>2021-04-03T13:12:23Z</time>
      </trkpt>
      <trkpt lat="49.32351" lon="1.01206">
        <ele>116.6</ele>
        <time>2021-04-03T13:12:24Z</time>
      </trkpt>
      <trkpt lat="49.32346" lon="1.01196">
        <ele>115.2</ele>
        <time>2021-04-03T13:12:25Z</time>
      </trkpt>
      <trkpt lat="49.32341" lon="1.01185">
        <ele>114.2</ele>
        <time>2021-04-03T13:12:26Z</time>
      </trkpt>
      <trkpt lat="49.32335" lon="1.01176">
        <ele>112.8</ele>
        <time>2021-04-03T13:12:27Z</time>
      </trkpt>
      <trkpt lat="49.32329" lon="1.01169">
        <ele>110.6</ele>
        <time>2021-04-03T13:12:28Z</time>
      </trkpt>
      <trkpt lat="49.32323" lon="1.01162">
        <ele>108</ele>
        <time>2021-04-03T13:12:29Z</time>
      </trkpt>
      <trkpt lat="49.32315" lon="1.01155">
        <ele>106.2</ele>
        <time>2021-04-03T13:12:30Z</time>
      </trkpt>
      <trkpt lat="49.32307" lon="1.01149">
        <ele>105</ele>
        <time>2021-04-03T13:12:31Z</time>
      </trkpt>
      <trkpt lat="49.32299" lon="1.01143">
        <ele>104</ele>
        <time>2021-04-03T13:12:32Z</time>
      </trkpt>
      <trkpt lat="49.32289" lon="1.01136">
        <ele>103</ele>
        <time>2021-04-03T13:12:33Z</time>
      </trkpt>
      <trkpt lat="49.32279" lon="1.01131">
        <ele>102</ele>
        <time>2021-04-03T13:12:34Z</time>
      </trkpt>
      <trkpt lat="49.32258" lon="1.01119">
        <ele>100.8</ele>
        <time>2021-04-03T13:12:36Z</time>
      </trkpt>
      <trkpt lat="49.3225" lon="1.01116">
        <ele>99.4</ele>
        <time>2021-04-03T13:12:37Z</time>
      </trkpt>
      <trkpt lat="49.32243" lon="1.01115">
        <ele>97.8</ele>
        <time>2021-04-03T13:12:38Z</time>
      </trkpt>
      <trkpt lat="49.32238" lon="1.01111">
        <ele>95.8</ele>
        <time>2021-04-03T13:12:39Z</time>
      </trkpt>
      <trkpt lat="49.32233" lon="1.01109">
        <ele>93.8</ele>
        <time>2021-04-03T13:12:40Z</time>
      </trkpt>
      <trkpt lat="49.3223" lon="1.01105">
        <ele>92.2</ele>
        <time>2021-04-03T13:12:41Z</time>
      </trkpt>
      <trkpt lat="49.32228" lon="1.01102">
        <ele>90.6</ele>
        <time>2021-04-03T13:12:42Z</time>
      </trkpt>
      <trkpt lat="49.32226" lon="1.01098">
        <ele>89.2</ele>
        <time>2021-04-03T13:12:43Z</time>
      </trkpt>
      <trkpt lat="49.32223" lon="1.01087">
        <ele>87.6</ele>
        <time>2021-04-03T13:12:45Z</time>
      </trkpt>
      <trkpt lat="49.32222" lon="1.0108">
        <ele>86.8</ele>
        <time>2021-04-03T13:12:46Z</time>
      </trkpt>
      <trkpt lat="49.3222" lon="1.01073">
        <ele>86.2</ele>
        <time>2021-04-03T13:12:47Z</time>
      </trkpt>
      <trkpt lat="49.32219" lon="1.01065">
        <ele>85.8</ele>
        <time>2021-04-03T13:12:48Z</time>
      </trkpt>
      <trkpt lat="49.32214" lon="1.0104">
        <ele>85.4</ele>
        <time>2021-04-03T13:12:51Z</time>
      </trkpt>
      <trkpt lat="49.3221" lon="1.01032">
        <ele>85.4</ele>
        <time>2021-04-03T13:12:52Z</time>
      </trkpt>
      <trkpt lat="49.32206" lon="1.01026">
        <ele>85</ele>
        <time>2021-04-03T13:12:53Z</time>
      </trkpt>
      <trkpt lat="49.32201" lon="1.01019">
        <ele>84.6</ele>
        <time>2021-04-03T13:12:54Z</time>
      </trkpt>
      <trkpt lat="49.32195" lon="1.01012">
        <ele>83.6</ele>
        <time>2021-04-03T13:12:55Z</time>
      </trkpt>
      <trkpt lat="49.32189" lon="1.01008">
        <ele>82.2</ele>
        <time>2021-04-03T13:12:56Z</time>
      </trkpt>
      <trkpt lat="49.32184" lon="1.01004">
        <ele>81.2</ele>
        <time>2021-04-03T13:12:57Z</time>
      </trkpt>
      <trkpt lat="49.3218" lon="1.01001">
        <ele>80</ele>
        <time>2021-04-03T13:12:58Z</time>
      </trkpt>
      <trkpt lat="49.32177" lon="1.00999">
        <ele>78.4</ele>
        <time>2021-04-03T13:12:59Z</time>
      </trkpt>
      <trkpt lat="49.32174" lon="1.00997">
        <ele>76.8</ele>
        <time>2021-04-03T13:13:00Z</time>
      </trkpt>
      <trkpt lat="49.32173" lon="1.00994">
        <ele>74.8</ele>
        <time>2021-04-03T13:13:01Z</time>
      </trkpt>
      <trkpt lat="49.32173" lon="1.00991">
        <ele>72.6</ele>
        <time>2021-04-03T13:13:02Z</time>
      </trkpt>
      <trkpt lat="49.32173" lon="1.00989">
        <ele>71.2</ele>
        <time>2021-04-03T13:13:03Z</time>
      </trkpt>
      <trkpt lat="49.32175" lon="1.00983">
        <ele>70.2</ele>
        <time>2021-04-03T13:13:05Z</time>
      </trkpt>
      <trkpt lat="49.32176" lon="1.00954">
        <ele>69.8</ele>
        <time>2021-04-03T13:13:10Z</time>
      </trkpt>
      <trkpt lat="49.32165" lon="1.00934">
        <ele>69.2</ele>
        <time>2021-04-03T13:13:13Z</time>
      </trkpt>
      <trkpt lat="49.32159" lon="1.00928">
        <ele>69.2</ele>
        <time>2021-04-03T13:13:14Z</time>
      </trkpt>
      <trkpt lat="49.32154" lon="1.00922">
        <ele>69.2</ele>
        <time>2021-04-03T13:13:15Z</time>
      </trkpt>
      <trkpt lat="49.32148" lon="1.00907">
        <ele>69.6</ele>
        <time>2021-04-03T13:13:17Z</time>
      </trkpt>
      <trkpt lat="49.3215" lon="1.00889">
        <ele>70</ele>
        <time>2021-04-03T13:13:20Z</time>
      </trkpt>
      <trkpt lat="49.32157" lon="1.00874">
        <ele>70.4</ele>
        <time>2021-04-03T13:13:25Z</time>
      </trkpt>
      <trkpt lat="49.32159" lon="1.00868">
        <ele>71.4</ele>
        <time>2021-04-03T13:13:27Z</time>
      </trkpt>
      <trkpt lat="49.3216" lon="1.00859">
        <ele>73.2</ele>
        <time>2021-04-03T13:13:29Z</time>
      </trkpt>
      <trkpt lat="49.32162" lon="1.0085">
        <ele>74.8</ele>
        <time>2021-04-03T13:13:31Z</time>
      </trkpt>
      <trkpt lat="49.32163" lon="1.0084">
        <ele>76.6</ele>
        <time>2021-04-03T13:13:33Z</time>
      </trkpt>
      <trkpt lat="49.32166" lon="1.00832">
        <ele>78.2</ele>
        <time>2021-04-03T13:13:35Z</time>
      </trkpt>
      <trkpt lat="49.32169" lon="1.00824">
        <ele>79.4</ele>
        <time>2021-04-03T13:13:37Z</time>
      </trkpt>
      <trkpt lat="49.32172" lon="1.00816">
        <ele>80.6</ele>
        <time>2021-04-03T13:13:39Z</time>
      </trkpt>
      <trkpt lat="49.32182" lon="1.00801">
        <ele>81.8</ele>
        <time>2021-04-03T13:13:43Z</time>
      </trkpt>
      <trkpt lat="49.32186" lon="1.00787">
        <ele>83.4</ele>
        <time>2021-04-03T13:13:46Z</time>
      </trkpt>
      <trkpt lat="49.32187" lon="1.00781">
        <ele>84.4</ele>
        <time>2021-04-03T13:13:48Z</time>
      </trkpt>
      <trkpt lat="49.32187" lon="1.00778">
        <ele>84.8</ele>
        <time>2021-04-03T13:13:49Z</time>
      </trkpt>
      <trkpt lat="49.32191" lon="1.0077">
        <ele>85.6</ele>
        <time>2021-04-03T13:13:54Z</time>
      </trkpt>
      <trkpt lat="49.32189" lon="1.00763">
        <ele>86</ele>
        <time>2021-04-03T13:13:57Z</time>
      </trkpt>
      <trkpt lat="49.32175" lon="1.0071">
        <ele>84.6</ele>
        <time>2021-04-03T13:20:31Z</time>
      </trkpt>
      <trkpt lat="49.32173" lon="1.00707">
        <ele>84.4</ele>
        <time>2021-04-03T13:20:32Z</time>
      </trkpt>
      <trkpt lat="49.32165" lon="1.00703">
        <ele>83.4</ele>
        <time>2021-04-03T13:20:35Z</time>
      </trkpt>
      <trkpt lat="49.32161" lon="1.00702">
        <ele>83</ele>
        <time>2021-04-03T13:20:36Z</time>
      </trkpt>
      <trkpt lat="49.32156" lon="1.007">
        <ele>82.2</ele>
        <time>2021-04-03T13:20:37Z</time>
      </trkpt>
      <trkpt lat="49.32146" lon="1.00698">
        <ele>80.6</ele>
        <time>2021-04-03T13:20:39Z</time>
      </trkpt>
      <trkpt lat="49.32141" lon="1.00699">
        <ele>80</ele>
        <time>2021-04-03T13:20:40Z</time>
      </trkpt>
      <trkpt lat="49.32136" lon="1.007">
        <ele>79.4</ele>
        <time>2021-04-03T13:20:41Z</time>
      </trkpt>
      <trkpt lat="49.32126" lon="1.00703">
        <ele>78.4</ele>
        <time>2021-04-03T13:20:43Z</time>
      </trkpt>
      <trkpt lat="49.32124" lon="1.00705">
        <ele>77.2</ele>
        <time>2021-04-03T13:20:44Z</time>
      </trkpt>
      <trkpt lat="49.32122" lon="1.00706">
        <ele>74.8</ele>
        <time>2021-04-03T13:20:45Z</time>
      </trkpt>
      <trkpt lat="49.3212" lon="1.00707">
        <ele>73</ele>
        <time>2021-04-03T13:20:46Z</time>
      </trkpt>
      <trkpt lat="49.32117" lon="1.0071">
        <ele>71.6</ele>
        <time>2021-04-03T13:20:48Z</time>
      </trkpt>
      <trkpt lat="49.32117" lon="1.0071">
        <ele>71.2</ele>
        <time>2021-04-03T13:20:49Z</time>
      </trkpt>
      <trkpt lat="49.32116" lon="1.0071">
        <ele>71.2</ele>
        <time>2021-04-03T13:20:50Z</time>
      </trkpt>
      <trkpt lat="49.32099" lon="1.00721">
        <ele>71.8</ele>
        <time>2021-04-03T13:21:51Z</time>
      </trkpt>
      <trkpt lat="49.32097" lon="1.00723">
        <ele>71.8</ele>
        <time>2021-04-03T13:21:52Z</time>
      </trkpt>
      <trkpt lat="49.32086" lon="1.00735">
        <ele>71.6</ele>
        <time>2021-04-03T13:21:58Z</time>
      </trkpt>
      <trkpt lat="49.32078" lon="1.00741">
        <ele>72</ele>
        <time>2021-04-03T13:22:03Z</time>
      </trkpt>
      <trkpt lat="49.32077" lon="1.00743">
        <ele>72.4</ele>
        <time>2021-04-03T13:22:04Z</time>
      </trkpt>
      <trkpt lat="49.32073" lon="1.00744">
        <ele>73.8</ele>
        <time>2021-04-03T13:22:07Z</time>
      </trkpt>
      <trkpt lat="49.32073" lon="1.00746">
        <ele>74.2</ele>
        <time>2021-04-03T13:22:08Z</time>
      </trkpt>
      <trkpt lat="49.3207" lon="1.00749">
        <ele>74.4</ele>
        <time>2021-04-03T13:22:10Z</time>
      </trkpt>
      <trkpt lat="49.32061" lon="1.00752">
        <ele>74.4</ele>
        <time>2021-04-03T13:22:14Z</time>
      </trkpt>
      <trkpt lat="49.32056" lon="1.00752">
        <ele>72.2</ele>
        <time>2021-04-03T13:22:19Z</time>
      </trkpt>
      <trkpt lat="49.32055" lon="1.00751">
        <ele>70.8</ele>
        <time>2021-04-03T13:22:20Z</time>
      </trkpt>
      <trkpt lat="49.32054" lon="1.00749">
        <ele>69.8</ele>
        <time>2021-04-03T13:22:21Z</time>
      </trkpt>
      <trkpt lat="49.32053" lon="1.00742">
        <ele>68.6</ele>
        <time>2021-04-03T13:22:23Z</time>
      </trkpt>
      <trkpt lat="49.32052" lon="1.00738">
        <ele>68.2</ele>
        <time>2021-04-03T13:22:24Z</time>
      </trkpt>
      <trkpt lat="49.32052" lon="1.00734">
        <ele>68.2</ele>
        <time>2021-04-03T13:22:25Z</time>
      </trkpt>
      <trkpt lat="49.32049" lon="1.00722">
        <ele>68</ele>
        <time>2021-04-03T13:22:28Z</time>
      </trkpt>
      <trkpt lat="49.32048" lon="1.00718">
        <ele>67.8</ele>
        <time>2021-04-03T13:22:29Z</time>
      </trkpt>
      <trkpt lat="49.32045" lon="1.00709">
        <ele>67</ele>
        <time>2021-04-03T13:22:31Z</time>
      </trkpt>
      <trkpt lat="49.32043" lon="1.007">
        <ele>66</ele>
        <time>2021-04-03T13:22:33Z</time>
      </trkpt>
      <trkpt lat="49.32038" lon="1.00693">
        <ele>65.8</ele>
        <time>2021-04-03T13:22:35Z</time>
      </trkpt>
      <trkpt lat="49.32027" lon="1.00676">
        <ele>65.6</ele>
        <time>2021-04-03T13:22:41Z</time>
      </trkpt>
      <trkpt lat="49.32027" lon="1.00674">
        <ele>66</ele>
        <time>2021-04-03T13:22:42Z</time>
      </trkpt>
      <trkpt lat="49.32026" lon="1.00672">
        <ele>67.6</ele>
        <time>2021-04-03T13:22:45Z</time>
      </trkpt>
      <trkpt lat="49.32025" lon="1.0067">
        <ele>68.8</ele>
        <time>2021-04-03T13:22:48Z</time>
      </trkpt>
      <trkpt lat="49.32023" lon="1.0067">
        <ele>69.4</ele>
        <time>2021-04-03T13:22:49Z</time>
      </trkpt>
      <trkpt lat="49.32021" lon="1.00669">
        <ele>70</ele>
        <time>2021-04-03T13:22:50Z</time>
      </trkpt>
      <trkpt lat="49.32019" lon="1.00667">
        <ele>70.6</ele>
        <time>2021-04-03T13:22:54Z</time>
      </trkpt>
      <trkpt lat="49.32018" lon="1.00668">
        <ele>70.8</ele>
        <time>2021-04-03T13:22:55Z</time>
      </trkpt>
      <trkpt lat="49.32019" lon="1.00658">
        <ele>71.2</ele>
        <time>2021-04-03T13:22:59Z</time>
      </trkpt>
      <trkpt lat="49.32019" lon="1.0065">
        <ele>71.4</ele>
        <time>2021-04-03T13:23:01Z</time>
      </trkpt>
      <trkpt lat="49.32019" lon="1.00627">
        <ele>71.8</ele>
        <time>2021-04-03T13:23:07Z</time>
      </trkpt>
      <trkpt lat="49.3202" lon="1.00623">
        <ele>72.2</ele>
        <time>2021-04-03T13:23:11Z</time>
      </trkpt>
      <trkpt lat="49.32016" lon="1.00612">
        <ele>74.4</ele>
        <time>2021-04-03T13:23:23Z</time>
      </trkpt>
      <trkpt lat="49.32002" lon="1.00611">
        <ele>74.4</ele>
        <time>2021-04-03T13:23:27Z</time>
      </trkpt>
      <trkpt lat="49.31985" lon="1.00611">
        <ele>73.2</ele>
        <time>2021-04-03T13:23:31Z</time>
      </trkpt>
      <trkpt lat="49.31979" lon="1.0061">
        <ele>73</ele>
        <time>2021-04-03T13:23:33Z</time>
      </trkpt>
      <trkpt lat="49.31974" lon="1.00609">
        <ele>72.8</ele>
        <time>2021-04-03T13:23:36Z</time>
      </trkpt>
      <trkpt lat="49.31973" lon="1.00607">
        <ele>72.8</ele>
        <time>2021-04-03T13:23:37Z</time>
      </trkpt>
      <trkpt lat="49.3197" lon="1.00603">
        <ele>74.4</ele>
        <time>2021-04-03T13:23:42Z</time>
      </trkpt>
      <trkpt lat="49.31969" lon="1.00603">
        <ele>74.4</ele>
        <time>2021-04-03T13:23:43Z</time>
      </trkpt>
      <trkpt lat="49.31969" lon="1.006">
        <ele>74.6</ele>
        <time>2021-04-03T13:23:44Z</time>
      </trkpt>
      <trkpt lat="49.31969" lon="1.00591">
        <ele>74.8</ele>
        <time>2021-04-03T13:23:47Z</time>
      </trkpt>
      <trkpt lat="49.3197" lon="1.00589">
        <ele>74.8</ele>
        <time>2021-04-03T13:23:48Z</time>
      </trkpt>
      <trkpt lat="49.31973" lon="1.00584">
        <ele>74.8</ele>
        <time>2021-04-03T13:23:52Z</time>
      </trkpt>
      <trkpt lat="49.31973" lon="1.0058">
        <ele>74.8</ele>
        <time>2021-04-03T13:23:59Z</time>
      </trkpt>
      <trkpt lat="49.3198" lon="1.00559">
        <ele>75.2</ele>
        <time>2021-04-03T13:24:17Z</time>
      </trkpt>
      <trkpt lat="49.31984" lon="1.00546">
        <ele>75.2</ele>
        <time>2021-04-03T13:24:22Z</time>
      </trkpt>
      <trkpt lat="49.31981" lon="1.0054">
        <ele>75.6</ele>
        <time>2021-04-03T13:24:24Z</time>
      </trkpt>
      <trkpt lat="49.31979" lon="1.00532">
        <ele>76.8</ele>
        <time>2021-04-03T13:24:27Z</time>
      </trkpt>
      <trkpt lat="49.31976" lon="1.00528">
        <ele>77.2</ele>
        <time>2021-04-03T13:24:28Z</time>
      </trkpt>
      <trkpt lat="49.31965" lon="1.00527">
        <ele>78</ele>
        <time>2021-04-03T13:24:33Z</time>
      </trkpt>
      <trkpt lat="49.31964" lon="1.00527">
        <ele>78</ele>
        <time>2021-04-03T13:24:34Z</time>
      </trkpt>
      <trkpt lat="49.31965" lon="1.00532">
        <ele>78</ele>
        <time>2021-04-03T13:24:38Z</time>
      </trkpt>
      <trkpt lat="49.31964" lon="1.00535">
        <ele>78</ele>
        <time>2021-04-03T13:24:40Z</time>
      </trkpt>
      <trkpt lat="49.31961" lon="1.00534">
        <ele>78</ele>
        <time>2021-04-03T13:24:43Z</time>
      </trkpt>
      <trkpt lat="49.3196" lon="1.00533">
        <ele>77.8</ele>
        <time>2021-04-03T13:24:44Z</time>
      </trkpt>
      <trkpt lat="49.31956" lon="1.00521">
        <ele>77.2</ele>
        <time>2021-04-03T13:24:47Z</time>
      </trkpt>
      <trkpt lat="49.31955" lon="1.00515">
        <ele>76.8</ele>
        <time>2021-04-03T13:24:48Z</time>
      </trkpt>
      <trkpt lat="49.31953" lon="1.00511">
        <ele>76.2</ele>
        <time>2021-04-03T13:24:49Z</time>
      </trkpt>
      <trkpt lat="49.31951" lon="1.00511">
        <ele>75.6</ele>
        <time>2021-04-03T13:24:50Z</time>
      </trkpt>
      <trkpt lat="49.31948" lon="1.00511">
        <ele>75.2</ele>
        <time>2021-04-03T13:24:51Z</time>
      </trkpt>
      <trkpt lat="49.31942" lon="1.00509">
        <ele>74.4</ele>
        <time>2021-04-03T13:24:53Z</time>
      </trkpt>
      <trkpt lat="49.31936" lon="1.00505">
        <ele>73.4</ele>
        <time>2021-04-03T13:24:55Z</time>
      </trkpt>
      <trkpt lat="49.31933" lon="1.00502">
        <ele>73.2</ele>
        <time>2021-04-03T13:24:56Z</time>
      </trkpt>
      <trkpt lat="49.31922" lon="1.00502">
        <ele>73</ele>
        <time>2021-04-03T13:24:59Z</time>
      </trkpt>
      <trkpt lat="49.31915" lon="1.00499">
        <ele>72.6</ele>
        <time>2021-04-03T13:25:02Z</time>
      </trkpt>
      <trkpt lat="49.31914" lon="1.00489">
        <ele>72.2</ele>
        <time>2021-04-03T13:25:05Z</time>
      </trkpt>
      <trkpt lat="49.31913" lon="1.00487">
        <ele>72.2</ele>
        <time>2021-04-03T13:25:06Z</time>
      </trkpt>
      <trkpt lat="49.31916" lon="1.00479">
        <ele>72</ele>
        <time>2021-04-03T13:25:10Z</time>
      </trkpt>
      <trkpt lat="49.31917" lon="1.00475">
        <ele>72</ele>
        <time>2021-04-03T13:25:11Z</time>
      </trkpt>
      <trkpt lat="49.31918" lon="1.00471">
        <ele>72</ele>
        <time>2021-04-03T13:25:12Z</time>
      </trkpt>
      <trkpt lat="49.31919" lon="1.00457">
        <ele>72</ele>
        <time>2021-04-03T13:25:15Z</time>
      </trkpt>
      <trkpt lat="49.31922" lon="1.00442">
        <ele>73.4</ele>
        <time>2021-04-03T13:25:19Z</time>
      </trkpt>
      <trkpt lat="49.31921" lon="1.00438">
        <ele>73.8</ele>
        <time>2021-04-03T13:25:20Z</time>
      </trkpt>
      <trkpt lat="49.31917" lon="1.00434">
        <ele>74.6</ele>
        <time>2021-04-03T13:25:22Z</time>
      </trkpt>
      <trkpt lat="49.31914" lon="1.00433">
        <ele>75</ele>
        <time>2021-04-03T13:25:23Z</time>
      </trkpt>
      <trkpt lat="49.31898" lon="1.00426">
        <ele>75.4</ele>
        <time>2021-04-03T13:25:27Z</time>
      </trkpt>
      <trkpt lat="49.31894" lon="1.00423">
        <ele>75.4</ele>
        <time>2021-04-03T13:25:28Z</time>
      </trkpt>
      <trkpt lat="49.31882" lon="1.00411">
        <ele>75.8</ele>
        <time>2021-04-03T13:25:33Z</time>
      </trkpt>
      <trkpt lat="49.31871" lon="1.00394">
        <ele>75.8</ele>
        <time>2021-04-03T13:25:40Z</time>
      </trkpt>
      <trkpt lat="49.31868" lon="1.00372">
        <ele>75.8</ele>
        <time>2021-04-03T13:25:43Z</time>
      </trkpt>
      <trkpt lat="49.31864" lon="1.00362">
        <ele>75.8</ele>
        <time>2021-04-03T13:25:46Z</time>
      </trkpt>
      <trkpt lat="49.31863" lon="1.0036">
        <ele>75.8</ele>
        <time>2021-04-03T13:25:47Z</time>
      </trkpt>
      <trkpt lat="49.31865" lon="1.00357">
        <ele>75.8</ele>
        <time>2021-04-03T13:25:49Z</time>
      </trkpt>
      <trkpt lat="49.31866" lon="1.00356">
        <ele>75.6</ele>
        <time>2021-04-03T13:25:50Z</time>
      </trkpt>
      <trkpt lat="49.31873" lon="1.00348">
        <ele>75.6</ele>
        <time>2021-04-03T13:25:56Z</time>
      </trkpt>
      <trkpt lat="49.31869" lon="1.00329">
        <ele>75.4</ele>
        <time>2021-04-03T13:26:04Z</time>
      </trkpt>
      <trkpt lat="49.31851" lon="1.00315">
        <ele>75.2</ele>
        <time>2021-04-03T13:26:08Z</time>
      </trkpt>
      <trkpt lat="49.31835" lon="1.00315">
        <ele>75.2</ele>
        <time>2021-04-03T13:26:11Z</time>
      </trkpt>
      <trkpt lat="49.31833" lon="1.00312">
        <ele>75.2</ele>
        <time>2021-04-03T13:26:12Z</time>
      </trkpt>
      <trkpt lat="49.31827" lon="1.00304">
        <ele>74.4</ele>
        <time>2021-04-03T13:26:15Z</time>
      </trkpt>
      <trkpt lat="49.31825" lon="1.00301">
        <ele>73.8</ele>
        <time>2021-04-03T13:26:16Z</time>
      </trkpt>
      <trkpt lat="49.31823" lon="1.00298">
        <ele>73</ele>
        <time>2021-04-03T13:26:17Z</time>
      </trkpt>
      <trkpt lat="49.31819" lon="1.00292">
        <ele>71.8</ele>
        <time>2021-04-03T13:26:19Z</time>
      </trkpt>
      <trkpt lat="49.31818" lon="1.00285">
        <ele>71.6</ele>
        <time>2021-04-03T13:26:21Z</time>
      </trkpt>
      <trkpt lat="49.31814" lon="1.00262">
        <ele>71.4</ele>
        <time>2021-04-03T13:26:26Z</time>
      </trkpt>
      <trkpt lat="49.31807" lon="1.00248">
        <ele>71.4</ele>
        <time>2021-04-03T13:26:30Z</time>
      </trkpt>
      <trkpt lat="49.31804" lon="1.00234">
        <ele>71.6</ele>
        <time>2021-04-03T13:26:35Z</time>
      </trkpt>
      <trkpt lat="49.31803" lon="1.00232">
        <ele>71.6</ele>
        <time>2021-04-03T13:26:36Z</time>
      </trkpt>
      <trkpt lat="49.31798" lon="1.00226">
        <ele>71.4</ele>
        <time>2021-04-03T13:26:43Z</time>
      </trkpt>
      <trkpt lat="49.31788" lon="1.00221">
        <ele>71.4</ele>
        <time>2021-04-03T13:26:46Z</time>
      </trkpt>
      <trkpt lat="49.3178" lon="1.00209">
        <ele>70.8</ele>
        <time>2021-04-03T13:26:51Z</time>
      </trkpt>
      <trkpt lat="49.31778" lon="1.00207">
        <ele>70.2</ele>
        <time>2021-04-03T13:26:52Z</time>
      </trkpt>
      <trkpt lat="49.31773" lon="1.00201">
        <ele>69.2</ele>
        <time>2021-04-03T13:26:54Z</time>
      </trkpt>
      <trkpt lat="49.31769" lon="1.002">
        <ele>68.8</ele>
        <time>2021-04-03T13:26:55Z</time>
      </trkpt>
      <trkpt lat="49.31764" lon="1.00198">
        <ele>68.6</ele>
        <time>2021-04-03T13:26:56Z</time>
      </trkpt>
      <trkpt lat="49.31756" lon="1.00193">
        <ele>68</ele>
        <time>2021-04-03T13:26:58Z</time>
      </trkpt>
      <trkpt lat="49.31751" lon="1.00193">
        <ele>67.8</ele>
        <time>2021-04-03T13:26:59Z</time>
      </trkpt>
      <trkpt lat="49.31744" lon="1.00185">
        <ele>66.8</ele>
        <time>2021-04-03T13:27:02Z</time>
      </trkpt>
      <trkpt lat="49.31739" lon="1.00169">
        <ele>66.4</ele>
        <time>2021-04-03T13:27:06Z</time>
      </trkpt>
      <trkpt lat="49.31738" lon="1.00167">
        <ele>66.4</ele>
        <time>2021-04-03T13:27:07Z</time>
      </trkpt>
      <trkpt lat="49.31739" lon="1.00144">
        <ele>67.2</ele>
        <time>2021-04-03T13:27:13Z</time>
      </trkpt>
      <trkpt lat="49.31739" lon="1.00136">
        <ele>68.4</ele>
        <time>2021-04-03T13:27:15Z</time>
      </trkpt>
      <trkpt lat="49.31738" lon="1.00129">
        <ele>69.8</ele>
        <time>2021-04-03T13:27:17Z</time>
      </trkpt>
      <trkpt lat="49.31736" lon="1.00127">
        <ele>70.4</ele>
        <time>2021-04-03T13:27:18Z</time>
      </trkpt>
      <trkpt lat="49.31734" lon="1.00125">
        <ele>70.8</ele>
        <time>2021-04-03T13:27:19Z</time>
      </trkpt>
      <trkpt lat="49.31724" lon="1.00119">
        <ele>71.2</ele>
        <time>2021-04-03T13:27:21Z</time>
      </trkpt>
      <trkpt lat="49.31715" lon="1.00114">
        <ele>71.2</ele>
        <time>2021-04-03T13:27:24Z</time>
      </trkpt>
      <trkpt lat="49.31706" lon="1.00102">
        <ele>71</ele>
        <time>2021-04-03T13:27:28Z</time>
      </trkpt>
      <trkpt lat="49.31702" lon="1.00101">
        <ele>70.8</ele>
        <time>2021-04-03T13:27:29Z</time>
      </trkpt>
      <trkpt lat="49.31691" lon="1.00091">
        <ele>70.6</ele>
        <time>2021-04-03T13:27:33Z</time>
      </trkpt>
      <trkpt lat="49.31685" lon="1.00078">
        <ele>70.6</ele>
        <time>2021-04-03T13:27:36Z</time>
      </trkpt>
      <trkpt lat="49.31684" lon="1.00068">
        <ele>71.2</ele>
        <time>2021-04-03T13:27:38Z</time>
      </trkpt>
      <trkpt lat="49.31681" lon="1.00053">
        <ele>72.4</ele>
        <time>2021-04-03T13:27:41Z</time>
      </trkpt>
      <trkpt lat="49.31678" lon="1.00049">
        <ele>72.8</ele>
        <time>2021-04-03T13:27:42Z</time>
      </trkpt>
      <trkpt lat="49.31673" lon="1.00044">
        <ele>73.6</ele>
        <time>2021-04-03T13:27:44Z</time>
      </trkpt>
      <trkpt lat="49.31669" lon="1.00032">
        <ele>74.6</ele>
        <time>2021-04-03T13:27:47Z</time>
      </trkpt>
      <trkpt lat="49.31669" lon="1.00029">
        <ele>75</ele>
        <time>2021-04-03T13:27:48Z</time>
      </trkpt>
      <trkpt lat="49.31668" lon="1.00021">
        <ele>76.2</ele>
        <time>2021-04-03T13:27:50Z</time>
      </trkpt>
      <trkpt lat="49.31668" lon="1.00014">
        <ele>77.6</ele>
        <time>2021-04-03T13:27:52Z</time>
      </trkpt>
      <trkpt lat="49.31667" lon="1.00008">
        <ele>79</ele>
        <time>2021-04-03T13:27:54Z</time>
      </trkpt>
      <trkpt lat="49.31666" lon="1.00002">
        <ele>80.2</ele>
        <time>2021-04-03T13:27:56Z</time>
      </trkpt>
      <trkpt lat="49.31665" lon="0.99999">
        <ele>80.6</ele>
        <time>2021-04-03T13:27:57Z</time>
      </trkpt>
      <trkpt lat="49.31663" lon="0.99997">
        <ele>81.4</ele>
        <time>2021-04-03T13:27:58Z</time>
      </trkpt>
      <trkpt lat="49.31657" lon="0.99995">
        <ele>83.4</ele>
        <time>2021-04-03T13:28:00Z</time>
      </trkpt>
      <trkpt lat="49.31653" lon="0.99994">
        <ele>84.4</ele>
        <time>2021-04-03T13:28:01Z</time>
      </trkpt>
      <trkpt lat="49.31649" lon="0.99993">
        <ele>85.4</ele>
        <time>2021-04-03T13:28:02Z</time>
      </trkpt>
      <trkpt lat="49.31645" lon="0.99992">
        <ele>86.2</ele>
        <time>2021-04-03T13:28:03Z</time>
      </trkpt>
      <trkpt lat="49.31638" lon="0.99991">
        <ele>87.8</ele>
        <time>2021-04-03T13:28:05Z</time>
      </trkpt>
      <trkpt lat="49.31624" lon="0.99986">
        <ele>88.8</ele>
        <time>2021-04-03T13:28:09Z</time>
      </trkpt>
      <trkpt lat="49.31609" lon="0.99973">
        <ele>90.4</ele>
        <time>2021-04-03T13:28:14Z</time>
      </trkpt>
      <trkpt lat="49.31606" lon="0.99972">
        <ele>90.8</ele>
        <time>2021-04-03T13:28:15Z</time>
      </trkpt>
      <trkpt lat="49.31602" lon="0.99973">
        <ele>91</ele>
        <time>2021-04-03T13:28:16Z</time>
      </trkpt>
      <trkpt lat="49.31595" lon="0.99977">
        <ele>91.2</ele>
        <time>2021-04-03T13:28:18Z</time>
      </trkpt>
      <trkpt lat="49.31585" lon="0.99971">
        <ele>91.4</ele>
        <time>2021-04-03T13:28:21Z</time>
      </trkpt>
      <trkpt lat="49.31581" lon="0.99961">
        <ele>91.4</ele>
        <time>2021-04-03T13:28:23Z</time>
      </trkpt>
      <trkpt lat="49.31578" lon="0.99954">
        <ele>91.4</ele>
        <time>2021-04-03T13:28:24Z</time>
      </trkpt>
      <trkpt lat="49.31575" lon="0.99949">
        <ele>90.8</ele>
        <time>2021-04-03T13:28:25Z</time>
      </trkpt>
      <trkpt lat="49.3156" lon="0.99937">
        <ele>89.6</ele>
        <time>2021-04-03T13:28:28Z</time>
      </trkpt>
      <trkpt lat="49.31556" lon="0.99934">
        <ele>89.4</ele>
        <time>2021-04-03T13:28:29Z</time>
      </trkpt>
      <trkpt lat="49.31546" lon="0.99925">
        <ele>89.2</ele>
        <time>2021-04-03T13:28:32Z</time>
      </trkpt>
      <trkpt lat="49.31543" lon="0.9992">
        <ele>89</ele>
        <time>2021-04-03T13:28:33Z</time>
      </trkpt>
      <trkpt lat="49.31537" lon="0.9991">
        <ele>87.8</ele>
        <time>2021-04-03T13:28:35Z</time>
      </trkpt>
      <trkpt lat="49.31533" lon="0.99907">
        <ele>86.8</ele>
        <time>2021-04-03T13:28:36Z</time>
      </trkpt>
      <trkpt lat="49.31529" lon="0.99903">
        <ele>86.4</ele>
        <time>2021-04-03T13:28:37Z</time>
      </trkpt>
      <trkpt lat="49.31524" lon="0.999">
        <ele>86</ele>
        <time>2021-04-03T13:28:38Z</time>
      </trkpt>
      <trkpt lat="49.31521" lon="0.99896">
        <ele>85.4</ele>
        <time>2021-04-03T13:28:39Z</time>
      </trkpt>
      <trkpt lat="49.31518" lon="0.9988">
        <ele>83.4</ele>
        <time>2021-04-03T13:28:41Z</time>
      </trkpt>
      <trkpt lat="49.31522" lon="0.99864">
        <ele>81.6</ele>
        <time>2021-04-03T13:28:43Z</time>
      </trkpt>
      <trkpt lat="49.31526" lon="0.99858">
        <ele>81</ele>
        <time>2021-04-03T13:28:44Z</time>
      </trkpt>
      <trkpt lat="49.3153" lon="0.99852">
        <ele>80</ele>
        <time>2021-04-03T13:28:45Z</time>
      </trkpt>
      <trkpt lat="49.31535" lon="0.99844">
        <ele>78.2</ele>
        <time>2021-04-03T13:28:47Z</time>
      </trkpt>
      <trkpt lat="49.31536" lon="0.99839">
        <ele>77.6</ele>
        <time>2021-04-03T13:28:48Z</time>
      </trkpt>
      <trkpt lat="49.31535" lon="0.99833">
        <ele>76.8</ele>
        <time>2021-04-03T13:28:49Z</time>
      </trkpt>
      <trkpt lat="49.31535" lon="0.99827">
        <ele>75.6</ele>
        <time>2021-04-03T13:28:50Z</time>
      </trkpt>
      <trkpt lat="49.31531" lon="0.99823">
        <ele>74.4</ele>
        <time>2021-04-03T13:28:51Z</time>
      </trkpt>
      <trkpt lat="49.31527" lon="0.99818">
        <ele>73.6</ele>
        <time>2021-04-03T13:28:52Z</time>
      </trkpt>
      <trkpt lat="49.31523" lon="0.99812">
        <ele>72.8</ele>
        <time>2021-04-03T13:28:53Z</time>
      </trkpt>
      <trkpt lat="49.31512" lon="0.99796">
        <ele>72</ele>
        <time>2021-04-03T13:28:55Z</time>
      </trkpt>
      <trkpt lat="49.31506" lon="0.99791">
        <ele>71.8</ele>
        <time>2021-04-03T13:28:56Z</time>
      </trkpt>
      <trkpt lat="49.31494" lon="0.99783">
        <ele>70.2</ele>
        <time>2021-04-03T13:28:58Z</time>
      </trkpt>
      <trkpt lat="49.31481" lon="0.99783">
        <ele>68.6</ele>
        <time>2021-04-03T13:29:00Z</time>
      </trkpt>
      <trkpt lat="49.31474" lon="0.99785">
        <ele>67.2</ele>
        <time>2021-04-03T13:29:01Z</time>
      </trkpt>
      <trkpt lat="49.31468" lon="0.99786">
        <ele>65.6</ele>
        <time>2021-04-03T13:29:02Z</time>
      </trkpt>
      <trkpt lat="49.31461" lon="0.99787">
        <ele>64</ele>
        <time>2021-04-03T13:29:03Z</time>
      </trkpt>
      <trkpt lat="49.31455" lon="0.99787">
        <ele>62.4</ele>
        <time>2021-04-03T13:29:04Z</time>
      </trkpt>
      <trkpt lat="49.31447" lon="0.99786">
        <ele>61</ele>
        <time>2021-04-03T13:29:05Z</time>
      </trkpt>
      <trkpt lat="49.3144" lon="0.99787">
        <ele>59.8</ele>
        <time>2021-04-03T13:29:06Z</time>
      </trkpt>
      <trkpt lat="49.31427" lon="0.99788">
        <ele>58.4</ele>
        <time>2021-04-03T13:29:08Z</time>
      </trkpt>
      <trkpt lat="49.31421" lon="0.99785">
        <ele>57.8</ele>
        <time>2021-04-03T13:29:09Z</time>
      </trkpt>
      <trkpt lat="49.31417" lon="0.99778">
        <ele>57.2</ele>
        <time>2021-04-03T13:29:10Z</time>
      </trkpt>
      <trkpt lat="49.31413" lon="0.99772">
        <ele>56.8</ele>
        <time>2021-04-03T13:29:11Z</time>
      </trkpt>
      <trkpt lat="49.31409" lon="0.99769">
        <ele>56.6</ele>
        <time>2021-04-03T13:29:12Z</time>
      </trkpt>
      <trkpt lat="49.31405" lon="0.99767">
        <ele>54.6</ele>
        <time>2021-04-03T13:29:14Z</time>
      </trkpt>
      <trkpt lat="49.31404" lon="0.99766">
        <ele>54</ele>
        <time>2021-04-03T13:29:15Z</time>
      </trkpt>
      <trkpt lat="49.31402" lon="0.99763">
        <ele>53.4</ele>
        <time>2021-04-03T13:29:16Z</time>
      </trkpt>
      <trkpt lat="49.31401" lon="0.99755">
        <ele>51.4</ele>
        <time>2021-04-03T13:29:18Z</time>
      </trkpt>
      <trkpt lat="49.31403" lon="0.99746">
        <ele>50.4</ele>
        <time>2021-04-03T13:29:20Z</time>
      </trkpt>
      <trkpt lat="49.31408" lon="0.99738">
        <ele>50</ele>
        <time>2021-04-03T13:29:22Z</time>
      </trkpt>
      <trkpt lat="49.31414" lon="0.99737">
        <ele>49.4</ele>
        <time>2021-04-03T13:29:24Z</time>
      </trkpt>
      <trkpt lat="49.31418" lon="0.99738">
        <ele>49</ele>
        <time>2021-04-03T13:29:25Z</time>
      </trkpt>
      <trkpt lat="49.31421" lon="0.99738">
        <ele>48.2</ele>
        <time>2021-04-03T13:29:26Z</time>
      </trkpt>
      <trkpt lat="49.31434" lon="0.99739">
        <ele>47.6</ele>
        <time>2021-04-03T13:29:29Z</time>
      </trkpt>
      <trkpt lat="49.3144" lon="0.99739">
        <ele>47.6</ele>
        <time>2021-04-03T13:29:30Z</time>
      </trkpt>
      <trkpt lat="49.31451" lon="0.99738">
        <ele>47.4</ele>
        <time>2021-04-03T13:29:32Z</time>
      </trkpt>
      <trkpt lat="49.31468" lon="0.99739">
        <ele>47.4</ele>
        <time>2021-04-03T13:29:35Z</time>
      </trkpt>
      <trkpt lat="49.31473" lon="0.9974">
        <ele>47.4</ele>
        <time>2021-04-03T13:29:36Z</time>
      </trkpt>
      <trkpt lat="49.31489" lon="0.99744">
        <ele>48</ele>
        <time>2021-04-03T13:29:39Z</time>
      </trkpt>
      <trkpt lat="49.31502" lon="0.99745">
        <ele>49.2</ele>
        <time>2021-04-03T13:29:42Z</time>
      </trkpt>
      <trkpt lat="49.31508" lon="0.99744">
        <ele>49.6</ele>
        <time>2021-04-03T13:29:43Z</time>
      </trkpt>
      <trkpt lat="49.31522" lon="0.99742">
        <ele>50.8</ele>
        <time>2021-04-03T13:29:46Z</time>
      </trkpt>
      <trkpt lat="49.31525" lon="0.99743">
        <ele>51.2</ele>
        <time>2021-04-03T13:29:47Z</time>
      </trkpt>
      <trkpt lat="49.31531" lon="0.99743">
        <ele>52</ele>
        <time>2021-04-03T13:29:49Z</time>
      </trkpt>
      <trkpt lat="49.31533" lon="0.99742">
        <ele>52.8</ele>
        <time>2021-04-03T13:29:51Z</time>
      </trkpt>
      <trkpt lat="49.31571" lon="0.99749">
        <ele>57.8</ele>
        <time>2021-04-03T13:32:13Z</time>
      </trkpt>
      <trkpt lat="49.31579" lon="0.99753">
        <ele>57.8</ele>
        <time>2021-04-03T13:32:17Z</time>
      </trkpt>
      <trkpt lat="49.31588" lon="0.99757">
        <ele>58.4</ele>
        <time>2021-04-03T13:32:21Z</time>
      </trkpt>
      <trkpt lat="49.3159" lon="0.99759">
        <ele>58.6</ele>
        <time>2021-04-03T13:32:22Z</time>
      </trkpt>
      <trkpt lat="49.31596" lon="0.99767">
        <ele>59</ele>
        <time>2021-04-03T13:32:26Z</time>
      </trkpt>
      <trkpt lat="49.316" lon="0.99772">
        <ele>59</ele>
        <time>2021-04-03T13:32:28Z</time>
      </trkpt>
      <trkpt lat="49.31609" lon="0.99777">
        <ele>59.6</ele>
        <time>2021-04-03T13:32:34Z</time>
      </trkpt>
      <trkpt lat="49.31612" lon="0.99781">
        <ele>60</ele>
        <time>2021-04-03T13:32:36Z</time>
      </trkpt>
      <trkpt lat="49.31616" lon="0.99782">
        <ele>60.4</ele>
        <time>2021-04-03T13:32:39Z</time>
      </trkpt>
      <trkpt lat="49.31619" lon="0.99782">
        <ele>60.6</ele>
        <time>2021-04-03T13:32:40Z</time>
      </trkpt>
      <trkpt lat="49.31623" lon="0.99779">
        <ele>60.8</ele>
        <time>2021-04-03T13:32:42Z</time>
      </trkpt>
      <trkpt lat="49.31626" lon="0.99772">
        <ele>61</ele>
        <time>2021-04-03T13:32:44Z</time>
      </trkpt>
      <trkpt lat="49.31627" lon="0.9977">
        <ele>61</ele>
        <time>2021-04-03T13:32:45Z</time>
      </trkpt>
      <trkpt lat="49.31634" lon="0.99769">
        <ele>61</ele>
        <time>2021-04-03T13:32:48Z</time>
      </trkpt>
      <trkpt lat="49.31635" lon="0.99768">
        <ele>61.2</ele>
        <time>2021-04-03T13:32:49Z</time>
      </trkpt>
      <trkpt lat="49.31636" lon="0.99769">
        <ele>61.2</ele>
        <time>2021-04-03T13:32:50Z</time>
      </trkpt>
      <trkpt lat="49.31649" lon="0.99771">
        <ele>61</ele>
        <time>2021-04-03T13:33:02Z</time>
      </trkpt>
      <trkpt lat="49.31653" lon="0.99773">
        <ele>61</ele>
        <time>2021-04-03T13:33:04Z</time>
      </trkpt>
      <trkpt lat="49.31667" lon="0.99776">
        <ele>60.6</ele>
        <time>2021-04-03T13:33:08Z</time>
      </trkpt>
      <trkpt lat="49.31674" lon="0.99775">
        <ele>60.2</ele>
        <time>2021-04-03T13:33:12Z</time>
      </trkpt>
      <trkpt lat="49.31677" lon="0.99775">
        <ele>60</ele>
        <time>2021-04-03T13:33:13Z</time>
      </trkpt>
      <trkpt lat="49.31679" lon="0.99777">
        <ele>59.4</ele>
        <time>2021-04-03T13:33:15Z</time>
      </trkpt>
      <trkpt lat="49.31707" lon="0.99785">
        <ele>58.6</ele>
        <time>2021-04-03T13:33:33Z</time>
      </trkpt>
      <trkpt lat="49.31709" lon="0.99784">
        <ele>58.4</ele>
        <time>2021-04-03T13:33:34Z</time>
      </trkpt>
      <trkpt lat="49.31715" lon="0.99784">
        <ele>58.4</ele>
        <time>2021-04-03T13:33:36Z</time>
      </trkpt>
      <trkpt lat="49.31729" lon="0.9979">
        <ele>58.2</ele>
        <time>2021-04-03T13:33:39Z</time>
      </trkpt>
      <trkpt lat="49.31743" lon="0.99795">
        <ele>57.4</ele>
        <time>2021-04-03T13:33:41Z</time>
      </trkpt>
      <trkpt lat="49.31754" lon="0.99797">
        <ele>56.4</ele>
        <time>2021-04-03T13:33:43Z</time>
      </trkpt>
      <trkpt lat="49.31758" lon="0.99796">
        <ele>55.2</ele>
        <time>2021-04-03T13:33:44Z</time>
      </trkpt>
      <trkpt lat="49.31761" lon="0.99795">
        <ele>53.6</ele>
        <time>2021-04-03T13:33:45Z</time>
      </trkpt>
      <trkpt lat="49.31764" lon="0.99794">
        <ele>51.8</ele>
        <time>2021-04-03T13:33:46Z</time>
      </trkpt>
      <trkpt lat="49.31765" lon="0.99792">
        <ele>49.8</ele>
        <time>2021-04-03T13:33:47Z</time>
      </trkpt>
      <trkpt lat="49.31762" lon="0.99787">
        <ele>48.6</ele>
        <time>2021-04-03T13:33:48Z</time>
      </trkpt>
      <trkpt lat="49.31756" lon="0.99781">
        <ele>47.2</ele>
        <time>2021-04-03T13:33:50Z</time>
      </trkpt>
      <trkpt lat="49.31745" lon="0.9976">
        <ele>45.8</ele>
        <time>2021-04-03T13:33:54Z</time>
      </trkpt>
      <trkpt lat="49.31739" lon="0.99748">
        <ele>44</ele>
        <time>2021-04-03T13:33:56Z</time>
      </trkpt>
      <trkpt lat="49.31738" lon="0.99742">
        <ele>43.6</ele>
        <time>2021-04-03T13:33:57Z</time>
      </trkpt>
      <trkpt lat="49.31736" lon="0.99732">
        <ele>42.8</ele>
        <time>2021-04-03T13:33:59Z</time>
      </trkpt>
      <trkpt lat="49.31734" lon="0.99725">
        <ele>41.8</ele>
        <time>2021-04-03T13:34:00Z</time>
      </trkpt>
      <trkpt lat="49.31732" lon="0.99721">
        <ele>40.8</ele>
        <time>2021-04-03T13:34:01Z</time>
      </trkpt>
      <trkpt lat="49.31728" lon="0.99712">
        <ele>39.2</ele>
        <time>2021-04-03T13:34:03Z</time>
      </trkpt>
      <trkpt lat="49.31723" lon="0.99695">
        <ele>37.6</ele>
        <time>2021-04-03T13:34:06Z</time>
      </trkpt>
      <trkpt lat="49.3172" lon="0.99684">
        <ele>36</ele>
        <time>2021-04-03T13:34:08Z</time>
      </trkpt>
      <trkpt lat="49.31717" lon="0.9967">
        <ele>34.8</ele>
        <time>2021-04-03T13:34:10Z</time>
      </trkpt>
      <trkpt lat="49.31716" lon="0.99664">
        <ele>34.2</ele>
        <time>2021-04-03T13:34:11Z</time>
      </trkpt>
      <trkpt lat="49.31715" lon="0.9966">
        <ele>33.2</ele>
        <time>2021-04-03T13:34:12Z</time>
      </trkpt>
      <trkpt lat="49.31716" lon="0.99656">
        <ele>31.8</ele>
        <time>2021-04-03T13:34:14Z</time>
      </trkpt>
      <trkpt lat="49.31717" lon="0.99653">
        <ele>31</ele>
        <time>2021-04-03T13:34:15Z</time>
      </trkpt>
      <trkpt lat="49.31718" lon="0.99649">
        <ele>30</ele>
        <time>2021-04-03T13:34:16Z</time>
      </trkpt>
      <trkpt lat="49.31719" lon="0.99641">
        <ele>28.6</ele>
        <time>2021-04-03T13:34:18Z</time>
      </trkpt>
      <trkpt lat="49.31719" lon="0.99631">
        <ele>28</ele>
        <time>2021-04-03T13:34:20Z</time>
      </trkpt>
      <trkpt lat="49.3172" lon="0.99626">
        <ele>27.8</ele>
        <time>2021-04-03T13:34:21Z</time>
      </trkpt>
      <trkpt lat="49.31721" lon="0.99618">
        <ele>27.6</ele>
        <time>2021-04-03T13:34:22Z</time>
      </trkpt>
      <trkpt lat="49.31725" lon="0.99603">
        <ele>26.6</ele>
        <time>2021-04-03T13:34:24Z</time>
      </trkpt>
      <trkpt lat="49.31727" lon="0.99592">
        <ele>26.2</ele>
        <time>2021-04-03T13:34:25Z</time>
      </trkpt>
      <trkpt lat="49.31735" lon="0.99573">
        <ele>25.2</ele>
        <time>2021-04-03T13:34:27Z</time>
      </trkpt>
      <trkpt lat="49.31739" lon="0.99563">
        <ele>24.8</ele>
        <time>2021-04-03T13:34:28Z</time>
      </trkpt>
      <trkpt lat="49.31748" lon="0.99548">
        <ele>23.4</ele>
        <time>2021-04-03T13:34:30Z</time>
      </trkpt>
      <trkpt lat="49.31751" lon="0.99543">
        <ele>22.2</ele>
        <time>2021-04-03T13:34:31Z</time>
      </trkpt>
      <trkpt lat="49.31756" lon="0.99538">
        <ele>21.2</ele>
        <time>2021-04-03T13:34:32Z</time>
      </trkpt>
      <trkpt lat="49.3176" lon="0.99532">
        <ele>20</ele>
        <time>2021-04-03T13:34:33Z</time>
      </trkpt>
      <trkpt lat="49.31765" lon="0.99526">
        <ele>18.6</ele>
        <time>2021-04-03T13:34:34Z</time>
      </trkpt>
      <trkpt lat="49.31769" lon="0.99519">
        <ele>17.4</ele>
        <time>2021-04-03T13:34:35Z</time>
      </trkpt>
      <trkpt lat="49.31779" lon="0.99506">
        <ele>16</ele>
        <time>2021-04-03T13:34:37Z</time>
      </trkpt>
      <trkpt lat="49.31796" lon="0.99476">
        <ele>15</ele>
        <time>2021-04-03T13:34:41Z</time>
      </trkpt>
      <trkpt lat="49.318" lon="0.99469">
        <ele>14.2</ele>
        <time>2021-04-03T13:34:42Z</time>
      </trkpt>
      <trkpt lat="49.31805" lon="0.99462">
        <ele>13.6</ele>
        <time>2021-04-03T13:34:43Z</time>
      </trkpt>
      <trkpt lat="49.3181" lon="0.99456">
        <ele>13</ele>
        <time>2021-04-03T13:34:44Z</time>
      </trkpt>
      <trkpt lat="49.31815" lon="0.99451">
        <ele>12.4</ele>
        <time>2021-04-03T13:34:45Z</time>
      </trkpt>
      <trkpt lat="49.31819" lon="0.99447">
        <ele>12</ele>
        <time>2021-04-03T13:34:46Z</time>
      </trkpt>
      <trkpt lat="49.31843" lon="0.99425">
        <ele>11.8</ele>
        <time>2021-04-03T13:34:52Z</time>
      </trkpt>
      <trkpt lat="49.31855" lon="0.99417">
        <ele>12.6</ele>
        <time>2021-04-03T13:34:55Z</time>
      </trkpt>
      <trkpt lat="49.31862" lon="0.99411">
        <ele>13</ele>
        <time>2021-04-03T13:34:57Z</time>
      </trkpt>
      <trkpt lat="49.31868" lon="0.99404">
        <ele>13.4</ele>
        <time>2021-04-03T13:34:59Z</time>
      </trkpt>
      <trkpt lat="49.31871" lon="0.99401">
        <ele>13.6</ele>
        <time>2021-04-03T13:35:00Z</time>
      </trkpt>
      <trkpt lat="49.3188" lon="0.99394">
        <ele>14.6</ele>
        <time>2021-04-03T13:35:02Z</time>
      </trkpt>
      <trkpt lat="49.31892" lon="0.99379">
        <ele>15.2</ele>
        <time>2021-04-03T13:35:05Z</time>
      </trkpt>
      <trkpt lat="49.31899" lon="0.99368">
        <ele>15.2</ele>
        <time>2021-04-03T13:35:07Z</time>
      </trkpt>
      <trkpt lat="49.31907" lon="0.99358">
        <ele>15.2</ele>
        <time>2021-04-03T13:35:09Z</time>
      </trkpt>
      <trkpt lat="49.31911" lon="0.99346">
        <ele>15.2</ele>
        <time>2021-04-03T13:35:11Z</time>
      </trkpt>
      <trkpt lat="49.31924" lon="0.99312">
        <ele>15.2</ele>
        <time>2021-04-03T13:35:15Z</time>
      </trkpt>
      <trkpt lat="49.31947" lon="0.99248">
        <ele>13</ele>
        <time>2021-04-03T13:35:22Z</time>
      </trkpt>
      <trkpt lat="49.31954" lon="0.99231">
        <ele>11.8</ele>
        <time>2021-04-03T13:35:24Z</time>
      </trkpt>
      <trkpt lat="49.31969" lon="0.992">
        <ele>11.2</ele>
        <time>2021-04-03T13:35:28Z</time>
      </trkpt>
      <trkpt lat="49.31989" lon="0.99161">
        <ele>10.8</ele>
        <time>2021-04-03T13:35:34Z</time>
      </trkpt>
      <trkpt lat="49.31992" lon="0.99154">
        <ele>10.6</ele>
        <time>2021-04-03T13:35:35Z</time>
      </trkpt>
      <trkpt lat="49.32014" lon="0.99111">
        <ele>10</ele>
        <time>2021-04-03T13:35:42Z</time>
      </trkpt>
      <trkpt lat="49.32029" lon="0.99077">
        <ele>9.6</ele>
        <time>2021-04-03T13:35:49Z</time>
      </trkpt>
      <trkpt lat="49.32031" lon="0.99073">
        <ele>9.6</ele>
        <time>2021-04-03T13:35:50Z</time>
      </trkpt>
      <trkpt lat="49.32033" lon="0.99066">
        <ele>9.4</ele>
        <time>2021-04-03T13:35:53Z</time>
      </trkpt>
      <trkpt lat="49.32036" lon="0.99064">
        <ele>9.4</ele>
        <time>2021-04-03T13:35:55Z</time>
      </trkpt>
      <trkpt lat="49.32043" lon="0.99065">
        <ele>9.2</ele>
        <time>2021-04-03T13:35:58Z</time>
      </trkpt>
      <trkpt lat="49.32049" lon="0.99064">
        <ele>9.4</ele>
        <time>2021-04-03T13:36:01Z</time>
      </trkpt>
      <trkpt lat="49.32053" lon="0.99063">
        <ele>9.4</ele>
        <time>2021-04-03T13:36:04Z</time>
      </trkpt>
      <trkpt lat="49.32057" lon="0.9906">
        <ele>9.8</ele>
        <time>2021-04-03T13:36:07Z</time>
      </trkpt>
      <trkpt lat="49.32059" lon="0.99057">
        <ele>10.4</ele>
        <time>2021-04-03T13:36:08Z</time>
      </trkpt>
      <trkpt lat="49.32061" lon="0.99052">
        <ele>12</ele>
        <time>2021-04-03T13:36:10Z</time>
      </trkpt>
      <trkpt lat="49.32063" lon="0.99049">
        <ele>13.4</ele>
        <time>2021-04-03T13:36:12Z</time>
      </trkpt>
      <trkpt lat="49.32065" lon="0.99046">
        <ele>15.4</ele>
        <time>2021-04-03T13:36:14Z</time>
      </trkpt>
      <trkpt lat="49.32067" lon="0.99044">
        <ele>16</ele>
        <time>2021-04-03T13:36:16Z</time>
      </trkpt>
      <trkpt lat="49.32071" lon="0.99042">
        <ele>16.4</ele>
        <time>2021-04-03T13:36:19Z</time>
      </trkpt>
      <trkpt lat="49.32072" lon="0.9904">
        <ele>16.4</ele>
        <time>2021-04-03T13:36:20Z</time>
      </trkpt>
      <trkpt lat="49.32074" lon="0.99038">
        <ele>16.4</ele>
        <time>2021-04-03T13:36:22Z</time>
      </trkpt>
      <trkpt lat="49.32074" lon="0.99037">
        <ele>16.6</ele>
        <time>2021-04-03T13:36:23Z</time>
      </trkpt>
      <trkpt lat="49.32092" lon="0.98994">
        <ele>20.6</ele>
        <time>2021-04-03T13:37:06Z</time>
      </trkpt>
      <trkpt lat="49.32094" lon="0.98987">
        <ele>20.8</ele>
        <time>2021-04-03T13:37:09Z</time>
      </trkpt>
      <trkpt lat="49.32101" lon="0.98964">
        <ele>20.8</ele>
        <time>2021-04-03T13:37:17Z</time>
      </trkpt>
      <trkpt lat="49.32104" lon="0.98958">
        <ele>20.6</ele>
        <time>2021-04-03T13:37:20Z</time>
      </trkpt>
      <trkpt lat="49.32108" lon="0.98953">
        <ele>20.6</ele>
        <time>2021-04-03T13:37:22Z</time>
      </trkpt>
      <trkpt lat="49.32109" lon="0.9894">
        <ele>20.4</ele>
        <time>2021-04-03T13:37:26Z</time>
      </trkpt>
      <trkpt lat="49.3211" lon="0.98938">
        <ele>20.4</ele>
        <time>2021-04-03T13:37:27Z</time>
      </trkpt>
      <trkpt lat="49.32117" lon="0.9892">
        <ele>21.6</ele>
        <time>2021-04-03T13:37:33Z</time>
      </trkpt>
      <trkpt lat="49.32117" lon="0.98917">
        <ele>21.8</ele>
        <time>2021-04-03T13:37:34Z</time>
      </trkpt>
      <trkpt lat="49.32117" lon="0.98912">
        <ele>22</ele>
        <time>2021-04-03T13:37:38Z</time>
      </trkpt>
      <trkpt lat="49.32128" lon="0.98882">
        <ele>23.2</ele>
        <time>2021-04-03T13:38:00Z</time>
      </trkpt>
      <trkpt lat="49.3213" lon="0.98876">
        <ele>23.2</ele>
        <time>2021-04-03T13:38:02Z</time>
      </trkpt>
      <trkpt lat="49.32134" lon="0.98862">
        <ele>24.4</ele>
        <time>2021-04-03T13:38:06Z</time>
      </trkpt>
      <trkpt lat="49.32134" lon="0.98858">
        <ele>24.8</ele>
        <time>2021-04-03T13:38:07Z</time>
      </trkpt>
      <trkpt lat="49.32137" lon="0.98852">
        <ele>25.6</ele>
        <time>2021-04-03T13:38:09Z</time>
      </trkpt>
      <trkpt lat="49.32139" lon="0.98844">
        <ele>26.6</ele>
        <time>2021-04-03T13:38:12Z</time>
      </trkpt>
      <trkpt lat="49.32139" lon="0.98841">
        <ele>26.8</ele>
        <time>2021-04-03T13:38:13Z</time>
      </trkpt>
      <trkpt lat="49.32139" lon="0.98834">
        <ele>27</ele>
        <time>2021-04-03T13:38:17Z</time>
      </trkpt>
      <trkpt lat="49.32141" lon="0.98807">
        <ele>27.8</ele>
        <time>2021-04-03T13:38:34Z</time>
      </trkpt>
      <trkpt lat="49.32141" lon="0.98804">
        <ele>27.8</ele>
        <time>2021-04-03T13:38:35Z</time>
      </trkpt>
      <trkpt lat="49.3214" lon="0.9879">
        <ele>27.6</ele>
        <time>2021-04-03T13:38:39Z</time>
      </trkpt>
      <trkpt lat="49.32141" lon="0.98776">
        <ele>27</ele>
        <time>2021-04-03T13:38:43Z</time>
      </trkpt>
      <trkpt lat="49.32149" lon="0.98762">
        <ele>27</ele>
        <time>2021-04-03T13:38:48Z</time>
      </trkpt>
      <trkpt lat="49.32155" lon="0.9875">
        <ele>27.6</ele>
        <time>2021-04-03T13:38:52Z</time>
      </trkpt>
      <trkpt lat="49.32156" lon="0.98746">
        <ele>27.8</ele>
        <time>2021-04-03T13:38:53Z</time>
      </trkpt>
      <trkpt lat="49.32163" lon="0.98737">
        <ele>29.6</ele>
        <time>2021-04-03T13:38:56Z</time>
      </trkpt>
      <trkpt lat="49.32166" lon="0.98736">
        <ele>30</ele>
        <time>2021-04-03T13:38:57Z</time>
      </trkpt>
      <trkpt lat="49.3217" lon="0.98732">
        <ele>30.6</ele>
        <time>2021-04-03T13:38:59Z</time>
      </trkpt>
      <trkpt lat="49.32175" lon="0.98725">
        <ele>31.4</ele>
        <time>2021-04-03T13:39:02Z</time>
      </trkpt>
      <trkpt lat="49.32177" lon="0.98723">
        <ele>31.6</ele>
        <time>2021-04-03T13:39:03Z</time>
      </trkpt>
      <trkpt lat="49.32179" lon="0.9872">
        <ele>31.8</ele>
        <time>2021-04-03T13:39:04Z</time>
      </trkpt>
      <trkpt lat="49.32181" lon="0.98712">
        <ele>32.2</ele>
        <time>2021-04-03T13:39:07Z</time>
      </trkpt>
      <trkpt lat="49.32185" lon="0.98699">
        <ele>32.8</ele>
        <time>2021-04-03T13:39:12Z</time>
      </trkpt>
      <trkpt lat="49.32187" lon="0.98696">
        <ele>32.8</ele>
        <time>2021-04-03T13:39:13Z</time>
      </trkpt>
      <trkpt lat="49.32188" lon="0.98692">
        <ele>33</ele>
        <time>2021-04-03T13:39:14Z</time>
      </trkpt>
      <trkpt lat="49.3219" lon="0.98677">
        <ele>33.2</ele>
        <time>2021-04-03T13:39:17Z</time>
      </trkpt>
      <trkpt lat="49.3219" lon="0.98667">
        <ele>33.2</ele>
        <time>2021-04-03T13:39:19Z</time>
      </trkpt>
      <trkpt lat="49.3219" lon="0.98657">
        <ele>33.4</ele>
        <time>2021-04-03T13:39:21Z</time>
      </trkpt>
      <trkpt lat="49.32187" lon="0.98653">
        <ele>33.4</ele>
        <time>2021-04-03T13:39:22Z</time>
      </trkpt>
      <trkpt lat="49.32178" lon="0.98638">
        <ele>34.2</ele>
        <time>2021-04-03T13:39:27Z</time>
      </trkpt>
      <trkpt lat="49.32174" lon="0.98633">
        <ele>35.4</ele>
        <time>2021-04-03T13:39:29Z</time>
      </trkpt>
      <trkpt lat="49.3217" lon="0.98628">
        <ele>36.6</ele>
        <time>2021-04-03T13:39:31Z</time>
      </trkpt>
      <trkpt lat="49.32168" lon="0.98623">
        <ele>37.6</ele>
        <time>2021-04-03T13:39:33Z</time>
      </trkpt>
      <trkpt lat="49.32164" lon="0.98614">
        <ele>39.2</ele>
        <time>2021-04-03T13:39:36Z</time>
      </trkpt>
      <trkpt lat="49.32164" lon="0.98609">
        <ele>40.2</ele>
        <time>2021-04-03T13:39:38Z</time>
      </trkpt>
      <trkpt lat="49.32164" lon="0.98605">
        <ele>40.8</ele>
        <time>2021-04-03T13:39:39Z</time>
      </trkpt>
      <trkpt lat="49.32164" lon="0.98601">
        <ele>41.6</ele>
        <time>2021-04-03T13:39:40Z</time>
      </trkpt>
      <trkpt lat="49.32166" lon="0.98594">
        <ele>42.8</ele>
        <time>2021-04-03T13:39:42Z</time>
      </trkpt>
      <trkpt lat="49.32167" lon="0.98587">
        <ele>44.2</ele>
        <time>2021-04-03T13:39:44Z</time>
      </trkpt>
      <trkpt lat="49.32168" lon="0.9858">
        <ele>45.2</ele>
        <time>2021-04-03T13:39:46Z</time>
      </trkpt>
      <trkpt lat="49.3217" lon="0.98577">
        <ele>45.6</ele>
        <time>2021-04-03T13:39:47Z</time>
      </trkpt>
      <trkpt lat="49.32174" lon="0.98573">
        <ele>46.4</ele>
        <time>2021-04-03T13:39:49Z</time>
      </trkpt>
      <trkpt lat="49.32176" lon="0.98571">
        <ele>47</ele>
        <time>2021-04-03T13:39:50Z</time>
      </trkpt>
      <trkpt lat="49.3218" lon="0.98567">
        <ele>47.6</ele>
        <time>2021-04-03T13:39:52Z</time>
      </trkpt>
      <trkpt lat="49.32182" lon="0.98565">
        <ele>48</ele>
        <time>2021-04-03T13:39:53Z</time>
      </trkpt>
      <trkpt lat="49.3219" lon="0.98557">
        <ele>48.8</ele>
        <time>2021-04-03T13:39:56Z</time>
      </trkpt>
      <trkpt lat="49.322" lon="0.98541">
        <ele>49.8</ele>
        <time>2021-04-03T13:40:00Z</time>
      </trkpt>
      <trkpt lat="49.32203" lon="0.98536">
        <ele>50</ele>
        <time>2021-04-03T13:40:01Z</time>
      </trkpt>
      <trkpt lat="49.32214" lon="0.98517">
        <ele>50.4</ele>
        <time>2021-04-03T13:40:05Z</time>
      </trkpt>
      <trkpt lat="49.32216" lon="0.9851">
        <ele>50.4</ele>
        <time>2021-04-03T13:40:06Z</time>
      </trkpt>
      <trkpt lat="49.32222" lon="0.98488">
        <ele>50.4</ele>
        <time>2021-04-03T13:40:09Z</time>
      </trkpt>
      <trkpt lat="49.32228" lon="0.98462">
        <ele>50.4</ele>
        <time>2021-04-03T13:40:12Z</time>
      </trkpt>
      <trkpt lat="49.32239" lon="0.98416">
        <ele>49.6</ele>
        <time>2021-04-03T13:40:17Z</time>
      </trkpt>
      <trkpt lat="49.3224" lon="0.98408">
        <ele>49.4</ele>
        <time>2021-04-03T13:40:18Z</time>
      </trkpt>
      <trkpt lat="49.32253" lon="0.98351">
        <ele>49.2</ele>
        <time>2021-04-03T13:40:25Z</time>
      </trkpt>
      <trkpt lat="49.32263" lon="0.98301">
        <ele>49.2</ele>
        <time>2021-04-03T13:40:32Z</time>
      </trkpt>
      <trkpt lat="49.32267" lon="0.98288">
        <ele>49.2</ele>
        <time>2021-04-03T13:40:35Z</time>
      </trkpt>
      <trkpt lat="49.32271" lon="0.98285">
        <ele>49.2</ele>
        <time>2021-04-03T13:40:36Z</time>
      </trkpt>
      <trkpt lat="49.32277" lon="0.98284">
        <ele>49.2</ele>
        <time>2021-04-03T13:40:39Z</time>
      </trkpt>
      <trkpt lat="49.3228" lon="0.98285">
        <ele>49.4</ele>
        <time>2021-04-03T13:40:41Z</time>
      </trkpt>
      <trkpt lat="49.32292" lon="0.9828">
        <ele>49</ele>
        <time>2021-04-03T13:41:34Z</time>
      </trkpt>
      <trkpt lat="49.32293" lon="0.98276">
        <ele>49</ele>
        <time>2021-04-03T13:41:35Z</time>
      </trkpt>
      <trkpt lat="49.32298" lon="0.98254">
        <ele>48.8</ele>
        <time>2021-04-03T13:41:39Z</time>
      </trkpt>
      <trkpt lat="49.323" lon="0.98252">
        <ele>48.8</ele>
        <time>2021-04-03T13:41:40Z</time>
      </trkpt>
      <trkpt lat="49.32309" lon="0.9825">
        <ele>48.4</ele>
        <time>2021-04-03T13:41:43Z</time>
      </trkpt>
      <trkpt lat="49.32314" lon="0.98252">
        <ele>47.8</ele>
        <time>2021-04-03T13:41:44Z</time>
      </trkpt>
      <trkpt lat="49.32319" lon="0.98254">
        <ele>46.8</ele>
        <time>2021-04-03T13:41:46Z</time>
      </trkpt>
      <trkpt lat="49.32321" lon="0.98256">
        <ele>46.6</ele>
        <time>2021-04-03T13:41:47Z</time>
      </trkpt>
      <trkpt lat="49.32337" lon="0.98268">
        <ele>46.4</ele>
        <time>2021-04-03T13:41:52Z</time>
      </trkpt>
      <trkpt lat="49.32358" lon="0.98286">
        <ele>47.2</ele>
        <time>2021-04-03T13:41:58Z</time>
      </trkpt>
      <trkpt lat="49.32365" lon="0.98293">
        <ele>47.8</ele>
        <time>2021-04-03T13:42:00Z</time>
      </trkpt>
      <trkpt lat="49.32372" lon="0.98298">
        <ele>49</ele>
        <time>2021-04-03T13:42:02Z</time>
      </trkpt>
      <trkpt lat="49.32374" lon="0.983">
        <ele>49.4</ele>
        <time>2021-04-03T13:42:03Z</time>
      </trkpt>
      <trkpt lat="49.32383" lon="0.98303">
        <ele>50.2</ele>
        <time>2021-04-03T13:42:06Z</time>
      </trkpt>
      <trkpt lat="49.3239" lon="0.98305">
        <ele>50.8</ele>
        <time>2021-04-03T13:42:08Z</time>
      </trkpt>
      <trkpt lat="49.32392" lon="0.98306">
        <ele>51.2</ele>
        <time>2021-04-03T13:42:09Z</time>
      </trkpt>
      <trkpt lat="49.32406" lon="0.98309">
        <ele>52.2</ele>
        <time>2021-04-03T13:42:14Z</time>
      </trkpt>
      <trkpt lat="49.32425" lon="0.98313">
        <ele>52.4</ele>
        <time>2021-04-03T13:42:20Z</time>
      </trkpt>
      <trkpt lat="49.32445" lon="0.98312">
        <ele>51.8</ele>
        <time>2021-04-03T13:42:26Z</time>
      </trkpt>
      <trkpt lat="49.32465" lon="0.98307">
        <ele>51.6</ele>
        <time>2021-04-03T13:42:31Z</time>
      </trkpt>
      <trkpt lat="49.3249" lon="0.983">
        <ele>50.6</ele>
        <time>2021-04-03T13:42:37Z</time>
      </trkpt>
      <trkpt lat="49.32494" lon="0.98299">
        <ele>50.2</ele>
        <time>2021-04-03T13:42:38Z</time>
      </trkpt>
      <trkpt lat="49.32512" lon="0.98295">
        <ele>49</ele>
        <time>2021-04-03T13:42:43Z</time>
      </trkpt>
      <trkpt lat="49.32515" lon="0.98295">
        <ele>48.8</ele>
        <time>2021-04-03T13:42:44Z</time>
      </trkpt>
      <trkpt lat="49.32523" lon="0.98292">
        <ele>48.2</ele>
        <time>2021-04-03T13:42:49Z</time>
      </trkpt>
      <trkpt lat="49.32525" lon="0.98291">
        <ele>48</ele>
        <time>2021-04-03T13:42:50Z</time>
      </trkpt>
      <trkpt lat="49.32531" lon="0.98292">
        <ele>47.6</ele>
        <time>2021-04-03T13:42:52Z</time>
      </trkpt>
      <trkpt lat="49.32533" lon="0.98294">
        <ele>47.4</ele>
        <time>2021-04-03T13:42:53Z</time>
      </trkpt>
      <trkpt lat="49.32547" lon="0.98296">
        <ele>47.4</ele>
        <time>2021-04-03T13:42:59Z</time>
      </trkpt>
      <trkpt lat="49.32562" lon="0.98295">
        <ele>47.8</ele>
        <time>2021-04-03T13:43:04Z</time>
      </trkpt>
      <trkpt lat="49.32581" lon="0.9829">
        <ele>49</ele>
        <time>2021-04-03T13:43:09Z</time>
      </trkpt>
      <trkpt lat="49.32599" lon="0.98285">
        <ele>49.8</ele>
        <time>2021-04-03T13:43:14Z</time>
      </trkpt>
      <trkpt lat="49.32601" lon="0.98283">
        <ele>50</ele>
        <time>2021-04-03T13:43:15Z</time>
      </trkpt>
      <trkpt lat="49.32612" lon="0.98274">
        <ele>50.4</ele>
        <time>2021-04-03T13:43:18Z</time>
      </trkpt>
      <trkpt lat="49.32626" lon="0.98251">
        <ele>50.6</ele>
        <time>2021-04-03T13:43:22Z</time>
      </trkpt>
      <trkpt lat="49.32643" lon="0.9823">
        <ele>50.4</ele>
        <time>2021-04-03T13:43:27Z</time>
      </trkpt>
      <trkpt lat="49.3266" lon="0.98214">
        <ele>48.8</ele>
        <time>2021-04-03T13:43:32Z</time>
      </trkpt>
      <trkpt lat="49.32663" lon="0.98209">
        <ele>48.6</ele>
        <time>2021-04-03T13:43:33Z</time>
      </trkpt>
      <trkpt lat="49.32671" lon="0.98198">
        <ele>48.2</ele>
        <time>2021-04-03T13:43:35Z</time>
      </trkpt>
      <trkpt lat="49.32674" lon="0.98192">
        <ele>47.8</ele>
        <time>2021-04-03T13:43:36Z</time>
      </trkpt>
      <trkpt lat="49.32683" lon="0.9817">
        <ele>46.4</ele>
        <time>2021-04-03T13:43:40Z</time>
      </trkpt>
      <trkpt lat="49.32695" lon="0.98157">
        <ele>45.6</ele>
        <time>2021-04-03T13:43:43Z</time>
      </trkpt>
      <trkpt lat="49.32706" lon="0.98152">
        <ele>45.4</ele>
        <time>2021-04-03T13:43:45Z</time>
      </trkpt>
      <trkpt lat="49.3272" lon="0.98138">
        <ele>45.4</ele>
        <time>2021-04-03T13:43:49Z</time>
      </trkpt>
      <trkpt lat="49.32723" lon="0.98134">
        <ele>45.4</ele>
        <time>2021-04-03T13:43:50Z</time>
      </trkpt>
      <trkpt lat="49.32732" lon="0.98122">
        <ele>45.8</ele>
        <time>2021-04-03T13:43:53Z</time>
      </trkpt>
      <trkpt lat="49.32738" lon="0.98118">
        <ele>46.8</ele>
        <time>2021-04-03T13:43:55Z</time>
      </trkpt>
      <trkpt lat="49.32746" lon="0.98099">
        <ele>47.6</ele>
        <time>2021-04-03T13:43:59Z</time>
      </trkpt>
      <trkpt lat="49.32748" lon="0.98095">
        <ele>47.8</ele>
        <time>2021-04-03T13:44:00Z</time>
      </trkpt>
      <trkpt lat="49.32753" lon="0.9809">
        <ele>48.8</ele>
        <time>2021-04-03T13:44:02Z</time>
      </trkpt>
      <trkpt lat="49.3276" lon="0.98086">
        <ele>49.6</ele>
        <time>2021-04-03T13:44:04Z</time>
      </trkpt>
      <trkpt lat="49.32764" lon="0.98078">
        <ele>50</ele>
        <time>2021-04-03T13:44:06Z</time>
      </trkpt>
      <trkpt lat="49.32774" lon="0.98072">
        <ele>51</ele>
        <time>2021-04-03T13:44:08Z</time>
      </trkpt>
      <trkpt lat="49.32777" lon="0.98069">
        <ele>51.2</ele>
        <time>2021-04-03T13:44:09Z</time>
      </trkpt>
      <trkpt lat="49.32782" lon="0.98064">
        <ele>52.4</ele>
        <time>2021-04-03T13:44:11Z</time>
      </trkpt>
      <trkpt lat="49.32786" lon="0.98057">
        <ele>53.6</ele>
        <time>2021-04-03T13:44:13Z</time>
      </trkpt>
      <trkpt lat="49.32788" lon="0.98054">
        <ele>54</ele>
        <time>2021-04-03T13:44:14Z</time>
      </trkpt>
      <trkpt lat="49.32792" lon="0.98046">
        <ele>54.8</ele>
        <time>2021-04-03T13:44:16Z</time>
      </trkpt>
      <trkpt lat="49.32801" lon="0.98041">
        <ele>56.2</ele>
        <time>2021-04-03T13:44:18Z</time>
      </trkpt>
      <trkpt lat="49.32806" lon="0.98038">
        <ele>57.4</ele>
        <time>2021-04-03T13:44:20Z</time>
      </trkpt>
      <trkpt lat="49.32813" lon="0.98027">
        <ele>58</ele>
        <time>2021-04-03T13:44:23Z</time>
      </trkpt>
      <trkpt lat="49.32826" lon="0.98014">
        <ele>58.8</ele>
        <time>2021-04-03T13:44:27Z</time>
      </trkpt>
      <trkpt lat="49.32828" lon="0.98009">
        <ele>59.2</ele>
        <time>2021-04-03T13:44:28Z</time>
      </trkpt>
      <trkpt lat="49.32831" lon="0.97996">
        <ele>60</ele>
        <time>2021-04-03T13:44:30Z</time>
      </trkpt>
      <trkpt lat="49.32837" lon="0.97986">
        <ele>60.4</ele>
        <time>2021-04-03T13:44:32Z</time>
      </trkpt>
      <trkpt lat="49.32838" lon="0.97976">
        <ele>60.6</ele>
        <time>2021-04-03T13:44:34Z</time>
      </trkpt>
      <trkpt lat="49.32838" lon="0.97966">
        <ele>60.6</ele>
        <time>2021-04-03T13:44:36Z</time>
      </trkpt>
      <trkpt lat="49.3284" lon="0.97954">
        <ele>60.8</ele>
        <time>2021-04-03T13:44:38Z</time>
      </trkpt>
      <trkpt lat="49.32843" lon="0.97931">
        <ele>60.8</ele>
        <time>2021-04-03T13:44:42Z</time>
      </trkpt>
      <trkpt lat="49.32846" lon="0.97927">
        <ele>60.8</ele>
        <time>2021-04-03T13:44:43Z</time>
      </trkpt>
      <trkpt lat="49.32853" lon="0.9792">
        <ele>60.8</ele>
        <time>2021-04-03T13:44:45Z</time>
      </trkpt>
      <trkpt lat="49.32857" lon="0.97896">
        <ele>61</ele>
        <time>2021-04-03T13:44:49Z</time>
      </trkpt>
      <trkpt lat="49.32861" lon="0.97858">
        <ele>60.6</ele>
        <time>2021-04-03T13:44:54Z</time>
      </trkpt>
      <trkpt lat="49.32862" lon="0.97818">
        <ele>61</ele>
        <time>2021-04-03T13:44:59Z</time>
      </trkpt>
      <trkpt lat="49.3286" lon="0.97775">
        <ele>60.8</ele>
        <time>2021-04-03T13:45:03Z</time>
      </trkpt>
      <trkpt lat="49.32851" lon="0.97734">
        <ele>60.2</ele>
        <time>2021-04-03T13:45:07Z</time>
      </trkpt>
      <trkpt lat="49.32844" lon="0.97717">
        <ele>59.6</ele>
        <time>2021-04-03T13:45:10Z</time>
      </trkpt>
      <trkpt lat="49.32841" lon="0.97715">
        <ele>59.2</ele>
        <time>2021-04-03T13:45:11Z</time>
      </trkpt>
      <trkpt lat="49.32835" lon="0.97713">
        <ele>58.2</ele>
        <time>2021-04-03T13:45:13Z</time>
      </trkpt>
      <trkpt lat="49.32832" lon="0.97714">
        <ele>57.6</ele>
        <time>2021-04-03T13:45:14Z</time>
      </trkpt>
      <trkpt lat="49.3283" lon="0.97715">
        <ele>57</ele>
        <time>2021-04-03T13:45:15Z</time>
      </trkpt>
      <trkpt lat="49.32828" lon="0.97717">
        <ele>56.8</ele>
        <time>2021-04-03T13:45:16Z</time>
      </trkpt>
      <trkpt lat="49.32828" lon="0.97722">
        <ele>56.6</ele>
        <time>2021-04-03T13:45:18Z</time>
      </trkpt>
      <trkpt lat="49.32828" lon="0.97728">
        <ele>56</ele>
        <time>2021-04-03T13:45:22Z</time>
      </trkpt>
      <trkpt lat="49.32825" lon="0.97721">
        <ele>54.8</ele>
        <time>2021-04-03T13:45:24Z</time>
      </trkpt>
      <trkpt lat="49.32821" lon="0.97711">
        <ele>53.4</ele>
        <time>2021-04-03T13:45:26Z</time>
      </trkpt>
      <trkpt lat="49.32816" lon="0.97701">
        <ele>52.6</ele>
        <time>2021-04-03T13:45:28Z</time>
      </trkpt>
      <trkpt lat="49.32813" lon="0.97697">
        <ele>52.2</ele>
        <time>2021-04-03T13:45:29Z</time>
      </trkpt>
      <trkpt lat="49.32811" lon="0.97693">
        <ele>51.8</ele>
        <time>2021-04-03T13:45:30Z</time>
      </trkpt>
      <trkpt lat="49.32808" lon="0.97689">
        <ele>50.8</ele>
        <time>2021-04-03T13:45:31Z</time>
      </trkpt>
      <trkpt lat="49.32804" lon="0.97684">
        <ele>50.6</ele>
        <time>2021-04-03T13:45:32Z</time>
      </trkpt>
      <trkpt lat="49.32796" lon="0.97671">
        <ele>50</ele>
        <time>2021-04-03T13:45:34Z</time>
      </trkpt>
      <trkpt lat="49.32791" lon="0.97665">
        <ele>49.6</ele>
        <time>2021-04-03T13:45:35Z</time>
      </trkpt>
      <trkpt lat="49.32787" lon="0.97658">
        <ele>49.2</ele>
        <time>2021-04-03T13:45:36Z</time>
      </trkpt>
      <trkpt lat="49.32779" lon="0.97647">
        <ele>48.2</ele>
        <time>2021-04-03T13:45:38Z</time>
      </trkpt>
      <trkpt lat="49.32776" lon="0.97641">
        <ele>47.8</ele>
        <time>2021-04-03T13:45:39Z</time>
      </trkpt>
      <trkpt lat="49.32773" lon="0.97635">
        <ele>47</ele>
        <time>2021-04-03T13:45:40Z</time>
      </trkpt>
      <trkpt lat="49.32772" lon="0.97625">
        <ele>46</ele>
        <time>2021-04-03T13:45:42Z</time>
      </trkpt>
      <trkpt lat="49.3277" lon="0.97621">
        <ele>45.6</ele>
        <time>2021-04-03T13:45:43Z</time>
      </trkpt>
      <trkpt lat="49.32763" lon="0.976">
        <ele>45.4</ele>
        <time>2021-04-03T13:45:48Z</time>
      </trkpt>
      <trkpt lat="49.32757" lon="0.97582">
        <ele>44.8</ele>
        <time>2021-04-03T13:45:52Z</time>
      </trkpt>
      <trkpt lat="49.32757" lon="0.97564">
        <ele>44.8</ele>
        <time>2021-04-03T13:45:56Z</time>
      </trkpt>
      <trkpt lat="49.32756" lon="0.97549">
        <ele>44.8</ele>
        <time>2021-04-03T13:45:58Z</time>
      </trkpt>
      <trkpt lat="49.32757" lon="0.97531">
        <ele>44.4</ele>
        <time>2021-04-03T13:46:00Z</time>
      </trkpt>
      <trkpt lat="49.32759" lon="0.97506">
        <ele>44.2</ele>
        <time>2021-04-03T13:46:04Z</time>
      </trkpt>
      <trkpt lat="49.32758" lon="0.97502">
        <ele>43.8</ele>
        <time>2021-04-03T13:46:05Z</time>
      </trkpt>
      <trkpt lat="49.32757" lon="0.97497">
        <ele>43.4</ele>
        <time>2021-04-03T13:46:06Z</time>
      </trkpt>
      <trkpt lat="49.32757" lon="0.9749">
        <ele>42.8</ele>
        <time>2021-04-03T13:46:08Z</time>
      </trkpt>
      <trkpt lat="49.3276" lon="0.97485">
        <ele>42.4</ele>
        <time>2021-04-03T13:46:10Z</time>
      </trkpt>
      <trkpt lat="49.32762" lon="0.97484">
        <ele>42.2</ele>
        <time>2021-04-03T13:46:11Z</time>
      </trkpt>
      <trkpt lat="49.32767" lon="0.97474">
        <ele>42</ele>
        <time>2021-04-03T13:46:14Z</time>
      </trkpt>
      <trkpt lat="49.3277" lon="0.97469">
        <ele>41.8</ele>
        <time>2021-04-03T13:46:15Z</time>
      </trkpt>
      <trkpt lat="49.32771" lon="0.97461">
        <ele>41.6</ele>
        <time>2021-04-03T13:46:17Z</time>
      </trkpt>
      <trkpt lat="49.32775" lon="0.97459">
        <ele>41.2</ele>
        <time>2021-04-03T13:46:19Z</time>
      </trkpt>
      <trkpt lat="49.3278" lon="0.9746">
        <ele>41</ele>
        <time>2021-04-03T13:46:21Z</time>
      </trkpt>
      <trkpt lat="49.32783" lon="0.97459">
        <ele>40.8</ele>
        <time>2021-04-03T13:46:24Z</time>
      </trkpt>
      <trkpt lat="49.32783" lon="0.97455">
        <ele>41</ele>
        <time>2021-04-03T13:46:27Z</time>
      </trkpt>
      <trkpt lat="49.32787" lon="0.97457">
        <ele>40.8</ele>
        <time>2021-04-03T13:46:30Z</time>
      </trkpt>
      <trkpt lat="49.32789" lon="0.97458">
        <ele>40.6</ele>
        <time>2021-04-03T13:46:31Z</time>
      </trkpt>
      <trkpt lat="49.32796" lon="0.97473">
        <ele>40.8</ele>
        <time>2021-04-03T13:46:36Z</time>
      </trkpt>
      <trkpt lat="49.32803" lon="0.97491">
        <ele>41.4</ele>
        <time>2021-04-03T13:46:41Z</time>
      </trkpt>
      <trkpt lat="49.32815" lon="0.97506">
        <ele>42.6</ele>
        <time>2021-04-03T13:46:46Z</time>
      </trkpt>
      <trkpt lat="49.32821" lon="0.97525">
        <ele>43.2</ele>
        <time>2021-04-03T13:46:49Z</time>
      </trkpt>
      <trkpt lat="49.32823" lon="0.97531">
        <ele>43.2</ele>
        <time>2021-04-03T13:46:50Z</time>
      </trkpt>
      <trkpt lat="49.3283" lon="0.97554">
        <ele>43.8</ele>
        <time>2021-04-03T13:46:54Z</time>
      </trkpt>
      <trkpt lat="49.32832" lon="0.97561">
        <ele>44</ele>
        <time>2021-04-03T13:46:55Z</time>
      </trkpt>
      <trkpt lat="49.3284" lon="0.97589">
        <ele>44</ele>
        <time>2021-04-03T13:47:00Z</time>
      </trkpt>
      <trkpt lat="49.32847" lon="0.97612">
        <ele>44.4</ele>
        <time>2021-04-03T13:47:06Z</time>
      </trkpt>
      <trkpt lat="49.32851" lon="0.97629">
        <ele>45</ele>
        <time>2021-04-03T13:47:11Z</time>
      </trkpt>
      <trkpt lat="49.32855" lon="0.97637">
        <ele>45.4</ele>
        <time>2021-04-03T13:47:13Z</time>
      </trkpt>
      <trkpt lat="49.3286" lon="0.97645">
        <ele>46.2</ele>
        <time>2021-04-03T13:47:16Z</time>
      </trkpt>
      <trkpt lat="49.32861" lon="0.97647">
        <ele>46.2</ele>
        <time>2021-04-03T13:47:17Z</time>
      </trkpt>
      <trkpt lat="49.32862" lon="0.97649">
        <ele>46.4</ele>
        <time>2021-04-03T13:47:18Z</time>
      </trkpt>
      <trkpt lat="49.32885" lon="0.97677">
        <ele>47</ele>
        <time>2021-04-03T13:47:46Z</time>
      </trkpt>
      <trkpt lat="49.32889" lon="0.97685">
        <ele>47</ele>
        <time>2021-04-03T13:47:49Z</time>
      </trkpt>
      <trkpt lat="49.32894" lon="0.97696">
        <ele>47.4</ele>
        <time>2021-04-03T13:47:52Z</time>
      </trkpt>
      <trkpt lat="49.32901" lon="0.9771">
        <ele>47.6</ele>
        <time>2021-04-03T13:47:57Z</time>
      </trkpt>
      <trkpt lat="49.32905" lon="0.97719">
        <ele>48.6</ele>
        <time>2021-04-03T13:48:00Z</time>
      </trkpt>
      <trkpt lat="49.32908" lon="0.97726">
        <ele>49.8</ele>
        <time>2021-04-03T13:48:03Z</time>
      </trkpt>
      <trkpt lat="49.3291" lon="0.97731">
        <ele>51</ele>
        <time>2021-04-03T13:48:08Z</time>
      </trkpt>
      <trkpt lat="49.3291" lon="0.97732">
        <ele>51.4</ele>
        <time>2021-04-03T13:48:09Z</time>
      </trkpt>
      <trkpt lat="49.32897" lon="0.97758">
        <ele>61.2</ele>
        <time>2021-04-03T13:49:18Z</time>
      </trkpt>
      <trkpt lat="49.32894" lon="0.97767">
        <ele>61.2</ele>
        <time>2021-04-03T13:49:22Z</time>
      </trkpt>
      <trkpt lat="49.32896" lon="0.97772">
        <ele>61.6</ele>
        <time>2021-04-03T13:49:24Z</time>
      </trkpt>
      <trkpt lat="49.32901" lon="0.9778">
        <ele>61.8</ele>
        <time>2021-04-03T13:49:27Z</time>
      </trkpt>
      <trkpt lat="49.32908" lon="0.9779">
        <ele>62.4</ele>
        <time>2021-04-03T13:49:31Z</time>
      </trkpt>
      <trkpt lat="49.32908" lon="0.97793">
        <ele>62.6</ele>
        <time>2021-04-03T13:49:32Z</time>
      </trkpt>
      <trkpt lat="49.32908" lon="0.97801">
        <ele>63.6</ele>
        <time>2021-04-03T13:49:34Z</time>
      </trkpt>
      <trkpt lat="49.32907" lon="0.97815">
        <ele>64.8</ele>
        <time>2021-04-03T13:49:37Z</time>
      </trkpt>
      <trkpt lat="49.32907" lon="0.97821">
        <ele>65.6</ele>
        <time>2021-04-03T13:49:39Z</time>
      </trkpt>
      <trkpt lat="49.32908" lon="0.97825">
        <ele>66.2</ele>
        <time>2021-04-03T13:49:40Z</time>
      </trkpt>
      <trkpt lat="49.32909" lon="0.97829">
        <ele>66.8</ele>
        <time>2021-04-03T13:49:41Z</time>
      </trkpt>
      <trkpt lat="49.32911" lon="0.97837">
        <ele>67.2</ele>
        <time>2021-04-03T13:49:43Z</time>
      </trkpt>
      <trkpt lat="49.32913" lon="0.97846">
        <ele>68.6</ele>
        <time>2021-04-03T13:49:46Z</time>
      </trkpt>
      <trkpt lat="49.32914" lon="0.97849">
        <ele>68.8</ele>
        <time>2021-04-03T13:49:47Z</time>
      </trkpt>
      <trkpt lat="49.32916" lon="0.97867">
        <ele>69.4</ele>
        <time>2021-04-03T13:49:53Z</time>
      </trkpt>
      <trkpt lat="49.32915" lon="0.97869">
        <ele>69.6</ele>
        <time>2021-04-03T13:49:55Z</time>
      </trkpt>
      <trkpt lat="49.32912" lon="0.97877">
        <ele>70</ele>
        <time>2021-04-03T13:49:58Z</time>
      </trkpt>
      <trkpt lat="49.32912" lon="0.97882">
        <ele>70.2</ele>
        <time>2021-04-03T13:49:59Z</time>
      </trkpt>
      <trkpt lat="49.32912" lon="0.97893">
        <ele>70.8</ele>
        <time>2021-04-03T13:50:02Z</time>
      </trkpt>
      <trkpt lat="49.32912" lon="0.97897">
        <ele>71</ele>
        <time>2021-04-03T13:50:03Z</time>
      </trkpt>
      <trkpt lat="49.32912" lon="0.97905">
        <ele>71.6</ele>
        <time>2021-04-03T13:50:05Z</time>
      </trkpt>
      <trkpt lat="49.3291" lon="0.97909">
        <ele>71.8</ele>
        <time>2021-04-03T13:50:07Z</time>
      </trkpt>
      <trkpt lat="49.32908" lon="0.97911">
        <ele>71.8</ele>
        <time>2021-04-03T13:50:09Z</time>
      </trkpt>
      <trkpt lat="49.32905" lon="0.97919">
        <ele>71.6</ele>
        <time>2021-04-03T13:50:13Z</time>
      </trkpt>
      <trkpt lat="49.32904" lon="0.97932">
        <ele>69.8</ele>
        <time>2021-04-03T13:50:18Z</time>
      </trkpt>
      <trkpt lat="49.32902" lon="0.9794">
        <ele>68.4</ele>
        <time>2021-04-03T13:50:21Z</time>
      </trkpt>
      <trkpt lat="49.32904" lon="0.97942">
        <ele>67.6</ele>
        <time>2021-04-03T13:50:23Z</time>
      </trkpt>
      <trkpt lat="49.3291" lon="0.97947">
        <ele>67.2</ele>
        <time>2021-04-03T13:50:27Z</time>
      </trkpt>
      <trkpt lat="49.32915" lon="0.97954">
        <ele>67</ele>
        <time>2021-04-03T13:50:30Z</time>
      </trkpt>
      <trkpt lat="49.32917" lon="0.97955">
        <ele>66.8</ele>
        <time>2021-04-03T13:50:31Z</time>
      </trkpt>
      <trkpt lat="49.32921" lon="0.97949">
        <ele>66.8</ele>
        <time>2021-04-03T13:50:33Z</time>
      </trkpt>
      <trkpt lat="49.32923" lon="0.97949">
        <ele>66.6</ele>
        <time>2021-04-03T13:50:34Z</time>
      </trkpt>
      <trkpt lat="49.32924" lon="0.97953">
        <ele>66.6</ele>
        <time>2021-04-03T13:50:36Z</time>
      </trkpt>
      <trkpt lat="49.32923" lon="0.97968">
        <ele>65.8</ele>
        <time>2021-04-03T13:50:39Z</time>
      </trkpt>
      <trkpt lat="49.32924" lon="0.97973">
        <ele>64.4</ele>
        <time>2021-04-03T13:50:40Z</time>
      </trkpt>
      <trkpt lat="49.32926" lon="0.97984">
        <ele>62.8</ele>
        <time>2021-04-03T13:50:42Z</time>
      </trkpt>
      <trkpt lat="49.3293" lon="0.97994">
        <ele>61.8</ele>
        <time>2021-04-03T13:50:44Z</time>
      </trkpt>
      <trkpt lat="49.32934" lon="0.98007">
        <ele>60.6</ele>
        <time>2021-04-03T13:50:48Z</time>
      </trkpt>
      <trkpt lat="49.32936" lon="0.98029">
        <ele>60.2</ele>
        <time>2021-04-03T13:50:52Z</time>
      </trkpt>
      <trkpt lat="49.32936" lon="0.98036">
        <ele>60</ele>
        <time>2021-04-03T13:50:54Z</time>
      </trkpt>
      <trkpt lat="49.32938" lon="0.98044">
        <ele>60</ele>
        <time>2021-04-03T13:50:56Z</time>
      </trkpt>
      <trkpt lat="49.32941" lon="0.98063">
        <ele>60.2</ele>
        <time>2021-04-03T13:51:00Z</time>
      </trkpt>
      <trkpt lat="49.32942" lon="0.98069">
        <ele>60.2</ele>
        <time>2021-04-03T13:51:01Z</time>
      </trkpt>
      <trkpt lat="49.3294" lon="0.98097">
        <ele>61.2</ele>
        <time>2021-04-03T13:51:06Z</time>
      </trkpt>
      <trkpt lat="49.32939" lon="0.98108">
        <ele>61.8</ele>
        <time>2021-04-03T13:51:08Z</time>
      </trkpt>
      <trkpt lat="49.32941" lon="0.98112">
        <ele>62</ele>
        <time>2021-04-03T13:51:09Z</time>
      </trkpt>
      <trkpt lat="49.32942" lon="0.98116">
        <ele>62.4</ele>
        <time>2021-04-03T13:51:10Z</time>
      </trkpt>
      <trkpt lat="49.32942" lon="0.98127">
        <ele>62.8</ele>
        <time>2021-04-03T13:51:12Z</time>
      </trkpt>
      <trkpt lat="49.32941" lon="0.98134">
        <ele>63.6</ele>
        <time>2021-04-03T13:51:14Z</time>
      </trkpt>
      <trkpt lat="49.3294" lon="0.98137">
        <ele>64</ele>
        <time>2021-04-03T13:51:15Z</time>
      </trkpt>
      <trkpt lat="49.32939" lon="0.98146">
        <ele>65.2</ele>
        <time>2021-04-03T13:51:18Z</time>
      </trkpt>
      <trkpt lat="49.3294" lon="0.98149">
        <ele>65.4</ele>
        <time>2021-04-03T13:51:19Z</time>
      </trkpt>
      <trkpt lat="49.32941" lon="0.98153">
        <ele>65.8</ele>
        <time>2021-04-03T13:51:20Z</time>
      </trkpt>
      <trkpt lat="49.32944" lon="0.98162">
        <ele>66.4</ele>
        <time>2021-04-03T13:51:22Z</time>
      </trkpt>
      <trkpt lat="49.32945" lon="0.98167">
        <ele>66.6</ele>
        <time>2021-04-03T13:51:23Z</time>
      </trkpt>
      <trkpt lat="49.3295" lon="0.98175">
        <ele>67.2</ele>
        <time>2021-04-03T13:51:25Z</time>
      </trkpt>
      <trkpt lat="49.32956" lon="0.98182">
        <ele>68</ele>
        <time>2021-04-03T13:51:28Z</time>
      </trkpt>
      <trkpt lat="49.32958" lon="0.98183">
        <ele>68.2</ele>
        <time>2021-04-03T13:51:29Z</time>
      </trkpt>
      <trkpt lat="49.32959" lon="0.9818">
        <ele>68.8</ele>
        <time>2021-04-03T13:51:32Z</time>
      </trkpt>
      <trkpt lat="49.32959" lon="0.98179">
        <ele>69.4</ele>
        <time>2021-04-03T13:51:34Z</time>
      </trkpt>
      <trkpt lat="49.32959" lon="0.98178">
        <ele>70.2</ele>
        <time>2021-04-03T13:51:36Z</time>
      </trkpt>
      <trkpt lat="49.32959" lon="0.98167">
        <ele>71</ele>
        <time>2021-04-03T13:54:43Z</time>
      </trkpt>
      <trkpt lat="49.32959" lon="0.98165">
        <ele>71</ele>
        <time>2021-04-03T13:54:44Z</time>
      </trkpt>
      <trkpt lat="49.32961" lon="0.9815">
        <ele>70.6</ele>
        <time>2021-04-03T13:54:50Z</time>
      </trkpt>
      <trkpt lat="49.32963" lon="0.98147">
        <ele>70.4</ele>
        <time>2021-04-03T13:54:51Z</time>
      </trkpt>
      <trkpt lat="49.32966" lon="0.98136">
        <ele>70.2</ele>
        <time>2021-04-03T13:54:54Z</time>
      </trkpt>
      <trkpt lat="49.32967" lon="0.98132">
        <ele>70.2</ele>
        <time>2021-04-03T13:54:55Z</time>
      </trkpt>
      <trkpt lat="49.32973" lon="0.98117">
        <ele>70.2</ele>
        <time>2021-04-03T13:55:00Z</time>
      </trkpt>
      <trkpt lat="49.3298" lon="0.98103">
        <ele>70.6</ele>
        <time>2021-04-03T13:55:05Z</time>
      </trkpt>
      <trkpt lat="49.3299" lon="0.98089">
        <ele>70.6</ele>
        <time>2021-04-03T13:55:10Z</time>
      </trkpt>
      <trkpt lat="49.33001" lon="0.98064">
        <ele>70.4</ele>
        <time>2021-04-03T13:55:15Z</time>
      </trkpt>
      <trkpt lat="49.3301" lon="0.98037">
        <ele>69.4</ele>
        <time>2021-04-03T13:55:20Z</time>
      </trkpt>
      <trkpt lat="49.33017" lon="0.98004">
        <ele>68.4</ele>
        <time>2021-04-03T13:55:24Z</time>
      </trkpt>
      <trkpt lat="49.33016" lon="0.97993">
        <ele>67.8</ele>
        <time>2021-04-03T13:55:25Z</time>
      </trkpt>
      <trkpt lat="49.33015" lon="0.97983">
        <ele>67.6</ele>
        <time>2021-04-03T13:55:26Z</time>
      </trkpt>
      <trkpt lat="49.33016" lon="0.97975">
        <ele>67.2</ele>
        <time>2021-04-03T13:55:27Z</time>
      </trkpt>
      <trkpt lat="49.33018" lon="0.97969">
        <ele>66.4</ele>
        <time>2021-04-03T13:55:28Z</time>
      </trkpt>
      <trkpt lat="49.3302" lon="0.97964">
        <ele>65.6</ele>
        <time>2021-04-03T13:55:29Z</time>
      </trkpt>
      <trkpt lat="49.33023" lon="0.9796">
        <ele>64.8</ele>
        <time>2021-04-03T13:55:30Z</time>
      </trkpt>
      <trkpt lat="49.33026" lon="0.97955">
        <ele>64.2</ele>
        <time>2021-04-03T13:55:31Z</time>
      </trkpt>
      <trkpt lat="49.33029" lon="0.97952">
        <ele>63.4</ele>
        <time>2021-04-03T13:55:32Z</time>
      </trkpt>
      <trkpt lat="49.33033" lon="0.97943">
        <ele>63</ele>
        <time>2021-04-03T13:55:34Z</time>
      </trkpt>
      <trkpt lat="49.33037" lon="0.97932">
        <ele>62.8</ele>
        <time>2021-04-03T13:55:36Z</time>
      </trkpt>
      <trkpt lat="49.33041" lon="0.97894">
        <ele>62</ele>
        <time>2021-04-03T13:55:40Z</time>
      </trkpt>
      <trkpt lat="49.33043" lon="0.97888">
        <ele>61.6</ele>
        <time>2021-04-03T13:55:41Z</time>
      </trkpt>
      <trkpt lat="49.33046" lon="0.97885">
        <ele>61.6</ele>
        <time>2021-04-03T13:55:42Z</time>
      </trkpt>
      <trkpt lat="49.33051" lon="0.97879">
        <ele>61.4</ele>
        <time>2021-04-03T13:55:44Z</time>
      </trkpt>
      <trkpt lat="49.33064" lon="0.97869">
        <ele>62.4</ele>
        <time>2021-04-03T13:55:49Z</time>
      </trkpt>
      <trkpt lat="49.3308" lon="0.97858">
        <ele>62.6</ele>
        <time>2021-04-03T13:55:54Z</time>
      </trkpt>
      <trkpt lat="49.33092" lon="0.97862">
        <ele>63</ele>
        <time>2021-04-03T13:55:57Z</time>
      </trkpt>
      <trkpt lat="49.33102" lon="0.97863">
        <ele>63.2</ele>
        <time>2021-04-03T13:55:59Z</time>
      </trkpt>
      <trkpt lat="49.33115" lon="0.97853">
        <ele>63.4</ele>
        <time>2021-04-03T13:56:03Z</time>
      </trkpt>
      <trkpt lat="49.33133" lon="0.97852">
        <ele>63</ele>
        <time>2021-04-03T13:56:07Z</time>
      </trkpt>
      <trkpt lat="49.3315" lon="0.97856">
        <ele>61.4</ele>
        <time>2021-04-03T13:56:11Z</time>
      </trkpt>
      <trkpt lat="49.33153" lon="0.97856">
        <ele>61</ele>
        <time>2021-04-03T13:56:12Z</time>
      </trkpt>
      <trkpt lat="49.33163" lon="0.9786">
        <ele>60.2</ele>
        <time>2021-04-03T13:56:15Z</time>
      </trkpt>
      <trkpt lat="49.33165" lon="0.97862">
        <ele>60</ele>
        <time>2021-04-03T13:56:16Z</time>
      </trkpt>
      <trkpt lat="49.33171" lon="0.97865">
        <ele>59.8</ele>
        <time>2021-04-03T13:56:17Z</time>
      </trkpt>
      <trkpt lat="49.33185" lon="0.9788">
        <ele>59.2</ele>
        <time>2021-04-03T13:56:22Z</time>
      </trkpt>
      <trkpt lat="49.33201" lon="0.97897">
        <ele>58.2</ele>
        <time>2021-04-03T13:56:26Z</time>
      </trkpt>
      <trkpt lat="49.3321" lon="0.97907">
        <ele>57.8</ele>
        <time>2021-04-03T13:56:28Z</time>
      </trkpt>
      <trkpt lat="49.33233" lon="0.97936">
        <ele>57.6</ele>
        <time>2021-04-03T13:56:33Z</time>
      </trkpt>
      <trkpt lat="49.33241" lon="0.97948">
        <ele>57.6</ele>
        <time>2021-04-03T13:56:35Z</time>
      </trkpt>
      <trkpt lat="49.33247" lon="0.9796">
        <ele>57.6</ele>
        <time>2021-04-03T13:56:37Z</time>
      </trkpt>
      <trkpt lat="49.33267" lon="0.97992">
        <ele>58.4</ele>
        <time>2021-04-03T13:56:42Z</time>
      </trkpt>
      <trkpt lat="49.33275" lon="0.98004">
        <ele>59.2</ele>
        <time>2021-04-03T13:56:44Z</time>
      </trkpt>
      <trkpt lat="49.33278" lon="0.9801">
        <ele>59.8</ele>
        <time>2021-04-03T13:56:45Z</time>
      </trkpt>
      <trkpt lat="49.33285" lon="0.98024">
        <ele>60.2</ele>
        <time>2021-04-03T13:56:47Z</time>
      </trkpt>
      <trkpt lat="49.33287" lon="0.9803">
        <ele>60.8</ele>
        <time>2021-04-03T13:56:48Z</time>
      </trkpt>
      <trkpt lat="49.33295" lon="0.98045">
        <ele>61.2</ele>
        <time>2021-04-03T13:56:51Z</time>
      </trkpt>
      <trkpt lat="49.33298" lon="0.98049">
        <ele>61.2</ele>
        <time>2021-04-03T13:56:52Z</time>
      </trkpt>
      <trkpt lat="49.33307" lon="0.9806">
        <ele>61.4</ele>
        <time>2021-04-03T13:56:55Z</time>
      </trkpt>
      <trkpt lat="49.33309" lon="0.98063">
        <ele>61.8</ele>
        <time>2021-04-03T13:56:56Z</time>
      </trkpt>
      <trkpt lat="49.33317" lon="0.98073">
        <ele>63</ele>
        <time>2021-04-03T13:56:59Z</time>
      </trkpt>
      <trkpt lat="49.33326" lon="0.98099">
        <ele>64</ele>
        <time>2021-04-03T13:57:04Z</time>
      </trkpt>
      <trkpt lat="49.33327" lon="0.98103">
        <ele>64.4</ele>
        <time>2021-04-03T13:57:05Z</time>
      </trkpt>
      <trkpt lat="49.33331" lon="0.98128">
        <ele>65.2</ele>
        <time>2021-04-03T13:57:10Z</time>
      </trkpt>
      <trkpt lat="49.33334" lon="0.98143">
        <ele>66.2</ele>
        <time>2021-04-03T13:57:13Z</time>
      </trkpt>
      <trkpt lat="49.33337" lon="0.98151">
        <ele>67</ele>
        <time>2021-04-03T13:57:15Z</time>
      </trkpt>
      <trkpt lat="49.33337" lon="0.98155">
        <ele>67.4</ele>
        <time>2021-04-03T13:57:16Z</time>
      </trkpt>
      <trkpt lat="49.33343" lon="0.98175">
        <ele>68.2</ele>
        <time>2021-04-03T13:57:21Z</time>
      </trkpt>
      <trkpt lat="49.33347" lon="0.98187">
        <ele>68.8</ele>
        <time>2021-04-03T13:57:24Z</time>
      </trkpt>
      <trkpt lat="49.3335" lon="0.98188">
        <ele>69.2</ele>
        <time>2021-04-03T13:57:26Z</time>
      </trkpt>
      <trkpt lat="49.33354" lon="0.98181">
        <ele>70</ele>
        <time>2021-04-03T13:57:29Z</time>
      </trkpt>
      <trkpt lat="49.33356" lon="0.98174">
        <ele>70.4</ele>
        <time>2021-04-03T13:57:31Z</time>
      </trkpt>
      <trkpt lat="49.33357" lon="0.98166">
        <ele>71.4</ele>
        <time>2021-04-03T13:57:33Z</time>
      </trkpt>
      <trkpt lat="49.33357" lon="0.98162">
        <ele>71.8</ele>
        <time>2021-04-03T13:57:34Z</time>
      </trkpt>
      <trkpt lat="49.33357" lon="0.98156">
        <ele>72</ele>
        <time>2021-04-03T13:57:35Z</time>
      </trkpt>
      <trkpt lat="49.33356" lon="0.9813">
        <ele>72.2</ele>
        <time>2021-04-03T13:57:41Z</time>
      </trkpt>
      <trkpt lat="49.3336" lon="0.9811">
        <ele>72.4</ele>
        <time>2021-04-03T13:57:46Z</time>
      </trkpt>
      <trkpt lat="49.3336" lon="0.98099">
        <ele>72.6</ele>
        <time>2021-04-03T13:57:48Z</time>
      </trkpt>
      <trkpt lat="49.33358" lon="0.98089">
        <ele>72.6</ele>
        <time>2021-04-03T13:57:49Z</time>
      </trkpt>
      <trkpt lat="49.33357" lon="0.98082">
        <ele>72.4</ele>
        <time>2021-04-03T13:57:50Z</time>
      </trkpt>
      <trkpt lat="49.33353" lon="0.98059">
        <ele>72</ele>
        <time>2021-04-03T13:57:54Z</time>
      </trkpt>
      <trkpt lat="49.3335" lon="0.98034">
        <ele>71.8</ele>
        <time>2021-04-03T13:57:59Z</time>
      </trkpt>
      <trkpt lat="49.33351" lon="0.98025">
        <ele>71.6</ele>
        <time>2021-04-03T13:58:01Z</time>
      </trkpt>
      <trkpt lat="49.33353" lon="0.98013">
        <ele>70.6</ele>
        <time>2021-04-03T13:58:03Z</time>
      </trkpt>
      <trkpt lat="49.33351" lon="0.98001">
        <ele>69</ele>
        <time>2021-04-03T13:58:05Z</time>
      </trkpt>
      <trkpt lat="49.33351" lon="0.9799">
        <ele>67.4</ele>
        <time>2021-04-03T13:58:07Z</time>
      </trkpt>
      <trkpt lat="49.33353" lon="0.97985">
        <ele>66.8</ele>
        <time>2021-04-03T13:58:08Z</time>
      </trkpt>
      <trkpt lat="49.33356" lon="0.97974">
        <ele>66.2</ele>
        <time>2021-04-03T13:58:10Z</time>
      </trkpt>
      <trkpt lat="49.33361" lon="0.97954">
        <ele>65.4</ele>
        <time>2021-04-03T13:58:13Z</time>
      </trkpt>
      <trkpt lat="49.33375" lon="0.97939">
        <ele>65.4</ele>
        <time>2021-04-03T13:58:17Z</time>
      </trkpt>
      <trkpt lat="49.33378" lon="0.97934">
        <ele>65.4</ele>
        <time>2021-04-03T13:58:18Z</time>
      </trkpt>
      <trkpt lat="49.33388" lon="0.97912">
        <ele>66</ele>
        <time>2021-04-03T13:58:22Z</time>
      </trkpt>
      <trkpt lat="49.33405" lon="0.97884">
        <ele>66.6</ele>
        <time>2021-04-03T13:58:27Z</time>
      </trkpt>
      <trkpt lat="49.33411" lon="0.97854">
        <ele>66.6</ele>
        <time>2021-04-03T13:58:31Z</time>
      </trkpt>
      <trkpt lat="49.33413" lon="0.97819">
        <ele>67</ele>
        <time>2021-04-03T13:58:36Z</time>
      </trkpt>
      <trkpt lat="49.33415" lon="0.97806">
        <ele>67.2</ele>
        <time>2021-04-03T13:58:38Z</time>
      </trkpt>
      <trkpt lat="49.33415" lon="0.97787">
        <ele>67.4</ele>
        <time>2021-04-03T13:58:41Z</time>
      </trkpt>
      <trkpt lat="49.33416" lon="0.97781">
        <ele>67.4</ele>
        <time>2021-04-03T13:58:42Z</time>
      </trkpt>
      <trkpt lat="49.33418" lon="0.97761">
        <ele>67.8</ele>
        <time>2021-04-03T13:58:45Z</time>
      </trkpt>
      <trkpt lat="49.33418" lon="0.97754">
        <ele>67.8</ele>
        <time>2021-04-03T13:58:46Z</time>
      </trkpt>
      <trkpt lat="49.33415" lon="0.97737">
        <ele>68</ele>
        <time>2021-04-03T13:58:48Z</time>
      </trkpt>
      <trkpt lat="49.33413" lon="0.97728">
        <ele>68</ele>
        <time>2021-04-03T13:58:49Z</time>
      </trkpt>
      <trkpt lat="49.33413" lon="0.97702">
        <ele>68</ele>
        <time>2021-04-03T13:58:52Z</time>
      </trkpt>
      <trkpt lat="49.33406" lon="0.97681">
        <ele>68</ele>
        <time>2021-04-03T13:58:55Z</time>
      </trkpt>
      <trkpt lat="49.334" lon="0.97658">
        <ele>67.4</ele>
        <time>2021-04-03T13:58:58Z</time>
      </trkpt>
      <trkpt lat="49.33401" lon="0.97644">
        <ele>67</ele>
        <time>2021-04-03T13:59:00Z</time>
      </trkpt>
      <trkpt lat="49.33403" lon="0.97633">
        <ele>66.4</ele>
        <time>2021-04-03T13:59:02Z</time>
      </trkpt>
      <trkpt lat="49.33406" lon="0.97622">
        <ele>65.2</ele>
        <time>2021-04-03T13:59:04Z</time>
      </trkpt>
      <trkpt lat="49.33411" lon="0.97614">
        <ele>64</ele>
        <time>2021-04-03T13:59:06Z</time>
      </trkpt>
      <trkpt lat="49.33421" lon="0.97604">
        <ele>63.6</ele>
        <time>2021-04-03T13:59:09Z</time>
      </trkpt>
      <trkpt lat="49.33437" lon="0.97586">
        <ele>63.6</ele>
        <time>2021-04-03T13:59:14Z</time>
      </trkpt>
      <trkpt lat="49.33452" lon="0.97566">
        <ele>65.2</ele>
        <time>2021-04-03T13:59:18Z</time>
      </trkpt>
      <trkpt lat="49.3346" lon="0.97559">
        <ele>66</ele>
        <time>2021-04-03T13:59:20Z</time>
      </trkpt>
      <trkpt lat="49.33464" lon="0.97554">
        <ele>66.4</ele>
        <time>2021-04-03T13:59:21Z</time>
      </trkpt>
      <trkpt lat="49.33476" lon="0.97548">
        <ele>67.2</ele>
        <time>2021-04-03T13:59:24Z</time>
      </trkpt>
      <trkpt lat="49.3348" lon="0.97548">
        <ele>67.4</ele>
        <time>2021-04-03T13:59:25Z</time>
      </trkpt>
      <trkpt lat="49.33497" lon="0.97551">
        <ele>68.6</ele>
        <time>2021-04-03T13:59:29Z</time>
      </trkpt>
      <trkpt lat="49.33511" lon="0.97562">
        <ele>69.6</ele>
        <time>2021-04-03T13:59:33Z</time>
      </trkpt>
      <trkpt lat="49.3352" lon="0.97567">
        <ele>71.2</ele>
        <time>2021-04-03T13:59:36Z</time>
      </trkpt>
      <trkpt lat="49.33522" lon="0.97566">
        <ele>71.8</ele>
        <time>2021-04-03T13:59:37Z</time>
      </trkpt>
      <trkpt lat="49.33525" lon="0.97566">
        <ele>72.6</ele>
        <time>2021-04-03T13:59:38Z</time>
      </trkpt>
      <trkpt lat="49.33531" lon="0.97564">
        <ele>73.8</ele>
        <time>2021-04-03T13:59:40Z</time>
      </trkpt>
      <trkpt lat="49.33536" lon="0.97565">
        <ele>75</ele>
        <time>2021-04-03T13:59:42Z</time>
      </trkpt>
      <trkpt lat="49.3354" lon="0.97566">
        <ele>75.4</ele>
        <time>2021-04-03T13:59:43Z</time>
      </trkpt>
      <trkpt lat="49.33551" lon="0.97564">
        <ele>76</ele>
        <time>2021-04-03T13:59:45Z</time>
      </trkpt>
      <trkpt lat="49.33556" lon="0.97564">
        <ele>76.2</ele>
        <time>2021-04-03T13:59:46Z</time>
      </trkpt>
      <trkpt lat="49.33566" lon="0.97567">
        <ele>76.4</ele>
        <time>2021-04-03T13:59:49Z</time>
      </trkpt>
      <trkpt lat="49.3358" lon="0.97572">
        <ele>76.6</ele>
        <time>2021-04-03T13:59:53Z</time>
      </trkpt>
      <trkpt lat="49.33584" lon="0.97574">
        <ele>76.8</ele>
        <time>2021-04-03T13:59:54Z</time>
      </trkpt>
      <trkpt lat="49.33599" lon="0.97579">
        <ele>77</ele>
        <time>2021-04-03T13:59:58Z</time>
      </trkpt>
      <trkpt lat="49.33604" lon="0.9758">
        <ele>77.2</ele>
        <time>2021-04-03T14:00:00Z</time>
      </trkpt>
      <trkpt lat="49.3361" lon="0.97578">
        <ele>77.8</ele>
        <time>2021-04-03T14:00:03Z</time>
      </trkpt>
      <trkpt lat="49.33612" lon="0.97576">
        <ele>77.8</ele>
        <time>2021-04-03T14:00:04Z</time>
      </trkpt>
      <trkpt lat="49.33615" lon="0.97572">
        <ele>78.2</ele>
        <time>2021-04-03T14:00:06Z</time>
      </trkpt>
      <trkpt lat="49.33616" lon="0.97569">
        <ele>78.4</ele>
        <time>2021-04-03T14:00:07Z</time>
      </trkpt>
      <trkpt lat="49.33615" lon="0.97561">
        <ele>78.6</ele>
        <time>2021-04-03T14:00:10Z</time>
      </trkpt>
      <trkpt lat="49.33613" lon="0.97558">
        <ele>78.6</ele>
        <time>2021-04-03T14:00:11Z</time>
      </trkpt>
      <trkpt lat="49.33606" lon="0.97548">
        <ele>78.6</ele>
        <time>2021-04-03T14:00:14Z</time>
      </trkpt>
      <trkpt lat="49.33606" lon="0.97542">
        <ele>78.6</ele>
        <time>2021-04-03T14:00:16Z</time>
      </trkpt>
      <trkpt lat="49.33607" lon="0.9754">
        <ele>78.4</ele>
        <time>2021-04-03T14:00:17Z</time>
      </trkpt>
      <trkpt lat="49.33613" lon="0.97527">
        <ele>77.4</ele>
        <time>2021-04-03T14:00:21Z</time>
      </trkpt>
      <trkpt lat="49.33612" lon="0.97519">
        <ele>77.4</ele>
        <time>2021-04-03T14:00:23Z</time>
      </trkpt>
      <trkpt lat="49.33613" lon="0.97517">
        <ele>77.2</ele>
        <time>2021-04-03T14:00:24Z</time>
      </trkpt>
      <trkpt lat="49.33611" lon="0.97512">
        <ele>77.2</ele>
        <time>2021-04-03T14:00:25Z</time>
      </trkpt>
      <trkpt lat="49.3361" lon="0.97506">
        <ele>77.2</ele>
        <time>2021-04-03T14:00:26Z</time>
      </trkpt>
      <trkpt lat="49.33607" lon="0.97494">
        <ele>77.2</ele>
        <time>2021-04-03T14:00:28Z</time>
      </trkpt>
      <trkpt lat="49.336" lon="0.97487">
        <ele>77.6</ele>
        <time>2021-04-03T14:00:30Z</time>
      </trkpt>
      <trkpt lat="49.33576" lon="0.9747">
        <ele>77.6</ele>
        <time>2021-04-03T14:00:34Z</time>
      </trkpt>
      <trkpt lat="49.3357" lon="0.97465">
        <ele>77.6</ele>
        <time>2021-04-03T14:00:35Z</time>
      </trkpt>
      <trkpt lat="49.33552" lon="0.97452">
        <ele>77</ele>
        <time>2021-04-03T14:00:38Z</time>
      </trkpt>
      <trkpt lat="49.33547" lon="0.97448">
        <ele>76.2</ele>
        <time>2021-04-03T14:00:39Z</time>
      </trkpt>
      <trkpt lat="49.33542" lon="0.97444">
        <ele>75.2</ele>
        <time>2021-04-03T14:00:40Z</time>
      </trkpt>
      <trkpt lat="49.33538" lon="0.9744">
        <ele>74</ele>
        <time>2021-04-03T14:00:41Z</time>
      </trkpt>
      <trkpt lat="49.33534" lon="0.97436">
        <ele>73.2</ele>
        <time>2021-04-03T14:00:42Z</time>
      </trkpt>
      <trkpt lat="49.33531" lon="0.97432">
        <ele>72.4</ele>
        <time>2021-04-03T14:00:43Z</time>
      </trkpt>
      <trkpt lat="49.33524" lon="0.97426">
        <ele>70.8</ele>
        <time>2021-04-03T14:00:45Z</time>
      </trkpt>
      <trkpt lat="49.33519" lon="0.9742">
        <ele>69.8</ele>
        <time>2021-04-03T14:00:47Z</time>
      </trkpt>
      <trkpt lat="49.33509" lon="0.97407">
        <ele>69.4</ele>
        <time>2021-04-03T14:00:51Z</time>
      </trkpt>
      <trkpt lat="49.33508" lon="0.97405">
        <ele>69.4</ele>
        <time>2021-04-03T14:00:53Z</time>
      </trkpt>
      <trkpt lat="49.33495" lon="0.97382">
        <ele>72</ele>
        <time>2021-04-03T14:01:10Z</time>
      </trkpt>
      <trkpt lat="49.33492" lon="0.97381">
        <ele>72</ele>
        <time>2021-04-03T14:01:11Z</time>
      </trkpt>
      <trkpt lat="49.33487" lon="0.97381">
        <ele>72</ele>
        <time>2021-04-03T14:01:14Z</time>
      </trkpt>
      <trkpt lat="49.3348" lon="0.97373">
        <ele>71.4</ele>
        <time>2021-04-03T14:01:17Z</time>
      </trkpt>
      <trkpt lat="49.33477" lon="0.97369">
        <ele>71</ele>
        <time>2021-04-03T14:01:18Z</time>
      </trkpt>
      <trkpt lat="49.33473" lon="0.97364">
        <ele>70.4</ele>
        <time>2021-04-03T14:01:19Z</time>
      </trkpt>
      <trkpt lat="49.33469" lon="0.9736">
        <ele>69.8</ele>
        <time>2021-04-03T14:01:20Z</time>
      </trkpt>
      <trkpt lat="49.33463" lon="0.97353">
        <ele>69.2</ele>
        <time>2021-04-03T14:01:22Z</time>
      </trkpt>
      <trkpt lat="49.33459" lon="0.97335">
        <ele>68.2</ele>
        <time>2021-04-03T14:01:25Z</time>
      </trkpt>
      <trkpt lat="49.33459" lon="0.97331">
        <ele>67.6</ele>
        <time>2021-04-03T14:01:26Z</time>
      </trkpt>
      <trkpt lat="49.33458" lon="0.97326">
        <ele>66.6</ele>
        <time>2021-04-03T14:01:27Z</time>
      </trkpt>
      <trkpt lat="49.33456" lon="0.97322">
        <ele>64.6</ele>
        <time>2021-04-03T14:01:28Z</time>
      </trkpt>
      <trkpt lat="49.33452" lon="0.97316">
        <ele>64</ele>
        <time>2021-04-03T14:01:29Z</time>
      </trkpt>
      <trkpt lat="49.33449" lon="0.97312">
        <ele>63.6</ele>
        <time>2021-04-03T14:01:30Z</time>
      </trkpt>
      <trkpt lat="49.33442" lon="0.97304">
        <ele>61.8</ele>
        <time>2021-04-03T14:01:32Z</time>
      </trkpt>
      <trkpt lat="49.33442" lon="0.973">
        <ele>61.2</ele>
        <time>2021-04-03T14:01:33Z</time>
      </trkpt>
      <trkpt lat="49.33442" lon="0.97297">
        <ele>60.8</ele>
        <time>2021-04-03T14:01:34Z</time>
      </trkpt>
      <trkpt lat="49.33446" lon="0.97289">
        <ele>59.4</ele>
        <time>2021-04-03T14:01:36Z</time>
      </trkpt>
      <trkpt lat="49.33448" lon="0.97284">
        <ele>57.8</ele>
        <time>2021-04-03T14:01:37Z</time>
      </trkpt>
      <trkpt lat="49.33451" lon="0.97282">
        <ele>56.4</ele>
        <time>2021-04-03T14:01:38Z</time>
      </trkpt>
      <trkpt lat="49.33458" lon="0.97278">
        <ele>55.6</ele>
        <time>2021-04-03T14:01:40Z</time>
      </trkpt>
      <trkpt lat="49.33462" lon="0.97275">
        <ele>55.2</ele>
        <time>2021-04-03T14:01:41Z</time>
      </trkpt>
      <trkpt lat="49.33481" lon="0.97262">
        <ele>55.2</ele>
        <time>2021-04-03T14:01:46Z</time>
      </trkpt>
      <trkpt lat="49.33497" lon="0.97251">
        <ele>56.4</ele>
        <time>2021-04-03T14:01:51Z</time>
      </trkpt>
      <trkpt lat="49.33503" lon="0.97245">
        <ele>56.8</ele>
        <time>2021-04-03T14:01:53Z</time>
      </trkpt>
      <trkpt lat="49.33507" lon="0.97236">
        <ele>58.2</ele>
        <time>2021-04-03T14:01:55Z</time>
      </trkpt>
      <trkpt lat="49.33517" lon="0.97217">
        <ele>59</ele>
        <time>2021-04-03T14:01:58Z</time>
      </trkpt>
      <trkpt lat="49.33523" lon="0.97202">
        <ele>59</ele>
        <time>2021-04-03T14:02:00Z</time>
      </trkpt>
      <trkpt lat="49.3353" lon="0.97191">
        <ele>59.2</ele>
        <time>2021-04-03T14:02:02Z</time>
      </trkpt>
      <trkpt lat="49.33543" lon="0.97172">
        <ele>59.6</ele>
        <time>2021-04-03T14:02:06Z</time>
      </trkpt>
      <trkpt lat="49.33547" lon="0.9716">
        <ele>59.6</ele>
        <time>2021-04-03T14:02:08Z</time>
      </trkpt>
      <trkpt lat="49.33551" lon="0.97148">
        <ele>59.6</ele>
        <time>2021-04-03T14:02:10Z</time>
      </trkpt>
      <trkpt lat="49.33554" lon="0.97142">
        <ele>59.4</ele>
        <time>2021-04-03T14:02:11Z</time>
      </trkpt>
      <trkpt lat="49.33565" lon="0.97126">
        <ele>59.4</ele>
        <time>2021-04-03T14:02:14Z</time>
      </trkpt>
      <trkpt lat="49.33571" lon="0.97095">
        <ele>60</ele>
        <time>2021-04-03T14:02:18Z</time>
      </trkpt>
      <trkpt lat="49.33572" lon="0.97087">
        <ele>60</ele>
        <time>2021-04-03T14:02:19Z</time>
      </trkpt>
      <trkpt lat="49.33573" lon="0.9708">
        <ele>60.2</ele>
        <time>2021-04-03T14:02:20Z</time>
      </trkpt>
      <trkpt lat="49.33574" lon="0.97061">
        <ele>61.2</ele>
        <time>2021-04-03T14:02:22Z</time>
      </trkpt>
      <trkpt lat="49.33576" lon="0.97055">
        <ele>62</ele>
        <time>2021-04-03T14:02:23Z</time>
      </trkpt>
      <trkpt lat="49.3358" lon="0.97044">
        <ele>62.2</ele>
        <time>2021-04-03T14:02:25Z</time>
      </trkpt>
      <trkpt lat="49.33583" lon="0.97031">
        <ele>62.4</ele>
        <time>2021-04-03T14:02:27Z</time>
      </trkpt>
      <trkpt lat="49.33585" lon="0.97022">
        <ele>62.4</ele>
        <time>2021-04-03T14:02:28Z</time>
      </trkpt>
      <trkpt lat="49.33591" lon="0.9699">
        <ele>63</ele>
        <time>2021-04-03T14:02:32Z</time>
      </trkpt>
      <trkpt lat="49.33599" lon="0.96968">
        <ele>63.4</ele>
        <time>2021-04-03T14:02:35Z</time>
      </trkpt>
      <trkpt lat="49.33603" lon="0.96961">
        <ele>63.4</ele>
        <time>2021-04-03T14:02:36Z</time>
      </trkpt>
      <trkpt lat="49.33607" lon="0.96954">
        <ele>63.4</ele>
        <time>2021-04-03T14:02:37Z</time>
      </trkpt>
      <trkpt lat="49.33618" lon="0.96935">
        <ele>63.6</ele>
        <time>2021-04-03T14:02:40Z</time>
      </trkpt>
      <trkpt lat="49.33621" lon="0.9692">
        <ele>63.8</ele>
        <time>2021-04-03T14:02:42Z</time>
      </trkpt>
      <trkpt lat="49.33624" lon="0.96903">
        <ele>63.8</ele>
        <time>2021-04-03T14:02:44Z</time>
      </trkpt>
      <trkpt lat="49.33628" lon="0.96879">
        <ele>64.2</ele>
        <time>2021-04-03T14:02:47Z</time>
      </trkpt>
      <trkpt lat="49.3363" lon="0.96872">
        <ele>64.6</ele>
        <time>2021-04-03T14:02:48Z</time>
      </trkpt>
      <trkpt lat="49.33631" lon="0.96863">
        <ele>64.8</ele>
        <time>2021-04-03T14:02:49Z</time>
      </trkpt>
      <trkpt lat="49.3363" lon="0.96845">
        <ele>65.2</ele>
        <time>2021-04-03T14:02:51Z</time>
      </trkpt>
      <trkpt lat="49.33631" lon="0.96796">
        <ele>65.4</ele>
        <time>2021-04-03T14:02:56Z</time>
      </trkpt>
      <trkpt lat="49.33642" lon="0.96784">
        <ele>65.4</ele>
        <time>2021-04-03T14:03:00Z</time>
      </trkpt>
      <trkpt lat="49.33646" lon="0.96776">
        <ele>65.6</ele>
        <time>2021-04-03T14:03:02Z</time>
      </trkpt>
      <trkpt lat="49.33644" lon="0.96766">
        <ele>65.8</ele>
        <time>2021-04-03T14:03:04Z</time>
      </trkpt>
      <trkpt lat="49.33636" lon="0.96755">
        <ele>66</ele>
        <time>2021-04-03T14:03:06Z</time>
      </trkpt>
      <trkpt lat="49.33629" lon="0.96743">
        <ele>66.4</ele>
        <time>2021-04-03T14:03:08Z</time>
      </trkpt>
      <trkpt lat="49.33619" lon="0.96733">
        <ele>66.4</ele>
        <time>2021-04-03T14:03:11Z</time>
      </trkpt>
      <trkpt lat="49.33619" lon="0.96729">
        <ele>66.4</ele>
        <time>2021-04-03T14:03:12Z</time>
      </trkpt>
      <trkpt lat="49.33616" lon="0.96716">
        <ele>66.2</ele>
        <time>2021-04-03T14:03:16Z</time>
      </trkpt>
      <trkpt lat="49.3362" lon="0.96709">
        <ele>64</ele>
        <time>2021-04-03T14:03:19Z</time>
      </trkpt>
      <trkpt lat="49.3362" lon="0.96702">
        <ele>63.6</ele>
        <time>2021-04-03T14:03:21Z</time>
      </trkpt>
      <trkpt lat="49.33627" lon="0.967">
        <ele>63.4</ele>
        <time>2021-04-03T14:03:26Z</time>
      </trkpt>
      <trkpt lat="49.3363" lon="0.96692">
        <ele>64.4</ele>
        <time>2021-04-03T14:03:30Z</time>
      </trkpt>
      <trkpt lat="49.3363" lon="0.96684">
        <ele>65.6</ele>
        <time>2021-04-03T14:03:32Z</time>
      </trkpt>
      <trkpt lat="49.33631" lon="0.96676">
        <ele>67</ele>
        <time>2021-04-03T14:03:34Z</time>
      </trkpt>
      <trkpt lat="49.33631" lon="0.96671">
        <ele>67.2</ele>
        <time>2021-04-03T14:03:35Z</time>
      </trkpt>
      <trkpt lat="49.33632" lon="0.96667">
        <ele>67.6</ele>
        <time>2021-04-03T14:03:36Z</time>
      </trkpt>
      <trkpt lat="49.33633" lon="0.96663">
        <ele>68</ele>
        <time>2021-04-03T14:03:37Z</time>
      </trkpt>
      <trkpt lat="49.33634" lon="0.96659">
        <ele>68.2</ele>
        <time>2021-04-03T14:03:38Z</time>
      </trkpt>
      <trkpt lat="49.33633" lon="0.96651">
        <ele>68.4</ele>
        <time>2021-04-03T14:03:40Z</time>
      </trkpt>
      <trkpt lat="49.33632" lon="0.96637">
        <ele>69.2</ele>
        <time>2021-04-03T14:03:42Z</time>
      </trkpt>
      <trkpt lat="49.33629" lon="0.96615">
        <ele>70.6</ele>
        <time>2021-04-03T14:03:45Z</time>
      </trkpt>
      <trkpt lat="49.33629" lon="0.96587">
        <ele>71.8</ele>
        <time>2021-04-03T14:03:49Z</time>
      </trkpt>
      <trkpt lat="49.3363" lon="0.9658">
        <ele>72</ele>
        <time>2021-04-03T14:03:50Z</time>
      </trkpt>
      <trkpt lat="49.33634" lon="0.96546">
        <ele>72.8</ele>
        <time>2021-04-03T14:03:56Z</time>
      </trkpt>
      <trkpt lat="49.33628" lon="0.9653">
        <ele>73.8</ele>
        <time>2021-04-03T14:03:59Z</time>
      </trkpt>
      <trkpt lat="49.33626" lon="0.96518">
        <ele>75</ele>
        <time>2021-04-03T14:04:01Z</time>
      </trkpt>
      <trkpt lat="49.33623" lon="0.96501">
        <ele>76.2</ele>
        <time>2021-04-03T14:04:04Z</time>
      </trkpt>
      <trkpt lat="49.33621" lon="0.96488">
        <ele>76.2</ele>
        <time>2021-04-03T14:04:06Z</time>
      </trkpt>
      <trkpt lat="49.33617" lon="0.96447">
        <ele>76.2</ele>
        <time>2021-04-03T14:04:12Z</time>
      </trkpt>
      <trkpt lat="49.33616" lon="0.96432">
        <ele>75.2</ele>
        <time>2021-04-03T14:04:16Z</time>
      </trkpt>
      <trkpt lat="49.33614" lon="0.96429">
        <ele>75.2</ele>
        <time>2021-04-03T14:04:17Z</time>
      </trkpt>
      <trkpt lat="49.33613" lon="0.96415">
        <ele>75</ele>
        <time>2021-04-03T14:04:20Z</time>
      </trkpt>
      <trkpt lat="49.33612" lon="0.96398">
        <ele>74.6</ele>
        <time>2021-04-03T14:04:23Z</time>
      </trkpt>
      <trkpt lat="49.33616" lon="0.96382">
        <ele>74.6</ele>
        <time>2021-04-03T14:04:26Z</time>
      </trkpt>
      <trkpt lat="49.33626" lon="0.96364">
        <ele>74.6</ele>
        <time>2021-04-03T14:04:29Z</time>
      </trkpt>
      <trkpt lat="49.33629" lon="0.96357">
        <ele>74.6</ele>
        <time>2021-04-03T14:04:30Z</time>
      </trkpt>
      <trkpt lat="49.3364" lon="0.96337">
        <ele>74.8</ele>
        <time>2021-04-03T14:04:33Z</time>
      </trkpt>
      <trkpt lat="49.33649" lon="0.96327">
        <ele>75</ele>
        <time>2021-04-03T14:04:35Z</time>
      </trkpt>
      <trkpt lat="49.33664" lon="0.96315">
        <ele>76.2</ele>
        <time>2021-04-03T14:04:39Z</time>
      </trkpt>
      <trkpt lat="49.3367" lon="0.96311">
        <ele>77.4</ele>
        <time>2021-04-03T14:04:42Z</time>
      </trkpt>
      <trkpt lat="49.33675" lon="0.96307">
        <ele>78.4</ele>
        <time>2021-04-03T14:04:45Z</time>
      </trkpt>
      <trkpt lat="49.33676" lon="0.96307">
        <ele>78.8</ele>
        <time>2021-04-03T14:04:46Z</time>
      </trkpt>
      <trkpt lat="49.33684" lon="0.96303">
        <ele>79.6</ele>
        <time>2021-04-03T14:04:49Z</time>
      </trkpt>
      <trkpt lat="49.33686" lon="0.96302">
        <ele>79.6</ele>
        <time>2021-04-03T14:04:50Z</time>
      </trkpt>
      <trkpt lat="49.33703" lon="0.96295">
        <ele>79.8</ele>
        <time>2021-04-03T14:04:58Z</time>
      </trkpt>
      <trkpt lat="49.33714" lon="0.96295">
        <ele>79.8</ele>
        <time>2021-04-03T14:05:02Z</time>
      </trkpt>
      <trkpt lat="49.3373" lon="0.96292">
        <ele>79.8</ele>
        <time>2021-04-03T14:05:07Z</time>
      </trkpt>
      <trkpt lat="49.3375" lon="0.96288">
        <ele>79.8</ele>
        <time>2021-04-03T14:05:12Z</time>
      </trkpt>
      <trkpt lat="49.33776" lon="0.96281">
        <ele>80</ele>
        <time>2021-04-03T14:05:18Z</time>
      </trkpt>
      <trkpt lat="49.33792" lon="0.96271">
        <ele>80</ele>
        <time>2021-04-03T14:05:22Z</time>
      </trkpt>
      <trkpt lat="49.33796" lon="0.96268">
        <ele>80</ele>
        <time>2021-04-03T14:05:23Z</time>
      </trkpt>
      <trkpt lat="49.33813" lon="0.96255">
        <ele>80.2</ele>
        <time>2021-04-03T14:05:28Z</time>
      </trkpt>
      <trkpt lat="49.33824" lon="0.96244">
        <ele>80.4</ele>
        <time>2021-04-03T14:05:31Z</time>
      </trkpt>
      <trkpt lat="49.33831" lon="0.96236">
        <ele>80.4</ele>
        <time>2021-04-03T14:05:33Z</time>
      </trkpt>
      <trkpt lat="49.33845" lon="0.96228">
        <ele>80.6</ele>
        <time>2021-04-03T14:05:38Z</time>
      </trkpt>
      <trkpt lat="49.33847" lon="0.96227">
        <ele>80.6</ele>
        <time>2021-04-03T14:05:39Z</time>
      </trkpt>
      <trkpt lat="49.33853" lon="0.96228">
        <ele>81</ele>
        <time>2021-04-03T14:05:42Z</time>
      </trkpt>
      <trkpt lat="49.33855" lon="0.96228">
        <ele>81.2</ele>
        <time>2021-04-03T14:05:43Z</time>
      </trkpt>
      <trkpt lat="49.33857" lon="0.96226">
        <ele>81.2</ele>
        <time>2021-04-03T14:05:45Z</time>
      </trkpt>
      <trkpt lat="49.33851" lon="0.96213">
        <ele>83.2</ele>
        <time>2021-04-03T14:16:22Z</time>
      </trkpt>
      <trkpt lat="49.33845" lon="0.96217">
        <ele>83</ele>
        <time>2021-04-03T14:16:27Z</time>
      </trkpt>
      <trkpt lat="49.33837" lon="0.9622">
        <ele>82.4</ele>
        <time>2021-04-03T14:16:33Z</time>
      </trkpt>
      <trkpt lat="49.33826" lon="0.96228">
        <ele>82.4</ele>
        <time>2021-04-03T14:16:39Z</time>
      </trkpt>
      <trkpt lat="49.33818" lon="0.96238">
        <ele>82.4</ele>
        <time>2021-04-03T14:16:45Z</time>
      </trkpt>
      <trkpt lat="49.33816" lon="0.9624">
        <ele>82.4</ele>
        <time>2021-04-03T14:16:46Z</time>
      </trkpt>
      <trkpt lat="49.33808" lon="0.96247">
        <ele>82.4</ele>
        <time>2021-04-03T14:16:50Z</time>
      </trkpt>
      <trkpt lat="49.33797" lon="0.9626">
        <ele>82.4</ele>
        <time>2021-04-03T14:16:54Z</time>
      </trkpt>
      <trkpt lat="49.33781" lon="0.9627">
        <ele>82.2</ele>
        <time>2021-04-03T14:16:59Z</time>
      </trkpt>
      <trkpt lat="49.33776" lon="0.96272">
        <ele>82</ele>
        <time>2021-04-03T14:17:00Z</time>
      </trkpt>
      <trkpt lat="49.33753" lon="0.96281">
        <ele>81.4</ele>
        <time>2021-04-03T14:17:05Z</time>
      </trkpt>
      <trkpt lat="49.33738" lon="0.96283">
        <ele>80.8</ele>
        <time>2021-04-03T14:17:08Z</time>
      </trkpt>
      <trkpt lat="49.33724" lon="0.96288">
        <ele>80.6</ele>
        <time>2021-04-03T14:17:11Z</time>
      </trkpt>
      <trkpt lat="49.33704" lon="0.96287">
        <ele>80.4</ele>
        <time>2021-04-03T14:17:15Z</time>
      </trkpt>
      <trkpt lat="49.33699" lon="0.96289">
        <ele>80.4</ele>
        <time>2021-04-03T14:17:16Z</time>
      </trkpt>
      <trkpt lat="49.33681" lon="0.96296">
        <ele>80.2</ele>
        <time>2021-04-03T14:17:20Z</time>
      </trkpt>
      <trkpt lat="49.33672" lon="0.963">
        <ele>80.2</ele>
        <time>2021-04-03T14:17:22Z</time>
      </trkpt>
      <trkpt lat="49.33661" lon="0.96306">
        <ele>80.2</ele>
        <time>2021-04-03T14:17:24Z</time>
      </trkpt>
      <trkpt lat="49.33648" lon="0.96313">
        <ele>80</ele>
        <time>2021-04-03T14:17:26Z</time>
      </trkpt>
      <trkpt lat="49.33638" lon="0.96325">
        <ele>79.8</ele>
        <time>2021-04-03T14:17:28Z</time>
      </trkpt>
      <trkpt lat="49.33634" lon="0.96332">
        <ele>79.8</ele>
        <time>2021-04-03T14:17:29Z</time>
      </trkpt>
      <trkpt lat="49.3363" lon="0.96339">
        <ele>79.8</ele>
        <time>2021-04-03T14:17:30Z</time>
      </trkpt>
      <trkpt lat="49.33617" lon="0.9636">
        <ele>79</ele>
        <time>2021-04-03T14:17:33Z</time>
      </trkpt>
      <trkpt lat="49.33614" lon="0.96366">
        <ele>78.8</ele>
        <time>2021-04-03T14:17:34Z</time>
      </trkpt>
      <trkpt lat="49.33612" lon="0.96378">
        <ele>78.4</ele>
        <time>2021-04-03T14:17:36Z</time>
      </trkpt>
      <trkpt lat="49.33613" lon="0.96389">
        <ele>77.6</ele>
        <time>2021-04-03T14:17:38Z</time>
      </trkpt>
      <trkpt lat="49.33612" lon="0.964">
        <ele>77</ele>
        <time>2021-04-03T14:17:40Z</time>
      </trkpt>
      <trkpt lat="49.33612" lon="0.96408">
        <ele>76.6</ele>
        <time>2021-04-03T14:17:42Z</time>
      </trkpt>
      <trkpt lat="49.33613" lon="0.96413">
        <ele>76.4</ele>
        <time>2021-04-03T14:17:44Z</time>
      </trkpt>
      <trkpt lat="49.33611" lon="0.96429">
        <ele>76.4</ele>
        <time>2021-04-03T14:17:49Z</time>
      </trkpt>
      <trkpt lat="49.33612" lon="0.96439">
        <ele>76.4</ele>
        <time>2021-04-03T14:17:51Z</time>
      </trkpt>
      <trkpt lat="49.33614" lon="0.96463">
        <ele>76.6</ele>
        <time>2021-04-03T14:17:55Z</time>
      </trkpt>
      <trkpt lat="49.33622" lon="0.965">
        <ele>77.2</ele>
        <time>2021-04-03T14:18:01Z</time>
      </trkpt>
      <trkpt lat="49.33629" lon="0.96531">
        <ele>77.4</ele>
        <time>2021-04-03T14:18:06Z</time>
      </trkpt>
      <trkpt lat="49.33629" lon="0.96539">
        <ele>77.4</ele>
        <time>2021-04-03T14:18:07Z</time>
      </trkpt>
      <trkpt lat="49.33625" lon="0.96557">
        <ele>77.4</ele>
        <time>2021-04-03T14:18:09Z</time>
      </trkpt>
      <trkpt lat="49.33623" lon="0.96567">
        <ele>77.4</ele>
        <time>2021-04-03T14:18:10Z</time>
      </trkpt>
      <trkpt lat="49.33624" lon="0.96587">
        <ele>77.4</ele>
        <time>2021-04-03T14:18:12Z</time>
      </trkpt>
      <trkpt lat="49.3363" lon="0.96629">
        <ele>75.6</ele>
        <time>2021-04-03T14:18:17Z</time>
      </trkpt>
      <trkpt lat="49.33631" lon="0.96636">
        <ele>74.2</ele>
        <time>2021-04-03T14:18:18Z</time>
      </trkpt>
      <trkpt lat="49.3363" lon="0.96651">
        <ele>73</ele>
        <time>2021-04-03T14:18:20Z</time>
      </trkpt>
      <trkpt lat="49.33628" lon="0.96668">
        <ele>72.4</ele>
        <time>2021-04-03T14:18:22Z</time>
      </trkpt>
      <trkpt lat="49.33627" lon="0.9668">
        <ele>72</ele>
        <time>2021-04-03T14:18:24Z</time>
      </trkpt>
      <trkpt lat="49.33626" lon="0.96682">
        <ele>72</ele>
        <time>2021-04-03T14:18:25Z</time>
      </trkpt>
      <trkpt lat="49.33623" lon="0.96681">
        <ele>71.6</ele>
        <time>2021-04-03T14:18:27Z</time>
      </trkpt>
      <trkpt lat="49.33621" lon="0.96682">
        <ele>70.8</ele>
        <time>2021-04-03T14:18:28Z</time>
      </trkpt>
      <trkpt lat="49.33618" lon="0.96687">
        <ele>69.8</ele>
        <time>2021-04-03T14:18:32Z</time>
      </trkpt>
      <trkpt lat="49.33613" lon="0.96696">
        <ele>68.6</ele>
        <time>2021-04-03T14:18:36Z</time>
      </trkpt>
      <trkpt lat="49.33613" lon="0.96698">
        <ele>68.2</ele>
        <time>2021-04-03T14:18:37Z</time>
      </trkpt>
      <trkpt lat="49.33614" lon="0.96707">
        <ele>67.4</ele>
        <time>2021-04-03T14:18:40Z</time>
      </trkpt>
      <trkpt lat="49.33616" lon="0.96715">
        <ele>66.4</ele>
        <time>2021-04-03T14:18:42Z</time>
      </trkpt>
      <trkpt lat="49.33617" lon="0.96718">
        <ele>65.8</ele>
        <time>2021-04-03T14:18:43Z</time>
      </trkpt>
      <trkpt lat="49.33627" lon="0.96729">
        <ele>65.4</ele>
        <time>2021-04-03T14:18:48Z</time>
      </trkpt>
      <trkpt lat="49.33628" lon="0.96732">
        <ele>65.4</ele>
        <time>2021-04-03T14:18:49Z</time>
      </trkpt>
      <trkpt lat="49.33635" lon="0.96745">
        <ele>65.6</ele>
        <time>2021-04-03T14:18:53Z</time>
      </trkpt>
      <trkpt lat="49.33638" lon="0.96748">
        <ele>66</ele>
        <time>2021-04-03T14:18:54Z</time>
      </trkpt>
      <trkpt lat="49.3364" lon="0.9675">
        <ele>66.8</ele>
        <time>2021-04-03T14:18:55Z</time>
      </trkpt>
      <trkpt lat="49.33642" lon="0.96753">
        <ele>68</ele>
        <time>2021-04-03T14:18:56Z</time>
      </trkpt>
      <trkpt lat="49.33643" lon="0.96764">
        <ele>69</ele>
        <time>2021-04-03T14:18:59Z</time>
      </trkpt>
      <trkpt lat="49.33642" lon="0.96768">
        <ele>69.4</ele>
        <time>2021-04-03T14:19:00Z</time>
      </trkpt>
      <trkpt lat="49.33636" lon="0.96775">
        <ele>70</ele>
        <time>2021-04-03T14:19:02Z</time>
      </trkpt>
      <trkpt lat="49.33632" lon="0.96779">
        <ele>70.2</ele>
        <time>2021-04-03T14:19:03Z</time>
      </trkpt>
      <trkpt lat="49.33624" lon="0.968">
        <ele>70.2</ele>
        <time>2021-04-03T14:19:06Z</time>
      </trkpt>
      <trkpt lat="49.33626" lon="0.96821">
        <ele>70.2</ele>
        <time>2021-04-03T14:19:09Z</time>
      </trkpt>
      <trkpt lat="49.33626" lon="0.96834">
        <ele>69.6</ele>
        <time>2021-04-03T14:19:11Z</time>
      </trkpt>
      <trkpt lat="49.33626" lon="0.96841">
        <ele>68.8</ele>
        <time>2021-04-03T14:19:12Z</time>
      </trkpt>
      <trkpt lat="49.33625" lon="0.96858">
        <ele>67.8</ele>
        <time>2021-04-03T14:19:14Z</time>
      </trkpt>
      <trkpt lat="49.33618" lon="0.969">
        <ele>67</ele>
        <time>2021-04-03T14:19:19Z</time>
      </trkpt>
      <trkpt lat="49.33617" lon="0.96908">
        <ele>67</ele>
        <time>2021-04-03T14:19:20Z</time>
      </trkpt>
      <trkpt lat="49.33616" lon="0.96915">
        <ele>67</ele>
        <time>2021-04-03T14:19:21Z</time>
      </trkpt>
      <trkpt lat="49.33609" lon="0.96927">
        <ele>66.8</ele>
        <time>2021-04-03T14:19:23Z</time>
      </trkpt>
      <trkpt lat="49.33602" lon="0.96944">
        <ele>66.8</ele>
        <time>2021-04-03T14:19:25Z</time>
      </trkpt>
      <trkpt lat="49.33599" lon="0.96953">
        <ele>66.8</ele>
        <time>2021-04-03T14:19:26Z</time>
      </trkpt>
      <trkpt lat="49.33596" lon="0.9696">
        <ele>66.6</ele>
        <time>2021-04-03T14:19:27Z</time>
      </trkpt>
      <trkpt lat="49.33591" lon="0.96976">
        <ele>66.4</ele>
        <time>2021-04-03T14:19:29Z</time>
      </trkpt>
      <trkpt lat="49.33585" lon="0.97002">
        <ele>66</ele>
        <time>2021-04-03T14:19:32Z</time>
      </trkpt>
      <trkpt lat="49.33581" lon="0.97026">
        <ele>65.6</ele>
        <time>2021-04-03T14:19:35Z</time>
      </trkpt>
      <trkpt lat="49.33576" lon="0.97041">
        <ele>65.4</ele>
        <time>2021-04-03T14:19:37Z</time>
      </trkpt>
      <trkpt lat="49.33574" lon="0.97048">
        <ele>65.2</ele>
        <time>2021-04-03T14:19:38Z</time>
      </trkpt>
      <trkpt lat="49.33571" lon="0.97074">
        <ele>65.2</ele>
        <time>2021-04-03T14:19:41Z</time>
      </trkpt>
      <trkpt lat="49.33569" lon="0.9709">
        <ele>65</ele>
        <time>2021-04-03T14:19:43Z</time>
      </trkpt>
      <trkpt lat="49.3356" lon="0.97112">
        <ele>64.4</ele>
        <time>2021-04-03T14:19:46Z</time>
      </trkpt>
      <trkpt lat="49.33551" lon="0.97132">
        <ele>63.8</ele>
        <time>2021-04-03T14:19:49Z</time>
      </trkpt>
      <trkpt lat="49.33547" lon="0.97146">
        <ele>63.4</ele>
        <time>2021-04-03T14:19:51Z</time>
      </trkpt>
      <trkpt lat="49.33535" lon="0.97173">
        <ele>62</ele>
        <time>2021-04-03T14:19:55Z</time>
      </trkpt>
      <trkpt lat="49.33532" lon="0.97181">
        <ele>62</ele>
        <time>2021-04-03T14:19:56Z</time>
      </trkpt>
      <trkpt lat="49.33518" lon="0.97209">
        <ele>61</ele>
        <time>2021-04-03T14:20:00Z</time>
      </trkpt>
      <trkpt lat="49.33512" lon="0.9722">
        <ele>60.8</ele>
        <time>2021-04-03T14:20:02Z</time>
      </trkpt>
      <trkpt lat="49.335" lon="0.97231">
        <ele>60.6</ele>
        <time>2021-04-03T14:20:04Z</time>
      </trkpt>
      <trkpt lat="49.33489" lon="0.97239">
        <ele>60.4</ele>
        <time>2021-04-03T14:20:06Z</time>
      </trkpt>
      <trkpt lat="49.33482" lon="0.97245">
        <ele>60.4</ele>
        <time>2021-04-03T14:20:07Z</time>
      </trkpt>
      <trkpt lat="49.33472" lon="0.97257">
        <ele>60.4</ele>
        <time>2021-04-03T14:20:09Z</time>
      </trkpt>
      <trkpt lat="49.33447" lon="0.97279">
        <ele>59.4</ele>
        <time>2021-04-03T14:20:13Z</time>
      </trkpt>
      <trkpt lat="49.33443" lon="0.97284">
        <ele>58.6</ele>
        <time>2021-04-03T14:20:14Z</time>
      </trkpt>
      <trkpt lat="49.3344" lon="0.97287">
        <ele>58.2</ele>
        <time>2021-04-03T14:20:15Z</time>
      </trkpt>
      <trkpt lat="49.33438" lon="0.9729">
        <ele>57.2</ele>
        <time>2021-04-03T14:20:17Z</time>
      </trkpt>
      <trkpt lat="49.33437" lon="0.97291">
        <ele>55.6</ele>
        <time>2021-04-03T14:20:18Z</time>
      </trkpt>
      <trkpt lat="49.33437" lon="0.97292">
        <ele>54.8</ele>
        <time>2021-04-03T14:20:20Z</time>
      </trkpt>
      <trkpt lat="49.33443" lon="0.97302">
        <ele>55</ele>
        <time>2021-04-03T14:20:56Z</time>
      </trkpt>
      <trkpt lat="49.33444" lon="0.97303">
        <ele>55</ele>
        <time>2021-04-03T14:20:57Z</time>
      </trkpt>
      <trkpt lat="49.33451" lon="0.97312">
        <ele>55.8</ele>
        <time>2021-04-03T14:21:02Z</time>
      </trkpt>
      <trkpt lat="49.33451" lon="0.97317">
        <ele>57</ele>
        <time>2021-04-03T14:21:04Z</time>
      </trkpt>
      <trkpt lat="49.33451" lon="0.9732">
        <ele>57.6</ele>
        <time>2021-04-03T14:21:05Z</time>
      </trkpt>
      <trkpt lat="49.33451" lon="0.97323">
        <ele>58.2</ele>
        <time>2021-04-03T14:21:06Z</time>
      </trkpt>
      <trkpt lat="49.33452" lon="0.97328">
        <ele>59.2</ele>
        <time>2021-04-03T14:21:08Z</time>
      </trkpt>
      <trkpt lat="49.33453" lon="0.97333">
        <ele>60.4</ele>
        <time>2021-04-03T14:21:10Z</time>
      </trkpt>
      <trkpt lat="49.33454" lon="0.97339">
        <ele>61.6</ele>
        <time>2021-04-03T14:21:12Z</time>
      </trkpt>
      <trkpt lat="49.33458" lon="0.97344">
        <ele>62.8</ele>
        <time>2021-04-03T14:21:15Z</time>
      </trkpt>
      <trkpt lat="49.33463" lon="0.9735">
        <ele>63.8</ele>
        <time>2021-04-03T14:21:18Z</time>
      </trkpt>
      <trkpt lat="49.3347" lon="0.97358">
        <ele>64.8</ele>
        <time>2021-04-03T14:21:22Z</time>
      </trkpt>
      <trkpt lat="49.33473" lon="0.97362">
        <ele>65.2</ele>
        <time>2021-04-03T14:21:24Z</time>
      </trkpt>
      <trkpt lat="49.33477" lon="0.97366">
        <ele>66.6</ele>
        <time>2021-04-03T14:21:27Z</time>
      </trkpt>
      <trkpt lat="49.33479" lon="0.97368">
        <ele>67.8</ele>
        <time>2021-04-03T14:21:29Z</time>
      </trkpt>
      <trkpt lat="49.33481" lon="0.9737">
        <ele>68.8</ele>
        <time>2021-04-03T14:21:31Z</time>
      </trkpt>
      <trkpt lat="49.33481" lon="0.9737">
        <ele>69.2</ele>
        <time>2021-04-03T14:21:32Z</time>
      </trkpt>
      <trkpt lat="49.33483" lon="0.97368">
        <ele>70</ele>
        <time>2021-04-03T14:21:34Z</time>
      </trkpt>
      <trkpt lat="49.33485" lon="0.97368">
        <ele>70.2</ele>
        <time>2021-04-03T14:21:35Z</time>
      </trkpt>
      <trkpt lat="49.33488" lon="0.97371">
        <ele>70.6</ele>
        <time>2021-04-03T14:21:37Z</time>
      </trkpt>
      <trkpt lat="49.33492" lon="0.97378">
        <ele>70.8</ele>
        <time>2021-04-03T14:21:40Z</time>
      </trkpt>
      <trkpt lat="49.33495" lon="0.97386">
        <ele>71.6</ele>
        <time>2021-04-03T14:21:43Z</time>
      </trkpt>
      <trkpt lat="49.33503" lon="0.97398">
        <ele>72</ele>
        <time>2021-04-03T14:21:48Z</time>
      </trkpt>
      <trkpt lat="49.33514" lon="0.97408">
        <ele>72</ele>
        <time>2021-04-03T14:21:53Z</time>
      </trkpt>
      <trkpt lat="49.33528" lon="0.97425">
        <ele>71.4</ele>
        <time>2021-04-03T14:21:59Z</time>
      </trkpt>
      <trkpt lat="49.33532" lon="0.97428">
        <ele>71.4</ele>
        <time>2021-04-03T14:22:01Z</time>
      </trkpt>
      <trkpt lat="49.33537" lon="0.97431">
        <ele>71.4</ele>
        <time>2021-04-03T14:22:04Z</time>
      </trkpt>
      <trkpt lat="49.33549" lon="0.97439">
        <ele>71.4</ele>
        <time>2021-04-03T14:22:09Z</time>
      </trkpt>
      <trkpt lat="49.33561" lon="0.97449">
        <ele>72.6</ele>
        <time>2021-04-03T14:22:14Z</time>
      </trkpt>
      <trkpt lat="49.33567" lon="0.97454">
        <ele>73</ele>
        <time>2021-04-03T14:22:16Z</time>
      </trkpt>
      <trkpt lat="49.33573" lon="0.97459">
        <ele>73.8</ele>
        <time>2021-04-03T14:22:19Z</time>
      </trkpt>
      <trkpt lat="49.33578" lon="0.97461">
        <ele>74.4</ele>
        <time>2021-04-03T14:22:22Z</time>
      </trkpt>
      <trkpt lat="49.33582" lon="0.97462">
        <ele>75.4</ele>
        <time>2021-04-03T14:22:24Z</time>
      </trkpt>
      <trkpt lat="49.33588" lon="0.97465">
        <ele>76.2</ele>
        <time>2021-04-03T14:22:27Z</time>
      </trkpt>
      <trkpt lat="49.33591" lon="0.97467">
        <ele>77</ele>
        <time>2021-04-03T14:22:29Z</time>
      </trkpt>
      <trkpt lat="49.33594" lon="0.97469">
        <ele>77.2</ele>
        <time>2021-04-03T14:22:30Z</time>
      </trkpt>
      <trkpt lat="49.33595" lon="0.97471">
        <ele>77.6</ele>
        <time>2021-04-03T14:22:31Z</time>
      </trkpt>
      <trkpt lat="49.33599" lon="0.97481">
        <ele>78.8</ele>
        <time>2021-04-03T14:22:34Z</time>
      </trkpt>
      <trkpt lat="49.33602" lon="0.97492">
        <ele>80</ele>
        <time>2021-04-03T14:22:37Z</time>
      </trkpt>
      <trkpt lat="49.33603" lon="0.97495">
        <ele>80.2</ele>
        <time>2021-04-03T14:22:38Z</time>
      </trkpt>
      <trkpt lat="49.33603" lon="0.97512">
        <ele>80.6</ele>
        <time>2021-04-03T14:22:43Z</time>
      </trkpt>
      <trkpt lat="49.336" lon="0.97523">
        <ele>80.6</ele>
        <time>2021-04-03T14:22:47Z</time>
      </trkpt>
      <trkpt lat="49.33609" lon="0.97537">
        <ele>78.8</ele>
        <time>2021-04-03T14:22:51Z</time>
      </trkpt>
      <trkpt lat="49.33611" lon="0.9754">
        <ele>78.2</ele>
        <time>2021-04-03T14:22:52Z</time>
      </trkpt>
      <trkpt lat="49.33619" lon="0.97552">
        <ele>77.8</ele>
        <time>2021-04-03T14:22:56Z</time>
      </trkpt>
      <trkpt lat="49.33619" lon="0.97556">
        <ele>77.8</ele>
        <time>2021-04-03T14:22:57Z</time>
      </trkpt>
      <trkpt lat="49.33619" lon="0.97568">
        <ele>77.8</ele>
        <time>2021-04-03T14:23:01Z</time>
      </trkpt>
      <trkpt lat="49.33616" lon="0.97571">
        <ele>78.4</ele>
        <time>2021-04-03T14:23:03Z</time>
      </trkpt>
      <trkpt lat="49.33603" lon="0.97568">
        <ele>79.2</ele>
        <time>2021-04-03T14:23:07Z</time>
      </trkpt>
      <trkpt lat="49.33596" lon="0.97566">
        <ele>79.2</ele>
        <time>2021-04-03T14:23:09Z</time>
      </trkpt>
      <trkpt lat="49.33586" lon="0.97562">
        <ele>79.2</ele>
        <time>2021-04-03T14:23:12Z</time>
      </trkpt>
      <trkpt lat="49.33578" lon="0.97557">
        <ele>79.2</ele>
        <time>2021-04-03T14:23:14Z</time>
      </trkpt>
      <trkpt lat="49.3357" lon="0.97556">
        <ele>79.2</ele>
        <time>2021-04-03T14:23:16Z</time>
      </trkpt>
      <trkpt lat="49.33555" lon="0.97558">
        <ele>79</ele>
        <time>2021-04-03T14:23:20Z</time>
      </trkpt>
      <trkpt lat="49.33546" lon="0.97557">
        <ele>79</ele>
        <time>2021-04-03T14:23:22Z</time>
      </trkpt>
      <trkpt lat="49.33534" lon="0.97557">
        <ele>78.8</ele>
        <time>2021-04-03T14:23:25Z</time>
      </trkpt>
      <trkpt lat="49.3353" lon="0.97555">
        <ele>78.6</ele>
        <time>2021-04-03T14:23:26Z</time>
      </trkpt>
      <trkpt lat="49.33523" lon="0.97545">
        <ele>78.4</ele>
        <time>2021-04-03T14:23:28Z</time>
      </trkpt>
      <trkpt lat="49.33502" lon="0.97536">
        <ele>77.6</ele>
        <time>2021-04-03T14:23:32Z</time>
      </trkpt>
      <trkpt lat="49.33497" lon="0.97535">
        <ele>77.4</ele>
        <time>2021-04-03T14:23:33Z</time>
      </trkpt>
      <trkpt lat="49.33487" lon="0.97539">
        <ele>76.8</ele>
        <time>2021-04-03T14:23:35Z</time>
      </trkpt>
      <trkpt lat="49.33483" lon="0.97542">
        <ele>76</ele>
        <time>2021-04-03T14:23:36Z</time>
      </trkpt>
      <trkpt lat="49.33477" lon="0.97545">
        <ele>75.2</ele>
        <time>2021-04-03T14:23:37Z</time>
      </trkpt>
      <trkpt lat="49.33471" lon="0.9755">
        <ele>74.2</ele>
        <time>2021-04-03T14:23:38Z</time>
      </trkpt>
      <trkpt lat="49.3346" lon="0.9756">
        <ele>72.6</ele>
        <time>2021-04-03T14:23:40Z</time>
      </trkpt>
      <trkpt lat="49.33448" lon="0.97571">
        <ele>71.4</ele>
        <time>2021-04-03T14:23:42Z</time>
      </trkpt>
      <trkpt lat="49.33429" lon="0.97582">
        <ele>70</ele>
        <time>2021-04-03T14:23:45Z</time>
      </trkpt>
      <trkpt lat="49.33419" lon="0.9759">
        <ele>68.6</ele>
        <time>2021-04-03T14:23:47Z</time>
      </trkpt>
      <trkpt lat="49.33413" lon="0.97599">
        <ele>68</ele>
        <time>2021-04-03T14:23:49Z</time>
      </trkpt>
      <trkpt lat="49.33409" lon="0.97608">
        <ele>67.6</ele>
        <time>2021-04-03T14:23:51Z</time>
      </trkpt>
      <trkpt lat="49.33408" lon="0.97611">
        <ele>67.2</ele>
        <time>2021-04-03T14:23:52Z</time>
      </trkpt>
      <trkpt lat="49.33407" lon="0.97615">
        <ele>66.6</ele>
        <time>2021-04-03T14:23:53Z</time>
      </trkpt>
      <trkpt lat="49.33407" lon="0.9762">
        <ele>66</ele>
        <time>2021-04-03T14:23:54Z</time>
      </trkpt>
      <trkpt lat="49.33407" lon="0.97632">
        <ele>65</ele>
        <time>2021-04-03T14:23:57Z</time>
      </trkpt>
      <trkpt lat="49.33408" lon="0.97636">
        <ele>65</ele>
        <time>2021-04-03T14:23:58Z</time>
      </trkpt>
      <trkpt lat="49.33413" lon="0.97657">
        <ele>64.8</ele>
        <time>2021-04-03T14:24:04Z</time>
      </trkpt>
      <trkpt lat="49.33413" lon="0.97674">
        <ele>66.4</ele>
        <time>2021-04-03T14:24:08Z</time>
      </trkpt>
      <trkpt lat="49.33414" lon="0.9769">
        <ele>68</ele>
        <time>2021-04-03T14:24:11Z</time>
      </trkpt>
      <trkpt lat="49.33418" lon="0.97697">
        <ele>68.6</ele>
        <time>2021-04-03T14:24:13Z</time>
      </trkpt>
      <trkpt lat="49.33418" lon="0.97706">
        <ele>69</ele>
        <time>2021-04-03T14:24:15Z</time>
      </trkpt>
      <trkpt lat="49.33419" lon="0.97721">
        <ele>69.2</ele>
        <time>2021-04-03T14:24:18Z</time>
      </trkpt>
      <trkpt lat="49.33419" lon="0.9774">
        <ele>70</ele>
        <time>2021-04-03T14:24:22Z</time>
      </trkpt>
      <trkpt lat="49.3342" lon="0.97745">
        <ele>70.2</ele>
        <time>2021-04-03T14:24:23Z</time>
      </trkpt>
      <trkpt lat="49.33418" lon="0.97765">
        <ele>70.6</ele>
        <time>2021-04-03T14:24:27Z</time>
      </trkpt>
      <trkpt lat="49.33417" lon="0.97804">
        <ele>70.2</ele>
        <time>2021-04-03T14:24:33Z</time>
      </trkpt>
      <trkpt lat="49.33413" lon="0.97834">
        <ele>69.4</ele>
        <time>2021-04-03T14:24:38Z</time>
      </trkpt>
      <trkpt lat="49.33411" lon="0.97841">
        <ele>69.4</ele>
        <time>2021-04-03T14:24:39Z</time>
      </trkpt>
      <trkpt lat="49.33405" lon="0.97853">
        <ele>69</ele>
        <time>2021-04-03T14:24:41Z</time>
      </trkpt>
      <trkpt lat="49.33402" lon="0.97859">
        <ele>69</ele>
        <time>2021-04-03T14:24:42Z</time>
      </trkpt>
      <trkpt lat="49.33397" lon="0.97874">
        <ele>68.8</ele>
        <time>2021-04-03T14:24:45Z</time>
      </trkpt>
      <trkpt lat="49.33397" lon="0.97879">
        <ele>69</ele>
        <time>2021-04-03T14:24:47Z</time>
      </trkpt>
      <trkpt lat="49.33389" lon="0.97895">
        <ele>69</ele>
        <time>2021-04-03T14:24:55Z</time>
      </trkpt>
      <trkpt lat="49.33386" lon="0.97897">
        <ele>69</ele>
        <time>2021-04-03T14:24:56Z</time>
      </trkpt>
      <trkpt lat="49.33372" lon="0.9792">
        <ele>69</ele>
        <time>2021-04-03T14:25:01Z</time>
      </trkpt>
      <trkpt lat="49.33367" lon="0.97935">
        <ele>68.2</ele>
        <time>2021-04-03T14:25:05Z</time>
      </trkpt>
      <trkpt lat="49.33365" lon="0.97939">
        <ele>68</ele>
        <time>2021-04-03T14:25:06Z</time>
      </trkpt>
      <trkpt lat="49.3336" lon="0.9796">
        <ele>67.2</ele>
        <time>2021-04-03T14:25:11Z</time>
      </trkpt>
      <trkpt lat="49.3336" lon="0.97964">
        <ele>67</ele>
        <time>2021-04-03T14:25:12Z</time>
      </trkpt>
      <trkpt lat="49.33356" lon="0.9798">
        <ele>66.4</ele>
        <time>2021-04-03T14:25:16Z</time>
      </trkpt>
      <trkpt lat="49.33355" lon="0.97985">
        <ele>66.4</ele>
        <time>2021-04-03T14:25:17Z</time>
      </trkpt>
      <trkpt lat="49.33356" lon="0.97997">
        <ele>66.4</ele>
        <time>2021-04-03T14:25:20Z</time>
      </trkpt>
      <trkpt lat="49.33357" lon="0.9801">
        <ele>66.4</ele>
        <time>2021-04-03T14:25:23Z</time>
      </trkpt>
      <trkpt lat="49.33356" lon="0.98022">
        <ele>67.2</ele>
        <time>2021-04-03T14:25:26Z</time>
      </trkpt>
      <trkpt lat="49.33358" lon="0.98033">
        <ele>68.4</ele>
        <time>2021-04-03T14:25:29Z</time>
      </trkpt>
      <trkpt lat="49.33358" lon="0.9804">
        <ele>69.8</ele>
        <time>2021-04-03T14:25:31Z</time>
      </trkpt>
      <trkpt lat="49.33358" lon="0.98048">
        <ele>71.2</ele>
        <time>2021-04-03T14:25:33Z</time>
      </trkpt>
      <trkpt lat="49.33357" lon="0.98058">
        <ele>72.4</ele>
        <time>2021-04-03T14:25:36Z</time>
      </trkpt>
      <trkpt lat="49.33357" lon="0.98067">
        <ele>73.2</ele>
        <time>2021-04-03T14:25:38Z</time>
      </trkpt>
      <trkpt lat="49.33357" lon="0.98071">
        <ele>73.4</ele>
        <time>2021-04-03T14:25:39Z</time>
      </trkpt>
      <trkpt lat="49.33357" lon="0.98081">
        <ele>74</ele>
        <time>2021-04-03T14:25:42Z</time>
      </trkpt>
      <trkpt lat="49.33357" lon="0.98084">
        <ele>74</ele>
        <time>2021-04-03T14:25:43Z</time>
      </trkpt>
      <trkpt lat="49.33355" lon="0.98105">
        <ele>74.2</ele>
        <time>2021-04-03T14:25:47Z</time>
      </trkpt>
      <trkpt lat="49.33355" lon="0.9811">
        <ele>74.2</ele>
        <time>2021-04-03T14:25:48Z</time>
      </trkpt>
      <trkpt lat="49.33357" lon="0.98131">
        <ele>74</ele>
        <time>2021-04-03T14:25:52Z</time>
      </trkpt>
      <trkpt lat="49.33357" lon="0.98158">
        <ele>74</ele>
        <time>2021-04-03T14:25:58Z</time>
      </trkpt>
      <trkpt lat="49.33356" lon="0.98178">
        <ele>74</ele>
        <time>2021-04-03T14:26:03Z</time>
      </trkpt>
      <trkpt lat="49.33355" lon="0.9818">
        <ele>74</ele>
        <time>2021-04-03T14:26:04Z</time>
      </trkpt>
      <trkpt lat="49.3335" lon="0.98184">
        <ele>74</ele>
        <time>2021-04-03T14:26:07Z</time>
      </trkpt>
      <trkpt lat="49.33346" lon="0.9817">
        <ele>74</ele>
        <time>2021-04-03T14:26:10Z</time>
      </trkpt>
      <trkpt lat="49.33345" lon="0.98165">
        <ele>74</ele>
        <time>2021-04-03T14:26:11Z</time>
      </trkpt>
      <trkpt lat="49.3334" lon="0.98147">
        <ele>74</ele>
        <time>2021-04-03T14:26:14Z</time>
      </trkpt>
      <trkpt lat="49.33339" lon="0.9813">
        <ele>72.4</ele>
        <time>2021-04-03T14:26:17Z</time>
      </trkpt>
      <trkpt lat="49.33336" lon="0.98118">
        <ele>71.2</ele>
        <time>2021-04-03T14:26:19Z</time>
      </trkpt>
      <trkpt lat="49.33333" lon="0.98104">
        <ele>70.2</ele>
        <time>2021-04-03T14:26:21Z</time>
      </trkpt>
      <trkpt lat="49.33331" lon="0.98094">
        <ele>69.8</ele>
        <time>2021-04-03T14:26:23Z</time>
      </trkpt>
      <trkpt lat="49.33325" lon="0.98087">
        <ele>69</ele>
        <time>2021-04-03T14:26:26Z</time>
      </trkpt>
      <trkpt lat="49.33323" lon="0.98085">
        <ele>68.6</ele>
        <time>2021-04-03T14:26:27Z</time>
      </trkpt>
      <trkpt lat="49.33319" lon="0.9808">
        <ele>67.8</ele>
        <time>2021-04-03T14:26:29Z</time>
      </trkpt>
      <trkpt lat="49.33312" lon="0.98075">
        <ele>67.4</ele>
        <time>2021-04-03T14:26:32Z</time>
      </trkpt>
      <trkpt lat="49.33307" lon="0.9807">
        <ele>66.6</ele>
        <time>2021-04-03T14:26:34Z</time>
      </trkpt>
      <trkpt lat="49.33299" lon="0.9806">
        <ele>66.2</ele>
        <time>2021-04-03T14:26:37Z</time>
      </trkpt>
      <trkpt lat="49.33294" lon="0.98044">
        <ele>65.4</ele>
        <time>2021-04-03T14:26:41Z</time>
      </trkpt>
      <trkpt lat="49.33291" lon="0.98038">
        <ele>65.4</ele>
        <time>2021-04-03T14:26:42Z</time>
      </trkpt>
      <trkpt lat="49.33282" lon="0.98014">
        <ele>65.2</ele>
        <time>2021-04-03T14:26:45Z</time>
      </trkpt>
      <trkpt lat="49.33274" lon="0.97998">
        <ele>65.2</ele>
        <time>2021-04-03T14:26:47Z</time>
      </trkpt>
      <trkpt lat="49.33263" lon="0.97979">
        <ele>64.2</ele>
        <time>2021-04-03T14:26:50Z</time>
      </trkpt>
      <trkpt lat="49.33259" lon="0.97973">
        <ele>63.8</ele>
        <time>2021-04-03T14:26:51Z</time>
      </trkpt>
      <trkpt lat="49.33251" lon="0.97962">
        <ele>62.8</ele>
        <time>2021-04-03T14:26:53Z</time>
      </trkpt>
      <trkpt lat="49.33243" lon="0.97948">
        <ele>61.8</ele>
        <time>2021-04-03T14:26:55Z</time>
      </trkpt>
      <trkpt lat="49.33238" lon="0.97941">
        <ele>61.4</ele>
        <time>2021-04-03T14:26:56Z</time>
      </trkpt>
      <trkpt lat="49.33214" lon="0.97904">
        <ele>60.6</ele>
        <time>2021-04-03T14:27:01Z</time>
      </trkpt>
      <trkpt lat="49.33209" lon="0.97899">
        <ele>60</ele>
        <time>2021-04-03T14:27:02Z</time>
      </trkpt>
      <trkpt lat="49.33197" lon="0.97885">
        <ele>59</ele>
        <time>2021-04-03T14:27:06Z</time>
      </trkpt>
      <trkpt lat="49.33192" lon="0.97878">
        <ele>59</ele>
        <time>2021-04-03T14:27:08Z</time>
      </trkpt>
      <trkpt lat="49.33189" lon="0.97874">
        <ele>59</ele>
        <time>2021-04-03T14:27:11Z</time>
      </trkpt>
      <trkpt lat="49.33184" lon="0.97867">
        <ele>59</ele>
        <time>2021-04-03T14:27:14Z</time>
      </trkpt>
      <trkpt lat="49.33182" lon="0.97865">
        <ele>59.2</ele>
        <time>2021-04-03T14:27:15Z</time>
      </trkpt>
      <trkpt lat="49.33164" lon="0.9785">
        <ele>60</ele>
        <time>2021-04-03T14:27:20Z</time>
      </trkpt>
      <trkpt lat="49.3316" lon="0.97849">
        <ele>60</ele>
        <time>2021-04-03T14:27:21Z</time>
      </trkpt>
      <trkpt lat="49.33146" lon="0.97844">
        <ele>60.4</ele>
        <time>2021-04-03T14:27:25Z</time>
      </trkpt>
      <trkpt lat="49.33138" lon="0.97844">
        <ele>60.4</ele>
        <time>2021-04-03T14:27:27Z</time>
      </trkpt>
      <trkpt lat="49.33133" lon="0.97846">
        <ele>60.4</ele>
        <time>2021-04-03T14:27:29Z</time>
      </trkpt>
      <trkpt lat="49.3313" lon="0.97848">
        <ele>61</ele>
        <time>2021-04-03T14:27:31Z</time>
      </trkpt>
      <trkpt lat="49.33125" lon="0.97849">
        <ele>62</ele>
        <time>2021-04-03T14:27:33Z</time>
      </trkpt>
      <trkpt lat="49.33115" lon="0.97845">
        <ele>63.2</ele>
        <time>2021-04-03T14:27:36Z</time>
      </trkpt>
      <trkpt lat="49.33104" lon="0.97841">
        <ele>64.8</ele>
        <time>2021-04-03T14:27:39Z</time>
      </trkpt>
      <trkpt lat="49.33093" lon="0.97842">
        <ele>66.2</ele>
        <time>2021-04-03T14:27:42Z</time>
      </trkpt>
      <trkpt lat="49.3309" lon="0.97844">
        <ele>66.4</ele>
        <time>2021-04-03T14:27:43Z</time>
      </trkpt>
      <trkpt lat="49.33075" lon="0.97852">
        <ele>66.6</ele>
        <time>2021-04-03T14:27:47Z</time>
      </trkpt>
      <trkpt lat="49.33058" lon="0.97865">
        <ele>66.4</ele>
        <time>2021-04-03T14:27:52Z</time>
      </trkpt>
      <trkpt lat="49.33053" lon="0.97883">
        <ele>66.2</ele>
        <time>2021-04-03T14:27:55Z</time>
      </trkpt>
      <trkpt lat="49.33047" lon="0.97902">
        <ele>65</ele>
        <time>2021-04-03T14:27:58Z</time>
      </trkpt>
      <trkpt lat="49.33044" lon="0.97907">
        <ele>64.8</ele>
        <time>2021-04-03T14:27:59Z</time>
      </trkpt>
      <trkpt lat="49.33034" lon="0.97918">
        <ele>64.2</ele>
        <time>2021-04-03T14:28:01Z</time>
      </trkpt>
      <trkpt lat="49.3303" lon="0.97923">
        <ele>63.8</ele>
        <time>2021-04-03T14:28:02Z</time>
      </trkpt>
      <trkpt lat="49.33028" lon="0.97928">
        <ele>63.4</ele>
        <time>2021-04-03T14:28:03Z</time>
      </trkpt>
      <trkpt lat="49.33026" lon="0.97938">
        <ele>62.6</ele>
        <time>2021-04-03T14:28:05Z</time>
      </trkpt>
      <trkpt lat="49.33027" lon="0.97946">
        <ele>62.4</ele>
        <time>2021-04-03T14:28:07Z</time>
      </trkpt>
      <trkpt lat="49.33025" lon="0.97963">
        <ele>63.4</ele>
        <time>2021-04-03T14:28:11Z</time>
      </trkpt>
      <trkpt lat="49.33023" lon="0.97972">
        <ele>64</ele>
        <time>2021-04-03T14:28:13Z</time>
      </trkpt>
      <trkpt lat="49.3302" lon="0.97996">
        <ele>65</ele>
        <time>2021-04-03T14:28:18Z</time>
      </trkpt>
      <trkpt lat="49.33018" lon="0.98001">
        <ele>65.4</ele>
        <time>2021-04-03T14:28:19Z</time>
      </trkpt>
      <trkpt lat="49.33012" lon="0.98015">
        <ele>66.8</ele>
        <time>2021-04-03T14:28:22Z</time>
      </trkpt>
      <trkpt lat="49.3301" lon="0.98029">
        <ele>68.4</ele>
        <time>2021-04-03T14:28:25Z</time>
      </trkpt>
      <trkpt lat="49.33008" lon="0.98038">
        <ele>69</ele>
        <time>2021-04-03T14:28:27Z</time>
      </trkpt>
      <trkpt lat="49.33005" lon="0.98047">
        <ele>69.4</ele>
        <time>2021-04-03T14:28:29Z</time>
      </trkpt>
      <trkpt lat="49.33" lon="0.98056">
        <ele>70.2</ele>
        <time>2021-04-03T14:28:32Z</time>
      </trkpt>
      <trkpt lat="49.32999" lon="0.98059">
        <ele>70.6</ele>
        <time>2021-04-03T14:28:33Z</time>
      </trkpt>
      <trkpt lat="49.32993" lon="0.98069">
        <ele>71</ele>
        <time>2021-04-03T14:28:36Z</time>
      </trkpt>
      <trkpt lat="49.32991" lon="0.9808">
        <ele>71.8</ele>
        <time>2021-04-03T14:28:39Z</time>
      </trkpt>
      <trkpt lat="49.3299" lon="0.98084">
        <ele>72</ele>
        <time>2021-04-03T14:28:40Z</time>
      </trkpt>
      <trkpt lat="49.32985" lon="0.98103">
        <ele>72.6</ele>
        <time>2021-04-03T14:28:45Z</time>
      </trkpt>
      <trkpt lat="49.32979" lon="0.98131">
        <ele>72.4</ele>
        <time>2021-04-03T14:28:51Z</time>
      </trkpt>
      <trkpt lat="49.32974" lon="0.98154">
        <ele>72.2</ele>
        <time>2021-04-03T14:28:56Z</time>
      </trkpt>
      <trkpt lat="49.32967" lon="0.98169">
        <ele>72</ele>
        <time>2021-04-03T14:28:59Z</time>
      </trkpt>
      <trkpt lat="49.32959" lon="0.98175">
        <ele>72</ele>
        <time>2021-04-03T14:29:01Z</time>
      </trkpt>
      <trkpt lat="49.32952" lon="0.98184">
        <ele>72</ele>
        <time>2021-04-03T14:29:05Z</time>
      </trkpt>
      <trkpt lat="49.32951" lon="0.98186">
        <ele>72.2</ele>
        <time>2021-04-03T14:29:06Z</time>
      </trkpt>
      <trkpt lat="49.32946" lon="0.98181">
        <ele>71.8</ele>
        <time>2021-04-03T14:31:20Z</time>
      </trkpt>
      <trkpt lat="49.32944" lon="0.98176">
        <ele>71.8</ele>
        <time>2021-04-03T14:31:22Z</time>
      </trkpt>
      <trkpt lat="49.32946" lon="0.98168">
        <ele>71</ele>
        <time>2021-04-03T14:31:27Z</time>
      </trkpt>
      <trkpt lat="49.32946" lon="0.9816">
        <ele>70.6</ele>
        <time>2021-04-03T14:31:30Z</time>
      </trkpt>
      <trkpt lat="49.32945" lon="0.98153">
        <ele>70.4</ele>
        <time>2021-04-03T14:31:32Z</time>
      </trkpt>
      <trkpt lat="49.3294" lon="0.98143">
        <ele>70</ele>
        <time>2021-04-03T14:31:35Z</time>
      </trkpt>
      <trkpt lat="49.3294" lon="0.98139">
        <ele>69.8</ele>
        <time>2021-04-03T14:31:36Z</time>
      </trkpt>
      <trkpt lat="49.32941" lon="0.9813">
        <ele>69.4</ele>
        <time>2021-04-03T14:31:38Z</time>
      </trkpt>
      <trkpt lat="49.32943" lon="0.98118">
        <ele>69</ele>
        <time>2021-04-03T14:31:40Z</time>
      </trkpt>
      <trkpt lat="49.32944" lon="0.98111">
        <ele>68.4</ele>
        <time>2021-04-03T14:31:41Z</time>
      </trkpt>
      <trkpt lat="49.32945" lon="0.98091">
        <ele>67.6</ele>
        <time>2021-04-03T14:31:45Z</time>
      </trkpt>
      <trkpt lat="49.32942" lon="0.98083">
        <ele>67</ele>
        <time>2021-04-03T14:31:47Z</time>
      </trkpt>
      <trkpt lat="49.32937" lon="0.98076">
        <ele>65.8</ele>
        <time>2021-04-03T14:31:50Z</time>
      </trkpt>
      <trkpt lat="49.32938" lon="0.98072">
        <ele>64.8</ele>
        <time>2021-04-03T14:31:52Z</time>
      </trkpt>
      <trkpt lat="49.32939" lon="0.98068">
        <ele>64.4</ele>
        <time>2021-04-03T14:31:53Z</time>
      </trkpt>
      <trkpt lat="49.32942" lon="0.98049">
        <ele>63.2</ele>
        <time>2021-04-03T14:31:58Z</time>
      </trkpt>
      <trkpt lat="49.32942" lon="0.98046">
        <ele>63</ele>
        <time>2021-04-03T14:31:59Z</time>
      </trkpt>
      <trkpt lat="49.32941" lon="0.98036">
        <ele>62.4</ele>
        <time>2021-04-03T14:32:02Z</time>
      </trkpt>
      <trkpt lat="49.32939" lon="0.98033">
        <ele>62.2</ele>
        <time>2021-04-03T14:32:03Z</time>
      </trkpt>
      <trkpt lat="49.32938" lon="0.9803">
        <ele>62</ele>
        <time>2021-04-03T14:32:04Z</time>
      </trkpt>
      <trkpt lat="49.32933" lon="0.98012">
        <ele>61.8</ele>
        <time>2021-04-03T14:32:08Z</time>
      </trkpt>
      <trkpt lat="49.3293" lon="0.97982">
        <ele>61.8</ele>
        <time>2021-04-03T14:32:14Z</time>
      </trkpt>
      <trkpt lat="49.32926" lon="0.97975">
        <ele>62.8</ele>
        <time>2021-04-03T14:32:17Z</time>
      </trkpt>
      <trkpt lat="49.32924" lon="0.97974">
        <ele>63</ele>
        <time>2021-04-03T14:32:18Z</time>
      </trkpt>
      <trkpt lat="49.32923" lon="0.97975">
        <ele>63.2</ele>
        <time>2021-04-03T14:32:19Z</time>
      </trkpt>
      <trkpt lat="49.32918" lon="0.97974">
        <ele>64.2</ele>
        <time>2021-04-03T14:32:22Z</time>
      </trkpt>
      <trkpt lat="49.32917" lon="0.97972">
        <ele>64.6</ele>
        <time>2021-04-03T14:32:23Z</time>
      </trkpt>
      <trkpt lat="49.32914" lon="0.97971">
        <ele>66</ele>
        <time>2021-04-03T14:32:25Z</time>
      </trkpt>
      <trkpt lat="49.32908" lon="0.97967">
        <ele>67.6</ele>
        <time>2021-04-03T14:32:29Z</time>
      </trkpt>
      <trkpt lat="49.32906" lon="0.97965">
        <ele>69</ele>
        <time>2021-04-03T14:32:31Z</time>
      </trkpt>
      <trkpt lat="49.32904" lon="0.97959">
        <ele>70</ele>
        <time>2021-04-03T14:32:35Z</time>
      </trkpt>
      <trkpt lat="49.32905" lon="0.97956">
        <ele>70</ele>
        <time>2021-04-03T14:32:37Z</time>
      </trkpt>
      <trkpt lat="49.32904" lon="0.97949">
        <ele>70.4</ele>
        <time>2021-04-03T14:32:42Z</time>
      </trkpt>
      <trkpt lat="49.32903" lon="0.97948">
        <ele>70.4</ele>
        <time>2021-04-03T14:32:43Z</time>
      </trkpt>
      <trkpt lat="49.32905" lon="0.97932">
        <ele>71</ele>
        <time>2021-04-03T14:32:52Z</time>
      </trkpt>
      <trkpt lat="49.32905" lon="0.97929">
        <ele>71.2</ele>
        <time>2021-04-03T14:32:53Z</time>
      </trkpt>
      <trkpt lat="49.32906" lon="0.97917">
        <ele>72.6</ele>
        <time>2021-04-03T14:32:56Z</time>
      </trkpt>
      <trkpt lat="49.32908" lon="0.97908">
        <ele>73.4</ele>
        <time>2021-04-03T14:32:58Z</time>
      </trkpt>
      <trkpt lat="49.3291" lon="0.97902">
        <ele>73.6</ele>
        <time>2021-04-03T14:33:00Z</time>
      </trkpt>
      <trkpt lat="49.32912" lon="0.97896">
        <ele>73.6</ele>
        <time>2021-04-03T14:33:02Z</time>
      </trkpt>
      <trkpt lat="49.32913" lon="0.97892">
        <ele>73.8</ele>
        <time>2021-04-03T14:33:03Z</time>
      </trkpt>
      <trkpt lat="49.32911" lon="0.97875">
        <ele>73.8</ele>
        <time>2021-04-03T14:33:07Z</time>
      </trkpt>
      <trkpt lat="49.32911" lon="0.9787">
        <ele>73.6</ele>
        <time>2021-04-03T14:33:08Z</time>
      </trkpt>
      <trkpt lat="49.3291" lon="0.97852">
        <ele>72.6</ele>
        <time>2021-04-03T14:33:11Z</time>
      </trkpt>
      <trkpt lat="49.32912" lon="0.97828">
        <ele>72.2</ele>
        <time>2021-04-03T14:33:15Z</time>
      </trkpt>
      <trkpt lat="49.3291" lon="0.9782">
        <ele>72.2</ele>
        <time>2021-04-03T14:33:16Z</time>
      </trkpt>
      <trkpt lat="49.329" lon="0.978">
        <ele>71.6</ele>
        <time>2021-04-03T14:33:20Z</time>
      </trkpt>
      <trkpt lat="49.32899" lon="0.97795">
        <ele>71</ele>
        <time>2021-04-03T14:33:21Z</time>
      </trkpt>
      <trkpt lat="49.329" lon="0.97786">
        <ele>70.4</ele>
        <time>2021-04-03T14:33:23Z</time>
      </trkpt>
      <trkpt lat="49.32902" lon="0.9778">
        <ele>69.8</ele>
        <time>2021-04-03T14:33:25Z</time>
      </trkpt>
      <trkpt lat="49.32904" lon="0.9778">
        <ele>69.2</ele>
        <time>2021-04-03T14:33:26Z</time>
      </trkpt>
      <trkpt lat="49.32905" lon="0.97778">
        <ele>67.6</ele>
        <time>2021-04-03T14:33:28Z</time>
      </trkpt>
      <trkpt lat="49.32906" lon="0.97777">
        <ele>66.8</ele>
        <time>2021-04-03T14:33:29Z</time>
      </trkpt>
      <trkpt lat="49.32907" lon="0.97736">
        <ele>58.6</ele>
        <time>2021-04-03T14:35:57Z</time>
      </trkpt>
      <trkpt lat="49.32903" lon="0.97725">
        <ele>57.4</ele>
        <time>2021-04-03T14:36:02Z</time>
      </trkpt>
      <trkpt lat="49.32902" lon="0.97722">
        <ele>57</ele>
        <time>2021-04-03T14:36:03Z</time>
      </trkpt>
      <trkpt lat="49.329" lon="0.97716">
        <ele>56.2</ele>
        <time>2021-04-03T14:36:05Z</time>
      </trkpt>
      <trkpt lat="49.32894" lon="0.97706">
        <ele>55</ele>
        <time>2021-04-03T14:36:08Z</time>
      </trkpt>
      <trkpt lat="49.32889" lon="0.97699">
        <ele>53.8</ele>
        <time>2021-04-03T14:36:11Z</time>
      </trkpt>
      <trkpt lat="49.32886" lon="0.97693">
        <ele>52.8</ele>
        <time>2021-04-03T14:36:13Z</time>
      </trkpt>
      <trkpt lat="49.32885" lon="0.97691">
        <ele>52.2</ele>
        <time>2021-04-03T14:36:14Z</time>
      </trkpt>
      <trkpt lat="49.32884" lon="0.97689">
        <ele>51.6</ele>
        <time>2021-04-03T14:36:15Z</time>
      </trkpt>
      <trkpt lat="49.32876" lon="0.97678">
        <ele>50.8</ele>
        <time>2021-04-03T14:36:21Z</time>
      </trkpt>
      <trkpt lat="49.32874" lon="0.97677">
        <ele>50.6</ele>
        <time>2021-04-03T14:36:22Z</time>
      </trkpt>
      <trkpt lat="49.32871" lon="0.97675">
        <ele>50.6</ele>
        <time>2021-04-03T14:36:23Z</time>
      </trkpt>
      <trkpt lat="49.32865" lon="0.97665">
        <ele>50.6</ele>
        <time>2021-04-03T14:36:26Z</time>
      </trkpt>
      <trkpt lat="49.32859" lon="0.97647">
        <ele>50.6</ele>
        <time>2021-04-03T14:36:31Z</time>
      </trkpt>
      <trkpt lat="49.32857" lon="0.97638">
        <ele>50.6</ele>
        <time>2021-04-03T14:36:33Z</time>
      </trkpt>
      <trkpt lat="49.32853" lon="0.97628">
        <ele>50.6</ele>
        <time>2021-04-03T14:36:36Z</time>
      </trkpt>
      <trkpt lat="49.32849" lon="0.97611">
        <ele>50.4</ele>
        <time>2021-04-03T14:36:40Z</time>
      </trkpt>
      <trkpt lat="49.32845" lon="0.97599">
        <ele>50</ele>
        <time>2021-04-03T14:36:42Z</time>
      </trkpt>
      <trkpt lat="49.3284" lon="0.97581">
        <ele>49.8</ele>
        <time>2021-04-03T14:36:45Z</time>
      </trkpt>
      <trkpt lat="49.32839" lon="0.97573">
        <ele>49.8</ele>
        <time>2021-04-03T14:36:47Z</time>
      </trkpt>
      <trkpt lat="49.32833" lon="0.97552">
        <ele>49</ele>
        <time>2021-04-03T14:36:50Z</time>
      </trkpt>
      <trkpt lat="49.32825" lon="0.97535">
        <ele>48.6</ele>
        <time>2021-04-03T14:36:53Z</time>
      </trkpt>
      <trkpt lat="49.32819" lon="0.97526">
        <ele>48.4</ele>
        <time>2021-04-03T14:36:55Z</time>
      </trkpt>
      <trkpt lat="49.32812" lon="0.97515">
        <ele>48.4</ele>
        <time>2021-04-03T14:36:58Z</time>
      </trkpt>
      <trkpt lat="49.32812" lon="0.9751">
        <ele>48.4</ele>
        <time>2021-04-03T14:36:59Z</time>
      </trkpt>
      <trkpt lat="49.32805" lon="0.97485">
        <ele>48</ele>
        <time>2021-04-03T14:37:03Z</time>
      </trkpt>
      <trkpt lat="49.328" lon="0.97475">
        <ele>47.4</ele>
        <time>2021-04-03T14:37:06Z</time>
      </trkpt>
      <trkpt lat="49.32798" lon="0.97472">
        <ele>47.4</ele>
        <time>2021-04-03T14:37:07Z</time>
      </trkpt>
      <trkpt lat="49.32794" lon="0.97467">
        <ele>46.4</ele>
        <time>2021-04-03T14:37:10Z</time>
      </trkpt>
      <trkpt lat="49.32791" lon="0.97463">
        <ele>46</ele>
        <time>2021-04-03T14:37:11Z</time>
      </trkpt>
      <trkpt lat="49.3278" lon="0.97457">
        <ele>45.8</ele>
        <time>2021-04-03T14:37:15Z</time>
      </trkpt>
      <trkpt lat="49.3278" lon="0.97459">
        <ele>45.6</ele>
        <time>2021-04-03T14:37:16Z</time>
      </trkpt>
      <trkpt lat="49.32774" lon="0.97466">
        <ele>45.6</ele>
        <time>2021-04-03T14:37:19Z</time>
      </trkpt>
      <trkpt lat="49.3277" lon="0.9747">
        <ele>45.6</ele>
        <time>2021-04-03T14:37:21Z</time>
      </trkpt>
      <trkpt lat="49.32766" lon="0.97468">
        <ele>45.4</ele>
        <time>2021-04-03T14:37:23Z</time>
      </trkpt>
      <trkpt lat="49.32763" lon="0.97468">
        <ele>45.2</ele>
        <time>2021-04-03T14:37:24Z</time>
      </trkpt>
      <trkpt lat="49.3276" lon="0.97473">
        <ele>45</ele>
        <time>2021-04-03T14:37:26Z</time>
      </trkpt>
      <trkpt lat="49.3276" lon="0.97481">
        <ele>45</ele>
        <time>2021-04-03T14:37:30Z</time>
      </trkpt>
      <trkpt lat="49.32757" lon="0.97492">
        <ele>46</ele>
        <time>2021-04-03T14:37:35Z</time>
      </trkpt>
      <trkpt lat="49.32757" lon="0.97497">
        <ele>46</ele>
        <time>2021-04-03T14:37:36Z</time>
      </trkpt>
      <trkpt lat="49.32755" lon="0.97513">
        <ele>46.2</ele>
        <time>2021-04-03T14:37:39Z</time>
      </trkpt>
      <trkpt lat="49.32755" lon="0.97534">
        <ele>46.4</ele>
        <time>2021-04-03T14:37:44Z</time>
      </trkpt>
      <trkpt lat="49.32754" lon="0.9754">
        <ele>46.6</ele>
        <time>2021-04-03T14:37:46Z</time>
      </trkpt>
      <trkpt lat="49.32755" lon="0.97544">
        <ele>47.2</ele>
        <time>2021-04-03T14:37:49Z</time>
      </trkpt>
      <trkpt lat="49.32758" lon="0.97567">
        <ele>48.2</ele>
        <time>2021-04-03T14:38:04Z</time>
      </trkpt>
      <trkpt lat="49.3276" lon="0.97573">
        <ele>48.4</ele>
        <time>2021-04-03T14:38:06Z</time>
      </trkpt>
      <trkpt lat="49.32764" lon="0.97584">
        <ele>48.8</ele>
        <time>2021-04-03T14:38:10Z</time>
      </trkpt>
      <trkpt lat="49.32767" lon="0.97591">
        <ele>49</ele>
        <time>2021-04-03T14:38:12Z</time>
      </trkpt>
      <trkpt lat="49.32768" lon="0.97601">
        <ele>49.4</ele>
        <time>2021-04-03T14:38:15Z</time>
      </trkpt>
      <trkpt lat="49.32773" lon="0.97617">
        <ele>49.4</ele>
        <time>2021-04-03T14:38:18Z</time>
      </trkpt>
      <trkpt lat="49.32788" lon="0.97645">
        <ele>48.8</ele>
        <time>2021-04-03T14:38:24Z</time>
      </trkpt>
      <trkpt lat="49.32796" lon="0.97657">
        <ele>48.4</ele>
        <time>2021-04-03T14:38:27Z</time>
      </trkpt>
      <trkpt lat="49.32803" lon="0.97668">
        <ele>48.2</ele>
        <time>2021-04-03T14:38:30Z</time>
      </trkpt>
      <trkpt lat="49.32815" lon="0.97692">
        <ele>49.8</ele>
        <time>2021-04-03T14:38:36Z</time>
      </trkpt>
      <trkpt lat="49.32817" lon="0.97699">
        <ele>51</ele>
        <time>2021-04-03T14:38:38Z</time>
      </trkpt>
      <trkpt lat="49.32821" lon="0.9771">
        <ele>52.2</ele>
        <time>2021-04-03T14:38:41Z</time>
      </trkpt>
      <trkpt lat="49.3282" lon="0.97717">
        <ele>53</ele>
        <time>2021-04-03T14:38:44Z</time>
      </trkpt>
      <trkpt lat="49.3283" lon="0.97713">
        <ele>55.4</ele>
        <time>2021-04-03T14:39:06Z</time>
      </trkpt>
      <trkpt lat="49.32838" lon="0.97709">
        <ele>55.6</ele>
        <time>2021-04-03T14:39:10Z</time>
      </trkpt>
      <trkpt lat="49.32839" lon="0.97711">
        <ele>56</ele>
        <time>2021-04-03T14:39:11Z</time>
      </trkpt>
      <trkpt lat="49.32843" lon="0.97713">
        <ele>56.8</ele>
        <time>2021-04-03T14:39:13Z</time>
      </trkpt>
      <trkpt lat="49.32846" lon="0.97715">
        <ele>58</ele>
        <time>2021-04-03T14:39:15Z</time>
      </trkpt>
      <trkpt lat="49.32849" lon="0.97721">
        <ele>59</ele>
        <time>2021-04-03T14:39:17Z</time>
      </trkpt>
      <trkpt lat="49.32854" lon="0.97732">
        <ele>59.6</ele>
        <time>2021-04-03T14:39:21Z</time>
      </trkpt>
      <trkpt lat="49.32855" lon="0.97734">
        <ele>59.6</ele>
        <time>2021-04-03T14:39:22Z</time>
      </trkpt>
      <trkpt lat="49.32857" lon="0.97739">
        <ele>60.2</ele>
        <time>2021-04-03T14:39:24Z</time>
      </trkpt>
      <trkpt lat="49.32859" lon="0.97746">
        <ele>61.4</ele>
        <time>2021-04-03T14:39:26Z</time>
      </trkpt>
      <trkpt lat="49.3286" lon="0.9775">
        <ele>62</ele>
        <time>2021-04-03T14:39:27Z</time>
      </trkpt>
      <trkpt lat="49.32859" lon="0.97754">
        <ele>62.2</ele>
        <time>2021-04-03T14:39:28Z</time>
      </trkpt>
      <trkpt lat="49.32865" lon="0.97772">
        <ele>62.6</ele>
        <time>2021-04-03T14:39:33Z</time>
      </trkpt>
      <trkpt lat="49.32865" lon="0.97775">
        <ele>62.8</ele>
        <time>2021-04-03T14:39:34Z</time>
      </trkpt>
      <trkpt lat="49.32867" lon="0.97782">
        <ele>63.2</ele>
        <time>2021-04-03T14:39:36Z</time>
      </trkpt>
      <trkpt lat="49.32869" lon="0.97792">
        <ele>63.8</ele>
        <time>2021-04-03T14:39:39Z</time>
      </trkpt>
      <trkpt lat="49.32869" lon="0.97796">
        <ele>64</ele>
        <time>2021-04-03T14:39:40Z</time>
      </trkpt>
      <trkpt lat="49.32865" lon="0.97819">
        <ele>65</ele>
        <time>2021-04-03T14:39:45Z</time>
      </trkpt>
      <trkpt lat="49.32864" lon="0.97824">
        <ele>64.8</ele>
        <time>2021-04-03T14:39:46Z</time>
      </trkpt>
      <trkpt lat="49.32861" lon="0.97844">
        <ele>65</ele>
        <time>2021-04-03T14:39:51Z</time>
      </trkpt>
      <trkpt lat="49.32861" lon="0.97857">
        <ele>65.2</ele>
        <time>2021-04-03T14:39:54Z</time>
      </trkpt>
      <trkpt lat="49.32861" lon="0.9786">
        <ele>65.2</ele>
        <time>2021-04-03T14:39:55Z</time>
      </trkpt>
      <trkpt lat="49.32861" lon="0.9787">
        <ele>65.4</ele>
        <time>2021-04-03T14:39:58Z</time>
      </trkpt>
      <trkpt lat="49.32858" lon="0.97876">
        <ele>65.4</ele>
        <time>2021-04-03T14:40:00Z</time>
      </trkpt>
      <trkpt lat="49.32854" lon="0.97895">
        <ele>65.2</ele>
        <time>2021-04-03T14:40:04Z</time>
      </trkpt>
      <trkpt lat="49.32851" lon="0.97915">
        <ele>65.4</ele>
        <time>2021-04-03T14:40:08Z</time>
      </trkpt>
      <trkpt lat="49.32851" lon="0.97927">
        <ele>65.4</ele>
        <time>2021-04-03T14:40:12Z</time>
      </trkpt>
      <trkpt lat="49.32848" lon="0.97948">
        <ele>64.8</ele>
        <time>2021-04-03T14:40:16Z</time>
      </trkpt>
      <trkpt lat="49.32848" lon="0.97959">
        <ele>64.8</ele>
        <time>2021-04-03T14:40:18Z</time>
      </trkpt>
      <trkpt lat="49.32846" lon="0.97969">
        <ele>64.8</ele>
        <time>2021-04-03T14:40:20Z</time>
      </trkpt>
      <trkpt lat="49.3284" lon="0.97982">
        <ele>64.8</ele>
        <time>2021-04-03T14:40:24Z</time>
      </trkpt>
      <trkpt lat="49.32834" lon="0.97998">
        <ele>64.4</ele>
        <time>2021-04-03T14:40:28Z</time>
      </trkpt>
      <trkpt lat="49.32832" lon="0.98001">
        <ele>64.4</ele>
        <time>2021-04-03T14:40:29Z</time>
      </trkpt>
      <trkpt lat="49.3282" lon="0.98017">
        <ele>64</ele>
        <time>2021-04-03T14:40:33Z</time>
      </trkpt>
      <trkpt lat="49.32807" lon="0.98032">
        <ele>63</ele>
        <time>2021-04-03T14:40:38Z</time>
      </trkpt>
      <trkpt lat="49.32804" lon="0.98036">
        <ele>62.8</ele>
        <time>2021-04-03T14:40:39Z</time>
      </trkpt>
      <trkpt lat="49.32794" lon="0.98047">
        <ele>62.2</ele>
        <time>2021-04-03T14:40:42Z</time>
      </trkpt>
      <trkpt lat="49.3279" lon="0.98051">
        <ele>62</ele>
        <time>2021-04-03T14:40:43Z</time>
      </trkpt>
      <trkpt lat="49.32782" lon="0.98062">
        <ele>60.8</ele>
        <time>2021-04-03T14:40:46Z</time>
      </trkpt>
      <trkpt lat="49.3278" lon="0.98065">
        <ele>59.8</ele>
        <time>2021-04-03T14:40:47Z</time>
      </trkpt>
      <trkpt lat="49.32777" lon="0.98068">
        <ele>59</ele>
        <time>2021-04-03T14:40:48Z</time>
      </trkpt>
      <trkpt lat="49.32771" lon="0.98076">
        <ele>58</ele>
        <time>2021-04-03T14:40:50Z</time>
      </trkpt>
      <trkpt lat="49.32763" lon="0.98083">
        <ele>56.4</ele>
        <time>2021-04-03T14:40:52Z</time>
      </trkpt>
      <trkpt lat="49.32755" lon="0.98097">
        <ele>55.4</ele>
        <time>2021-04-03T14:40:55Z</time>
      </trkpt>
      <trkpt lat="49.32745" lon="0.98108">
        <ele>54.2</ele>
        <time>2021-04-03T14:40:58Z</time>
      </trkpt>
      <trkpt lat="49.3273" lon="0.9812">
        <ele>53.2</ele>
        <time>2021-04-03T14:41:02Z</time>
      </trkpt>
      <trkpt lat="49.32726" lon="0.98125">
        <ele>53</ele>
        <time>2021-04-03T14:41:03Z</time>
      </trkpt>
      <trkpt lat="49.32717" lon="0.98138">
        <ele>52</ele>
        <time>2021-04-03T14:41:05Z</time>
      </trkpt>
      <trkpt lat="49.32712" lon="0.98147">
        <ele>51.2</ele>
        <time>2021-04-03T14:41:07Z</time>
      </trkpt>
      <trkpt lat="49.32708" lon="0.98155">
        <ele>50.8</ele>
        <time>2021-04-03T14:41:09Z</time>
      </trkpt>
      <trkpt lat="49.32704" lon="0.98166">
        <ele>50.4</ele>
        <time>2021-04-03T14:41:11Z</time>
      </trkpt>
      <trkpt lat="49.3269" lon="0.98183">
        <ele>50.2</ele>
        <time>2021-04-03T14:41:16Z</time>
      </trkpt>
      <trkpt lat="49.32674" lon="0.98199">
        <ele>50.4</ele>
        <time>2021-04-03T14:41:21Z</time>
      </trkpt>
      <trkpt lat="49.32665" lon="0.98213">
        <ele>52</ele>
        <time>2021-04-03T14:41:26Z</time>
      </trkpt>
      <trkpt lat="49.32653" lon="0.98225">
        <ele>52.8</ele>
        <time>2021-04-03T14:41:31Z</time>
      </trkpt>
      <trkpt lat="49.32651" lon="0.9823">
        <ele>53.2</ele>
        <time>2021-04-03T14:41:32Z</time>
      </trkpt>
      <trkpt lat="49.32641" lon="0.98245">
        <ele>53.8</ele>
        <time>2021-04-03T14:41:36Z</time>
      </trkpt>
      <trkpt lat="49.32622" lon="0.98257">
        <ele>54.4</ele>
        <time>2021-04-03T14:41:41Z</time>
      </trkpt>
      <trkpt lat="49.326" lon="0.98271">
        <ele>55.2</ele>
        <time>2021-04-03T14:41:46Z</time>
      </trkpt>
      <trkpt lat="49.3259" lon="0.98276">
        <ele>55.2</ele>
        <time>2021-04-03T14:41:48Z</time>
      </trkpt>
      <trkpt lat="49.32579" lon="0.98279">
        <ele>55</ele>
        <time>2021-04-03T14:41:51Z</time>
      </trkpt>
      <trkpt lat="49.32567" lon="0.98281">
        <ele>54.2</ele>
        <time>2021-04-03T14:41:54Z</time>
      </trkpt>
      <trkpt lat="49.32557" lon="0.9828">
        <ele>53.4</ele>
        <time>2021-04-03T14:41:56Z</time>
      </trkpt>
      <trkpt lat="49.32553" lon="0.9828">
        <ele>53.2</ele>
        <time>2021-04-03T14:41:57Z</time>
      </trkpt>
      <trkpt lat="49.32538" lon="0.98283">
        <ele>52.6</ele>
        <time>2021-04-03T14:42:00Z</time>
      </trkpt>
      <trkpt lat="49.32531" lon="0.98283">
        <ele>52.2</ele>
        <time>2021-04-03T14:42:02Z</time>
      </trkpt>
      <trkpt lat="49.32524" lon="0.98284">
        <ele>52</ele>
        <time>2021-04-03T14:42:04Z</time>
      </trkpt>
      <trkpt lat="49.32502" lon="0.98289">
        <ele>52</ele>
        <time>2021-04-03T14:42:10Z</time>
      </trkpt>
      <trkpt lat="49.32485" lon="0.98291">
        <ele>52.6</ele>
        <time>2021-04-03T14:42:15Z</time>
      </trkpt>
      <trkpt lat="49.32482" lon="0.98291">
        <ele>53</ele>
        <time>2021-04-03T14:42:16Z</time>
      </trkpt>
      <trkpt lat="49.32478" lon="0.98292">
        <ele>53.2</ele>
        <time>2021-04-03T14:42:17Z</time>
      </trkpt>
      <trkpt lat="49.32464" lon="0.98296">
        <ele>53.8</ele>
        <time>2021-04-03T14:42:21Z</time>
      </trkpt>
      <trkpt lat="49.32454" lon="0.98296">
        <ele>54.2</ele>
        <time>2021-04-03T14:42:24Z</time>
      </trkpt>
      <trkpt lat="49.32448" lon="0.98297">
        <ele>54.6</ele>
        <time>2021-04-03T14:42:26Z</time>
      </trkpt>
      <trkpt lat="49.32431" lon="0.98298">
        <ele>55.2</ele>
        <time>2021-04-03T14:42:31Z</time>
      </trkpt>
      <trkpt lat="49.32428" lon="0.98297">
        <ele>55.4</ele>
        <time>2021-04-03T14:42:32Z</time>
      </trkpt>
      <trkpt lat="49.32412" lon="0.98298">
        <ele>56.4</ele>
        <time>2021-04-03T14:42:37Z</time>
      </trkpt>
      <trkpt lat="49.32396" lon="0.98295">
        <ele>57</ele>
        <time>2021-04-03T14:42:41Z</time>
      </trkpt>
      <trkpt lat="49.32363" lon="0.9827">
        <ele>57</ele>
        <time>2021-04-03T14:42:47Z</time>
      </trkpt>
      <trkpt lat="49.3234" lon="0.98252">
        <ele>55</ele>
        <time>2021-04-03T14:42:52Z</time>
      </trkpt>
      <trkpt lat="49.32333" lon="0.98248">
        <ele>54</ele>
        <time>2021-04-03T14:42:54Z</time>
      </trkpt>
      <trkpt lat="49.32325" lon="0.98245">
        <ele>52.8</ele>
        <time>2021-04-03T14:42:56Z</time>
      </trkpt>
      <trkpt lat="49.32322" lon="0.98247">
        <ele>52</ele>
        <time>2021-04-03T14:42:57Z</time>
      </trkpt>
      <trkpt lat="49.3232" lon="0.98248">
        <ele>51.4</ele>
        <time>2021-04-03T14:42:58Z</time>
      </trkpt>
      <trkpt lat="49.32311" lon="0.98258">
        <ele>50.8</ele>
        <time>2021-04-03T14:43:02Z</time>
      </trkpt>
      <trkpt lat="49.32307" lon="0.9827">
        <ele>50.8</ele>
        <time>2021-04-03T14:43:05Z</time>
      </trkpt>
      <trkpt lat="49.32302" lon="0.98276">
        <ele>50.8</ele>
        <time>2021-04-03T14:43:07Z</time>
      </trkpt>
      <trkpt lat="49.32288" lon="0.98283">
        <ele>51.2</ele>
        <time>2021-04-03T14:43:11Z</time>
      </trkpt>
      <trkpt lat="49.3228" lon="0.983">
        <ele>51.6</ele>
        <time>2021-04-03T14:43:14Z</time>
      </trkpt>
      <trkpt lat="49.32268" lon="0.98329">
        <ele>52.4</ele>
        <time>2021-04-03T14:43:19Z</time>
      </trkpt>
      <trkpt lat="49.32261" lon="0.98345">
        <ele>52.8</ele>
        <time>2021-04-03T14:43:22Z</time>
      </trkpt>
      <trkpt lat="49.32259" lon="0.98351">
        <ele>52.8</ele>
        <time>2021-04-03T14:43:23Z</time>
      </trkpt>
      <trkpt lat="49.32257" lon="0.98357">
        <ele>53</ele>
        <time>2021-04-03T14:43:24Z</time>
      </trkpt>
      <trkpt lat="49.32244" lon="0.98398">
        <ele>53.4</ele>
        <time>2021-04-03T14:43:30Z</time>
      </trkpt>
      <trkpt lat="49.32242" lon="0.98405">
        <ele>53.6</ele>
        <time>2021-04-03T14:43:31Z</time>
      </trkpt>
      <trkpt lat="49.32237" lon="0.98426">
        <ele>53.8</ele>
        <time>2021-04-03T14:43:34Z</time>
      </trkpt>
      <trkpt lat="49.32228" lon="0.98456">
        <ele>53.8</ele>
        <time>2021-04-03T14:43:38Z</time>
      </trkpt>
      <trkpt lat="49.32212" lon="0.98499">
        <ele>54.2</ele>
        <time>2021-04-03T14:43:45Z</time>
      </trkpt>
      <trkpt lat="49.32207" lon="0.98511">
        <ele>54.4</ele>
        <time>2021-04-03T14:43:47Z</time>
      </trkpt>
      <trkpt lat="49.32193" lon="0.98537">
        <ele>54.6</ele>
        <time>2021-04-03T14:43:52Z</time>
      </trkpt>
      <trkpt lat="49.32183" lon="0.98551">
        <ele>54.8</ele>
        <time>2021-04-03T14:43:55Z</time>
      </trkpt>
      <trkpt lat="49.3218" lon="0.98555">
        <ele>54.8</ele>
        <time>2021-04-03T14:43:56Z</time>
      </trkpt>
      <trkpt lat="49.32173" lon="0.98564">
        <ele>54.8</ele>
        <time>2021-04-03T14:43:58Z</time>
      </trkpt>
      <trkpt lat="49.32166" lon="0.98581">
        <ele>54.6</ele>
        <time>2021-04-03T14:44:02Z</time>
      </trkpt>
      <trkpt lat="49.32171" lon="0.98598">
        <ele>54.2</ele>
        <time>2021-04-03T14:44:05Z</time>
      </trkpt>
      <trkpt lat="49.32175" lon="0.98603">
        <ele>54</ele>
        <time>2021-04-03T14:44:06Z</time>
      </trkpt>
      <trkpt lat="49.32182" lon="0.98613">
        <ele>53.6</ele>
        <time>2021-04-03T14:44:08Z</time>
      </trkpt>
      <trkpt lat="49.32187" lon="0.98617">
        <ele>53.4</ele>
        <time>2021-04-03T14:44:09Z</time>
      </trkpt>
      <trkpt lat="49.32193" lon="0.98622">
        <ele>53.2</ele>
        <time>2021-04-03T14:44:10Z</time>
      </trkpt>
      <trkpt lat="49.32203" lon="0.98633">
        <ele>52.4</ele>
        <time>2021-04-03T14:44:12Z</time>
      </trkpt>
      <trkpt lat="49.32213" lon="0.98645">
        <ele>51.2</ele>
        <time>2021-04-03T14:44:14Z</time>
      </trkpt>
      <trkpt lat="49.32218" lon="0.98652">
        <ele>50.8</ele>
        <time>2021-04-03T14:44:15Z</time>
      </trkpt>
      <trkpt lat="49.32224" lon="0.98659">
        <ele>50.2</ele>
        <time>2021-04-03T14:44:16Z</time>
      </trkpt>
      <trkpt lat="49.32229" lon="0.98667">
        <ele>49.6</ele>
        <time>2021-04-03T14:44:17Z</time>
      </trkpt>
      <trkpt lat="49.32232" lon="0.98675">
        <ele>49</ele>
        <time>2021-04-03T14:44:18Z</time>
      </trkpt>
      <trkpt lat="49.32238" lon="0.98689">
        <ele>47.8</ele>
        <time>2021-04-03T14:44:20Z</time>
      </trkpt>
      <trkpt lat="49.32235" lon="0.98706">
        <ele>46.6</ele>
        <time>2021-04-03T14:44:23Z</time>
      </trkpt>
      <trkpt lat="49.32228" lon="0.9871">
        <ele>45.6</ele>
        <time>2021-04-03T14:44:26Z</time>
      </trkpt>
      <trkpt lat="49.32226" lon="0.9871">
        <ele>45.4</ele>
        <time>2021-04-03T14:44:27Z</time>
      </trkpt>
      <trkpt lat="49.32222" lon="0.98708">
        <ele>45</ele>
        <time>2021-04-03T14:44:29Z</time>
      </trkpt>
      <trkpt lat="49.3222" lon="0.98706">
        <ele>44.6</ele>
        <time>2021-04-03T14:44:31Z</time>
      </trkpt>
      <trkpt lat="49.32219" lon="0.98705">
        <ele>44</ele>
        <time>2021-04-03T14:44:32Z</time>
      </trkpt>
      <trkpt lat="49.32214" lon="0.98703">
        <ele>42.8</ele>
        <time>2021-04-03T14:44:34Z</time>
      </trkpt>
      <trkpt lat="49.32211" lon="0.98701">
        <ele>42.6</ele>
        <time>2021-04-03T14:44:35Z</time>
      </trkpt>
      <trkpt lat="49.32198" lon="0.98695">
        <ele>41.8</ele>
        <time>2021-04-03T14:44:40Z</time>
      </trkpt>
      <trkpt lat="49.32197" lon="0.98695">
        <ele>41.4</ele>
        <time>2021-04-03T14:44:41Z</time>
      </trkpt>
      <trkpt lat="49.32194" lon="0.98697">
        <ele>40.2</ele>
        <time>2021-04-03T14:44:43Z</time>
      </trkpt>
      <trkpt lat="49.32192" lon="0.98699">
        <ele>39.8</ele>
        <time>2021-04-03T14:44:44Z</time>
      </trkpt>
      <trkpt lat="49.32189" lon="0.98702">
        <ele>39.4</ele>
        <time>2021-04-03T14:44:45Z</time>
      </trkpt>
      <trkpt lat="49.32186" lon="0.98705">
        <ele>39</ele>
        <time>2021-04-03T14:44:46Z</time>
      </trkpt>
      <trkpt lat="49.32178" lon="0.98716">
        <ele>38.4</ele>
        <time>2021-04-03T14:44:49Z</time>
      </trkpt>
      <trkpt lat="49.3217" lon="0.98733">
        <ele>37.8</ele>
        <time>2021-04-03T14:44:52Z</time>
      </trkpt>
      <trkpt lat="49.32167" lon="0.98739">
        <ele>37.4</ele>
        <time>2021-04-03T14:44:53Z</time>
      </trkpt>
      <trkpt lat="49.32162" lon="0.98751">
        <ele>36.8</ele>
        <time>2021-04-03T14:44:55Z</time>
      </trkpt>
      <trkpt lat="49.32158" lon="0.98764">
        <ele>36.4</ele>
        <time>2021-04-03T14:44:57Z</time>
      </trkpt>
      <trkpt lat="49.32155" lon="0.98785">
        <ele>34.8</ele>
        <time>2021-04-03T14:45:01Z</time>
      </trkpt>
      <trkpt lat="49.32154" lon="0.9879">
        <ele>33.8</ele>
        <time>2021-04-03T14:45:02Z</time>
      </trkpt>
      <trkpt lat="49.32153" lon="0.988">
        <ele>32.4</ele>
        <time>2021-04-03T14:45:04Z</time>
      </trkpt>
      <trkpt lat="49.32151" lon="0.98811">
        <ele>32</ele>
        <time>2021-04-03T14:45:06Z</time>
      </trkpt>
      <trkpt lat="49.32148" lon="0.98831">
        <ele>31.6</ele>
        <time>2021-04-03T14:45:11Z</time>
      </trkpt>
      <trkpt lat="49.32145" lon="0.98843">
        <ele>31.2</ele>
        <time>2021-04-03T14:45:13Z</time>
      </trkpt>
      <trkpt lat="49.32139" lon="0.98861">
        <ele>31.2</ele>
        <time>2021-04-03T14:45:16Z</time>
      </trkpt>
      <trkpt lat="49.32131" lon="0.98885">
        <ele>31.2</ele>
        <time>2021-04-03T14:45:22Z</time>
      </trkpt>
      <trkpt lat="49.32128" lon="0.98902">
        <ele>30.2</ele>
        <time>2021-04-03T14:45:26Z</time>
      </trkpt>
      <trkpt lat="49.32127" lon="0.98906">
        <ele>29.8</ele>
        <time>2021-04-03T14:45:27Z</time>
      </trkpt>
      <trkpt lat="49.32125" lon="0.98914">
        <ele>28.2</ele>
        <time>2021-04-03T14:45:29Z</time>
      </trkpt>
      <trkpt lat="49.32122" lon="0.98925">
        <ele>27</ele>
        <time>2021-04-03T14:45:32Z</time>
      </trkpt>
      <trkpt lat="49.32116" lon="0.98946">
        <ele>26.4</ele>
        <time>2021-04-03T14:45:39Z</time>
      </trkpt>
      <trkpt lat="49.32115" lon="0.98955">
        <ele>26</ele>
        <time>2021-04-03T14:45:41Z</time>
      </trkpt>
      <trkpt lat="49.32112" lon="0.98969">
        <ele>25.4</ele>
        <time>2021-04-03T14:45:45Z</time>
      </trkpt>
      <trkpt lat="49.32109" lon="0.98983">
        <ele>25.2</ele>
        <time>2021-04-03T14:45:52Z</time>
      </trkpt>
      <trkpt lat="49.32109" lon="0.98984">
        <ele>25.4</ele>
        <time>2021-04-03T14:45:53Z</time>
      </trkpt>
      <trkpt lat="49.32096" lon="0.99008">
        <ele>27.2</ele>
        <time>2021-04-03T14:46:15Z</time>
      </trkpt>
      <trkpt lat="49.32094" lon="0.99012">
        <ele>27.2</ele>
        <time>2021-04-03T14:46:17Z</time>
      </trkpt>
      <trkpt lat="49.32091" lon="0.99015">
        <ele>27.2</ele>
        <time>2021-04-03T14:46:19Z</time>
      </trkpt>
      <trkpt lat="49.32088" lon="0.99018">
        <ele>26.6</ele>
        <time>2021-04-03T14:46:22Z</time>
      </trkpt>
      <trkpt lat="49.32087" lon="0.9902">
        <ele>26</ele>
        <time>2021-04-03T14:46:23Z</time>
      </trkpt>
      <trkpt lat="49.32083" lon="0.99027">
        <ele>24.6</ele>
        <time>2021-04-03T14:46:26Z</time>
      </trkpt>
      <trkpt lat="49.3208" lon="0.99032">
        <ele>24</ele>
        <time>2021-04-03T14:46:27Z</time>
      </trkpt>
      <trkpt lat="49.32078" lon="0.99036">
        <ele>23.4</ele>
        <time>2021-04-03T14:46:28Z</time>
      </trkpt>
      <trkpt lat="49.32075" lon="0.99044">
        <ele>22.2</ele>
        <time>2021-04-03T14:46:30Z</time>
      </trkpt>
      <trkpt lat="49.3207" lon="0.99049">
        <ele>21.2</ele>
        <time>2021-04-03T14:46:32Z</time>
      </trkpt>
      <trkpt lat="49.32061" lon="0.99053">
        <ele>20.6</ele>
        <time>2021-04-03T14:46:34Z</time>
      </trkpt>
      <trkpt lat="49.32053" lon="0.99055">
        <ele>20.2</ele>
        <time>2021-04-03T14:46:36Z</time>
      </trkpt>
      <trkpt lat="49.3205" lon="0.99059">
        <ele>20</ele>
        <time>2021-04-03T14:46:37Z</time>
      </trkpt>
      <trkpt lat="49.32043" lon="0.99069">
        <ele>19.2</ele>
        <time>2021-04-03T14:46:40Z</time>
      </trkpt>
      <trkpt lat="49.32041" lon="0.99072">
        <ele>18</ele>
        <time>2021-04-03T14:46:41Z</time>
      </trkpt>
      <trkpt lat="49.32037" lon="0.99079">
        <ele>16</ele>
        <time>2021-04-03T14:46:43Z</time>
      </trkpt>
      <trkpt lat="49.32032" lon="0.99087">
        <ele>14.6</ele>
        <time>2021-04-03T14:46:45Z</time>
      </trkpt>
      <trkpt lat="49.32026" lon="0.99098">
        <ele>14.2</ele>
        <time>2021-04-03T14:46:47Z</time>
      </trkpt>
      <trkpt lat="49.32002" lon="0.99139">
        <ele>14</ele>
        <time>2021-04-03T14:46:54Z</time>
      </trkpt>
      <trkpt lat="49.31981" lon="0.99177">
        <ele>14</ele>
        <time>2021-04-03T14:47:01Z</time>
      </trkpt>
      <trkpt lat="49.31962" lon="0.99213">
        <ele>13.8</ele>
        <time>2021-04-03T14:47:08Z</time>
      </trkpt>
      <trkpt lat="49.31946" lon="0.99242">
        <ele>13.8</ele>
        <time>2021-04-03T14:47:15Z</time>
      </trkpt>
      <trkpt lat="49.31936" lon="0.99266">
        <ele>14</ele>
        <time>2021-04-03T14:47:21Z</time>
      </trkpt>
      <trkpt lat="49.31926" lon="0.99288">
        <ele>15</ele>
        <time>2021-04-03T14:47:27Z</time>
      </trkpt>
      <trkpt lat="49.3192" lon="0.99307">
        <ele>15.8</ele>
        <time>2021-04-03T14:47:31Z</time>
      </trkpt>
      <trkpt lat="49.31911" lon="0.99327">
        <ele>16.6</ele>
        <time>2021-04-03T14:47:36Z</time>
      </trkpt>
      <trkpt lat="49.31904" lon="0.99351">
        <ele>16.8</ele>
        <time>2021-04-03T14:47:42Z</time>
      </trkpt>
      <trkpt lat="49.31903" lon="0.99355">
        <ele>17</ele>
        <time>2021-04-03T14:47:43Z</time>
      </trkpt>
      <trkpt lat="49.319" lon="0.99371">
        <ele>17.8</ele>
        <time>2021-04-03T14:47:46Z</time>
      </trkpt>
      <trkpt lat="49.31899" lon="0.99376">
        <ele>18.2</ele>
        <time>2021-04-03T14:47:47Z</time>
      </trkpt>
      <trkpt lat="49.31895" lon="0.99389">
        <ele>19</ele>
        <time>2021-04-03T14:47:51Z</time>
      </trkpt>
      <trkpt lat="49.31894" lon="0.9939">
        <ele>19.2</ele>
        <time>2021-04-03T14:47:52Z</time>
      </trkpt>
      <trkpt lat="49.3189" lon="0.99394">
        <ele>19.6</ele>
        <time>2021-04-03T14:47:56Z</time>
      </trkpt>
      <trkpt lat="49.31887" lon="0.99398">
        <ele>19.6</ele>
        <time>2021-04-03T14:47:57Z</time>
      </trkpt>
      <trkpt lat="49.31884" lon="0.994">
        <ele>19.6</ele>
        <time>2021-04-03T14:47:58Z</time>
      </trkpt>
      <trkpt lat="49.31877" lon="0.99398">
        <ele>19.6</ele>
        <time>2021-04-03T14:48:00Z</time>
      </trkpt>
      <trkpt lat="49.31863" lon="0.99403">
        <ele>19.4</ele>
        <time>2021-04-03T14:48:04Z</time>
      </trkpt>
      <trkpt lat="49.31853" lon="0.99413">
        <ele>19.4</ele>
        <time>2021-04-03T14:48:07Z</time>
      </trkpt>
      <trkpt lat="49.31849" lon="0.99416">
        <ele>19.4</ele>
        <time>2021-04-03T14:48:08Z</time>
      </trkpt>
      <trkpt lat="49.31841" lon="0.99423">
        <ele>19.2</ele>
        <time>2021-04-03T14:48:10Z</time>
      </trkpt>
      <trkpt lat="49.31811" lon="0.99452">
        <ele>18</ele>
        <time>2021-04-03T14:48:17Z</time>
      </trkpt>
      <trkpt lat="49.31801" lon="0.99468">
        <ele>17.4</ele>
        <time>2021-04-03T14:48:20Z</time>
      </trkpt>
      <trkpt lat="49.31796" lon="0.99479">
        <ele>17.2</ele>
        <time>2021-04-03T14:48:22Z</time>
      </trkpt>
      <trkpt lat="49.31782" lon="0.99501">
        <ele>17.2</ele>
        <time>2021-04-03T14:48:27Z</time>
      </trkpt>
      <trkpt lat="49.31766" lon="0.99529">
        <ele>18</ele>
        <time>2021-04-03T14:48:35Z</time>
      </trkpt>
      <trkpt lat="49.3175" lon="0.99548">
        <ele>19.4</ele>
        <time>2021-04-03T14:48:42Z</time>
      </trkpt>
      <trkpt lat="49.31746" lon="0.99554">
        <ele>20.2</ele>
        <time>2021-04-03T14:48:44Z</time>
      </trkpt>
      <trkpt lat="49.31741" lon="0.99561">
        <ele>20.4</ele>
        <time>2021-04-03T14:48:46Z</time>
      </trkpt>
      <trkpt lat="49.3173" lon="0.99583">
        <ele>21.4</ele>
        <time>2021-04-03T14:48:52Z</time>
      </trkpt>
      <trkpt lat="49.31723" lon="0.99605">
        <ele>22.8</ele>
        <time>2021-04-03T14:48:58Z</time>
      </trkpt>
      <trkpt lat="49.31722" lon="0.99612">
        <ele>23.2</ele>
        <time>2021-04-03T14:49:00Z</time>
      </trkpt>
      <trkpt lat="49.3172" lon="0.99618">
        <ele>24</ele>
        <time>2021-04-03T14:49:02Z</time>
      </trkpt>
      <trkpt lat="49.31719" lon="0.99628">
        <ele>25</ele>
        <time>2021-04-03T14:49:05Z</time>
      </trkpt>
      <trkpt lat="49.31717" lon="0.99639">
        <ele>26.4</ele>
        <time>2021-04-03T14:49:09Z</time>
      </trkpt>
      <trkpt lat="49.31717" lon="0.99641">
        <ele>26.6</ele>
        <time>2021-04-03T14:49:10Z</time>
      </trkpt>
      <trkpt lat="49.31718" lon="0.99643">
        <ele>27</ele>
        <time>2021-04-03T14:49:11Z</time>
      </trkpt>
      <trkpt lat="49.31719" lon="0.99645">
        <ele>28</ele>
        <time>2021-04-03T14:49:12Z</time>
      </trkpt>
      <trkpt lat="49.31723" lon="0.99646">
        <ele>29</ele>
        <time>2021-04-03T14:49:15Z</time>
      </trkpt>
      <trkpt lat="49.31726" lon="0.99646">
        <ele>29.4</ele>
        <time>2021-04-03T14:49:16Z</time>
      </trkpt>
      <trkpt lat="49.3173" lon="0.99647">
        <ele>30.2</ele>
        <time>2021-04-03T14:49:18Z</time>
      </trkpt>
      <trkpt lat="49.31731" lon="0.99651">
        <ele>30.6</ele>
        <time>2021-04-03T14:49:20Z</time>
      </trkpt>
      <trkpt lat="49.31734" lon="0.9966">
        <ele>31.4</ele>
        <time>2021-04-03T14:49:23Z</time>
      </trkpt>
      <trkpt lat="49.31736" lon="0.99663">
        <ele>31.6</ele>
        <time>2021-04-03T14:49:24Z</time>
      </trkpt>
      <trkpt lat="49.31739" lon="0.99666">
        <ele>32.4</ele>
        <time>2021-04-03T14:49:26Z</time>
      </trkpt>
      <trkpt lat="49.31741" lon="0.99667">
        <ele>32.8</ele>
        <time>2021-04-03T14:49:27Z</time>
      </trkpt>
      <trkpt lat="49.31743" lon="0.99665">
        <ele>33.6</ele>
        <time>2021-04-03T14:49:29Z</time>
      </trkpt>
      <trkpt lat="49.31745" lon="0.99663">
        <ele>34.2</ele>
        <time>2021-04-03T14:49:30Z</time>
      </trkpt>
      <trkpt lat="49.31748" lon="0.99658">
        <ele>35.2</ele>
        <time>2021-04-03T14:49:32Z</time>
      </trkpt>
      <trkpt lat="49.31749" lon="0.99654">
        <ele>35.8</ele>
        <time>2021-04-03T14:49:33Z</time>
      </trkpt>
      <trkpt lat="49.31751" lon="0.99651">
        <ele>36.4</ele>
        <time>2021-04-03T14:49:34Z</time>
      </trkpt>
      <trkpt lat="49.31752" lon="0.99648">
        <ele>36.8</ele>
        <time>2021-04-03T14:49:35Z</time>
      </trkpt>
      <trkpt lat="49.31755" lon="0.99643">
        <ele>37.6</ele>
        <time>2021-04-03T14:49:37Z</time>
      </trkpt>
      <trkpt lat="49.31758" lon="0.99638">
        <ele>38.8</ele>
        <time>2021-04-03T14:49:39Z</time>
      </trkpt>
      <trkpt lat="49.31765" lon="0.9963">
        <ele>40</ele>
        <time>2021-04-03T14:49:42Z</time>
      </trkpt>
      <trkpt lat="49.3177" lon="0.9962">
        <ele>41.2</ele>
        <time>2021-04-03T14:49:45Z</time>
      </trkpt>
      <trkpt lat="49.31775" lon="0.99614">
        <ele>41.8</ele>
        <time>2021-04-03T14:49:48Z</time>
      </trkpt>
      <trkpt lat="49.31777" lon="0.99608">
        <ele>42.2</ele>
        <time>2021-04-03T14:49:50Z</time>
      </trkpt>
      <trkpt lat="49.31785" lon="0.99594">
        <ele>42.6</ele>
        <time>2021-04-03T14:49:54Z</time>
      </trkpt>
      <trkpt lat="49.318" lon="0.99573">
        <ele>43</ele>
        <time>2021-04-03T14:50:00Z</time>
      </trkpt>
      <trkpt lat="49.31812" lon="0.99551">
        <ele>43</ele>
        <time>2021-04-03T14:50:05Z</time>
      </trkpt>
      <trkpt lat="49.31823" lon="0.99535">
        <ele>42.6</ele>
        <time>2021-04-03T14:50:10Z</time>
      </trkpt>
      <trkpt lat="49.31826" lon="0.99531">
        <ele>42.6</ele>
        <time>2021-04-03T14:50:12Z</time>
      </trkpt>
      <trkpt lat="49.31832" lon="0.99523">
        <ele>42.6</ele>
        <time>2021-04-03T14:50:16Z</time>
      </trkpt>
      <trkpt lat="49.31846" lon="0.99501">
        <ele>42.4</ele>
        <time>2021-04-03T14:50:22Z</time>
      </trkpt>
      <trkpt lat="49.31861" lon="0.99493">
        <ele>42.4</ele>
        <time>2021-04-03T14:50:26Z</time>
      </trkpt>
      <trkpt lat="49.31866" lon="0.99495">
        <ele>42.4</ele>
        <time>2021-04-03T14:50:27Z</time>
      </trkpt>
      <trkpt lat="49.31882" lon="0.99503">
        <ele>42</ele>
        <time>2021-04-03T14:50:31Z</time>
      </trkpt>
      <trkpt lat="49.31886" lon="0.99506">
        <ele>42</ele>
        <time>2021-04-03T14:50:32Z</time>
      </trkpt>
      <trkpt lat="49.31905" lon="0.99516">
        <ele>42</ele>
        <time>2021-04-03T14:50:37Z</time>
      </trkpt>
      <trkpt lat="49.31918" lon="0.99526">
        <ele>43.6</ele>
        <time>2021-04-03T14:50:41Z</time>
      </trkpt>
      <trkpt lat="49.31921" lon="0.9953">
        <ele>43.8</ele>
        <time>2021-04-03T14:50:42Z</time>
      </trkpt>
      <trkpt lat="49.31932" lon="0.99549">
        <ele>44.8</ele>
        <time>2021-04-03T14:50:46Z</time>
      </trkpt>
      <trkpt lat="49.31937" lon="0.99559">
        <ele>45.8</ele>
        <time>2021-04-03T14:50:49Z</time>
      </trkpt>
      <trkpt lat="49.31942" lon="0.99567">
        <ele>47</ele>
        <time>2021-04-03T14:50:51Z</time>
      </trkpt>
      <trkpt lat="49.31948" lon="0.99574">
        <ele>48.2</ele>
        <time>2021-04-03T14:50:53Z</time>
      </trkpt>
      <trkpt lat="49.31951" lon="0.99578">
        <ele>48.6</ele>
        <time>2021-04-03T14:50:54Z</time>
      </trkpt>
      <trkpt lat="49.31955" lon="0.99581">
        <ele>49.4</ele>
        <time>2021-04-03T14:50:55Z</time>
      </trkpt>
      <trkpt lat="49.31971" lon="0.99592">
        <ele>50.6</ele>
        <time>2021-04-03T14:50:58Z</time>
      </trkpt>
      <trkpt lat="49.31981" lon="0.99598">
        <ele>51.6</ele>
        <time>2021-04-03T14:51:00Z</time>
      </trkpt>
      <trkpt lat="49.31989" lon="0.99604">
        <ele>53</ele>
        <time>2021-04-03T14:51:02Z</time>
      </trkpt>
      <trkpt lat="49.31999" lon="0.99611">
        <ele>54</ele>
        <time>2021-04-03T14:51:05Z</time>
      </trkpt>
      <trkpt lat="49.32002" lon="0.99614">
        <ele>54.4</ele>
        <time>2021-04-03T14:51:06Z</time>
      </trkpt>
      <trkpt lat="49.32012" lon="0.99622">
        <ele>55</ele>
        <time>2021-04-03T14:51:09Z</time>
      </trkpt>
      <trkpt lat="49.32022" lon="0.99628">
        <ele>56</ele>
        <time>2021-04-03T14:51:12Z</time>
      </trkpt>
      <trkpt lat="49.32026" lon="0.9963">
        <ele>56.4</ele>
        <time>2021-04-03T14:51:13Z</time>
      </trkpt>
      <trkpt lat="49.32047" lon="0.99641">
        <ele>57.6</ele>
        <time>2021-04-03T14:51:19Z</time>
      </trkpt>
      <trkpt lat="49.32063" lon="0.99649">
        <ele>58.4</ele>
        <time>2021-04-03T14:51:24Z</time>
      </trkpt>
      <trkpt lat="49.32067" lon="0.99652">
        <ele>58.6</ele>
        <time>2021-04-03T14:51:25Z</time>
      </trkpt>
      <trkpt lat="49.3208" lon="0.99662">
        <ele>59.8</ele>
        <time>2021-04-03T14:51:30Z</time>
      </trkpt>
      <trkpt lat="49.32094" lon="0.99672">
        <ele>60.6</ele>
        <time>2021-04-03T14:51:35Z</time>
      </trkpt>
      <trkpt lat="49.32103" lon="0.99675">
        <ele>61</ele>
        <time>2021-04-03T14:51:38Z</time>
      </trkpt>
      <trkpt lat="49.32105" lon="0.99675">
        <ele>61</ele>
        <time>2021-04-03T14:51:39Z</time>
      </trkpt>
      <trkpt lat="49.3212" lon="0.99681">
        <ele>61.6</ele>
        <time>2021-04-03T14:51:44Z</time>
      </trkpt>
      <trkpt lat="49.32125" lon="0.99683">
        <ele>62.2</ele>
        <time>2021-04-03T14:51:46Z</time>
      </trkpt>
      <trkpt lat="49.32134" lon="0.99687">
        <ele>63</ele>
        <time>2021-04-03T14:51:49Z</time>
      </trkpt>
      <trkpt lat="49.32136" lon="0.99688">
        <ele>63.6</ele>
        <time>2021-04-03T14:51:50Z</time>
      </trkpt>
      <trkpt lat="49.32139" lon="0.99689">
        <ele>65.2</ele>
        <time>2021-04-03T14:51:52Z</time>
      </trkpt>
      <trkpt lat="49.32143" lon="0.99691">
        <ele>66.4</ele>
        <time>2021-04-03T14:51:54Z</time>
      </trkpt>
      <trkpt lat="49.32145" lon="0.99692">
        <ele>67</ele>
        <time>2021-04-03T14:51:55Z</time>
      </trkpt>
      <trkpt lat="49.32149" lon="0.99695">
        <ele>67.6</ele>
        <time>2021-04-03T14:51:57Z</time>
      </trkpt>
      <trkpt lat="49.32155" lon="0.99696">
        <ele>68.8</ele>
        <time>2021-04-03T14:51:59Z</time>
      </trkpt>
      <trkpt lat="49.32163" lon="0.99699">
        <ele>69</ele>
        <time>2021-04-03T14:52:01Z</time>
      </trkpt>
      <trkpt lat="49.32186" lon="0.99709">
        <ele>69.6</ele>
        <time>2021-04-03T14:52:07Z</time>
      </trkpt>
      <trkpt lat="49.32202" lon="0.99718">
        <ele>69.8</ele>
        <time>2021-04-03T14:52:11Z</time>
      </trkpt>
      <trkpt lat="49.3221" lon="0.99725">
        <ele>70</ele>
        <time>2021-04-03T14:52:14Z</time>
      </trkpt>
      <trkpt lat="49.32225" lon="0.99742">
        <ele>70.4</ele>
        <time>2021-04-03T14:52:19Z</time>
      </trkpt>
      <trkpt lat="49.32237" lon="0.99756">
        <ele>71</ele>
        <time>2021-04-03T14:52:24Z</time>
      </trkpt>
      <trkpt lat="49.32239" lon="0.99759">
        <ele>71.2</ele>
        <time>2021-04-03T14:52:25Z</time>
      </trkpt>
      <trkpt lat="49.32244" lon="0.99765">
        <ele>72.2</ele>
        <time>2021-04-03T14:52:27Z</time>
      </trkpt>
      <trkpt lat="49.32253" lon="0.99775">
        <ele>73.4</ele>
        <time>2021-04-03T14:52:30Z</time>
      </trkpt>
      <trkpt lat="49.32256" lon="0.99778">
        <ele>74</ele>
        <time>2021-04-03T14:52:31Z</time>
      </trkpt>
      <trkpt lat="49.32258" lon="0.99782">
        <ele>74.4</ele>
        <time>2021-04-03T14:52:32Z</time>
      </trkpt>
      <trkpt lat="49.32264" lon="0.99794">
        <ele>76</ele>
        <time>2021-04-03T14:52:35Z</time>
      </trkpt>
      <trkpt lat="49.32266" lon="0.99798">
        <ele>76.4</ele>
        <time>2021-04-03T14:52:36Z</time>
      </trkpt>
      <trkpt lat="49.32269" lon="0.99806">
        <ele>77</ele>
        <time>2021-04-03T14:52:38Z</time>
      </trkpt>
      <trkpt lat="49.32274" lon="0.99823">
        <ele>78.2</ele>
        <time>2021-04-03T14:52:42Z</time>
      </trkpt>
      <trkpt lat="49.32279" lon="0.99836">
        <ele>79.4</ele>
        <time>2021-04-03T14:52:45Z</time>
      </trkpt>
      <trkpt lat="49.32282" lon="0.99849">
        <ele>80.8</ele>
        <time>2021-04-03T14:52:48Z</time>
      </trkpt>
      <trkpt lat="49.32283" lon="0.99864">
        <ele>81.8</ele>
        <time>2021-04-03T14:52:52Z</time>
      </trkpt>
      <trkpt lat="49.32283" lon="0.99867">
        <ele>82</ele>
        <time>2021-04-03T14:52:53Z</time>
      </trkpt>
      <trkpt lat="49.32286" lon="0.99877">
        <ele>83.2</ele>
        <time>2021-04-03T14:52:56Z</time>
      </trkpt>
      <trkpt lat="49.32288" lon="0.99885">
        <ele>84</ele>
        <time>2021-04-03T14:52:58Z</time>
      </trkpt>
      <trkpt lat="49.32287" lon="0.99896">
        <ele>85.4</ele>
        <time>2021-04-03T14:53:01Z</time>
      </trkpt>
      <trkpt lat="49.32289" lon="0.99906">
        <ele>86.6</ele>
        <time>2021-04-03T14:53:04Z</time>
      </trkpt>
      <trkpt lat="49.32289" lon="0.9991">
        <ele>86.8</ele>
        <time>2021-04-03T14:53:05Z</time>
      </trkpt>
      <trkpt lat="49.3229" lon="0.99919">
        <ele>87.8</ele>
        <time>2021-04-03T14:53:08Z</time>
      </trkpt>
      <trkpt lat="49.32292" lon="0.99926">
        <ele>89</ele>
        <time>2021-04-03T14:53:11Z</time>
      </trkpt>
      <trkpt lat="49.32292" lon="0.99927">
        <ele>89.4</ele>
        <time>2021-04-03T14:53:12Z</time>
      </trkpt>
      <trkpt lat="49.32306" lon="0.99982">
        <ele>92.6</ele>
        <time>2021-04-03T14:58:05Z</time>
      </trkpt>
      <trkpt lat="49.32309" lon="0.99988">
        <ele>92.6</ele>
        <time>2021-04-03T14:58:07Z</time>
      </trkpt>
      <trkpt lat="49.32323" lon="1.00007">
        <ele>92.6</ele>
        <time>2021-04-03T14:58:14Z</time>
      </trkpt>
      <trkpt lat="49.32336" lon="1.00027">
        <ele>92.6</ele>
        <time>2021-04-03T14:58:19Z</time>
      </trkpt>
      <trkpt lat="49.32348" lon="1.0005">
        <ele>92.8</ele>
        <time>2021-04-03T14:58:25Z</time>
      </trkpt>
      <trkpt lat="49.3235" lon="1.00066">
        <ele>93.2</ele>
        <time>2021-04-03T14:58:29Z</time>
      </trkpt>
      <trkpt lat="49.32352" lon="1.00091">
        <ele>93.6</ele>
        <time>2021-04-03T14:58:35Z</time>
      </trkpt>
      <trkpt lat="49.32352" lon="1.00095">
        <ele>94</ele>
        <time>2021-04-03T14:58:36Z</time>
      </trkpt>
      <trkpt lat="49.32352" lon="1.00105">
        <ele>94.8</ele>
        <time>2021-04-03T14:58:39Z</time>
      </trkpt>
      <trkpt lat="49.32353" lon="1.00112">
        <ele>95.4</ele>
        <time>2021-04-03T14:58:41Z</time>
      </trkpt>
      <trkpt lat="49.32353" lon="1.00115">
        <ele>95.8</ele>
        <time>2021-04-03T14:58:42Z</time>
      </trkpt>
      <trkpt lat="49.32353" lon="1.00118">
        <ele>96.2</ele>
        <time>2021-04-03T14:58:43Z</time>
      </trkpt>
      <trkpt lat="49.32354" lon="1.00122">
        <ele>97</ele>
        <time>2021-04-03T14:58:45Z</time>
      </trkpt>
      <trkpt lat="49.32354" lon="1.00125">
        <ele>97.4</ele>
        <time>2021-04-03T14:58:46Z</time>
      </trkpt>
      <trkpt lat="49.32359" lon="1.00133">
        <ele>98.2</ele>
        <time>2021-04-03T14:58:50Z</time>
      </trkpt>
      <trkpt lat="49.3236" lon="1.00135">
        <ele>98.6</ele>
        <time>2021-04-03T14:58:52Z</time>
      </trkpt>
      <trkpt lat="49.32362" lon="1.00141">
        <ele>98.6</ele>
        <time>2021-04-03T14:58:54Z</time>
      </trkpt>
      <trkpt lat="49.32363" lon="1.00149">
        <ele>98.6</ele>
        <time>2021-04-03T14:58:56Z</time>
      </trkpt>
      <trkpt lat="49.32365" lon="1.00167">
        <ele>98.6</ele>
        <time>2021-04-03T14:59:01Z</time>
      </trkpt>
      <trkpt lat="49.32366" lon="1.00169">
        <ele>98.6</ele>
        <time>2021-04-03T14:59:02Z</time>
      </trkpt>
      <trkpt lat="49.3237" lon="1.0018">
        <ele>98.6</ele>
        <time>2021-04-03T14:59:08Z</time>
      </trkpt>
      <trkpt lat="49.32375" lon="1.00182">
        <ele>98.4</ele>
        <time>2021-04-03T14:59:12Z</time>
      </trkpt>
      <trkpt lat="49.32382" lon="1.00184">
        <ele>98.4</ele>
        <time>2021-04-03T14:59:15Z</time>
      </trkpt>
      <trkpt lat="49.3239" lon="1.00186">
        <ele>98.4</ele>
        <time>2021-04-03T14:59:19Z</time>
      </trkpt>
      <trkpt lat="49.32394" lon="1.0019">
        <ele>96.6</ele>
        <time>2021-04-03T14:59:22Z</time>
      </trkpt>
      <trkpt lat="49.32398" lon="1.00194">
        <ele>94.8</ele>
        <time>2021-04-03T14:59:24Z</time>
      </trkpt>
      <trkpt lat="49.32399" lon="1.00196">
        <ele>93.6</ele>
        <time>2021-04-03T14:59:25Z</time>
      </trkpt>
      <trkpt lat="49.324" lon="1.00199">
        <ele>92.6</ele>
        <time>2021-04-03T14:59:26Z</time>
      </trkpt>
      <trkpt lat="49.32403" lon="1.00211">
        <ele>91.8</ele>
        <time>2021-04-03T14:59:31Z</time>
      </trkpt>
      <trkpt lat="49.32404" lon="1.00214">
        <ele>91.6</ele>
        <time>2021-04-03T14:59:32Z</time>
      </trkpt>
      <trkpt lat="49.32406" lon="1.0022">
        <ele>91.4</ele>
        <time>2021-04-03T14:59:34Z</time>
      </trkpt>
      <trkpt lat="49.32409" lon="1.00232">
        <ele>90.6</ele>
        <time>2021-04-03T14:59:37Z</time>
      </trkpt>
      <trkpt lat="49.32415" lon="1.00253">
        <ele>89</ele>
        <time>2021-04-03T14:59:41Z</time>
      </trkpt>
      <trkpt lat="49.32417" lon="1.00259">
        <ele>88.2</ele>
        <time>2021-04-03T14:59:42Z</time>
      </trkpt>
      <trkpt lat="49.32419" lon="1.00268">
        <ele>87.2</ele>
        <time>2021-04-03T14:59:43Z</time>
      </trkpt>
      <trkpt lat="49.32422" lon="1.00279">
        <ele>86.4</ele>
        <time>2021-04-03T14:59:44Z</time>
      </trkpt>
      <trkpt lat="49.32425" lon="1.0029">
        <ele>85.6</ele>
        <time>2021-04-03T14:59:45Z</time>
      </trkpt>
      <trkpt lat="49.32429" lon="1.00302">
        <ele>84.6</ele>
        <time>2021-04-03T14:59:46Z</time>
      </trkpt>
      <trkpt lat="49.32432" lon="1.00315">
        <ele>82.8</ele>
        <time>2021-04-03T14:59:47Z</time>
      </trkpt>
      <trkpt lat="49.32436" lon="1.00327">
        <ele>81</ele>
        <time>2021-04-03T14:59:48Z</time>
      </trkpt>
      <trkpt lat="49.3244" lon="1.0034">
        <ele>79.2</ele>
        <time>2021-04-03T14:59:49Z</time>
      </trkpt>
      <trkpt lat="49.32444" lon="1.0035">
        <ele>77.8</ele>
        <time>2021-04-03T14:59:50Z</time>
      </trkpt>
      <trkpt lat="49.32446" lon="1.00358">
        <ele>76.4</ele>
        <time>2021-04-03T14:59:51Z</time>
      </trkpt>
      <trkpt lat="49.32449" lon="1.00366">
        <ele>74.6</ele>
        <time>2021-04-03T14:59:52Z</time>
      </trkpt>
      <trkpt lat="49.3245" lon="1.00371">
        <ele>71.4</ele>
        <time>2021-04-03T14:59:53Z</time>
      </trkpt>
      <trkpt lat="49.32452" lon="1.00377">
        <ele>70</ele>
        <time>2021-04-03T14:59:54Z</time>
      </trkpt>
      <trkpt lat="49.32458" lon="1.00388">
        <ele>68.8</ele>
        <time>2021-04-03T14:59:56Z</time>
      </trkpt>
      <trkpt lat="49.32471" lon="1.00423">
        <ele>67.8</ele>
        <time>2021-04-03T15:00:02Z</time>
      </trkpt>
      <trkpt lat="49.32474" lon="1.00436">
        <ele>67.8</ele>
        <time>2021-04-03T15:00:06Z</time>
      </trkpt>
      <trkpt lat="49.3248" lon="1.0046">
        <ele>68.4</ele>
        <time>2021-04-03T15:00:14Z</time>
      </trkpt>
      <trkpt lat="49.32482" lon="1.00467">
        <ele>68.8</ele>
        <time>2021-04-03T15:00:16Z</time>
      </trkpt>
      <trkpt lat="49.32485" lon="1.00475">
        <ele>70</ele>
        <time>2021-04-03T15:00:19Z</time>
      </trkpt>
      <trkpt lat="49.32487" lon="1.00479">
        <ele>71.2</ele>
        <time>2021-04-03T15:00:21Z</time>
      </trkpt>
      <trkpt lat="49.32488" lon="1.00482">
        <ele>72.4</ele>
        <time>2021-04-03T15:00:23Z</time>
      </trkpt>
      <trkpt lat="49.32489" lon="1.00482">
        <ele>73.2</ele>
        <time>2021-04-03T15:00:24Z</time>
      </trkpt>
      <trkpt lat="49.32496" lon="1.00502">
        <ele>79.2</ele>
        <time>2021-04-03T15:00:40Z</time>
      </trkpt>
      <trkpt lat="49.32497" lon="1.00503">
        <ele>79.2</ele>
        <time>2021-04-03T15:00:41Z</time>
      </trkpt>
      <trkpt lat="49.32506" lon="1.00497">
        <ele>79.6</ele>
        <time>2021-04-03T15:00:47Z</time>
      </trkpt>
      <trkpt lat="49.32509" lon="1.00493">
        <ele>81</ele>
        <time>2021-04-03T15:00:49Z</time>
      </trkpt>
      <trkpt lat="49.32511" lon="1.00491">
        <ele>82.2</ele>
        <time>2021-04-03T15:00:51Z</time>
      </trkpt>
      <trkpt lat="49.32512" lon="1.0049">
        <ele>82.6</ele>
        <time>2021-04-03T15:00:52Z</time>
      </trkpt>
      <trkpt lat="49.32521" lon="1.00481">
        <ele>83.4</ele>
        <time>2021-04-03T15:00:57Z</time>
      </trkpt>
      <trkpt lat="49.32524" lon="1.00478">
        <ele>83.6</ele>
        <time>2021-04-03T15:00:58Z</time>
      </trkpt>
      <trkpt lat="49.3253" lon="1.00471">
        <ele>84.4</ele>
        <time>2021-04-03T15:01:01Z</time>
      </trkpt>
      <trkpt lat="49.32536" lon="1.00465">
        <ele>85.4</ele>
        <time>2021-04-03T15:01:04Z</time>
      </trkpt>
      <trkpt lat="49.32538" lon="1.00463">
        <ele>85.8</ele>
        <time>2021-04-03T15:01:05Z</time>
      </trkpt>
      <trkpt lat="49.32547" lon="1.00449">
        <ele>86.2</ele>
        <time>2021-04-03T15:01:11Z</time>
      </trkpt>
      <trkpt lat="49.32551" lon="1.00437">
        <ele>86.6</ele>
        <time>2021-04-03T15:01:14Z</time>
      </trkpt>
      <trkpt lat="49.32554" lon="1.00429">
        <ele>86.8</ele>
        <time>2021-04-03T15:01:16Z</time>
      </trkpt>
      <trkpt lat="49.32558" lon="1.00421">
        <ele>87.8</ele>
        <time>2021-04-03T15:01:18Z</time>
      </trkpt>
      <trkpt lat="49.32564" lon="1.00404">
        <ele>88.4</ele>
        <time>2021-04-03T15:01:21Z</time>
      </trkpt>
      <trkpt lat="49.32579" lon="1.00385">
        <ele>88.8</ele>
        <time>2021-04-03T15:01:26Z</time>
      </trkpt>
      <trkpt lat="49.32581" lon="1.00382">
        <ele>89</ele>
        <time>2021-04-03T15:01:27Z</time>
      </trkpt>
      <trkpt lat="49.3259" lon="1.00366">
        <ele>89.4</ele>
        <time>2021-04-03T15:01:31Z</time>
      </trkpt>
      <trkpt lat="49.32594" lon="1.00363">
        <ele>90</ele>
        <time>2021-04-03T15:01:33Z</time>
      </trkpt>
      <trkpt lat="49.326" lon="1.00362">
        <ele>90.8</ele>
        <time>2021-04-03T15:01:35Z</time>
      </trkpt>
      <trkpt lat="49.32604" lon="1.00363">
        <ele>91.2</ele>
        <time>2021-04-03T15:01:36Z</time>
      </trkpt>
      <trkpt lat="49.32611" lon="1.00366">
        <ele>92.2</ele>
        <time>2021-04-03T15:01:39Z</time>
      </trkpt>
      <trkpt lat="49.32616" lon="1.00371">
        <ele>93.8</ele>
        <time>2021-04-03T15:01:42Z</time>
      </trkpt>
      <trkpt lat="49.32621" lon="1.00382">
        <ele>95.6</ele>
        <time>2021-04-03T15:01:45Z</time>
      </trkpt>
      <trkpt lat="49.32629" lon="1.0039">
        <ele>96.2</ele>
        <time>2021-04-03T15:01:49Z</time>
      </trkpt>
      <trkpt lat="49.32635" lon="1.0039">
        <ele>96.6</ele>
        <time>2021-04-03T15:01:51Z</time>
      </trkpt>
      <trkpt lat="49.32644" lon="1.00389">
        <ele>96.8</ele>
        <time>2021-04-03T15:01:53Z</time>
      </trkpt>
      <trkpt lat="49.3266" lon="1.00391">
        <ele>97</ele>
        <time>2021-04-03T15:01:58Z</time>
      </trkpt>
      <trkpt lat="49.3267" lon="1.00392">
        <ele>97</ele>
        <time>2021-04-03T15:02:01Z</time>
      </trkpt>
      <trkpt lat="49.32676" lon="1.00387">
        <ele>96.8</ele>
        <time>2021-04-03T15:02:03Z</time>
      </trkpt>
      <trkpt lat="49.32687" lon="1.00385">
        <ele>96.4</ele>
        <time>2021-04-03T15:02:05Z</time>
      </trkpt>
      <trkpt lat="49.32698" lon="1.0038">
        <ele>95.8</ele>
        <time>2021-04-03T15:02:08Z</time>
      </trkpt>
      <trkpt lat="49.32718" lon="1.00379">
        <ele>96.4</ele>
        <time>2021-04-03T15:02:14Z</time>
      </trkpt>
      <trkpt lat="49.32728" lon="1.00378">
        <ele>97.4</ele>
        <time>2021-04-03T15:02:17Z</time>
      </trkpt>
      <trkpt lat="49.3274" lon="1.00375">
        <ele>98.8</ele>
        <time>2021-04-03T15:02:20Z</time>
      </trkpt>
      <trkpt lat="49.3276" lon="1.00377">
        <ele>100</ele>
        <time>2021-04-03T15:02:25Z</time>
      </trkpt>
      <trkpt lat="49.32774" lon="1.00374">
        <ele>100.2</ele>
        <time>2021-04-03T15:02:29Z</time>
      </trkpt>
      <trkpt lat="49.32795" lon="1.00378">
        <ele>100.6</ele>
        <time>2021-04-03T15:02:34Z</time>
      </trkpt>
      <trkpt lat="49.32804" lon="1.00385">
        <ele>101</ele>
        <time>2021-04-03T15:02:38Z</time>
      </trkpt>
      <trkpt lat="49.32807" lon="1.00385">
        <ele>101</ele>
        <time>2021-04-03T15:02:39Z</time>
      </trkpt>
      <trkpt lat="49.32817" lon="1.00389">
        <ele>102.4</ele>
        <time>2021-04-03T15:02:42Z</time>
      </trkpt>
      <trkpt lat="49.32827" lon="1.00396">
        <ele>103.6</ele>
        <time>2021-04-03T15:02:44Z</time>
      </trkpt>
      <trkpt lat="49.32835" lon="1.00407">
        <ele>104.6</ele>
        <time>2021-04-03T15:02:48Z</time>
      </trkpt>
      <trkpt lat="49.3284" lon="1.00415">
        <ele>104.8</ele>
        <time>2021-04-03T15:02:50Z</time>
      </trkpt>
      <trkpt lat="49.32845" lon="1.00432">
        <ele>105.8</ele>
        <time>2021-04-03T15:02:54Z</time>
      </trkpt>
      <trkpt lat="49.32849" lon="1.00443">
        <ele>106.6</ele>
        <time>2021-04-03T15:02:56Z</time>
      </trkpt>
      <trkpt lat="49.32851" lon="1.00448">
        <ele>106.8</ele>
        <time>2021-04-03T15:02:57Z</time>
      </trkpt>
      <trkpt lat="49.32857" lon="1.00459">
        <ele>108.2</ele>
        <time>2021-04-03T15:03:00Z</time>
      </trkpt>
      <trkpt lat="49.32859" lon="1.00462">
        <ele>108.6</ele>
        <time>2021-04-03T15:03:01Z</time>
      </trkpt>
      <trkpt lat="49.32863" lon="1.00469">
        <ele>109.4</ele>
        <time>2021-04-03T15:03:03Z</time>
      </trkpt>
      <trkpt lat="49.32868" lon="1.00482">
        <ele>109.8</ele>
        <time>2021-04-03T15:03:07Z</time>
      </trkpt>
      <trkpt lat="49.32869" lon="1.00489">
        <ele>110.6</ele>
        <time>2021-04-03T15:03:09Z</time>
      </trkpt>
      <trkpt lat="49.32868" lon="1.00507">
        <ele>111.6</ele>
        <time>2021-04-03T15:03:13Z</time>
      </trkpt>
      <trkpt lat="49.32871" lon="1.00513">
        <ele>111.8</ele>
        <time>2021-04-03T15:03:14Z</time>
      </trkpt>
      <trkpt lat="49.32873" lon="1.00531">
        <ele>113</ele>
        <time>2021-04-03T15:03:18Z</time>
      </trkpt>
      <trkpt lat="49.32873" lon="1.00538">
        <ele>113.6</ele>
        <time>2021-04-03T15:03:20Z</time>
      </trkpt>
      <trkpt lat="49.32873" lon="1.00545">
        <ele>114.4</ele>
        <time>2021-04-03T15:03:22Z</time>
      </trkpt>
      <trkpt lat="49.32874" lon="1.00556">
        <ele>115.4</ele>
        <time>2021-04-03T15:03:25Z</time>
      </trkpt>
      <trkpt lat="49.32877" lon="1.00565">
        <ele>116</ele>
        <time>2021-04-03T15:03:27Z</time>
      </trkpt>
      <trkpt lat="49.32881" lon="1.00574">
        <ele>116.8</ele>
        <time>2021-04-03T15:03:29Z</time>
      </trkpt>
      <trkpt lat="49.32887" lon="1.00586">
        <ele>118.2</ele>
        <time>2021-04-03T15:03:32Z</time>
      </trkpt>
      <trkpt lat="49.32889" lon="1.00589">
        <ele>118.6</ele>
        <time>2021-04-03T15:03:33Z</time>
      </trkpt>
      <trkpt lat="49.32895" lon="1.00606">
        <ele>119.4</ele>
        <time>2021-04-03T15:03:37Z</time>
      </trkpt>
      <trkpt lat="49.32898" lon="1.00615">
        <ele>119.4</ele>
        <time>2021-04-03T15:03:39Z</time>
      </trkpt>
      <trkpt lat="49.32903" lon="1.00638">
        <ele>120</ele>
        <time>2021-04-03T15:03:45Z</time>
      </trkpt>
      <trkpt lat="49.32911" lon="1.00654">
        <ele>120.4</ele>
        <time>2021-04-03T15:03:51Z</time>
      </trkpt>
      <trkpt lat="49.32924" lon="1.00666">
        <ele>120.4</ele>
        <time>2021-04-03T15:03:56Z</time>
      </trkpt>
      <trkpt lat="49.32927" lon="1.00685">
        <ele>120.6</ele>
        <time>2021-04-03T15:04:00Z</time>
      </trkpt>
      <trkpt lat="49.32934" lon="1.0071">
        <ele>120.6</ele>
        <time>2021-04-03T15:04:05Z</time>
      </trkpt>
      <trkpt lat="49.32949" lon="1.00728">
        <ele>121.4</ele>
        <time>2021-04-03T15:04:10Z</time>
      </trkpt>
      <trkpt lat="49.32954" lon="1.0073">
        <ele>121.6</ele>
        <time>2021-04-03T15:04:11Z</time>
      </trkpt>
      <trkpt lat="49.32966" lon="1.00735">
        <ele>121.6</ele>
        <time>2021-04-03T15:04:13Z</time>
      </trkpt>
      <trkpt lat="49.32973" lon="1.0074">
        <ele>121.6</ele>
        <time>2021-04-03T15:04:14Z</time>
      </trkpt>
      <trkpt lat="49.32982" lon="1.00748">
        <ele>121.6</ele>
        <time>2021-04-03T15:04:16Z</time>
      </trkpt>
      <trkpt lat="49.32992" lon="1.00763">
        <ele>121.6</ele>
        <time>2021-04-03T15:04:19Z</time>
      </trkpt>
      <trkpt lat="49.33" lon="1.00774">
        <ele>121.6</ele>
        <time>2021-04-03T15:04:21Z</time>
      </trkpt>
      <trkpt lat="49.33009" lon="1.00789">
        <ele>121.4</ele>
        <time>2021-04-03T15:04:24Z</time>
      </trkpt>
      <trkpt lat="49.33021" lon="1.00811">
        <ele>121.8</ele>
        <time>2021-04-03T15:04:28Z</time>
      </trkpt>
      <trkpt lat="49.3303" lon="1.00829">
        <ele>122.6</ele>
        <time>2021-04-03T15:04:31Z</time>
      </trkpt>
      <trkpt lat="49.33037" lon="1.00842">
        <ele>123.4</ele>
        <time>2021-04-03T15:04:33Z</time>
      </trkpt>
      <trkpt lat="49.3304" lon="1.0086">
        <ele>123.6</ele>
        <time>2021-04-03T15:04:36Z</time>
      </trkpt>
      <trkpt lat="49.33041" lon="1.00866">
        <ele>123.8</ele>
        <time>2021-04-03T15:04:37Z</time>
      </trkpt>
      <trkpt lat="49.33052" lon="1.00892">
        <ele>124.2</ele>
        <time>2021-04-03T15:04:41Z</time>
      </trkpt>
      <trkpt lat="49.33054" lon="1.00899">
        <ele>124.2</ele>
        <time>2021-04-03T15:04:42Z</time>
      </trkpt>
      <trkpt lat="49.3306" lon="1.00921">
        <ele>124.6</ele>
        <time>2021-04-03T15:04:45Z</time>
      </trkpt>
      <trkpt lat="49.33062" lon="1.00928">
        <ele>125</ele>
        <time>2021-04-03T15:04:46Z</time>
      </trkpt>
      <trkpt lat="49.33075" lon="1.00951">
        <ele>125.8</ele>
        <time>2021-04-03T15:04:51Z</time>
      </trkpt>
      <trkpt lat="49.33083" lon="1.00958">
        <ele>126</ele>
        <time>2021-04-03T15:04:53Z</time>
      </trkpt>
      <trkpt lat="49.33092" lon="1.00964">
        <ele>126</ele>
        <time>2021-04-03T15:04:55Z</time>
      </trkpt>
      <trkpt lat="49.33105" lon="1.0098">
        <ele>126.4</ele>
        <time>2021-04-03T15:04:59Z</time>
      </trkpt>
      <trkpt lat="49.33121" lon="1.00995">
        <ele>126.8</ele>
        <time>2021-04-03T15:05:04Z</time>
      </trkpt>
      <trkpt lat="49.33124" lon="1.00998">
        <ele>126.8</ele>
        <time>2021-04-03T15:05:05Z</time>
      </trkpt>
      <trkpt lat="49.33138" lon="1.01008">
        <ele>128</ele>
        <time>2021-04-03T15:05:10Z</time>
      </trkpt>
      <trkpt lat="49.33146" lon="1.01015">
        <ele>129.2</ele>
        <time>2021-04-03T15:05:13Z</time>
      </trkpt>
      <trkpt lat="49.33155" lon="1.01022">
        <ele>129.8</ele>
        <time>2021-04-03T15:05:16Z</time>
      </trkpt>
      <trkpt lat="49.33166" lon="1.01037">
        <ele>130.4</ele>
        <time>2021-04-03T15:05:20Z</time>
      </trkpt>
      <trkpt lat="49.33168" lon="1.01041">
        <ele>130.4</ele>
        <time>2021-04-03T15:05:21Z</time>
      </trkpt>
      <trkpt lat="49.33182" lon="1.01072">
        <ele>130.6</ele>
        <time>2021-04-03T15:05:27Z</time>
      </trkpt>
      <trkpt lat="49.33193" lon="1.01102">
        <ele>131.2</ele>
        <time>2021-04-03T15:05:32Z</time>
      </trkpt>
      <trkpt lat="49.33196" lon="1.01115">
        <ele>131.4</ele>
        <time>2021-04-03T15:05:34Z</time>
      </trkpt>
      <trkpt lat="49.33203" lon="1.01142">
        <ele>131.8</ele>
        <time>2021-04-03T15:05:38Z</time>
      </trkpt>
      <trkpt lat="49.33219" lon="1.01178">
        <ele>132.2</ele>
        <time>2021-04-03T15:05:44Z</time>
      </trkpt>
      <trkpt lat="49.33221" lon="1.01185">
        <ele>132.2</ele>
        <time>2021-04-03T15:05:45Z</time>
      </trkpt>
      <trkpt lat="49.33231" lon="1.01213">
        <ele>132.4</ele>
        <time>2021-04-03T15:05:49Z</time>
      </trkpt>
      <trkpt lat="49.33241" lon="1.0124">
        <ele>132.4</ele>
        <time>2021-04-03T15:05:53Z</time>
      </trkpt>
      <trkpt lat="49.33247" lon="1.01259">
        <ele>132.4</ele>
        <time>2021-04-03T15:05:56Z</time>
      </trkpt>
      <trkpt lat="49.33253" lon="1.01278">
        <ele>132.6</ele>
        <time>2021-04-03T15:05:59Z</time>
      </trkpt>
      <trkpt lat="49.33259" lon="1.01298">
        <ele>132.6</ele>
        <time>2021-04-03T15:06:02Z</time>
      </trkpt>
      <trkpt lat="49.33272" lon="1.0134">
        <ele>132.8</ele>
        <time>2021-04-03T15:06:09Z</time>
      </trkpt>
      <trkpt lat="49.33274" lon="1.01352">
        <ele>132.8</ele>
        <time>2021-04-03T15:06:11Z</time>
      </trkpt>
      <trkpt lat="49.33272" lon="1.01363">
        <ele>133</ele>
        <time>2021-04-03T15:06:13Z</time>
      </trkpt>
      <trkpt lat="49.33258" lon="1.01383">
        <ele>133.6</ele>
        <time>2021-04-03T15:06:18Z</time>
      </trkpt>
      <trkpt lat="49.33244" lon="1.01409">
        <ele>134</ele>
        <time>2021-04-03T15:06:23Z</time>
      </trkpt>
      <trkpt lat="49.33242" lon="1.01415">
        <ele>134.2</ele>
        <time>2021-04-03T15:06:24Z</time>
      </trkpt>
      <trkpt lat="49.33235" lon="1.01426">
        <ele>134.2</ele>
        <time>2021-04-03T15:06:26Z</time>
      </trkpt>
      <trkpt lat="49.33229" lon="1.01436">
        <ele>134.2</ele>
        <time>2021-04-03T15:06:28Z</time>
      </trkpt>
      <trkpt lat="49.33219" lon="1.01451">
        <ele>134.2</ele>
        <time>2021-04-03T15:06:31Z</time>
      </trkpt>
      <trkpt lat="49.33212" lon="1.01464">
        <ele>134.2</ele>
        <time>2021-04-03T15:06:33Z</time>
      </trkpt>
      <trkpt lat="49.33192" lon="1.01499">
        <ele>134.6</ele>
        <time>2021-04-03T15:06:39Z</time>
      </trkpt>
      <trkpt lat="49.3318" lon="1.01513">
        <ele>134.6</ele>
        <time>2021-04-03T15:06:43Z</time>
      </trkpt>
      <trkpt lat="49.33173" lon="1.01522">
        <ele>134.6</ele>
        <time>2021-04-03T15:06:45Z</time>
      </trkpt>
      <trkpt lat="49.33169" lon="1.01527">
        <ele>134.6</ele>
        <time>2021-04-03T15:06:46Z</time>
      </trkpt>
      <trkpt lat="49.33164" lon="1.0154">
        <ele>134.6</ele>
        <time>2021-04-03T15:06:48Z</time>
      </trkpt>
      <trkpt lat="49.33147" lon="1.01584">
        <ele>134.6</ele>
        <time>2021-04-03T15:06:54Z</time>
      </trkpt>
      <trkpt lat="49.33145" lon="1.01591">
        <ele>134.6</ele>
        <time>2021-04-03T15:06:55Z</time>
      </trkpt>
      <trkpt lat="49.33143" lon="1.01615">
        <ele>134.6</ele>
        <time>2021-04-03T15:06:58Z</time>
      </trkpt>
      <trkpt lat="49.33151" lon="1.01641">
        <ele>134.4</ele>
        <time>2021-04-03T15:07:02Z</time>
      </trkpt>
      <trkpt lat="49.33159" lon="1.01675">
        <ele>134.4</ele>
        <time>2021-04-03T15:07:07Z</time>
      </trkpt>
      <trkpt lat="49.33163" lon="1.01695">
        <ele>134.4</ele>
        <time>2021-04-03T15:07:10Z</time>
      </trkpt>
      <trkpt lat="49.33165" lon="1.01706">
        <ele>134.4</ele>
        <time>2021-04-03T15:07:12Z</time>
      </trkpt>
      <trkpt lat="49.3317" lon="1.01725">
        <ele>134.8</ele>
        <time>2021-04-03T15:07:15Z</time>
      </trkpt>
      <trkpt lat="49.33173" lon="1.01733">
        <ele>135</ele>
        <time>2021-04-03T15:07:16Z</time>
      </trkpt>
      <trkpt lat="49.33178" lon="1.01746">
        <ele>135</ele>
        <time>2021-04-03T15:07:18Z</time>
      </trkpt>
      <trkpt lat="49.33188" lon="1.01771">
        <ele>135.2</ele>
        <time>2021-04-03T15:07:22Z</time>
      </trkpt>
      <trkpt lat="49.3319" lon="1.01777">
        <ele>135.2</ele>
        <time>2021-04-03T15:07:23Z</time>
      </trkpt>
      <trkpt lat="49.33197" lon="1.01795">
        <ele>135.2</ele>
        <time>2021-04-03T15:07:26Z</time>
      </trkpt>
      <trkpt lat="49.33201" lon="1.01801">
        <ele>135.2</ele>
        <time>2021-04-03T15:07:27Z</time>
      </trkpt>
      <trkpt lat="49.33215" lon="1.01822">
        <ele>135.2</ele>
        <time>2021-04-03T15:07:31Z</time>
      </trkpt>
      <trkpt lat="49.33225" lon="1.01841">
        <ele>135</ele>
        <time>2021-04-03T15:07:34Z</time>
      </trkpt>
      <trkpt lat="49.33231" lon="1.01854">
        <ele>135</ele>
        <time>2021-04-03T15:07:36Z</time>
      </trkpt>
      <trkpt lat="49.33254" lon="1.01904">
        <ele>134.4</ele>
        <time>2021-04-03T15:07:43Z</time>
      </trkpt>
      <trkpt lat="49.33268" lon="1.01929">
        <ele>134</ele>
        <time>2021-04-03T15:07:47Z</time>
      </trkpt>
      <trkpt lat="49.3328" lon="1.01945">
        <ele>133.4</ele>
        <time>2021-04-03T15:07:50Z</time>
      </trkpt>
      <trkpt lat="49.33298" lon="1.01961">
        <ele>133.2</ele>
        <time>2021-04-03T15:07:54Z</time>
      </trkpt>
      <trkpt lat="49.33311" lon="1.01978">
        <ele>133</ele>
        <time>2021-04-03T15:07:57Z</time>
      </trkpt>
      <trkpt lat="49.33314" lon="1.01983">
        <ele>133</ele>
        <time>2021-04-03T15:07:58Z</time>
      </trkpt>
      <trkpt lat="49.33316" lon="1.01989">
        <ele>133</ele>
        <time>2021-04-03T15:07:59Z</time>
      </trkpt>
      <trkpt lat="49.33319" lon="1.01995">
        <ele>132.8</ele>
        <time>2021-04-03T15:08:00Z</time>
      </trkpt>
      <trkpt lat="49.33339" lon="1.02035">
        <ele>132.8</ele>
        <time>2021-04-03T15:08:06Z</time>
      </trkpt>
      <trkpt lat="49.3336" lon="1.02073">
        <ele>132.6</ele>
        <time>2021-04-03T15:08:12Z</time>
      </trkpt>
      <trkpt lat="49.33389" lon="1.0213">
        <ele>132.8</ele>
        <time>2021-04-03T15:08:21Z</time>
      </trkpt>
      <trkpt lat="49.33397" lon="1.02144">
        <ele>132.8</ele>
        <time>2021-04-03T15:08:23Z</time>
      </trkpt>
      <trkpt lat="49.33408" lon="1.02165">
        <ele>132.4</ele>
        <time>2021-04-03T15:08:26Z</time>
      </trkpt>
      <trkpt lat="49.33437" lon="1.0222">
        <ele>132</ele>
        <time>2021-04-03T15:08:34Z</time>
      </trkpt>
      <trkpt lat="49.33448" lon="1.02241">
        <ele>131.8</ele>
        <time>2021-04-03T15:08:37Z</time>
      </trkpt>
      <trkpt lat="49.33478" lon="1.02294">
        <ele>131</ele>
        <time>2021-04-03T15:08:45Z</time>
      </trkpt>
      <trkpt lat="49.33509" lon="1.0235">
        <ele>131</ele>
        <time>2021-04-03T15:08:54Z</time>
      </trkpt>
      <trkpt lat="49.33512" lon="1.02357">
        <ele>131</ele>
        <time>2021-04-03T15:08:55Z</time>
      </trkpt>
      <trkpt lat="49.33543" lon="1.02416">
        <ele>130.6</ele>
        <time>2021-04-03T15:09:04Z</time>
      </trkpt>
      <trkpt lat="49.33566" lon="1.02462">
        <ele>129.8</ele>
        <time>2021-04-03T15:09:11Z</time>
      </trkpt>
      <trkpt lat="49.33573" lon="1.02474">
        <ele>129.2</ele>
        <time>2021-04-03T15:09:13Z</time>
      </trkpt>
      <trkpt lat="49.33588" lon="1.02504">
        <ele>128.6</ele>
        <time>2021-04-03T15:09:18Z</time>
      </trkpt>
      <trkpt lat="49.33605" lon="1.02534">
        <ele>128.2</ele>
        <time>2021-04-03T15:09:23Z</time>
      </trkpt>
      <trkpt lat="49.33628" lon="1.02582">
        <ele>127.8</ele>
        <time>2021-04-03T15:09:31Z</time>
      </trkpt>
      <trkpt lat="49.3364" lon="1.02608">
        <ele>128.4</ele>
        <time>2021-04-03T15:09:36Z</time>
      </trkpt>
      <trkpt lat="49.33652" lon="1.02629">
        <ele>128.4</ele>
        <time>2021-04-03T15:09:41Z</time>
      </trkpt>
      <trkpt lat="49.33666" lon="1.02659">
        <ele>128.6</ele>
        <time>2021-04-03T15:09:47Z</time>
      </trkpt>
      <trkpt lat="49.33686" lon="1.02701">
        <ele>128.6</ele>
        <time>2021-04-03T15:09:54Z</time>
      </trkpt>
      <trkpt lat="49.33698" lon="1.02725">
        <ele>127.4</ele>
        <time>2021-04-03T15:09:58Z</time>
      </trkpt>
      <trkpt lat="49.3371" lon="1.02749">
        <ele>126.4</ele>
        <time>2021-04-03T15:10:02Z</time>
      </trkpt>
      <trkpt lat="49.33726" lon="1.02777">
        <ele>125.6</ele>
        <time>2021-04-03T15:10:07Z</time>
      </trkpt>
      <trkpt lat="49.33734" lon="1.02794">
        <ele>125.2</ele>
        <time>2021-04-03T15:10:10Z</time>
      </trkpt>
      <trkpt lat="49.33753" lon="1.02829">
        <ele>124.6</ele>
        <time>2021-04-03T15:10:16Z</time>
      </trkpt>
      <trkpt lat="49.33776" lon="1.02876">
        <ele>124.4</ele>
        <time>2021-04-03T15:10:23Z</time>
      </trkpt>
      <trkpt lat="49.33798" lon="1.02915">
        <ele>123.6</ele>
        <time>2021-04-03T15:10:29Z</time>
      </trkpt>
      <trkpt lat="49.33812" lon="1.0294">
        <ele>123.4</ele>
        <time>2021-04-03T15:10:33Z</time>
      </trkpt>
      <trkpt lat="49.33819" lon="1.02954">
        <ele>123.2</ele>
        <time>2021-04-03T15:10:35Z</time>
      </trkpt>
      <trkpt lat="49.33834" lon="1.02985">
        <ele>123</ele>
        <time>2021-04-03T15:10:40Z</time>
      </trkpt>
      <trkpt lat="49.33836" lon="1.02996">
        <ele>123.2</ele>
        <time>2021-04-03T15:10:42Z</time>
      </trkpt>
      <trkpt lat="49.33831" lon="1.03011">
        <ele>123.8</ele>
        <time>2021-04-03T15:10:46Z</time>
      </trkpt>
      <trkpt lat="49.33826" lon="1.03022">
        <ele>124</ele>
        <time>2021-04-03T15:10:48Z</time>
      </trkpt>
      <trkpt lat="49.33821" lon="1.03036">
        <ele>124</ele>
        <time>2021-04-03T15:10:50Z</time>
      </trkpt>
      <trkpt lat="49.33798" lon="1.03092">
        <ele>124</ele>
        <time>2021-04-03T15:10:57Z</time>
      </trkpt>
      <trkpt lat="49.33774" lon="1.03152">
        <ele>121.8</ele>
        <time>2021-04-03T15:11:04Z</time>
      </trkpt>
      <trkpt lat="49.33767" lon="1.03169">
        <ele>121.4</ele>
        <time>2021-04-03T15:11:06Z</time>
      </trkpt>
      <trkpt lat="49.33753" lon="1.03203">
        <ele>120.8</ele>
        <time>2021-04-03T15:11:10Z</time>
      </trkpt>
      <trkpt lat="49.33743" lon="1.03229">
        <ele>119.6</ele>
        <time>2021-04-03T15:11:13Z</time>
      </trkpt>
      <trkpt lat="49.33739" lon="1.03237">
        <ele>119.2</ele>
        <time>2021-04-03T15:11:14Z</time>
      </trkpt>
      <trkpt lat="49.33732" lon="1.03256">
        <ele>118.6</ele>
        <time>2021-04-03T15:11:16Z</time>
      </trkpt>
      <trkpt lat="49.33711" lon="1.03306">
        <ele>117.6</ele>
        <time>2021-04-03T15:11:22Z</time>
      </trkpt>
      <trkpt lat="49.33708" lon="1.03314">
        <ele>117.6</ele>
        <time>2021-04-03T15:11:23Z</time>
      </trkpt>
      <trkpt lat="49.33698" lon="1.03336">
        <ele>116.4</ele>
        <time>2021-04-03T15:11:26Z</time>
      </trkpt>
      <trkpt lat="49.33691" lon="1.03353">
        <ele>115.8</ele>
        <time>2021-04-03T15:11:28Z</time>
      </trkpt>
      <trkpt lat="49.33672" lon="1.03399">
        <ele>115.4</ele>
        <time>2021-04-03T15:11:33Z</time>
      </trkpt>
      <trkpt lat="49.33667" lon="1.03406">
        <ele>115.2</ele>
        <time>2021-04-03T15:11:34Z</time>
      </trkpt>
      <trkpt lat="49.33654" lon="1.03416">
        <ele>115.2</ele>
        <time>2021-04-03T15:11:36Z</time>
      </trkpt>
      <trkpt lat="49.33632" lon="1.03422">
        <ele>114.2</ele>
        <time>2021-04-03T15:11:39Z</time>
      </trkpt>
      <trkpt lat="49.33625" lon="1.03423">
        <ele>113.8</ele>
        <time>2021-04-03T15:11:40Z</time>
      </trkpt>
      <trkpt lat="49.33618" lon="1.03422">
        <ele>113.4</ele>
        <time>2021-04-03T15:11:41Z</time>
      </trkpt>
      <trkpt lat="49.33601" lon="1.03415">
        <ele>112.8</ele>
        <time>2021-04-03T15:11:44Z</time>
      </trkpt>
      <trkpt lat="49.33595" lon="1.03411">
        <ele>112.2</ele>
        <time>2021-04-03T15:11:45Z</time>
      </trkpt>
      <trkpt lat="49.33573" lon="1.034">
        <ele>111</ele>
        <time>2021-04-03T15:11:49Z</time>
      </trkpt>
      <trkpt lat="49.33568" lon="1.03399">
        <ele>110.8</ele>
        <time>2021-04-03T15:11:50Z</time>
      </trkpt>
      <trkpt lat="49.33557" lon="1.03397">
        <ele>110.8</ele>
        <time>2021-04-03T15:11:52Z</time>
      </trkpt>
      <trkpt lat="49.33546" lon="1.034">
        <ele>110.6</ele>
        <time>2021-04-03T15:11:54Z</time>
      </trkpt>
      <trkpt lat="49.33534" lon="1.03407">
        <ele>110.4</ele>
        <time>2021-04-03T15:11:56Z</time>
      </trkpt>
      <trkpt lat="49.33518" lon="1.03419">
        <ele>110.4</ele>
        <time>2021-04-03T15:11:59Z</time>
      </trkpt>
      <trkpt lat="49.33504" lon="1.03431">
        <ele>110.2</ele>
        <time>2021-04-03T15:12:02Z</time>
      </trkpt>
      <trkpt lat="49.3349" lon="1.03445">
        <ele>109.6</ele>
        <time>2021-04-03T15:12:05Z</time>
      </trkpt>
      <trkpt lat="49.33482" lon="1.03454">
        <ele>108.2</ele>
        <time>2021-04-03T15:12:07Z</time>
      </trkpt>
      <trkpt lat="49.33465" lon="1.0347">
        <ele>107</ele>
        <time>2021-04-03T15:12:10Z</time>
      </trkpt>
      <trkpt lat="49.33461" lon="1.03475">
        <ele>107</ele>
        <time>2021-04-03T15:12:11Z</time>
      </trkpt>
      <trkpt lat="49.3343" lon="1.03505">
        <ele>106.2</ele>
        <time>2021-04-03T15:12:17Z</time>
      </trkpt>
      <trkpt lat="49.33421" lon="1.03513">
        <ele>106</ele>
        <time>2021-04-03T15:12:19Z</time>
      </trkpt>
      <trkpt lat="49.33414" lon="1.03521">
        <ele>105.8</ele>
        <time>2021-04-03T15:12:21Z</time>
      </trkpt>
      <trkpt lat="49.3341" lon="1.03526">
        <ele>105.6</ele>
        <time>2021-04-03T15:12:22Z</time>
      </trkpt>
      <trkpt lat="49.33406" lon="1.03532">
        <ele>105.6</ele>
        <time>2021-04-03T15:12:23Z</time>
      </trkpt>
      <trkpt lat="49.33386" lon="1.03559">
        <ele>105.4</ele>
        <time>2021-04-03T15:12:27Z</time>
      </trkpt>
      <trkpt lat="49.33376" lon="1.03574">
        <ele>104.8</ele>
        <time>2021-04-03T15:12:29Z</time>
      </trkpt>
      <trkpt lat="49.33364" lon="1.03594">
        <ele>104.2</ele>
        <time>2021-04-03T15:12:32Z</time>
      </trkpt>
      <trkpt lat="49.33355" lon="1.03615">
        <ele>103.8</ele>
        <time>2021-04-03T15:12:35Z</time>
      </trkpt>
      <trkpt lat="49.33352" lon="1.03622">
        <ele>103.8</ele>
        <time>2021-04-03T15:12:36Z</time>
      </trkpt>
      <trkpt lat="49.33349" lon="1.03629">
        <ele>103.6</ele>
        <time>2021-04-03T15:12:37Z</time>
      </trkpt>
      <trkpt lat="49.33346" lon="1.03636">
        <ele>103.4</ele>
        <time>2021-04-03T15:12:38Z</time>
      </trkpt>
      <trkpt lat="49.33342" lon="1.03655">
        <ele>102.8</ele>
        <time>2021-04-03T15:12:41Z</time>
      </trkpt>
      <trkpt lat="49.33342" lon="1.03661">
        <ele>102.4</ele>
        <time>2021-04-03T15:12:42Z</time>
      </trkpt>
      <trkpt lat="49.33342" lon="1.03679">
        <ele>102.4</ele>
        <time>2021-04-03T15:12:45Z</time>
      </trkpt>
      <trkpt lat="49.33342" lon="1.03692">
        <ele>102.2</ele>
        <time>2021-04-03T15:12:48Z</time>
      </trkpt>
      <trkpt lat="49.33343" lon="1.03696">
        <ele>102</ele>
        <time>2021-04-03T15:12:49Z</time>
      </trkpt>
      <trkpt lat="49.33343" lon="1.03701">
        <ele>102</ele>
        <time>2021-04-03T15:12:51Z</time>
      </trkpt>
      <trkpt lat="49.33346" lon="1.03708">
        <ele>102</ele>
        <time>2021-04-03T15:12:54Z</time>
      </trkpt>
      <trkpt lat="49.3335" lon="1.03713">
        <ele>102</ele>
        <time>2021-04-03T15:12:56Z</time>
      </trkpt>
      <trkpt lat="49.33357" lon="1.03724">
        <ele>102.2</ele>
        <time>2021-04-03T15:12:59Z</time>
      </trkpt>
      <trkpt lat="49.33364" lon="1.03736">
        <ele>103.8</ele>
        <time>2021-04-03T15:13:03Z</time>
      </trkpt>
      <trkpt lat="49.33365" lon="1.03738">
        <ele>104.2</ele>
        <time>2021-04-03T15:13:04Z</time>
      </trkpt>
      <trkpt lat="49.33367" lon="1.03739">
        <ele>104.8</ele>
        <time>2021-04-03T15:13:05Z</time>
      </trkpt>
      <trkpt lat="49.3337" lon="1.03735">
        <ele>105.8</ele>
        <time>2021-04-03T15:13:08Z</time>
      </trkpt>
      <trkpt lat="49.33369" lon="1.03732">
        <ele>106</ele>
        <time>2021-04-03T15:13:09Z</time>
      </trkpt>
      <trkpt lat="49.33367" lon="1.03723">
        <ele>106.4</ele>
        <time>2021-04-03T15:13:12Z</time>
      </trkpt>
      <trkpt lat="49.33367" lon="1.03716">
        <ele>107.4</ele>
        <time>2021-04-03T15:13:14Z</time>
      </trkpt>
      <trkpt lat="49.33367" lon="1.03705">
        <ele>108.6</ele>
        <time>2021-04-03T15:13:17Z</time>
      </trkpt>
      <trkpt lat="49.33368" lon="1.03702">
        <ele>109</ele>
        <time>2021-04-03T15:13:18Z</time>
      </trkpt>
      <trkpt lat="49.3337" lon="1.037">
        <ele>109.2</ele>
        <time>2021-04-03T15:13:19Z</time>
      </trkpt>
      <trkpt lat="49.33374" lon="1.03698">
        <ele>110.2</ele>
        <time>2021-04-03T15:13:21Z</time>
      </trkpt>
      <trkpt lat="49.33379" lon="1.03698">
        <ele>111.4</ele>
        <time>2021-04-03T15:13:23Z</time>
      </trkpt>
      <trkpt lat="49.33381" lon="1.03698">
        <ele>111.8</ele>
        <time>2021-04-03T15:13:24Z</time>
      </trkpt>
      <trkpt lat="49.33383" lon="1.03699">
        <ele>112</ele>
        <time>2021-04-03T15:13:25Z</time>
      </trkpt>
      <trkpt lat="49.33386" lon="1.03701">
        <ele>112.6</ele>
        <time>2021-04-03T15:13:27Z</time>
      </trkpt>
      <trkpt lat="49.33391" lon="1.03703">
        <ele>113.6</ele>
        <time>2021-04-03T15:13:30Z</time>
      </trkpt>
      <trkpt lat="49.33392" lon="1.03705">
        <ele>114</ele>
        <time>2021-04-03T15:13:31Z</time>
      </trkpt>
      <trkpt lat="49.334" lon="1.03708">
        <ele>115.2</ele>
        <time>2021-04-03T15:13:35Z</time>
      </trkpt>
      <trkpt lat="49.33404" lon="1.03711">
        <ele>115.8</ele>
        <time>2021-04-03T15:13:37Z</time>
      </trkpt>
      <trkpt lat="49.3341" lon="1.03717">
        <ele>116.6</ele>
        <time>2021-04-03T15:13:40Z</time>
      </trkpt>
      <trkpt lat="49.33415" lon="1.03722">
        <ele>117.6</ele>
        <time>2021-04-03T15:13:43Z</time>
      </trkpt>
      <trkpt lat="49.33422" lon="1.03731">
        <ele>118.6</ele>
        <time>2021-04-03T15:13:47Z</time>
      </trkpt>
      <trkpt lat="49.33427" lon="1.03739">
        <ele>118.8</ele>
        <time>2021-04-03T15:13:50Z</time>
      </trkpt>
      <trkpt lat="49.33444" lon="1.03759">
        <ele>119</ele>
        <time>2021-04-03T15:13:56Z</time>
      </trkpt>
      <trkpt lat="49.33462" lon="1.0378">
        <ele>119.6</ele>
        <time>2021-04-03T15:14:02Z</time>
      </trkpt>
      <trkpt lat="49.33465" lon="1.03784">
        <ele>119.8</ele>
        <time>2021-04-03T15:14:03Z</time>
      </trkpt>
      <trkpt lat="49.33478" lon="1.03802">
        <ele>120.4</ele>
        <time>2021-04-03T15:14:08Z</time>
      </trkpt>
      <trkpt lat="49.33494" lon="1.03828">
        <ele>120.6</ele>
        <time>2021-04-03T15:14:14Z</time>
      </trkpt>
      <trkpt lat="49.33504" lon="1.03844">
        <ele>120.4</ele>
        <time>2021-04-03T15:14:17Z</time>
      </trkpt>
      <trkpt lat="49.33506" lon="1.0385">
        <ele>120.4</ele>
        <time>2021-04-03T15:14:18Z</time>
      </trkpt>
      <trkpt lat="49.33521" lon="1.03878">
        <ele>120.2</ele>
        <time>2021-04-03T15:14:23Z</time>
      </trkpt>
      <trkpt lat="49.33534" lon="1.0391">
        <ele>119.6</ele>
        <time>2021-04-03T15:14:28Z</time>
      </trkpt>
      <trkpt lat="49.33537" lon="1.03923">
        <ele>119.6</ele>
        <time>2021-04-03T15:14:30Z</time>
      </trkpt>
      <trkpt lat="49.33547" lon="1.0395">
        <ele>118.6</ele>
        <time>2021-04-03T15:14:34Z</time>
      </trkpt>
      <trkpt lat="49.33562" lon="1.03996">
        <ele>118</ele>
        <time>2021-04-03T15:14:40Z</time>
      </trkpt>
      <trkpt lat="49.33584" lon="1.04045">
        <ele>118</ele>
        <time>2021-04-03T15:14:47Z</time>
      </trkpt>
      <trkpt lat="49.33598" lon="1.04087">
        <ele>118</ele>
        <time>2021-04-03T15:14:53Z</time>
      </trkpt>
      <trkpt lat="49.33599" lon="1.04096">
        <ele>118</ele>
        <time>2021-04-03T15:14:54Z</time>
      </trkpt>
      <trkpt lat="49.336" lon="1.04107">
        <ele>117.8</ele>
        <time>2021-04-03T15:14:55Z</time>
      </trkpt>
      <trkpt lat="49.336" lon="1.04139">
        <ele>117.4</ele>
        <time>2021-04-03T15:14:58Z</time>
      </trkpt>
      <trkpt lat="49.336" lon="1.04185">
        <ele>116.6</ele>
        <time>2021-04-03T15:15:03Z</time>
      </trkpt>
      <trkpt lat="49.336" lon="1.04214">
        <ele>115.8</ele>
        <time>2021-04-03T15:15:06Z</time>
      </trkpt>
      <trkpt lat="49.33601" lon="1.04223">
        <ele>115.6</ele>
        <time>2021-04-03T15:15:07Z</time>
      </trkpt>
      <trkpt lat="49.33602" lon="1.04232">
        <ele>115.4</ele>
        <time>2021-04-03T15:15:08Z</time>
      </trkpt>
      <trkpt lat="49.33601" lon="1.04241">
        <ele>115.2</ele>
        <time>2021-04-03T15:15:09Z</time>
      </trkpt>
      <trkpt lat="49.33601" lon="1.04277">
        <ele>115</ele>
        <time>2021-04-03T15:15:13Z</time>
      </trkpt>
      <trkpt lat="49.33601" lon="1.04335">
        <ele>114.6</ele>
        <time>2021-04-03T15:15:19Z</time>
      </trkpt>
      <trkpt lat="49.33601" lon="1.04344">
        <ele>114.6</ele>
        <time>2021-04-03T15:15:20Z</time>
      </trkpt>
      <trkpt lat="49.33601" lon="1.04388">
        <ele>114</ele>
        <time>2021-04-03T15:15:24Z</time>
      </trkpt>
      <trkpt lat="49.33602" lon="1.0441">
        <ele>113.4</ele>
        <time>2021-04-03T15:15:26Z</time>
      </trkpt>
      <trkpt lat="49.33603" lon="1.04435">
        <ele>111.8</ele>
        <time>2021-04-03T15:15:29Z</time>
      </trkpt>
      <trkpt lat="49.33611" lon="1.04476">
        <ele>111</ele>
        <time>2021-04-03T15:15:34Z</time>
      </trkpt>
      <trkpt lat="49.33612" lon="1.04483">
        <ele>110.8</ele>
        <time>2021-04-03T15:15:35Z</time>
      </trkpt>
      <trkpt lat="49.33617" lon="1.04501">
        <ele>110.4</ele>
        <time>2021-04-03T15:15:37Z</time>
      </trkpt>
      <trkpt lat="49.33624" lon="1.04515">
        <ele>110.2</ele>
        <time>2021-04-03T15:15:39Z</time>
      </trkpt>
      <trkpt lat="49.33631" lon="1.04525">
        <ele>110.2</ele>
        <time>2021-04-03T15:15:41Z</time>
      </trkpt>
      <trkpt lat="49.33643" lon="1.04537">
        <ele>110.6</ele>
        <time>2021-04-03T15:15:44Z</time>
      </trkpt>
      <trkpt lat="49.33648" lon="1.0454">
        <ele>110.8</ele>
        <time>2021-04-03T15:15:45Z</time>
      </trkpt>
      <trkpt lat="49.33665" lon="1.04549">
        <ele>111.6</ele>
        <time>2021-04-03T15:15:49Z</time>
      </trkpt>
      <trkpt lat="49.33674" lon="1.04553">
        <ele>111.8</ele>
        <time>2021-04-03T15:15:51Z</time>
      </trkpt>
      <trkpt lat="49.33682" lon="1.04558">
        <ele>112</ele>
        <time>2021-04-03T15:15:53Z</time>
      </trkpt>
      <trkpt lat="49.33688" lon="1.0456">
        <ele>112.4</ele>
        <time>2021-04-03T15:15:54Z</time>
      </trkpt>
      <trkpt lat="49.33697" lon="1.04564">
        <ele>113</ele>
        <time>2021-04-03T15:15:56Z</time>
      </trkpt>
      <trkpt lat="49.33702" lon="1.04566">
        <ele>113.2</ele>
        <time>2021-04-03T15:15:57Z</time>
      </trkpt>
      <trkpt lat="49.33711" lon="1.04571">
        <ele>114</ele>
        <time>2021-04-03T15:15:59Z</time>
      </trkpt>
      <trkpt lat="49.33719" lon="1.04577">
        <ele>114.4</ele>
        <time>2021-04-03T15:16:01Z</time>
      </trkpt>
      <trkpt lat="49.33737" lon="1.04593">
        <ele>115</ele>
        <time>2021-04-03T15:16:05Z</time>
      </trkpt>
      <trkpt lat="49.33749" lon="1.04605">
        <ele>115.6</ele>
        <time>2021-04-03T15:16:08Z</time>
      </trkpt>
      <trkpt lat="49.33754" lon="1.04612">
        <ele>115.8</ele>
        <time>2021-04-03T15:16:10Z</time>
      </trkpt>
      <trkpt lat="49.33761" lon="1.04618">
        <ele>115.8</ele>
        <time>2021-04-03T15:16:12Z</time>
      </trkpt>
      <trkpt lat="49.33771" lon="1.04631">
        <ele>116</ele>
        <time>2021-04-03T15:16:15Z</time>
      </trkpt>
      <trkpt lat="49.33777" lon="1.04641">
        <ele>116</ele>
        <time>2021-04-03T15:16:17Z</time>
      </trkpt>
      <trkpt lat="49.33785" lon="1.04653">
        <ele>116</ele>
        <time>2021-04-03T15:16:19Z</time>
      </trkpt>
      <trkpt lat="49.33789" lon="1.0466">
        <ele>116.2</ele>
        <time>2021-04-03T15:16:20Z</time>
      </trkpt>
      <trkpt lat="49.33797" lon="1.04672">
        <ele>116.2</ele>
        <time>2021-04-03T15:16:22Z</time>
      </trkpt>
      <trkpt lat="49.33805" lon="1.04682">
        <ele>116.2</ele>
        <time>2021-04-03T15:16:24Z</time>
      </trkpt>
      <trkpt lat="49.33809" lon="1.04687">
        <ele>116.2</ele>
        <time>2021-04-03T15:16:25Z</time>
      </trkpt>
      <trkpt lat="49.33814" lon="1.04693">
        <ele>116.2</ele>
        <time>2021-04-03T15:16:26Z</time>
      </trkpt>
      <trkpt lat="49.3383" lon="1.04719">
        <ele>116.2</ele>
        <time>2021-04-03T15:16:30Z</time>
      </trkpt>
      <trkpt lat="49.33833" lon="1.04726">
        <ele>116.2</ele>
        <time>2021-04-03T15:16:31Z</time>
      </trkpt>
      <trkpt lat="49.33851" lon="1.04771">
        <ele>116.6</ele>
        <time>2021-04-03T15:16:37Z</time>
      </trkpt>
      <trkpt lat="49.33873" lon="1.04818">
        <ele>116.6</ele>
        <time>2021-04-03T15:16:43Z</time>
      </trkpt>
      <trkpt lat="49.33895" lon="1.04864">
        <ele>115</ele>
        <time>2021-04-03T15:16:49Z</time>
      </trkpt>
      <trkpt lat="49.33911" lon="1.049">
        <ele>114.6</ele>
        <time>2021-04-03T15:16:54Z</time>
      </trkpt>
      <trkpt lat="49.33914" lon="1.04907">
        <ele>114.6</ele>
        <time>2021-04-03T15:16:55Z</time>
      </trkpt>
      <trkpt lat="49.3392" lon="1.0493">
        <ele>114.6</ele>
        <time>2021-04-03T15:16:58Z</time>
      </trkpt>
      <trkpt lat="49.33923" lon="1.04947">
        <ele>114.6</ele>
        <time>2021-04-03T15:17:00Z</time>
      </trkpt>
      <trkpt lat="49.3393" lon="1.05002">
        <ele>114.2</ele>
        <time>2021-04-03T15:17:06Z</time>
      </trkpt>
      <trkpt lat="49.33931" lon="1.05019">
        <ele>114</ele>
        <time>2021-04-03T15:17:08Z</time>
      </trkpt>
      <trkpt lat="49.33932" lon="1.05039">
        <ele>113.4</ele>
        <time>2021-04-03T15:17:10Z</time>
      </trkpt>
      <trkpt lat="49.33936" lon="1.0506">
        <ele>112.8</ele>
        <time>2021-04-03T15:17:12Z</time>
      </trkpt>
      <trkpt lat="49.3394" lon="1.0507">
        <ele>112.4</ele>
        <time>2021-04-03T15:17:13Z</time>
      </trkpt>
      <trkpt lat="49.33953" lon="1.05081">
        <ele>111.6</ele>
        <time>2021-04-03T15:17:16Z</time>
      </trkpt>
      <trkpt lat="49.33962" lon="1.05084">
        <ele>111</ele>
        <time>2021-04-03T15:17:18Z</time>
      </trkpt>
      <trkpt lat="49.33979" lon="1.05088">
        <ele>110.8</ele>
        <time>2021-04-03T15:17:21Z</time>
      </trkpt>
      <trkpt lat="49.33988" lon="1.05092">
        <ele>110.8</ele>
        <time>2021-04-03T15:17:23Z</time>
      </trkpt>
      <trkpt lat="49.33993" lon="1.05096">
        <ele>110.8</ele>
        <time>2021-04-03T15:17:24Z</time>
      </trkpt>
      <trkpt lat="49.34001" lon="1.05111">
        <ele>110.8</ele>
        <time>2021-04-03T15:17:27Z</time>
      </trkpt>
      <trkpt lat="49.34005" lon="1.05121">
        <ele>111</ele>
        <time>2021-04-03T15:17:32Z</time>
      </trkpt>
      <trkpt lat="49.34004" lon="1.05139">
        <ele>111.2</ele>
        <time>2021-04-03T15:17:36Z</time>
      </trkpt>
      <trkpt lat="49.34002" lon="1.05155">
        <ele>111.2</ele>
        <time>2021-04-03T15:17:38Z</time>
      </trkpt>
      <trkpt lat="49.33998" lon="1.05174">
        <ele>111.2</ele>
        <time>2021-04-03T15:17:40Z</time>
      </trkpt>
      <trkpt lat="49.33993" lon="1.05208">
        <ele>111</ele>
        <time>2021-04-03T15:17:43Z</time>
      </trkpt>
      <trkpt lat="49.33994" lon="1.0522">
        <ele>110.8</ele>
        <time>2021-04-03T15:17:44Z</time>
      </trkpt>
      <trkpt lat="49.33999" lon="1.05241">
        <ele>110.4</ele>
        <time>2021-04-03T15:17:46Z</time>
      </trkpt>
      <trkpt lat="49.34002" lon="1.05251">
        <ele>109.8</ele>
        <time>2021-04-03T15:17:47Z</time>
      </trkpt>
      <trkpt lat="49.34006" lon="1.0526">
        <ele>108.8</ele>
        <time>2021-04-03T15:17:48Z</time>
      </trkpt>
      <trkpt lat="49.3401" lon="1.05268">
        <ele>107.4</ele>
        <time>2021-04-03T15:17:49Z</time>
      </trkpt>
      <trkpt lat="49.34014" lon="1.05275">
        <ele>106.6</ele>
        <time>2021-04-03T15:17:50Z</time>
      </trkpt>
      <trkpt lat="49.34019" lon="1.05279">
        <ele>106.2</ele>
        <time>2021-04-03T15:17:51Z</time>
      </trkpt>
      <trkpt lat="49.34028" lon="1.05287">
        <ele>105.8</ele>
        <time>2021-04-03T15:17:53Z</time>
      </trkpt>
      <trkpt lat="49.34044" lon="1.05297">
        <ele>105.4</ele>
        <time>2021-04-03T15:17:56Z</time>
      </trkpt>
      <trkpt lat="49.34066" lon="1.05308">
        <ele>105.2</ele>
        <time>2021-04-03T15:18:00Z</time>
      </trkpt>
      <trkpt lat="49.34071" lon="1.05309">
        <ele>105.2</ele>
        <time>2021-04-03T15:18:01Z</time>
      </trkpt>
      <trkpt lat="49.34087" lon="1.05296">
        <ele>105.2</ele>
        <time>2021-04-03T15:18:05Z</time>
      </trkpt>
      <trkpt lat="49.34097" lon="1.05273">
        <ele>105.6</ele>
        <time>2021-04-03T15:18:09Z</time>
      </trkpt>
      <trkpt lat="49.34109" lon="1.05261">
        <ele>105.8</ele>
        <time>2021-04-03T15:18:13Z</time>
      </trkpt>
      <trkpt lat="49.34113" lon="1.0526">
        <ele>106.4</ele>
        <time>2021-04-03T15:18:14Z</time>
      </trkpt>
      <trkpt lat="49.34117" lon="1.0526">
        <ele>106.8</ele>
        <time>2021-04-03T15:18:15Z</time>
      </trkpt>
      <trkpt lat="49.34123" lon="1.05261">
        <ele>108</ele>
        <time>2021-04-03T15:18:17Z</time>
      </trkpt>
      <trkpt lat="49.34126" lon="1.05262">
        <ele>108.4</ele>
        <time>2021-04-03T15:18:18Z</time>
      </trkpt>
      <trkpt lat="49.3413" lon="1.05266">
        <ele>109.2</ele>
        <time>2021-04-03T15:18:20Z</time>
      </trkpt>
      <trkpt lat="49.34135" lon="1.05279">
        <ele>109.6</ele>
        <time>2021-04-03T15:18:23Z</time>
      </trkpt>
      <trkpt lat="49.34143" lon="1.05309">
        <ele>109.6</ele>
        <time>2021-04-03T15:18:28Z</time>
      </trkpt>
      <trkpt lat="49.34146" lon="1.05336">
        <ele>109</ele>
        <time>2021-04-03T15:18:33Z</time>
      </trkpt>
      <trkpt lat="49.34149" lon="1.05353">
        <ele>108</ele>
        <time>2021-04-03T15:18:36Z</time>
      </trkpt>
      <trkpt lat="49.34151" lon="1.05362">
        <ele>107.6</ele>
        <time>2021-04-03T15:18:38Z</time>
      </trkpt>
      <trkpt lat="49.34156" lon="1.05372">
        <ele>106.8</ele>
        <time>2021-04-03T15:18:40Z</time>
      </trkpt>
      <trkpt lat="49.34163" lon="1.05381">
        <ele>106.2</ele>
        <time>2021-04-03T15:18:42Z</time>
      </trkpt>
      <trkpt lat="49.3417" lon="1.05391">
        <ele>105.8</ele>
        <time>2021-04-03T15:18:44Z</time>
      </trkpt>
      <trkpt lat="49.34176" lon="1.054">
        <ele>105.2</ele>
        <time>2021-04-03T15:18:46Z</time>
      </trkpt>
      <trkpt lat="49.34181" lon="1.05411">
        <ele>105</ele>
        <time>2021-04-03T15:18:48Z</time>
      </trkpt>
      <trkpt lat="49.34183" lon="1.05417">
        <ele>104.8</ele>
        <time>2021-04-03T15:18:49Z</time>
      </trkpt>
      <trkpt lat="49.34186" lon="1.05437">
        <ele>104.8</ele>
        <time>2021-04-03T15:18:52Z</time>
      </trkpt>
      <trkpt lat="49.34188" lon="1.05445">
        <ele>104.6</ele>
        <time>2021-04-03T15:18:53Z</time>
      </trkpt>
      <trkpt lat="49.34196" lon="1.05468">
        <ele>104.2</ele>
        <time>2021-04-03T15:18:56Z</time>
      </trkpt>
      <trkpt lat="49.34213" lon="1.05491">
        <ele>104.2</ele>
        <time>2021-04-03T15:19:00Z</time>
      </trkpt>
      <trkpt lat="49.34217" lon="1.05496">
        <ele>104.2</ele>
        <time>2021-04-03T15:19:01Z</time>
      </trkpt>
      <trkpt lat="49.34239" lon="1.0553">
        <ele>103.8</ele>
        <time>2021-04-03T15:19:06Z</time>
      </trkpt>
      <trkpt lat="49.34243" lon="1.05537">
        <ele>103.8</ele>
        <time>2021-04-03T15:19:07Z</time>
      </trkpt>
      <trkpt lat="49.34246" lon="1.05543">
        <ele>103.6</ele>
        <time>2021-04-03T15:19:08Z</time>
      </trkpt>
      <trkpt lat="49.34252" lon="1.05558">
        <ele>103.6</ele>
        <time>2021-04-03T15:19:10Z</time>
      </trkpt>
      <trkpt lat="49.34257" lon="1.05574">
        <ele>103.4</ele>
        <time>2021-04-03T15:19:12Z</time>
      </trkpt>
      <trkpt lat="49.34272" lon="1.05632">
        <ele>103.2</ele>
        <time>2021-04-03T15:19:19Z</time>
      </trkpt>
      <trkpt lat="49.34284" lon="1.05665">
        <ele>103</ele>
        <time>2021-04-03T15:19:24Z</time>
      </trkpt>
      <trkpt lat="49.34285" lon="1.05684">
        <ele>103.2</ele>
        <time>2021-04-03T15:19:27Z</time>
      </trkpt>
      <trkpt lat="49.34283" lon="1.05692">
        <ele>103.2</ele>
        <time>2021-04-03T15:19:28Z</time>
      </trkpt>
      <trkpt lat="49.34282" lon="1.057">
        <ele>103</ele>
        <time>2021-04-03T15:19:29Z</time>
      </trkpt>
      <trkpt lat="49.34282" lon="1.05717">
        <ele>103</ele>
        <time>2021-04-03T15:19:31Z</time>
      </trkpt>
      <trkpt lat="49.34285" lon="1.05734">
        <ele>103</ele>
        <time>2021-04-03T15:19:33Z</time>
      </trkpt>
      <trkpt lat="49.34285" lon="1.05752">
        <ele>103</ele>
        <time>2021-04-03T15:19:35Z</time>
      </trkpt>
      <trkpt lat="49.34285" lon="1.05762">
        <ele>102.6</ele>
        <time>2021-04-03T15:19:36Z</time>
      </trkpt>
      <trkpt lat="49.34286" lon="1.05781">
        <ele>101.2</ele>
        <time>2021-04-03T15:19:38Z</time>
      </trkpt>
      <trkpt lat="49.34287" lon="1.05798">
        <ele>100</ele>
        <time>2021-04-03T15:19:40Z</time>
      </trkpt>
      <trkpt lat="49.34288" lon="1.05805">
        <ele>99.8</ele>
        <time>2021-04-03T15:19:41Z</time>
      </trkpt>
      <trkpt lat="49.3429" lon="1.05818">
        <ele>98.6</ele>
        <time>2021-04-03T15:19:44Z</time>
      </trkpt>
      <trkpt lat="49.34289" lon="1.05824">
        <ele>97.4</ele>
        <time>2021-04-03T15:19:46Z</time>
      </trkpt>
      <trkpt lat="49.3429" lon="1.05837">
        <ele>96.2</ele>
        <time>2021-04-03T15:19:49Z</time>
      </trkpt>
      <trkpt lat="49.34289" lon="1.05842">
        <ele>96</ele>
        <time>2021-04-03T15:19:50Z</time>
      </trkpt>
      <trkpt lat="49.3429" lon="1.05849">
        <ele>95.8</ele>
        <time>2021-04-03T15:19:52Z</time>
      </trkpt>
      <trkpt lat="49.34291" lon="1.05853">
        <ele>95.6</ele>
        <time>2021-04-03T15:19:54Z</time>
      </trkpt>
      <trkpt lat="49.34292" lon="1.05857">
        <ele>95.6</ele>
        <time>2021-04-03T15:19:56Z</time>
      </trkpt>
      <trkpt lat="49.3429" lon="1.05868">
        <ele>95.8</ele>
        <time>2021-04-03T15:19:59Z</time>
      </trkpt>
      <trkpt lat="49.34287" lon="1.05889">
        <ele>95.4</ele>
        <time>2021-04-03T15:20:03Z</time>
      </trkpt>
      <trkpt lat="49.34283" lon="1.0591">
        <ele>95.4</ele>
        <time>2021-04-03T15:20:07Z</time>
      </trkpt>
      <trkpt lat="49.34282" lon="1.05917">
        <ele>95.2</ele>
        <time>2021-04-03T15:20:08Z</time>
      </trkpt>
      <trkpt lat="49.3428" lon="1.05933">
        <ele>94.8</ele>
        <time>2021-04-03T15:20:10Z</time>
      </trkpt>
      <trkpt lat="49.3428" lon="1.05941">
        <ele>94.6</ele>
        <time>2021-04-03T15:20:11Z</time>
      </trkpt>
      <trkpt lat="49.34279" lon="1.05958">
        <ele>94</ele>
        <time>2021-04-03T15:20:13Z</time>
      </trkpt>
      <trkpt lat="49.34278" lon="1.05972">
        <ele>92.4</ele>
        <time>2021-04-03T15:20:15Z</time>
      </trkpt>
      <trkpt lat="49.34276" lon="1.05986">
        <ele>91.4</ele>
        <time>2021-04-03T15:20:17Z</time>
      </trkpt>
      <trkpt lat="49.34275" lon="1.05992">
        <ele>91</ele>
        <time>2021-04-03T15:20:18Z</time>
      </trkpt>
      <trkpt lat="49.34272" lon="1.06008">
        <ele>90.2</ele>
        <time>2021-04-03T15:20:21Z</time>
      </trkpt>
      <trkpt lat="49.34271" lon="1.06013">
        <ele>89.6</ele>
        <time>2021-04-03T15:20:22Z</time>
      </trkpt>
      <trkpt lat="49.3427" lon="1.06027">
        <ele>88.6</ele>
        <time>2021-04-03T15:20:25Z</time>
      </trkpt>
      <trkpt lat="49.3427" lon="1.06033">
        <ele>88</ele>
        <time>2021-04-03T15:20:26Z</time>
      </trkpt>
      <trkpt lat="49.34269" lon="1.0604">
        <ele>87.4</ele>
        <time>2021-04-03T15:20:27Z</time>
      </trkpt>
      <trkpt lat="49.34267" lon="1.06062">
        <ele>87</ele>
        <time>2021-04-03T15:20:30Z</time>
      </trkpt>
      <trkpt lat="49.34266" lon="1.06069">
        <ele>87</ele>
        <time>2021-04-03T15:20:31Z</time>
      </trkpt>
      <trkpt lat="49.34266" lon="1.06078">
        <ele>87</ele>
        <time>2021-04-03T15:20:34Z</time>
      </trkpt>
      <trkpt lat="49.34264" lon="1.06093">
        <ele>87.2</ele>
        <time>2021-04-03T15:20:38Z</time>
      </trkpt>
      <trkpt lat="49.34259" lon="1.06127">
        <ele>88</ele>
        <time>2021-04-03T15:20:44Z</time>
      </trkpt>
      <trkpt lat="49.34251" lon="1.06155">
        <ele>88</ele>
        <time>2021-04-03T15:20:50Z</time>
      </trkpt>
      <trkpt lat="49.34244" lon="1.06178">
        <ele>87.6</ele>
        <time>2021-04-03T15:20:55Z</time>
      </trkpt>
      <trkpt lat="49.34242" lon="1.06191">
        <ele>86.6</ele>
        <time>2021-04-03T15:20:57Z</time>
      </trkpt>
      <trkpt lat="49.34239" lon="1.06205">
        <ele>86.2</ele>
        <time>2021-04-03T15:20:59Z</time>
      </trkpt>
      <trkpt lat="49.34237" lon="1.06212">
        <ele>86</ele>
        <time>2021-04-03T15:21:00Z</time>
      </trkpt>
      <trkpt lat="49.34235" lon="1.0622">
        <ele>85.2</ele>
        <time>2021-04-03T15:21:02Z</time>
      </trkpt>
      <trkpt lat="49.34234" lon="1.06223">
        <ele>84.8</ele>
        <time>2021-04-03T15:21:03Z</time>
      </trkpt>
      <trkpt lat="49.34234" lon="1.06226">
        <ele>84.4</ele>
        <time>2021-04-03T15:21:04Z</time>
      </trkpt>
      <trkpt lat="49.34233" lon="1.0623">
        <ele>84.2</ele>
        <time>2021-04-03T15:21:05Z</time>
      </trkpt>
      <trkpt lat="49.34229" lon="1.0624">
        <ele>83.8</ele>
        <time>2021-04-03T15:21:07Z</time>
      </trkpt>
      <trkpt lat="49.34227" lon="1.06246">
        <ele>83.8</ele>
        <time>2021-04-03T15:21:08Z</time>
      </trkpt>
      <trkpt lat="49.34218" lon="1.06268">
        <ele>83.4</ele>
        <time>2021-04-03T15:21:12Z</time>
      </trkpt>
      <trkpt lat="49.34211" lon="1.06285">
        <ele>83</ele>
        <time>2021-04-03T15:21:15Z</time>
      </trkpt>
      <trkpt lat="49.34205" lon="1.06295">
        <ele>82.4</ele>
        <time>2021-04-03T15:21:17Z</time>
      </trkpt>
      <trkpt lat="49.34203" lon="1.06302">
        <ele>82.2</ele>
        <time>2021-04-03T15:21:18Z</time>
      </trkpt>
      <trkpt lat="49.34197" lon="1.06326">
        <ele>81</ele>
        <time>2021-04-03T15:21:22Z</time>
      </trkpt>
      <trkpt lat="49.34196" lon="1.06336">
        <ele>80</ele>
        <time>2021-04-03T15:21:25Z</time>
      </trkpt>
      <trkpt lat="49.34194" lon="1.0634">
        <ele>79.8</ele>
        <time>2021-04-03T15:21:26Z</time>
      </trkpt>
      <trkpt lat="49.34187" lon="1.06358">
        <ele>79.4</ele>
        <time>2021-04-03T15:21:29Z</time>
      </trkpt>
      <trkpt lat="49.34184" lon="1.06364">
        <ele>79.4</ele>
        <time>2021-04-03T15:21:30Z</time>
      </trkpt>
      <trkpt lat="49.34173" lon="1.06386">
        <ele>78.6</ele>
        <time>2021-04-03T15:21:33Z</time>
      </trkpt>
      <trkpt lat="49.3417" lon="1.06393">
        <ele>78.4</ele>
        <time>2021-04-03T15:21:34Z</time>
      </trkpt>
      <trkpt lat="49.34161" lon="1.06418">
        <ele>78</ele>
        <time>2021-04-03T15:21:37Z</time>
      </trkpt>
      <trkpt lat="49.34159" lon="1.06426">
        <ele>78</ele>
        <time>2021-04-03T15:21:38Z</time>
      </trkpt>
      <trkpt lat="49.34156" lon="1.06432">
        <ele>77.6</ele>
        <time>2021-04-03T15:21:39Z</time>
      </trkpt>
      <trkpt lat="49.34152" lon="1.06437">
        <ele>77.6</ele>
        <time>2021-04-03T15:21:40Z</time>
      </trkpt>
      <trkpt lat="49.34149" lon="1.06443">
        <ele>77.4</ele>
        <time>2021-04-03T15:21:41Z</time>
      </trkpt>
      <trkpt lat="49.34139" lon="1.06469">
        <ele>77</ele>
        <time>2021-04-03T15:21:45Z</time>
      </trkpt>
      <trkpt lat="49.34134" lon="1.06483">
        <ele>76.8</ele>
        <time>2021-04-03T15:21:47Z</time>
      </trkpt>
      <trkpt lat="49.34128" lon="1.06496">
        <ele>76.2</ele>
        <time>2021-04-03T15:21:49Z</time>
      </trkpt>
      <trkpt lat="49.34123" lon="1.06509">
        <ele>75.8</ele>
        <time>2021-04-03T15:21:51Z</time>
      </trkpt>
      <trkpt lat="49.34121" lon="1.06515">
        <ele>75.8</ele>
        <time>2021-04-03T15:21:52Z</time>
      </trkpt>
      <trkpt lat="49.34108" lon="1.06548">
        <ele>75.6</ele>
        <time>2021-04-03T15:21:57Z</time>
      </trkpt>
      <trkpt lat="49.34103" lon="1.06561">
        <ele>75.6</ele>
        <time>2021-04-03T15:21:59Z</time>
      </trkpt>
      <trkpt lat="49.34096" lon="1.06572">
        <ele>75.8</ele>
        <time>2021-04-03T15:22:01Z</time>
      </trkpt>
      <trkpt lat="49.34084" lon="1.0659">
        <ele>76.4</ele>
        <time>2021-04-03T15:22:04Z</time>
      </trkpt>
      <trkpt lat="49.34082" lon="1.06596">
        <ele>76.4</ele>
        <time>2021-04-03T15:22:05Z</time>
      </trkpt>
      <trkpt lat="49.34074" lon="1.06609">
        <ele>76.8</ele>
        <time>2021-04-03T15:22:08Z</time>
      </trkpt>
      <trkpt lat="49.34069" lon="1.06616">
        <ele>76.8</ele>
        <time>2021-04-03T15:22:09Z</time>
      </trkpt>
      <trkpt lat="49.3406" lon="1.06629">
        <ele>77</ele>
        <time>2021-04-03T15:22:11Z</time>
      </trkpt>
      <trkpt lat="49.34053" lon="1.06643">
        <ele>77</ele>
        <time>2021-04-03T15:22:13Z</time>
      </trkpt>
      <trkpt lat="49.34046" lon="1.06653">
        <ele>77.2</ele>
        <time>2021-04-03T15:22:15Z</time>
      </trkpt>
      <trkpt lat="49.34042" lon="1.06663">
        <ele>77.2</ele>
        <time>2021-04-03T15:22:17Z</time>
      </trkpt>
      <trkpt lat="49.34029" lon="1.06688">
        <ele>77.8</ele>
        <time>2021-04-03T15:22:22Z</time>
      </trkpt>
      <trkpt lat="49.34022" lon="1.06697">
        <ele>78</ele>
        <time>2021-04-03T15:22:24Z</time>
      </trkpt>
      <trkpt lat="49.34012" lon="1.06712">
        <ele>79.8</ele>
        <time>2021-04-03T15:22:27Z</time>
      </trkpt>
      <trkpt lat="49.34007" lon="1.06719">
        <ele>80.8</ele>
        <time>2021-04-03T15:22:29Z</time>
      </trkpt>
      <trkpt lat="49.34002" lon="1.06729">
        <ele>81.2</ele>
        <time>2021-04-03T15:22:31Z</time>
      </trkpt>
      <trkpt lat="49.33999" lon="1.06735">
        <ele>81.4</ele>
        <time>2021-04-03T15:22:32Z</time>
      </trkpt>
      <trkpt lat="49.33993" lon="1.06747">
        <ele>81.4</ele>
        <time>2021-04-03T15:22:34Z</time>
      </trkpt>
      <trkpt lat="49.33985" lon="1.06756">
        <ele>81.8</ele>
        <time>2021-04-03T15:22:36Z</time>
      </trkpt>
      <trkpt lat="49.3398" lon="1.06763">
        <ele>81.8</ele>
        <time>2021-04-03T15:22:37Z</time>
      </trkpt>
      <trkpt lat="49.33973" lon="1.06776">
        <ele>81.8</ele>
        <time>2021-04-03T15:22:39Z</time>
      </trkpt>
      <trkpt lat="49.33968" lon="1.0678">
        <ele>82</ele>
        <time>2021-04-03T15:22:40Z</time>
      </trkpt>
      <trkpt lat="49.33961" lon="1.0679">
        <ele>82</ele>
        <time>2021-04-03T15:22:42Z</time>
      </trkpt>
      <trkpt lat="49.33958" lon="1.06795">
        <ele>82.2</ele>
        <time>2021-04-03T15:22:43Z</time>
      </trkpt>
      <trkpt lat="49.33955" lon="1.06802">
        <ele>82.2</ele>
        <time>2021-04-03T15:22:44Z</time>
      </trkpt>
      <trkpt lat="49.33945" lon="1.06815">
        <ele>82.4</ele>
        <time>2021-04-03T15:22:47Z</time>
      </trkpt>
      <trkpt lat="49.33934" lon="1.06829">
        <ele>82.4</ele>
        <time>2021-04-03T15:22:50Z</time>
      </trkpt>
      <trkpt lat="49.33926" lon="1.06843">
        <ele>82.2</ele>
        <time>2021-04-03T15:22:52Z</time>
      </trkpt>
      <trkpt lat="49.33918" lon="1.06855">
        <ele>82</ele>
        <time>2021-04-03T15:22:54Z</time>
      </trkpt>
      <trkpt lat="49.33914" lon="1.0686">
        <ele>82</ele>
        <time>2021-04-03T15:22:55Z</time>
      </trkpt>
      <trkpt lat="49.33909" lon="1.06872">
        <ele>80.8</ele>
        <time>2021-04-03T15:22:58Z</time>
      </trkpt>
      <trkpt lat="49.33907" lon="1.06877">
        <ele>80</ele>
        <time>2021-04-03T15:22:59Z</time>
      </trkpt>
      <trkpt lat="49.33904" lon="1.06884">
        <ele>78.8</ele>
        <time>2021-04-03T15:23:00Z</time>
      </trkpt>
      <trkpt lat="49.33901" lon="1.06891">
        <ele>77.8</ele>
        <time>2021-04-03T15:23:01Z</time>
      </trkpt>
      <trkpt lat="49.33895" lon="1.06906">
        <ele>76.8</ele>
        <time>2021-04-03T15:23:03Z</time>
      </trkpt>
      <trkpt lat="49.33891" lon="1.06914">
        <ele>76.8</ele>
        <time>2021-04-03T15:23:04Z</time>
      </trkpt>
      <trkpt lat="49.33886" lon="1.06923">
        <ele>76.4</ele>
        <time>2021-04-03T15:23:05Z</time>
      </trkpt>
      <trkpt lat="49.33882" lon="1.06931">
        <ele>76.4</ele>
        <time>2021-04-03T15:23:06Z</time>
      </trkpt>
      <trkpt lat="49.33877" lon="1.06936">
        <ele>76.2</ele>
        <time>2021-04-03T15:23:07Z</time>
      </trkpt>
      <trkpt lat="49.33873" lon="1.06939">
        <ele>75.6</ele>
        <time>2021-04-03T15:23:08Z</time>
      </trkpt>
      <trkpt lat="49.33868" lon="1.06939">
        <ele>74.2</ele>
        <time>2021-04-03T15:23:09Z</time>
      </trkpt>
      <trkpt lat="49.33863" lon="1.06936">
        <ele>73.2</ele>
        <time>2021-04-03T15:23:10Z</time>
      </trkpt>
      <trkpt lat="49.33859" lon="1.06934">
        <ele>72</ele>
        <time>2021-04-03T15:23:11Z</time>
      </trkpt>
      <trkpt lat="49.33853" lon="1.06931">
        <ele>71.4</ele>
        <time>2021-04-03T15:23:12Z</time>
      </trkpt>
      <trkpt lat="49.33847" lon="1.06928">
        <ele>70.6</ele>
        <time>2021-04-03T15:23:13Z</time>
      </trkpt>
      <trkpt lat="49.33842" lon="1.06926">
        <ele>70.2</ele>
        <time>2021-04-03T15:23:14Z</time>
      </trkpt>
      <trkpt lat="49.3383" lon="1.06927">
        <ele>69.4</ele>
        <time>2021-04-03T15:23:16Z</time>
      </trkpt>
      <trkpt lat="49.33819" lon="1.06929">
        <ele>68.6</ele>
        <time>2021-04-03T15:23:18Z</time>
      </trkpt>
      <trkpt lat="49.33815" lon="1.06929">
        <ele>68.4</ele>
        <time>2021-04-03T15:23:19Z</time>
      </trkpt>
      <trkpt lat="49.33806" lon="1.06925">
        <ele>66.4</ele>
        <time>2021-04-03T15:23:21Z</time>
      </trkpt>
      <trkpt lat="49.33799" lon="1.06923">
        <ele>64.4</ele>
        <time>2021-04-03T15:23:23Z</time>
      </trkpt>
      <trkpt lat="49.33796" lon="1.06923">
        <ele>63.2</ele>
        <time>2021-04-03T15:23:24Z</time>
      </trkpt>
      <trkpt lat="49.33792" lon="1.06923">
        <ele>61.8</ele>
        <time>2021-04-03T15:23:25Z</time>
      </trkpt>
      <trkpt lat="49.33788" lon="1.06924">
        <ele>60</ele>
        <time>2021-04-03T15:23:26Z</time>
      </trkpt>
      <trkpt lat="49.33782" lon="1.06926">
        <ele>58.4</ele>
        <time>2021-04-03T15:23:27Z</time>
      </trkpt>
      <trkpt lat="49.33777" lon="1.06926">
        <ele>56.8</ele>
        <time>2021-04-03T15:23:28Z</time>
      </trkpt>
      <trkpt lat="49.33773" lon="1.06926">
        <ele>55.2</ele>
        <time>2021-04-03T15:23:29Z</time>
      </trkpt>
      <trkpt lat="49.33769" lon="1.06927">
        <ele>53.8</ele>
        <time>2021-04-03T15:23:30Z</time>
      </trkpt>
      <trkpt lat="49.33766" lon="1.06931">
        <ele>52.4</ele>
        <time>2021-04-03T15:23:31Z</time>
      </trkpt>
      <trkpt lat="49.33763" lon="1.06935">
        <ele>51</ele>
        <time>2021-04-03T15:23:32Z</time>
      </trkpt>
      <trkpt lat="49.33761" lon="1.06939">
        <ele>49.6</ele>
        <time>2021-04-03T15:23:33Z</time>
      </trkpt>
      <trkpt lat="49.33759" lon="1.06943">
        <ele>48</ele>
        <time>2021-04-03T15:23:34Z</time>
      </trkpt>
      <trkpt lat="49.33757" lon="1.06947">
        <ele>46</ele>
        <time>2021-04-03T15:23:35Z</time>
      </trkpt>
      <trkpt lat="49.33755" lon="1.06951">
        <ele>44.6</ele>
        <time>2021-04-03T15:23:36Z</time>
      </trkpt>
      <trkpt lat="49.33753" lon="1.06954">
        <ele>43</ele>
        <time>2021-04-03T15:23:37Z</time>
      </trkpt>
      <trkpt lat="49.33743" lon="1.06968">
        <ele>41.8</ele>
        <time>2021-04-03T15:23:41Z</time>
      </trkpt>
      <trkpt lat="49.33735" lon="1.06978">
        <ele>41.6</ele>
        <time>2021-04-03T15:23:44Z</time>
      </trkpt>
      <trkpt lat="49.33715" lon="1.07018">
        <ele>41.2</ele>
        <time>2021-04-03T15:23:53Z</time>
      </trkpt>
      <trkpt lat="49.33707" lon="1.07046">
        <ele>40.8</ele>
        <time>2021-04-03T15:23:58Z</time>
      </trkpt>
      <trkpt lat="49.33706" lon="1.07052">
        <ele>40.6</ele>
        <time>2021-04-03T15:23:59Z</time>
      </trkpt>
      <trkpt lat="49.33703" lon="1.0708">
        <ele>40.2</ele>
        <time>2021-04-03T15:24:04Z</time>
      </trkpt>
      <trkpt lat="49.33702" lon="1.07085">
        <ele>39.8</ele>
        <time>2021-04-03T15:24:05Z</time>
      </trkpt>
      <trkpt lat="49.337" lon="1.07091">
        <ele>39.6</ele>
        <time>2021-04-03T15:24:06Z</time>
      </trkpt>
      <trkpt lat="49.33697" lon="1.07102">
        <ele>39.2</ele>
        <time>2021-04-03T15:24:08Z</time>
      </trkpt>
      <trkpt lat="49.33696" lon="1.07108">
        <ele>39.2</ele>
        <time>2021-04-03T15:24:09Z</time>
      </trkpt>
      <trkpt lat="49.33698" lon="1.07132">
        <ele>39</ele>
        <time>2021-04-03T15:24:12Z</time>
      </trkpt>
      <trkpt lat="49.33706" lon="1.07179">
        <ele>38.4</ele>
        <time>2021-04-03T15:24:17Z</time>
      </trkpt>
      <trkpt lat="49.33707" lon="1.0719">
        <ele>38.2</ele>
        <time>2021-04-03T15:24:18Z</time>
      </trkpt>
      <trkpt lat="49.3371" lon="1.07209">
        <ele>37.4</ele>
        <time>2021-04-03T15:24:20Z</time>
      </trkpt>
      <trkpt lat="49.3371" lon="1.07222">
        <ele>36.4</ele>
        <time>2021-04-03T15:24:22Z</time>
      </trkpt>
      <trkpt lat="49.33707" lon="1.07228">
        <ele>36.2</ele>
        <time>2021-04-03T15:24:23Z</time>
      </trkpt>
      <trkpt lat="49.337" lon="1.07245">
        <ele>35.8</ele>
        <time>2021-04-03T15:24:25Z</time>
      </trkpt>
      <trkpt lat="49.33692" lon="1.07265">
        <ele>35.2</ele>
        <time>2021-04-03T15:24:27Z</time>
      </trkpt>
      <trkpt lat="49.33678" lon="1.07295">
        <ele>34.8</ele>
        <time>2021-04-03T15:24:30Z</time>
      </trkpt>
      <trkpt lat="49.33669" lon="1.07315">
        <ele>34.2</ele>
        <time>2021-04-03T15:24:32Z</time>
      </trkpt>
      <trkpt lat="49.33664" lon="1.07326">
        <ele>32.4</ele>
        <time>2021-04-03T15:24:33Z</time>
      </trkpt>
      <trkpt lat="49.3365" lon="1.07357">
        <ele>31</ele>
        <time>2021-04-03T15:24:36Z</time>
      </trkpt>
      <trkpt lat="49.3364" lon="1.07377">
        <ele>30</ele>
        <time>2021-04-03T15:24:38Z</time>
      </trkpt>
      <trkpt lat="49.33627" lon="1.07396">
        <ele>28.8</ele>
        <time>2021-04-03T15:24:40Z</time>
      </trkpt>
      <trkpt lat="49.33599" lon="1.0744">
        <ele>27.4</ele>
        <time>2021-04-03T15:24:44Z</time>
      </trkpt>
      <trkpt lat="49.33591" lon="1.07452">
        <ele>27</ele>
        <time>2021-04-03T15:24:45Z</time>
      </trkpt>
      <trkpt lat="49.33575" lon="1.07476">
        <ele>26</ele>
        <time>2021-04-03T15:24:47Z</time>
      </trkpt>
      <trkpt lat="49.33568" lon="1.07487">
        <ele>24.6</ele>
        <time>2021-04-03T15:24:48Z</time>
      </trkpt>
      <trkpt lat="49.33561" lon="1.07498">
        <ele>23.4</ele>
        <time>2021-04-03T15:24:49Z</time>
      </trkpt>
      <trkpt lat="49.33556" lon="1.07508">
        <ele>22.2</ele>
        <time>2021-04-03T15:24:50Z</time>
      </trkpt>
      <trkpt lat="49.33552" lon="1.07518">
        <ele>21</ele>
        <time>2021-04-03T15:24:51Z</time>
      </trkpt>
      <trkpt lat="49.33549" lon="1.07526">
        <ele>19.6</ele>
        <time>2021-04-03T15:24:52Z</time>
      </trkpt>
      <trkpt lat="49.33546" lon="1.07532">
        <ele>18.2</ele>
        <time>2021-04-03T15:24:53Z</time>
      </trkpt>
      <trkpt lat="49.33543" lon="1.07537">
        <ele>16.4</ele>
        <time>2021-04-03T15:24:54Z</time>
      </trkpt>
      <trkpt lat="49.33542" lon="1.0754">
        <ele>15</ele>
        <time>2021-04-03T15:24:55Z</time>
      </trkpt>
      <trkpt lat="49.33541" lon="1.07542">
        <ele>14.4</ele>
        <time>2021-04-03T15:24:56Z</time>
      </trkpt>
      <trkpt lat="49.33541" lon="1.07545">
        <ele>14</ele>
        <time>2021-04-03T15:24:57Z</time>
      </trkpt>
      <trkpt lat="49.33544" lon="1.07545">
        <ele>13.8</ele>
        <time>2021-04-03T15:24:59Z</time>
      </trkpt>
      <trkpt lat="49.33542" lon="1.0754">
        <ele>13.6</ele>
        <time>2021-04-03T15:25:02Z</time>
      </trkpt>
      <trkpt lat="49.3354" lon="1.07549">
        <ele>13.4</ele>
        <time>2021-04-03T15:25:05Z</time>
      </trkpt>
      <trkpt lat="49.33539" lon="1.07569">
        <ele>13.2</ele>
        <time>2021-04-03T15:25:08Z</time>
      </trkpt>
      <trkpt lat="49.33539" lon="1.07577">
        <ele>13.2</ele>
        <time>2021-04-03T15:25:09Z</time>
      </trkpt>
      <trkpt lat="49.33534" lon="1.076">
        <ele>13.2</ele>
        <time>2021-04-03T15:25:12Z</time>
      </trkpt>
      <trkpt lat="49.33533" lon="1.07607">
        <ele>13.2</ele>
        <time>2021-04-03T15:25:13Z</time>
      </trkpt>
      <trkpt lat="49.3353" lon="1.07613">
        <ele>13</ele>
        <time>2021-04-03T15:25:14Z</time>
      </trkpt>
      <trkpt lat="49.33526" lon="1.07619">
        <ele>13</ele>
        <time>2021-04-03T15:25:15Z</time>
      </trkpt>
      <trkpt lat="49.33523" lon="1.07625">
        <ele>12.8</ele>
        <time>2021-04-03T15:25:16Z</time>
      </trkpt>
      <trkpt lat="49.33513" lon="1.07645">
        <ele>12</ele>
        <time>2021-04-03T15:25:19Z</time>
      </trkpt>
      <trkpt lat="49.3351" lon="1.07652">
        <ele>11.8</ele>
        <time>2021-04-03T15:25:20Z</time>
      </trkpt>
      <trkpt lat="49.33509" lon="1.07659">
        <ele>11.6</ele>
        <time>2021-04-03T15:25:21Z</time>
      </trkpt>
      <trkpt lat="49.33512" lon="1.07687">
        <ele>11</ele>
        <time>2021-04-03T15:25:25Z</time>
      </trkpt>
      <trkpt lat="49.33512" lon="1.07693">
        <ele>11</ele>
        <time>2021-04-03T15:25:26Z</time>
      </trkpt>
      <trkpt lat="49.33512" lon="1.07705">
        <ele>10.6</ele>
        <time>2021-04-03T15:25:28Z</time>
      </trkpt>
      <trkpt lat="49.33511" lon="1.07717">
        <ele>10.4</ele>
        <time>2021-04-03T15:25:30Z</time>
      </trkpt>
      <trkpt lat="49.33505" lon="1.07736">
        <ele>10.2</ele>
        <time>2021-04-03T15:25:33Z</time>
      </trkpt>
      <trkpt lat="49.33502" lon="1.07743">
        <ele>10.2</ele>
        <time>2021-04-03T15:25:34Z</time>
      </trkpt>
      <trkpt lat="49.33499" lon="1.07749">
        <ele>10.2</ele>
        <time>2021-04-03T15:25:35Z</time>
      </trkpt>
      <trkpt lat="49.3348" lon="1.07782">
        <ele>10.4</ele>
        <time>2021-04-03T15:25:41Z</time>
      </trkpt>
      <trkpt lat="49.33463" lon="1.07815">
        <ele>11</ele>
        <time>2021-04-03T15:25:47Z</time>
      </trkpt>
      <trkpt lat="49.33446" lon="1.0785">
        <ele>11.4</ele>
        <time>2021-04-03T15:25:54Z</time>
      </trkpt>
      <trkpt lat="49.33441" lon="1.07862">
        <ele>11.6</ele>
        <time>2021-04-03T15:25:56Z</time>
      </trkpt>
      <trkpt lat="49.33437" lon="1.07875">
        <ele>11.6</ele>
        <time>2021-04-03T15:25:58Z</time>
      </trkpt>
      <trkpt lat="49.33432" lon="1.07885">
        <ele>11.6</ele>
        <time>2021-04-03T15:26:00Z</time>
      </trkpt>
      <trkpt lat="49.3343" lon="1.07907">
        <ele>11.6</ele>
        <time>2021-04-03T15:26:03Z</time>
      </trkpt>
      <trkpt lat="49.33431" lon="1.07936">
        <ele>11.6</ele>
        <time>2021-04-03T15:26:06Z</time>
      </trkpt>
      <trkpt lat="49.33439" lon="1.07996">
        <ele>11.4</ele>
        <time>2021-04-03T15:26:12Z</time>
      </trkpt>
      <trkpt lat="49.33448" lon="1.08062">
        <ele>11.2</ele>
        <time>2021-04-03T15:26:19Z</time>
      </trkpt>
      <trkpt lat="49.33456" lon="1.08116">
        <ele>11.2</ele>
        <time>2021-04-03T15:26:25Z</time>
      </trkpt>
      <trkpt lat="49.33466" lon="1.08169">
        <ele>11.2</ele>
        <time>2021-04-03T15:26:31Z</time>
      </trkpt>
      <trkpt lat="49.33473" lon="1.08211">
        <ele>10.8</ele>
        <time>2021-04-03T15:26:36Z</time>
      </trkpt>
      <trkpt lat="49.33476" lon="1.08229">
        <ele>10.8</ele>
        <time>2021-04-03T15:26:38Z</time>
      </trkpt>
      <trkpt lat="49.33488" lon="1.08293">
        <ele>11</ele>
        <time>2021-04-03T15:26:45Z</time>
      </trkpt>
      <trkpt lat="49.33496" lon="1.08339">
        <ele>10.6</ele>
        <time>2021-04-03T15:26:50Z</time>
      </trkpt>
      <trkpt lat="49.335" lon="1.08366">
        <ele>10.6</ele>
        <time>2021-04-03T15:26:53Z</time>
      </trkpt>
      <trkpt lat="49.3351" lon="1.08429">
        <ele>10.4</ele>
        <time>2021-04-03T15:27:00Z</time>
      </trkpt>
      <trkpt lat="49.33513" lon="1.08438">
        <ele>10.4</ele>
        <time>2021-04-03T15:27:01Z</time>
      </trkpt>
      <trkpt lat="49.33522" lon="1.0848">
        <ele>10.4</ele>
        <time>2021-04-03T15:27:06Z</time>
      </trkpt>
      <trkpt lat="49.33523" lon="1.08489">
        <ele>10.4</ele>
        <time>2021-04-03T15:27:07Z</time>
      </trkpt>
      <trkpt lat="49.33535" lon="1.08558">
        <ele>10.4</ele>
        <time>2021-04-03T15:27:15Z</time>
      </trkpt>
      <trkpt lat="49.33552" lon="1.08624">
        <ele>10.4</ele>
        <time>2021-04-03T15:27:23Z</time>
      </trkpt>
      <trkpt lat="49.3357" lon="1.08679">
        <ele>10</ele>
        <time>2021-04-03T15:27:30Z</time>
      </trkpt>
      <trkpt lat="49.33577" lon="1.08702">
        <ele>10</ele>
        <time>2021-04-03T15:27:33Z</time>
      </trkpt>
      <trkpt lat="49.33584" lon="1.08713">
        <ele>9.8</ele>
        <time>2021-04-03T15:27:35Z</time>
      </trkpt>
      <trkpt lat="49.336" lon="1.08721">
        <ele>9.8</ele>
        <time>2021-04-03T15:27:39Z</time>
      </trkpt>
      <trkpt lat="49.33609" lon="1.08717">
        <ele>9.6</ele>
        <time>2021-04-03T15:27:41Z</time>
      </trkpt>
      <trkpt lat="49.33624" lon="1.08707">
        <ele>9.6</ele>
        <time>2021-04-03T15:27:45Z</time>
      </trkpt>
      <trkpt lat="49.33645" lon="1.08692">
        <ele>9.6</ele>
        <time>2021-04-03T15:27:51Z</time>
      </trkpt>
      <trkpt lat="49.3367" lon="1.08674">
        <ele>9.8</ele>
        <time>2021-04-03T15:27:58Z</time>
      </trkpt>
      <trkpt lat="49.33696" lon="1.08657">
        <ele>9.6</ele>
        <time>2021-04-03T15:28:04Z</time>
      </trkpt>
      <trkpt lat="49.33723" lon="1.08641">
        <ele>9.8</ele>
        <time>2021-04-03T15:28:11Z</time>
      </trkpt>
      <trkpt lat="49.33742" lon="1.08626">
        <ele>10</ele>
        <time>2021-04-03T15:28:17Z</time>
      </trkpt>
      <trkpt lat="49.33756" lon="1.08616">
        <ele>11</ele>
        <time>2021-04-03T15:28:22Z</time>
      </trkpt>
      <trkpt lat="49.33763" lon="1.08613">
        <ele>12.2</ele>
        <time>2021-04-03T15:28:24Z</time>
      </trkpt>
      <trkpt lat="49.33766" lon="1.08611">
        <ele>12.4</ele>
        <time>2021-04-03T15:28:25Z</time>
      </trkpt>
      <trkpt lat="49.33776" lon="1.08606">
        <ele>13.2</ele>
        <time>2021-04-03T15:28:28Z</time>
      </trkpt>
      <trkpt lat="49.33784" lon="1.08602">
        <ele>14.6</ele>
        <time>2021-04-03T15:28:31Z</time>
      </trkpt>
      <trkpt lat="49.3379" lon="1.086">
        <ele>15.2</ele>
        <time>2021-04-03T15:28:33Z</time>
      </trkpt>
      <trkpt lat="49.33795" lon="1.08598">
        <ele>15.6</ele>
        <time>2021-04-03T15:28:35Z</time>
      </trkpt>
      <trkpt lat="49.33803" lon="1.08596">
        <ele>17</ele>
        <time>2021-04-03T15:28:38Z</time>
      </trkpt>
      <trkpt lat="49.33806" lon="1.08594">
        <ele>18.6</ele>
        <time>2021-04-03T15:28:40Z</time>
      </trkpt>
      <trkpt lat="49.33809" lon="1.08595">
        <ele>20.2</ele>
        <time>2021-04-03T15:28:44Z</time>
      </trkpt>
      <trkpt lat="49.33809" lon="1.08597">
        <ele>20.8</ele>
        <time>2021-04-03T15:28:45Z</time>
      </trkpt>
      <trkpt lat="49.33809" lon="1.08599">
        <ele>21.4</ele>
        <time>2021-04-03T15:28:46Z</time>
      </trkpt>
      <trkpt lat="49.33809" lon="1.08608">
        <ele>22</ele>
        <time>2021-04-03T15:28:48Z</time>
      </trkpt>
      <trkpt lat="49.33809" lon="1.0862">
        <ele>22.4</ele>
        <time>2021-04-03T15:28:50Z</time>
      </trkpt>
      <trkpt lat="49.3381" lon="1.08634">
        <ele>22.4</ele>
        <time>2021-04-03T15:28:52Z</time>
      </trkpt>
      <trkpt lat="49.33811" lon="1.08642">
        <ele>22.6</ele>
        <time>2021-04-03T15:28:53Z</time>
      </trkpt>
      <trkpt lat="49.33814" lon="1.08656">
        <ele>22.6</ele>
        <time>2021-04-03T15:28:55Z</time>
      </trkpt>
      <trkpt lat="49.33827" lon="1.08696">
        <ele>21.4</ele>
        <time>2021-04-03T15:29:00Z</time>
      </trkpt>
      <trkpt lat="49.33829" lon="1.08704">
        <ele>20.8</ele>
        <time>2021-04-03T15:29:01Z</time>
      </trkpt>
      <trkpt lat="49.3383" lon="1.08713">
        <ele>20.4</ele>
        <time>2021-04-03T15:29:02Z</time>
      </trkpt>
      <trkpt lat="49.3384" lon="1.08764">
        <ele>19.6</ele>
        <time>2021-04-03T15:29:09Z</time>
      </trkpt>
      <trkpt lat="49.33841" lon="1.08771">
        <ele>19.4</ele>
        <time>2021-04-03T15:29:11Z</time>
      </trkpt>
      <trkpt lat="49.33841" lon="1.08773">
        <ele>19.4</ele>
        <time>2021-04-03T15:29:12Z</time>
      </trkpt>
      <trkpt lat="49.33845" lon="1.08786">
        <ele>19.4</ele>
        <time>2021-04-03T15:29:16Z</time>
      </trkpt>
      <trkpt lat="49.33851" lon="1.08815">
        <ele>19.4</ele>
        <time>2021-04-03T15:29:21Z</time>
      </trkpt>
      <trkpt lat="49.33862" lon="1.0886">
        <ele>19</ele>
        <time>2021-04-03T15:29:27Z</time>
      </trkpt>
      <trkpt lat="49.33871" lon="1.08904">
        <ele>18.6</ele>
        <time>2021-04-03T15:29:33Z</time>
      </trkpt>
      <trkpt lat="49.33872" lon="1.08911">
        <ele>18.4</ele>
        <time>2021-04-03T15:29:34Z</time>
      </trkpt>
      <trkpt lat="49.33878" lon="1.08943">
        <ele>17</ele>
        <time>2021-04-03T15:29:38Z</time>
      </trkpt>
      <trkpt lat="49.33882" lon="1.08959">
        <ele>16.6</ele>
        <time>2021-04-03T15:29:40Z</time>
      </trkpt>
      <trkpt lat="49.33888" lon="1.08989">
        <ele>16.4</ele>
        <time>2021-04-03T15:29:45Z</time>
      </trkpt>
      <trkpt lat="49.33889" lon="1.08997">
        <ele>16.4</ele>
        <time>2021-04-03T15:29:49Z</time>
      </trkpt>
    </trkseg>
  </trk>
</gpx>